<?xml version="1.0" encoding="UTF-8" standalone="no" ?>
<gpx xmlns="http://www.topografix.com/GPX/1/1" xmlns:xsi="http://www.w3.org/2001/XMLSchema-instance" xsi:schemaLocation="http://www.topografix.com/GPX/1/1 http://www.topografix.com/GPX/1/1/gpx.xsd" version="1.1" creator="VisuGPX - https://www.visugpx.com">
  <metadata>
    <name>Les vallons de Ceyreste</name>
  </metadata>
  <trk>
    <name><![CDATA[1ère sortie avec nouveau VTT...un régal]]></name>
    <trkseg>
      <trkpt lat="43.23579" lon="5.59186">
        <ele>365.2</ele>
        <time>2017-04-09T07:10:43Z</time>
      </trkpt>
      <trkpt lat="43.23582" lon="5.59196">
        <ele>366.2</ele>
        <time>2017-04-09T07:10:49Z</time>
      </trkpt>
      <trkpt lat="43.23583" lon="5.59198">
        <ele>365.2</ele>
        <time>2017-04-09T07:10:50Z</time>
      </trkpt>
      <trkpt lat="43.23583" lon="5.59199">
        <ele>365</ele>
        <time>2017-04-09T07:10:51Z</time>
      </trkpt>
      <trkpt lat="43.23585" lon="5.59208">
        <ele>366.2</ele>
        <time>2017-04-09T07:10:56Z</time>
      </trkpt>
      <trkpt lat="43.23588" lon="5.59216">
        <ele>366.6</ele>
        <time>2017-04-09T07:11:01Z</time>
      </trkpt>
      <trkpt lat="43.2359" lon="5.59221">
        <ele>367.2</ele>
        <time>2017-04-09T07:11:04Z</time>
      </trkpt>
      <trkpt lat="43.23591" lon="5.59225">
        <ele>368.2</ele>
        <time>2017-04-09T07:11:07Z</time>
      </trkpt>
      <trkpt lat="43.23592" lon="5.59229">
        <ele>368</ele>
        <time>2017-04-09T07:11:08Z</time>
      </trkpt>
      <trkpt lat="43.23598" lon="5.59239">
        <ele>369.4</ele>
        <time>2017-04-09T07:11:16Z</time>
      </trkpt>
      <trkpt lat="43.23601" lon="5.59248">
        <ele>370.8</ele>
        <time>2017-04-09T07:11:21Z</time>
      </trkpt>
      <trkpt lat="43.23605" lon="5.59254">
        <ele>371.4</ele>
        <time>2017-04-09T07:11:25Z</time>
      </trkpt>
      <trkpt lat="43.23606" lon="5.59257">
        <ele>371.8</ele>
        <time>2017-04-09T07:11:27Z</time>
      </trkpt>
      <trkpt lat="43.2361" lon="5.59263">
        <ele>372.8</ele>
        <time>2017-04-09T07:11:31Z</time>
      </trkpt>
      <trkpt lat="43.23611" lon="5.59265">
        <ele>373</ele>
        <time>2017-04-09T07:11:32Z</time>
      </trkpt>
      <trkpt lat="43.23618" lon="5.59272">
        <ele>374.4</ele>
        <time>2017-04-09T07:11:38Z</time>
      </trkpt>
      <trkpt lat="43.23622" lon="5.59281">
        <ele>375.4</ele>
        <time>2017-04-09T07:11:43Z</time>
      </trkpt>
      <trkpt lat="43.23623" lon="5.59284">
        <ele>376</ele>
        <time>2017-04-09T07:11:45Z</time>
      </trkpt>
      <trkpt lat="43.23624" lon="5.59287">
        <ele>376.4</ele>
        <time>2017-04-09T07:11:47Z</time>
      </trkpt>
      <trkpt lat="43.23626" lon="5.59293">
        <ele>376.8</ele>
        <time>2017-04-09T07:11:51Z</time>
      </trkpt>
      <trkpt lat="43.23627" lon="5.59295">
        <ele>376.8</ele>
        <time>2017-04-09T07:11:52Z</time>
      </trkpt>
      <trkpt lat="43.23627" lon="5.59297">
        <ele>377.6</ele>
        <time>2017-04-09T07:11:53Z</time>
      </trkpt>
      <trkpt lat="43.23629" lon="5.59303">
        <ele>378</ele>
        <time>2017-04-09T07:11:57Z</time>
      </trkpt>
      <trkpt lat="43.23631" lon="5.59308">
        <ele>378.4</ele>
        <time>2017-04-09T07:12:00Z</time>
      </trkpt>
      <trkpt lat="43.23631" lon="5.5931">
        <ele>379.2</ele>
        <time>2017-04-09T07:12:01Z</time>
      </trkpt>
      <trkpt lat="43.23634" lon="5.59317">
        <ele>379.8</ele>
        <time>2017-04-09T07:12:05Z</time>
      </trkpt>
      <trkpt lat="43.23635" lon="5.59325">
        <ele>380.2</ele>
        <time>2017-04-09T07:12:09Z</time>
      </trkpt>
      <trkpt lat="43.23637" lon="5.59334">
        <ele>381</ele>
        <time>2017-04-09T07:12:14Z</time>
      </trkpt>
      <trkpt lat="43.23637" lon="5.59337">
        <ele>381.2</ele>
        <time>2017-04-09T07:12:15Z</time>
      </trkpt>
      <trkpt lat="43.23639" lon="5.59353">
        <ele>382.2</ele>
        <time>2017-04-09T07:12:23Z</time>
      </trkpt>
      <trkpt lat="43.2364" lon="5.59357">
        <ele>382.6</ele>
        <time>2017-04-09T07:12:25Z</time>
      </trkpt>
      <trkpt lat="43.2364" lon="5.59363">
        <ele>383.2</ele>
        <time>2017-04-09T07:12:28Z</time>
      </trkpt>
      <trkpt lat="43.23639" lon="5.59371">
        <ele>383.6</ele>
        <time>2017-04-09T07:12:32Z</time>
      </trkpt>
      <trkpt lat="43.23638" lon="5.59377">
        <ele>384.4</ele>
        <time>2017-04-09T07:12:35Z</time>
      </trkpt>
      <trkpt lat="43.23635" lon="5.59386">
        <ele>385.4</ele>
        <time>2017-04-09T07:12:40Z</time>
      </trkpt>
      <trkpt lat="43.2363" lon="5.594">
        <ele>385.4</ele>
        <time>2017-04-09T07:12:46Z</time>
      </trkpt>
      <trkpt lat="43.23628" lon="5.59406">
        <ele>385.6</ele>
        <time>2017-04-09T07:12:49Z</time>
      </trkpt>
      <trkpt lat="43.23626" lon="5.59412">
        <ele>385.8</ele>
        <time>2017-04-09T07:12:52Z</time>
      </trkpt>
      <trkpt lat="43.23621" lon="5.59423">
        <ele>386.8</ele>
        <time>2017-04-09T07:12:57Z</time>
      </trkpt>
      <trkpt lat="43.23615" lon="5.59443">
        <ele>387.2</ele>
        <time>2017-04-09T07:13:04Z</time>
      </trkpt>
      <trkpt lat="43.23607" lon="5.59465">
        <ele>387.2</ele>
        <time>2017-04-09T07:13:10Z</time>
      </trkpt>
      <trkpt lat="43.23588" lon="5.59491">
        <ele>386.6</ele>
        <time>2017-04-09T07:13:17Z</time>
      </trkpt>
      <trkpt lat="43.23584" lon="5.59497">
        <ele>386.2</ele>
        <time>2017-04-09T07:13:18Z</time>
      </trkpt>
      <trkpt lat="43.23582" lon="5.59504">
        <ele>385.6</ele>
        <time>2017-04-09T07:13:19Z</time>
      </trkpt>
      <trkpt lat="43.23576" lon="5.59518">
        <ele>384.8</ele>
        <time>2017-04-09T07:13:21Z</time>
      </trkpt>
      <trkpt lat="43.23574" lon="5.59526">
        <ele>384.4</ele>
        <time>2017-04-09T07:13:22Z</time>
      </trkpt>
      <trkpt lat="43.23571" lon="5.59543">
        <ele>383.4</ele>
        <time>2017-04-09T07:13:24Z</time>
      </trkpt>
      <trkpt lat="43.2357" lon="5.59553">
        <ele>382.8</ele>
        <time>2017-04-09T07:13:25Z</time>
      </trkpt>
      <trkpt lat="43.23568" lon="5.59564">
        <ele>381.2</ele>
        <time>2017-04-09T07:13:26Z</time>
      </trkpt>
      <trkpt lat="43.23567" lon="5.59575">
        <ele>380</ele>
        <time>2017-04-09T07:13:27Z</time>
      </trkpt>
      <trkpt lat="43.23566" lon="5.59585">
        <ele>378.6</ele>
        <time>2017-04-09T07:13:28Z</time>
      </trkpt>
      <trkpt lat="43.23563" lon="5.59598">
        <ele>378</ele>
        <time>2017-04-09T07:13:30Z</time>
      </trkpt>
      <trkpt lat="43.23556" lon="5.59611">
        <ele>377.2</ele>
        <time>2017-04-09T07:13:32Z</time>
      </trkpt>
      <trkpt lat="43.23551" lon="5.59616">
        <ele>376.2</ele>
        <time>2017-04-09T07:13:33Z</time>
      </trkpt>
      <trkpt lat="43.2354" lon="5.59626">
        <ele>374.4</ele>
        <time>2017-04-09T07:13:35Z</time>
      </trkpt>
      <trkpt lat="43.23536" lon="5.59631">
        <ele>373</ele>
        <time>2017-04-09T07:13:36Z</time>
      </trkpt>
      <trkpt lat="43.23532" lon="5.59636">
        <ele>372.4</ele>
        <time>2017-04-09T07:13:37Z</time>
      </trkpt>
      <trkpt lat="43.2353" lon="5.59643">
        <ele>371.6</ele>
        <time>2017-04-09T07:13:38Z</time>
      </trkpt>
      <trkpt lat="43.2352" lon="5.59654">
        <ele>370.2</ele>
        <time>2017-04-09T07:13:40Z</time>
      </trkpt>
      <trkpt lat="43.23514" lon="5.59659">
        <ele>369.4</ele>
        <time>2017-04-09T07:13:41Z</time>
      </trkpt>
      <trkpt lat="43.23509" lon="5.59665">
        <ele>368.4</ele>
        <time>2017-04-09T07:13:42Z</time>
      </trkpt>
      <trkpt lat="43.23504" lon="5.59671">
        <ele>367.2</ele>
        <time>2017-04-09T07:13:43Z</time>
      </trkpt>
      <trkpt lat="43.23487" lon="5.59688">
        <ele>366.2</ele>
        <time>2017-04-09T07:13:46Z</time>
      </trkpt>
      <trkpt lat="43.23482" lon="5.59692">
        <ele>366.2</ele>
        <time>2017-04-09T07:13:47Z</time>
      </trkpt>
      <trkpt lat="43.23477" lon="5.59697">
        <ele>366</ele>
        <time>2017-04-09T07:13:48Z</time>
      </trkpt>
      <trkpt lat="43.23466" lon="5.59705">
        <ele>366.2</ele>
        <time>2017-04-09T07:13:50Z</time>
      </trkpt>
      <trkpt lat="43.23456" lon="5.59712">
        <ele>366.2</ele>
        <time>2017-04-09T07:13:52Z</time>
      </trkpt>
      <trkpt lat="43.23448" lon="5.59721">
        <ele>366</ele>
        <time>2017-04-09T07:13:54Z</time>
      </trkpt>
      <trkpt lat="43.23442" lon="5.5974">
        <ele>364.8</ele>
        <time>2017-04-09T07:13:57Z</time>
      </trkpt>
      <trkpt lat="43.23441" lon="5.59742">
        <ele>365</ele>
        <time>2017-04-09T07:13:58Z</time>
      </trkpt>
      <trkpt lat="43.23441" lon="5.59744">
        <ele>365.8</ele>
        <time>2017-04-09T07:14:00Z</time>
      </trkpt>
      <trkpt lat="43.23435" lon="5.59752">
        <ele>365.8</ele>
        <time>2017-04-09T07:15:29Z</time>
      </trkpt>
      <trkpt lat="43.23434" lon="5.59754">
        <ele>365.8</ele>
        <time>2017-04-09T07:15:30Z</time>
      </trkpt>
      <trkpt lat="43.23428" lon="5.59757">
        <ele>365.8</ele>
        <time>2017-04-09T07:15:33Z</time>
      </trkpt>
      <trkpt lat="43.23417" lon="5.59761">
        <ele>365.2</ele>
        <time>2017-04-09T07:15:37Z</time>
      </trkpt>
      <trkpt lat="43.23411" lon="5.59763">
        <ele>364.2</ele>
        <time>2017-04-09T07:15:39Z</time>
      </trkpt>
      <trkpt lat="43.23403" lon="5.59767">
        <ele>363.2</ele>
        <time>2017-04-09T07:15:41Z</time>
      </trkpt>
      <trkpt lat="43.234" lon="5.59769">
        <ele>362.8</ele>
        <time>2017-04-09T07:15:42Z</time>
      </trkpt>
      <trkpt lat="43.23398" lon="5.5977">
        <ele>362.4</ele>
        <time>2017-04-09T07:15:45Z</time>
      </trkpt>
      <trkpt lat="43.23401" lon="5.59768">
        <ele>362.6</ele>
        <time>2017-04-09T07:15:51Z</time>
      </trkpt>
      <trkpt lat="43.23404" lon="5.59765">
        <ele>363</ele>
        <time>2017-04-09T07:15:54Z</time>
      </trkpt>
      <trkpt lat="43.23415" lon="5.59761">
        <ele>364.6</ele>
        <time>2017-04-09T07:16:10Z</time>
      </trkpt>
      <trkpt lat="43.23426" lon="5.59756">
        <ele>365.2</ele>
        <time>2017-04-09T07:16:17Z</time>
      </trkpt>
      <trkpt lat="43.23433" lon="5.5975">
        <ele>365.4</ele>
        <time>2017-04-09T07:16:22Z</time>
      </trkpt>
      <trkpt lat="43.23434" lon="5.59749">
        <ele>365.4</ele>
        <time>2017-04-09T07:16:23Z</time>
      </trkpt>
      <trkpt lat="43.23435" lon="5.59751">
        <ele>365.8</ele>
        <time>2017-04-09T07:16:24Z</time>
      </trkpt>
      <trkpt lat="43.23435" lon="5.59752">
        <ele>365.8</ele>
        <time>2017-04-09T07:16:25Z</time>
      </trkpt>
      <trkpt lat="43.23437" lon="5.59756">
        <ele>365.8</ele>
        <time>2017-04-09T07:17:26Z</time>
      </trkpt>
      <trkpt lat="43.23438" lon="5.5976">
        <ele>365.8</ele>
        <time>2017-04-09T07:17:27Z</time>
      </trkpt>
      <trkpt lat="43.23437" lon="5.59764">
        <ele>365.2</ele>
        <time>2017-04-09T07:17:28Z</time>
      </trkpt>
      <trkpt lat="43.23436" lon="5.59767">
        <ele>364.4</ele>
        <time>2017-04-09T07:17:29Z</time>
      </trkpt>
      <trkpt lat="43.23433" lon="5.59775">
        <ele>363.4</ele>
        <time>2017-04-09T07:17:31Z</time>
      </trkpt>
      <trkpt lat="43.23428" lon="5.59781">
        <ele>361</ele>
        <time>2017-04-09T07:17:33Z</time>
      </trkpt>
      <trkpt lat="43.23425" lon="5.59787">
        <ele>359.8</ele>
        <time>2017-04-09T07:17:35Z</time>
      </trkpt>
      <trkpt lat="43.23422" lon="5.59792">
        <ele>358.6</ele>
        <time>2017-04-09T07:17:37Z</time>
      </trkpt>
      <trkpt lat="43.23417" lon="5.59797">
        <ele>357.4</ele>
        <time>2017-04-09T07:17:39Z</time>
      </trkpt>
      <trkpt lat="43.23411" lon="5.59803">
        <ele>355.8</ele>
        <time>2017-04-09T07:17:42Z</time>
      </trkpt>
      <trkpt lat="43.23409" lon="5.59806">
        <ele>354.6</ele>
        <time>2017-04-09T07:17:44Z</time>
      </trkpt>
      <trkpt lat="43.23404" lon="5.5981">
        <ele>353.6</ele>
        <time>2017-04-09T07:17:46Z</time>
      </trkpt>
      <trkpt lat="43.23402" lon="5.59812">
        <ele>353.2</ele>
        <time>2017-04-09T07:17:47Z</time>
      </trkpt>
      <trkpt lat="43.23396" lon="5.59817">
        <ele>351.8</ele>
        <time>2017-04-09T07:17:49Z</time>
      </trkpt>
      <trkpt lat="43.23392" lon="5.59818">
        <ele>350.4</ele>
        <time>2017-04-09T07:17:51Z</time>
      </trkpt>
      <trkpt lat="43.23394" lon="5.59827">
        <ele>349</ele>
        <time>2017-04-09T07:17:58Z</time>
      </trkpt>
      <trkpt lat="43.23401" lon="5.5983">
        <ele>347.8</ele>
        <time>2017-04-09T07:18:00Z</time>
      </trkpt>
      <trkpt lat="43.23406" lon="5.59831">
        <ele>346.8</ele>
        <time>2017-04-09T07:18:01Z</time>
      </trkpt>
      <trkpt lat="43.23411" lon="5.59832">
        <ele>345.6</ele>
        <time>2017-04-09T07:18:02Z</time>
      </trkpt>
      <trkpt lat="43.23416" lon="5.59834">
        <ele>344.4</ele>
        <time>2017-04-09T07:18:03Z</time>
      </trkpt>
      <trkpt lat="43.23425" lon="5.59837">
        <ele>343.4</ele>
        <time>2017-04-09T07:18:04Z</time>
      </trkpt>
      <trkpt lat="43.23434" lon="5.59839">
        <ele>342.2</ele>
        <time>2017-04-09T07:18:07Z</time>
      </trkpt>
      <trkpt lat="43.23443" lon="5.59845">
        <ele>341.4</ele>
        <time>2017-04-09T07:18:11Z</time>
      </trkpt>
      <trkpt lat="43.23441" lon="5.59847">
        <ele>341</ele>
        <time>2017-04-09T07:18:13Z</time>
      </trkpt>
      <trkpt lat="43.23439" lon="5.59847">
        <ele>340.8</ele>
        <time>2017-04-09T07:18:14Z</time>
      </trkpt>
      <trkpt lat="43.23435" lon="5.59847">
        <ele>339.8</ele>
        <time>2017-04-09T07:18:16Z</time>
      </trkpt>
      <trkpt lat="43.23429" lon="5.59851">
        <ele>338.4</ele>
        <time>2017-04-09T07:18:18Z</time>
      </trkpt>
      <trkpt lat="43.23427" lon="5.59852">
        <ele>337.4</ele>
        <time>2017-04-09T07:18:19Z</time>
      </trkpt>
      <trkpt lat="43.23424" lon="5.59853">
        <ele>336.6</ele>
        <time>2017-04-09T07:18:20Z</time>
      </trkpt>
      <trkpt lat="43.23419" lon="5.59856">
        <ele>335.6</ele>
        <time>2017-04-09T07:18:21Z</time>
      </trkpt>
      <trkpt lat="43.23415" lon="5.59859">
        <ele>334.8</ele>
        <time>2017-04-09T07:18:22Z</time>
      </trkpt>
      <trkpt lat="43.2341" lon="5.59862">
        <ele>334.2</ele>
        <time>2017-04-09T07:18:23Z</time>
      </trkpt>
      <trkpt lat="43.23405" lon="5.59863">
        <ele>332.8</ele>
        <time>2017-04-09T07:18:24Z</time>
      </trkpt>
      <trkpt lat="43.23401" lon="5.59864">
        <ele>331.8</ele>
        <time>2017-04-09T07:18:25Z</time>
      </trkpt>
      <trkpt lat="43.23396" lon="5.59867">
        <ele>331.2</ele>
        <time>2017-04-09T07:18:26Z</time>
      </trkpt>
      <trkpt lat="43.23392" lon="5.59871">
        <ele>331.4</ele>
        <time>2017-04-09T07:18:27Z</time>
      </trkpt>
      <trkpt lat="43.23384" lon="5.59881">
        <ele>329.4</ele>
        <time>2017-04-09T07:18:30Z</time>
      </trkpt>
      <trkpt lat="43.23379" lon="5.59885">
        <ele>328</ele>
        <time>2017-04-09T07:18:32Z</time>
      </trkpt>
      <trkpt lat="43.23377" lon="5.59891">
        <ele>327.4</ele>
        <time>2017-04-09T07:18:34Z</time>
      </trkpt>
      <trkpt lat="43.23376" lon="5.59896">
        <ele>326.8</ele>
        <time>2017-04-09T07:18:35Z</time>
      </trkpt>
      <trkpt lat="43.23371" lon="5.599">
        <ele>325.8</ele>
        <time>2017-04-09T07:18:37Z</time>
      </trkpt>
      <trkpt lat="43.23367" lon="5.59902">
        <ele>325.2</ele>
        <time>2017-04-09T07:18:38Z</time>
      </trkpt>
      <trkpt lat="43.23364" lon="5.59906">
        <ele>324.4</ele>
        <time>2017-04-09T07:18:39Z</time>
      </trkpt>
      <trkpt lat="43.23355" lon="5.59916">
        <ele>322.6</ele>
        <time>2017-04-09T07:18:41Z</time>
      </trkpt>
      <trkpt lat="43.23351" lon="5.59921">
        <ele>321.4</ele>
        <time>2017-04-09T07:18:42Z</time>
      </trkpt>
      <trkpt lat="43.23343" lon="5.59929">
        <ele>320.2</ele>
        <time>2017-04-09T07:18:44Z</time>
      </trkpt>
      <trkpt lat="43.23337" lon="5.59938">
        <ele>319.4</ele>
        <time>2017-04-09T07:18:46Z</time>
      </trkpt>
      <trkpt lat="43.23333" lon="5.59943">
        <ele>319</ele>
        <time>2017-04-09T07:18:47Z</time>
      </trkpt>
      <trkpt lat="43.23328" lon="5.59947">
        <ele>318</ele>
        <time>2017-04-09T07:18:49Z</time>
      </trkpt>
      <trkpt lat="43.23325" lon="5.59947">
        <ele>317.8</ele>
        <time>2017-04-09T07:18:50Z</time>
      </trkpt>
      <trkpt lat="43.23319" lon="5.59959">
        <ele>316.4</ele>
        <time>2017-04-09T07:18:54Z</time>
      </trkpt>
      <trkpt lat="43.23317" lon="5.59963">
        <ele>315.4</ele>
        <time>2017-04-09T07:18:55Z</time>
      </trkpt>
      <trkpt lat="43.23314" lon="5.59967">
        <ele>314.8</ele>
        <time>2017-04-09T07:18:56Z</time>
      </trkpt>
      <trkpt lat="43.2331" lon="5.59971">
        <ele>314.2</ele>
        <time>2017-04-09T07:18:57Z</time>
      </trkpt>
      <trkpt lat="43.23304" lon="5.59979">
        <ele>313.4</ele>
        <time>2017-04-09T07:18:59Z</time>
      </trkpt>
      <trkpt lat="43.233" lon="5.59981">
        <ele>313.2</ele>
        <time>2017-04-09T07:19:00Z</time>
      </trkpt>
      <trkpt lat="43.23296" lon="5.59984">
        <ele>312.2</ele>
        <time>2017-04-09T07:19:01Z</time>
      </trkpt>
      <trkpt lat="43.23289" lon="5.59992">
        <ele>310.8</ele>
        <time>2017-04-09T07:19:03Z</time>
      </trkpt>
      <trkpt lat="43.23285" lon="5.59996">
        <ele>310.2</ele>
        <time>2017-04-09T07:19:04Z</time>
      </trkpt>
      <trkpt lat="43.2328" lon="5.6">
        <ele>309.6</ele>
        <time>2017-04-09T07:19:05Z</time>
      </trkpt>
      <trkpt lat="43.23275" lon="5.60002">
        <ele>308.6</ele>
        <time>2017-04-09T07:19:06Z</time>
      </trkpt>
      <trkpt lat="43.23271" lon="5.60005">
        <ele>308</ele>
        <time>2017-04-09T07:19:07Z</time>
      </trkpt>
      <trkpt lat="43.23264" lon="5.60008">
        <ele>306.6</ele>
        <time>2017-04-09T07:19:09Z</time>
      </trkpt>
      <trkpt lat="43.23262" lon="5.60011">
        <ele>306.2</ele>
        <time>2017-04-09T07:19:10Z</time>
      </trkpt>
      <trkpt lat="43.23251" lon="5.60015">
        <ele>305.2</ele>
        <time>2017-04-09T07:19:13Z</time>
      </trkpt>
      <trkpt lat="43.23247" lon="5.60014">
        <ele>304.4</ele>
        <time>2017-04-09T07:19:14Z</time>
      </trkpt>
      <trkpt lat="43.23242" lon="5.60014">
        <ele>303.8</ele>
        <time>2017-04-09T07:19:15Z</time>
      </trkpt>
      <trkpt lat="43.23237" lon="5.60014">
        <ele>302.6</ele>
        <time>2017-04-09T07:19:16Z</time>
      </trkpt>
      <trkpt lat="43.23227" lon="5.60013">
        <ele>301.6</ele>
        <time>2017-04-09T07:19:18Z</time>
      </trkpt>
      <trkpt lat="43.23222" lon="5.6001">
        <ele>301.2</ele>
        <time>2017-04-09T07:19:19Z</time>
      </trkpt>
      <trkpt lat="43.23217" lon="5.60008">
        <ele>300.8</ele>
        <time>2017-04-09T07:19:20Z</time>
      </trkpt>
      <trkpt lat="43.23213" lon="5.60007">
        <ele>300.2</ele>
        <time>2017-04-09T07:19:21Z</time>
      </trkpt>
      <trkpt lat="43.23208" lon="5.60008">
        <ele>300</ele>
        <time>2017-04-09T07:19:22Z</time>
      </trkpt>
      <trkpt lat="43.23198" lon="5.60006">
        <ele>299.4</ele>
        <time>2017-04-09T07:19:24Z</time>
      </trkpt>
      <trkpt lat="43.23192" lon="5.60004">
        <ele>298.8</ele>
        <time>2017-04-09T07:19:25Z</time>
      </trkpt>
      <trkpt lat="43.23186" lon="5.60004">
        <ele>298</ele>
        <time>2017-04-09T07:19:26Z</time>
      </trkpt>
      <trkpt lat="43.23179" lon="5.60004">
        <ele>297.6</ele>
        <time>2017-04-09T07:19:27Z</time>
      </trkpt>
      <trkpt lat="43.23173" lon="5.60004">
        <ele>297</ele>
        <time>2017-04-09T07:19:28Z</time>
      </trkpt>
      <trkpt lat="43.23166" lon="5.60004">
        <ele>296.2</ele>
        <time>2017-04-09T07:19:29Z</time>
      </trkpt>
      <trkpt lat="43.23144" lon="5.60005">
        <ele>295.8</ele>
        <time>2017-04-09T07:19:33Z</time>
      </trkpt>
      <trkpt lat="43.23129" lon="5.60008">
        <ele>294.8</ele>
        <time>2017-04-09T07:19:36Z</time>
      </trkpt>
      <trkpt lat="43.23124" lon="5.60009">
        <ele>294</ele>
        <time>2017-04-09T07:19:37Z</time>
      </trkpt>
      <trkpt lat="43.23119" lon="5.60008">
        <ele>293.4</ele>
        <time>2017-04-09T07:19:38Z</time>
      </trkpt>
      <trkpt lat="43.23108" lon="5.6001">
        <ele>291.8</ele>
        <time>2017-04-09T07:19:40Z</time>
      </trkpt>
      <trkpt lat="43.23102" lon="5.60012">
        <ele>290.6</ele>
        <time>2017-04-09T07:19:41Z</time>
      </trkpt>
      <trkpt lat="43.23095" lon="5.60013">
        <ele>290.4</ele>
        <time>2017-04-09T07:19:42Z</time>
      </trkpt>
      <trkpt lat="43.23068" lon="5.60017">
        <ele>289.8</ele>
        <time>2017-04-09T07:19:47Z</time>
      </trkpt>
      <trkpt lat="43.23065" lon="5.60017">
        <ele>289.2</ele>
        <time>2017-04-09T07:19:48Z</time>
      </trkpt>
      <trkpt lat="43.23056" lon="5.60018">
        <ele>288.4</ele>
        <time>2017-04-09T07:19:50Z</time>
      </trkpt>
      <trkpt lat="43.23051" lon="5.60017">
        <ele>287.8</ele>
        <time>2017-04-09T07:19:51Z</time>
      </trkpt>
      <trkpt lat="43.23044" lon="5.60011">
        <ele>286.4</ele>
        <time>2017-04-09T07:19:53Z</time>
      </trkpt>
      <trkpt lat="43.23041" lon="5.60008">
        <ele>286</ele>
        <time>2017-04-09T07:19:54Z</time>
      </trkpt>
      <trkpt lat="43.23037" lon="5.59996">
        <ele>285.2</ele>
        <time>2017-04-09T07:19:56Z</time>
      </trkpt>
      <trkpt lat="43.23038" lon="5.5999">
        <ele>285</ele>
        <time>2017-04-09T07:19:57Z</time>
      </trkpt>
      <trkpt lat="43.23034" lon="5.59982">
        <ele>285.8</ele>
        <time>2017-04-09T07:20:00Z</time>
      </trkpt>
      <trkpt lat="43.23021" lon="5.59983">
        <ele>284.4</ele>
        <time>2017-04-09T07:20:03Z</time>
      </trkpt>
      <trkpt lat="43.23017" lon="5.59986">
        <ele>283.4</ele>
        <time>2017-04-09T07:20:04Z</time>
      </trkpt>
      <trkpt lat="43.23005" lon="5.59987">
        <ele>282.2</ele>
        <time>2017-04-09T07:20:06Z</time>
      </trkpt>
      <trkpt lat="43.23002" lon="5.59987">
        <ele>282.4</ele>
        <time>2017-04-09T07:20:07Z</time>
      </trkpt>
      <trkpt lat="43.22989" lon="5.59991">
        <ele>281</ele>
        <time>2017-04-09T07:20:10Z</time>
      </trkpt>
      <trkpt lat="43.22984" lon="5.59994">
        <ele>280.6</ele>
        <time>2017-04-09T07:20:11Z</time>
      </trkpt>
      <trkpt lat="43.22979" lon="5.59997">
        <ele>280</ele>
        <time>2017-04-09T07:20:12Z</time>
      </trkpt>
      <trkpt lat="43.22969" lon="5.60001">
        <ele>278.8</ele>
        <time>2017-04-09T07:20:14Z</time>
      </trkpt>
      <trkpt lat="43.2296" lon="5.60002">
        <ele>278.4</ele>
        <time>2017-04-09T07:20:16Z</time>
      </trkpt>
      <trkpt lat="43.22952" lon="5.60004">
        <ele>277.4</ele>
        <time>2017-04-09T07:20:18Z</time>
      </trkpt>
      <trkpt lat="43.22942" lon="5.60009">
        <ele>276.6</ele>
        <time>2017-04-09T07:20:20Z</time>
      </trkpt>
      <trkpt lat="43.22937" lon="5.60013">
        <ele>275.8</ele>
        <time>2017-04-09T07:20:21Z</time>
      </trkpt>
      <trkpt lat="43.22931" lon="5.60016">
        <ele>275.2</ele>
        <time>2017-04-09T07:20:22Z</time>
      </trkpt>
      <trkpt lat="43.22927" lon="5.60018">
        <ele>274.4</ele>
        <time>2017-04-09T07:20:23Z</time>
      </trkpt>
      <trkpt lat="43.22923" lon="5.60019">
        <ele>274.4</ele>
        <time>2017-04-09T07:20:24Z</time>
      </trkpt>
      <trkpt lat="43.2292" lon="5.60023">
        <ele>274.6</ele>
        <time>2017-04-09T07:20:25Z</time>
      </trkpt>
      <trkpt lat="43.22909" lon="5.6003">
        <ele>273.6</ele>
        <time>2017-04-09T07:20:28Z</time>
      </trkpt>
      <trkpt lat="43.22907" lon="5.60029">
        <ele>273.2</ele>
        <time>2017-04-09T07:20:29Z</time>
      </trkpt>
      <trkpt lat="43.229" lon="5.60031">
        <ele>272.8</ele>
        <time>2017-04-09T07:20:31Z</time>
      </trkpt>
      <trkpt lat="43.22895" lon="5.60033">
        <ele>272.2</ele>
        <time>2017-04-09T07:20:32Z</time>
      </trkpt>
      <trkpt lat="43.22891" lon="5.60036">
        <ele>270.8</ele>
        <time>2017-04-09T07:20:33Z</time>
      </trkpt>
      <trkpt lat="43.22881" lon="5.60043">
        <ele>269.8</ele>
        <time>2017-04-09T07:20:35Z</time>
      </trkpt>
      <trkpt lat="43.22877" lon="5.60047">
        <ele>269</ele>
        <time>2017-04-09T07:20:36Z</time>
      </trkpt>
      <trkpt lat="43.22872" lon="5.60051">
        <ele>268.4</ele>
        <time>2017-04-09T07:20:37Z</time>
      </trkpt>
      <trkpt lat="43.22866" lon="5.60052">
        <ele>268.2</ele>
        <time>2017-04-09T07:20:38Z</time>
      </trkpt>
      <trkpt lat="43.22863" lon="5.60054">
        <ele>268</ele>
        <time>2017-04-09T07:20:39Z</time>
      </trkpt>
      <trkpt lat="43.22854" lon="5.60064">
        <ele>267.4</ele>
        <time>2017-04-09T07:20:42Z</time>
      </trkpt>
      <trkpt lat="43.2285" lon="5.60067">
        <ele>267</ele>
        <time>2017-04-09T07:20:43Z</time>
      </trkpt>
      <trkpt lat="43.22841" lon="5.60073">
        <ele>266</ele>
        <time>2017-04-09T07:20:45Z</time>
      </trkpt>
      <trkpt lat="43.22836" lon="5.60078">
        <ele>265.6</ele>
        <time>2017-04-09T07:20:46Z</time>
      </trkpt>
      <trkpt lat="43.22831" lon="5.60083">
        <ele>264.6</ele>
        <time>2017-04-09T07:20:47Z</time>
      </trkpt>
      <trkpt lat="43.2282" lon="5.60092">
        <ele>263.4</ele>
        <time>2017-04-09T07:20:49Z</time>
      </trkpt>
      <trkpt lat="43.22808" lon="5.60099">
        <ele>262.4</ele>
        <time>2017-04-09T07:20:51Z</time>
      </trkpt>
      <trkpt lat="43.22804" lon="5.60101">
        <ele>262</ele>
        <time>2017-04-09T07:20:52Z</time>
      </trkpt>
      <trkpt lat="43.22799" lon="5.60105">
        <ele>261.8</ele>
        <time>2017-04-09T07:20:53Z</time>
      </trkpt>
      <trkpt lat="43.22786" lon="5.60115">
        <ele>260.8</ele>
        <time>2017-04-09T07:20:56Z</time>
      </trkpt>
      <trkpt lat="43.22773" lon="5.60123">
        <ele>258.8</ele>
        <time>2017-04-09T07:20:59Z</time>
      </trkpt>
      <trkpt lat="43.22769" lon="5.60127">
        <ele>258</ele>
        <time>2017-04-09T07:21:00Z</time>
      </trkpt>
      <trkpt lat="43.22764" lon="5.60131">
        <ele>257.6</ele>
        <time>2017-04-09T07:21:01Z</time>
      </trkpt>
      <trkpt lat="43.22751" lon="5.60142">
        <ele>256.2</ele>
        <time>2017-04-09T07:21:04Z</time>
      </trkpt>
      <trkpt lat="43.22742" lon="5.60149">
        <ele>255.6</ele>
        <time>2017-04-09T07:21:06Z</time>
      </trkpt>
      <trkpt lat="43.22737" lon="5.60154">
        <ele>255</ele>
        <time>2017-04-09T07:21:08Z</time>
      </trkpt>
      <trkpt lat="43.2273" lon="5.60158">
        <ele>253.4</ele>
        <time>2017-04-09T07:21:10Z</time>
      </trkpt>
      <trkpt lat="43.22721" lon="5.60161">
        <ele>251.6</ele>
        <time>2017-04-09T07:21:12Z</time>
      </trkpt>
      <trkpt lat="43.22711" lon="5.60163">
        <ele>249.8</ele>
        <time>2017-04-09T07:21:14Z</time>
      </trkpt>
      <trkpt lat="43.22709" lon="5.60164">
        <ele>249.4</ele>
        <time>2017-04-09T07:21:15Z</time>
      </trkpt>
      <trkpt lat="43.22706" lon="5.60166">
        <ele>248.4</ele>
        <time>2017-04-09T07:21:16Z</time>
      </trkpt>
      <trkpt lat="43.227" lon="5.60171">
        <ele>247.4</ele>
        <time>2017-04-09T07:21:18Z</time>
      </trkpt>
      <trkpt lat="43.22698" lon="5.60173">
        <ele>246.8</ele>
        <time>2017-04-09T07:21:19Z</time>
      </trkpt>
      <trkpt lat="43.22696" lon="5.60175">
        <ele>246.2</ele>
        <time>2017-04-09T07:21:20Z</time>
      </trkpt>
      <trkpt lat="43.22693" lon="5.60177">
        <ele>245.6</ele>
        <time>2017-04-09T07:21:21Z</time>
      </trkpt>
      <trkpt lat="43.22691" lon="5.60177">
        <ele>245</ele>
        <time>2017-04-09T07:21:22Z</time>
      </trkpt>
      <trkpt lat="43.22689" lon="5.60177">
        <ele>244.2</ele>
        <time>2017-04-09T07:21:23Z</time>
      </trkpt>
      <trkpt lat="43.22686" lon="5.60177">
        <ele>243.2</ele>
        <time>2017-04-09T07:21:24Z</time>
      </trkpt>
      <trkpt lat="43.22685" lon="5.60178">
        <ele>242.2</ele>
        <time>2017-04-09T07:21:25Z</time>
      </trkpt>
      <trkpt lat="43.22681" lon="5.60186">
        <ele>240.6</ele>
        <time>2017-04-09T07:21:28Z</time>
      </trkpt>
      <trkpt lat="43.22675" lon="5.60187">
        <ele>239.4</ele>
        <time>2017-04-09T07:21:30Z</time>
      </trkpt>
      <trkpt lat="43.22671" lon="5.60188">
        <ele>238.6</ele>
        <time>2017-04-09T07:21:31Z</time>
      </trkpt>
      <trkpt lat="43.22667" lon="5.60191">
        <ele>237.6</ele>
        <time>2017-04-09T07:21:32Z</time>
      </trkpt>
      <trkpt lat="43.22664" lon="5.60193">
        <ele>236.6</ele>
        <time>2017-04-09T07:21:33Z</time>
      </trkpt>
      <trkpt lat="43.22662" lon="5.60194">
        <ele>235.8</ele>
        <time>2017-04-09T07:21:34Z</time>
      </trkpt>
      <trkpt lat="43.2266" lon="5.60199">
        <ele>235.6</ele>
        <time>2017-04-09T07:21:35Z</time>
      </trkpt>
      <trkpt lat="43.22658" lon="5.60207">
        <ele>234.4</ele>
        <time>2017-04-09T07:21:37Z</time>
      </trkpt>
      <trkpt lat="43.22655" lon="5.60209">
        <ele>233.6</ele>
        <time>2017-04-09T07:21:38Z</time>
      </trkpt>
      <trkpt lat="43.22651" lon="5.60212">
        <ele>233.2</ele>
        <time>2017-04-09T07:21:39Z</time>
      </trkpt>
      <trkpt lat="43.22648" lon="5.60213">
        <ele>232.6</ele>
        <time>2017-04-09T07:21:40Z</time>
      </trkpt>
      <trkpt lat="43.22643" lon="5.60214">
        <ele>231.8</ele>
        <time>2017-04-09T07:21:42Z</time>
      </trkpt>
      <trkpt lat="43.22637" lon="5.60215">
        <ele>230.4</ele>
        <time>2017-04-09T07:21:44Z</time>
      </trkpt>
      <trkpt lat="43.22636" lon="5.60215">
        <ele>230</ele>
        <time>2017-04-09T07:21:45Z</time>
      </trkpt>
      <trkpt lat="43.22632" lon="5.60215">
        <ele>229.4</ele>
        <time>2017-04-09T07:21:46Z</time>
      </trkpt>
      <trkpt lat="43.22629" lon="5.60218">
        <ele>228.8</ele>
        <time>2017-04-09T07:21:47Z</time>
      </trkpt>
      <trkpt lat="43.22626" lon="5.60221">
        <ele>228</ele>
        <time>2017-04-09T07:21:48Z</time>
      </trkpt>
      <trkpt lat="43.22621" lon="5.60224">
        <ele>225.8</ele>
        <time>2017-04-09T07:21:50Z</time>
      </trkpt>
      <trkpt lat="43.22617" lon="5.6023">
        <ele>224.4</ele>
        <time>2017-04-09T07:21:52Z</time>
      </trkpt>
      <trkpt lat="43.22607" lon="5.60236">
        <ele>222.8</ele>
        <time>2017-04-09T07:21:55Z</time>
      </trkpt>
      <trkpt lat="43.22603" lon="5.60239">
        <ele>221.6</ele>
        <time>2017-04-09T07:21:56Z</time>
      </trkpt>
      <trkpt lat="43.22598" lon="5.60244">
        <ele>220.4</ele>
        <time>2017-04-09T07:21:57Z</time>
      </trkpt>
      <trkpt lat="43.22588" lon="5.60252">
        <ele>218.8</ele>
        <time>2017-04-09T07:21:59Z</time>
      </trkpt>
      <trkpt lat="43.22577" lon="5.60255">
        <ele>217.6</ele>
        <time>2017-04-09T07:22:01Z</time>
      </trkpt>
      <trkpt lat="43.22569" lon="5.60258">
        <ele>217.4</ele>
        <time>2017-04-09T07:22:03Z</time>
      </trkpt>
      <trkpt lat="43.22562" lon="5.60263">
        <ele>216.6</ele>
        <time>2017-04-09T07:22:06Z</time>
      </trkpt>
      <trkpt lat="43.22558" lon="5.60268">
        <ele>215.4</ele>
        <time>2017-04-09T07:22:07Z</time>
      </trkpt>
      <trkpt lat="43.22554" lon="5.60273">
        <ele>214</ele>
        <time>2017-04-09T07:22:08Z</time>
      </trkpt>
      <trkpt lat="43.22548" lon="5.60276">
        <ele>212.6</ele>
        <time>2017-04-09T07:22:09Z</time>
      </trkpt>
      <trkpt lat="43.2254" lon="5.60281">
        <ele>211</ele>
        <time>2017-04-09T07:22:11Z</time>
      </trkpt>
      <trkpt lat="43.22535" lon="5.60283">
        <ele>210.6</ele>
        <time>2017-04-09T07:22:12Z</time>
      </trkpt>
      <trkpt lat="43.2253" lon="5.60282">
        <ele>210</ele>
        <time>2017-04-09T07:22:13Z</time>
      </trkpt>
      <trkpt lat="43.22525" lon="5.60281">
        <ele>209</ele>
        <time>2017-04-09T07:22:14Z</time>
      </trkpt>
      <trkpt lat="43.22521" lon="5.6028">
        <ele>208.2</ele>
        <time>2017-04-09T07:22:15Z</time>
      </trkpt>
      <trkpt lat="43.22519" lon="5.6028">
        <ele>207</ele>
        <time>2017-04-09T07:22:16Z</time>
      </trkpt>
      <trkpt lat="43.22516" lon="5.60279">
        <ele>206.8</ele>
        <time>2017-04-09T07:22:17Z</time>
      </trkpt>
      <trkpt lat="43.22508" lon="5.60278">
        <ele>206</ele>
        <time>2017-04-09T07:22:20Z</time>
      </trkpt>
      <trkpt lat="43.22506" lon="5.60278">
        <ele>205.4</ele>
        <time>2017-04-09T07:22:21Z</time>
      </trkpt>
      <trkpt lat="43.22501" lon="5.60278">
        <ele>204</ele>
        <time>2017-04-09T07:22:23Z</time>
      </trkpt>
      <trkpt lat="43.22497" lon="5.60279">
        <ele>202.2</ele>
        <time>2017-04-09T07:22:25Z</time>
      </trkpt>
      <trkpt lat="43.22492" lon="5.60278">
        <ele>201.2</ele>
        <time>2017-04-09T07:22:27Z</time>
      </trkpt>
      <trkpt lat="43.22486" lon="5.60276">
        <ele>200</ele>
        <time>2017-04-09T07:22:29Z</time>
      </trkpt>
      <trkpt lat="43.22483" lon="5.60277">
        <ele>199</ele>
        <time>2017-04-09T07:22:30Z</time>
      </trkpt>
      <trkpt lat="43.22478" lon="5.60277">
        <ele>198</ele>
        <time>2017-04-09T07:22:31Z</time>
      </trkpt>
      <trkpt lat="43.22473" lon="5.60277">
        <ele>197</ele>
        <time>2017-04-09T07:22:32Z</time>
      </trkpt>
      <trkpt lat="43.22464" lon="5.6028">
        <ele>195.4</ele>
        <time>2017-04-09T07:22:34Z</time>
      </trkpt>
      <trkpt lat="43.22459" lon="5.60281">
        <ele>194.4</ele>
        <time>2017-04-09T07:22:36Z</time>
      </trkpt>
      <trkpt lat="43.22451" lon="5.60278">
        <ele>193</ele>
        <time>2017-04-09T07:22:38Z</time>
      </trkpt>
      <trkpt lat="43.22444" lon="5.60279">
        <ele>192</ele>
        <time>2017-04-09T07:22:40Z</time>
      </trkpt>
      <trkpt lat="43.22441" lon="5.6028">
        <ele>190.8</ele>
        <time>2017-04-09T07:22:41Z</time>
      </trkpt>
      <trkpt lat="43.22433" lon="5.60286">
        <ele>189</ele>
        <time>2017-04-09T07:22:43Z</time>
      </trkpt>
      <trkpt lat="43.22429" lon="5.60287">
        <ele>188.6</ele>
        <time>2017-04-09T07:22:44Z</time>
      </trkpt>
      <trkpt lat="43.22426" lon="5.60288">
        <ele>188</ele>
        <time>2017-04-09T07:22:45Z</time>
      </trkpt>
      <trkpt lat="43.22418" lon="5.60286">
        <ele>186.6</ele>
        <time>2017-04-09T07:22:47Z</time>
      </trkpt>
      <trkpt lat="43.22416" lon="5.60282">
        <ele>186</ele>
        <time>2017-04-09T07:22:48Z</time>
      </trkpt>
      <trkpt lat="43.22413" lon="5.60277">
        <ele>185.2</ele>
        <time>2017-04-09T07:22:49Z</time>
      </trkpt>
      <trkpt lat="43.2241" lon="5.60273">
        <ele>184.2</ele>
        <time>2017-04-09T07:22:50Z</time>
      </trkpt>
      <trkpt lat="43.22406" lon="5.60268">
        <ele>183.2</ele>
        <time>2017-04-09T07:22:51Z</time>
      </trkpt>
      <trkpt lat="43.22403" lon="5.60265">
        <ele>182.6</ele>
        <time>2017-04-09T07:22:52Z</time>
      </trkpt>
      <trkpt lat="43.22398" lon="5.60263">
        <ele>181.6</ele>
        <time>2017-04-09T07:22:53Z</time>
      </trkpt>
      <trkpt lat="43.22389" lon="5.60259">
        <ele>179.8</ele>
        <time>2017-04-09T07:22:55Z</time>
      </trkpt>
      <trkpt lat="43.22385" lon="5.60257">
        <ele>179</ele>
        <time>2017-04-09T07:22:56Z</time>
      </trkpt>
      <trkpt lat="43.22381" lon="5.60254">
        <ele>178.6</ele>
        <time>2017-04-09T07:22:57Z</time>
      </trkpt>
      <trkpt lat="43.22369" lon="5.60246">
        <ele>177.2</ele>
        <time>2017-04-09T07:23:00Z</time>
      </trkpt>
      <trkpt lat="43.22365" lon="5.60243">
        <ele>176.8</ele>
        <time>2017-04-09T07:23:01Z</time>
      </trkpt>
      <trkpt lat="43.22354" lon="5.60236">
        <ele>176.2</ele>
        <time>2017-04-09T07:23:04Z</time>
      </trkpt>
      <trkpt lat="43.22349" lon="5.60235">
        <ele>175.2</ele>
        <time>2017-04-09T07:23:05Z</time>
      </trkpt>
      <trkpt lat="43.22344" lon="5.60234">
        <ele>174.2</ele>
        <time>2017-04-09T07:23:06Z</time>
      </trkpt>
      <trkpt lat="43.22335" lon="5.60232">
        <ele>172.8</ele>
        <time>2017-04-09T07:23:08Z</time>
      </trkpt>
      <trkpt lat="43.2233" lon="5.60232">
        <ele>172.4</ele>
        <time>2017-04-09T07:23:09Z</time>
      </trkpt>
      <trkpt lat="43.22325" lon="5.60233">
        <ele>172.2</ele>
        <time>2017-04-09T07:23:10Z</time>
      </trkpt>
      <trkpt lat="43.22321" lon="5.60235">
        <ele>171.6</ele>
        <time>2017-04-09T07:23:11Z</time>
      </trkpt>
      <trkpt lat="43.22312" lon="5.60241">
        <ele>170.2</ele>
        <time>2017-04-09T07:23:13Z</time>
      </trkpt>
      <trkpt lat="43.22308" lon="5.60246">
        <ele>169.8</ele>
        <time>2017-04-09T07:23:14Z</time>
      </trkpt>
      <trkpt lat="43.22304" lon="5.6025">
        <ele>169.4</ele>
        <time>2017-04-09T07:23:15Z</time>
      </trkpt>
      <trkpt lat="43.22299" lon="5.60255">
        <ele>169</ele>
        <time>2017-04-09T07:23:16Z</time>
      </trkpt>
      <trkpt lat="43.22292" lon="5.60263">
        <ele>168</ele>
        <time>2017-04-09T07:23:18Z</time>
      </trkpt>
      <trkpt lat="43.22289" lon="5.60266">
        <ele>168.2</ele>
        <time>2017-04-09T07:23:19Z</time>
      </trkpt>
      <trkpt lat="43.22285" lon="5.60265">
        <ele>167.8</ele>
        <time>2017-04-09T07:23:20Z</time>
      </trkpt>
      <trkpt lat="43.22276" lon="5.60264">
        <ele>166.6</ele>
        <time>2017-04-09T07:23:22Z</time>
      </trkpt>
      <trkpt lat="43.22265" lon="5.60259">
        <ele>165.8</ele>
        <time>2017-04-09T07:23:25Z</time>
      </trkpt>
      <trkpt lat="43.22262" lon="5.60256">
        <ele>165.4</ele>
        <time>2017-04-09T07:23:26Z</time>
      </trkpt>
      <trkpt lat="43.22258" lon="5.60252">
        <ele>165</ele>
        <time>2017-04-09T07:23:27Z</time>
      </trkpt>
      <trkpt lat="43.22253" lon="5.60249">
        <ele>164.2</ele>
        <time>2017-04-09T07:23:28Z</time>
      </trkpt>
      <trkpt lat="43.22245" lon="5.60246">
        <ele>163.4</ele>
        <time>2017-04-09T07:23:30Z</time>
      </trkpt>
      <trkpt lat="43.2224" lon="5.60247">
        <ele>163</ele>
        <time>2017-04-09T07:23:31Z</time>
      </trkpt>
      <trkpt lat="43.22232" lon="5.60255">
        <ele>161.8</ele>
        <time>2017-04-09T07:23:33Z</time>
      </trkpt>
      <trkpt lat="43.22224" lon="5.60263">
        <ele>160.6</ele>
        <time>2017-04-09T07:23:35Z</time>
      </trkpt>
      <trkpt lat="43.2222" lon="5.60267">
        <ele>160</ele>
        <time>2017-04-09T07:23:36Z</time>
      </trkpt>
      <trkpt lat="43.22216" lon="5.60271">
        <ele>159.6</ele>
        <time>2017-04-09T07:23:37Z</time>
      </trkpt>
      <trkpt lat="43.22208" lon="5.6028">
        <ele>158.4</ele>
        <time>2017-04-09T07:23:39Z</time>
      </trkpt>
      <trkpt lat="43.222" lon="5.60283">
        <ele>158.2</ele>
        <time>2017-04-09T07:23:41Z</time>
      </trkpt>
      <trkpt lat="43.22191" lon="5.60286">
        <ele>157</ele>
        <time>2017-04-09T07:23:44Z</time>
      </trkpt>
      <trkpt lat="43.22178" lon="5.60288">
        <ele>155.6</ele>
        <time>2017-04-09T07:23:47Z</time>
      </trkpt>
      <trkpt lat="43.22174" lon="5.60288">
        <ele>155</ele>
        <time>2017-04-09T07:23:48Z</time>
      </trkpt>
      <trkpt lat="43.22169" lon="5.60288">
        <ele>154.6</ele>
        <time>2017-04-09T07:23:49Z</time>
      </trkpt>
      <trkpt lat="43.22156" lon="5.60284">
        <ele>153.2</ele>
        <time>2017-04-09T07:23:52Z</time>
      </trkpt>
      <trkpt lat="43.22151" lon="5.60283">
        <ele>152.4</ele>
        <time>2017-04-09T07:23:54Z</time>
      </trkpt>
      <trkpt lat="43.22146" lon="5.60282">
        <ele>152</ele>
        <time>2017-04-09T07:23:55Z</time>
      </trkpt>
      <trkpt lat="43.2213" lon="5.60283">
        <ele>150.2</ele>
        <time>2017-04-09T07:23:58Z</time>
      </trkpt>
      <trkpt lat="43.22124" lon="5.60284">
        <ele>148.2</ele>
        <time>2017-04-09T07:23:59Z</time>
      </trkpt>
      <trkpt lat="43.22118" lon="5.60284">
        <ele>147.4</ele>
        <time>2017-04-09T07:24:00Z</time>
      </trkpt>
      <trkpt lat="43.22111" lon="5.60285">
        <ele>147</ele>
        <time>2017-04-09T07:24:01Z</time>
      </trkpt>
      <trkpt lat="43.221" lon="5.60283">
        <ele>147.2</ele>
        <time>2017-04-09T07:24:03Z</time>
      </trkpt>
      <trkpt lat="43.22094" lon="5.60281">
        <ele>146.8</ele>
        <time>2017-04-09T07:24:04Z</time>
      </trkpt>
      <trkpt lat="43.22085" lon="5.6028">
        <ele>145.2</ele>
        <time>2017-04-09T07:24:06Z</time>
      </trkpt>
      <trkpt lat="43.22081" lon="5.60278">
        <ele>145</ele>
        <time>2017-04-09T07:24:07Z</time>
      </trkpt>
      <trkpt lat="43.22062" lon="5.60274">
        <ele>143.8</ele>
        <time>2017-04-09T07:24:11Z</time>
      </trkpt>
      <trkpt lat="43.22057" lon="5.60273">
        <ele>142.8</ele>
        <time>2017-04-09T07:24:12Z</time>
      </trkpt>
      <trkpt lat="43.22052" lon="5.60273">
        <ele>142.2</ele>
        <time>2017-04-09T07:24:13Z</time>
      </trkpt>
      <trkpt lat="43.22046" lon="5.60271">
        <ele>141.2</ele>
        <time>2017-04-09T07:24:14Z</time>
      </trkpt>
      <trkpt lat="43.2204" lon="5.6027">
        <ele>140.8</ele>
        <time>2017-04-09T07:24:15Z</time>
      </trkpt>
      <trkpt lat="43.22036" lon="5.60268">
        <ele>140.4</ele>
        <time>2017-04-09T07:24:16Z</time>
      </trkpt>
      <trkpt lat="43.22023" lon="5.60266">
        <ele>139</ele>
        <time>2017-04-09T07:24:19Z</time>
      </trkpt>
      <trkpt lat="43.22018" lon="5.60268">
        <ele>138.6</ele>
        <time>2017-04-09T07:24:20Z</time>
      </trkpt>
      <trkpt lat="43.22013" lon="5.60269">
        <ele>138</ele>
        <time>2017-04-09T07:24:21Z</time>
      </trkpt>
      <trkpt lat="43.21999" lon="5.60269">
        <ele>136.8</ele>
        <time>2017-04-09T07:24:24Z</time>
      </trkpt>
      <trkpt lat="43.21995" lon="5.6027">
        <ele>136.6</ele>
        <time>2017-04-09T07:24:25Z</time>
      </trkpt>
      <trkpt lat="43.21979" lon="5.60278">
        <ele>137</ele>
        <time>2017-04-09T07:24:29Z</time>
      </trkpt>
      <trkpt lat="43.21973" lon="5.60283">
        <ele>138</ele>
        <time>2017-04-09T07:24:32Z</time>
      </trkpt>
      <trkpt lat="43.21971" lon="5.60284">
        <ele>137.8</ele>
        <time>2017-04-09T07:24:33Z</time>
      </trkpt>
      <trkpt lat="43.21964" lon="5.60289">
        <ele>136.8</ele>
        <time>2017-04-09T07:24:37Z</time>
      </trkpt>
      <trkpt lat="43.21962" lon="5.60289">
        <ele>136.2</ele>
        <time>2017-04-09T07:24:38Z</time>
      </trkpt>
      <trkpt lat="43.21961" lon="5.60288">
        <ele>135.4</ele>
        <time>2017-04-09T07:24:39Z</time>
      </trkpt>
      <trkpt lat="43.21955" lon="5.60287">
        <ele>133.6</ele>
        <time>2017-04-09T07:24:41Z</time>
      </trkpt>
      <trkpt lat="43.21953" lon="5.60289">
        <ele>133</ele>
        <time>2017-04-09T07:24:42Z</time>
      </trkpt>
      <trkpt lat="43.2195" lon="5.60291">
        <ele>132.4</ele>
        <time>2017-04-09T07:24:43Z</time>
      </trkpt>
      <trkpt lat="43.21947" lon="5.60291">
        <ele>132.4</ele>
        <time>2017-04-09T07:24:44Z</time>
      </trkpt>
      <trkpt lat="43.21941" lon="5.60292">
        <ele>132.2</ele>
        <time>2017-04-09T07:24:47Z</time>
      </trkpt>
      <trkpt lat="43.21931" lon="5.60293">
        <ele>131.2</ele>
        <time>2017-04-09T07:24:50Z</time>
      </trkpt>
      <trkpt lat="43.21926" lon="5.60294">
        <ele>130.6</ele>
        <time>2017-04-09T07:24:51Z</time>
      </trkpt>
      <trkpt lat="43.21915" lon="5.60294">
        <ele>130</ele>
        <time>2017-04-09T07:24:53Z</time>
      </trkpt>
      <trkpt lat="43.219" lon="5.60293">
        <ele>128.8</ele>
        <time>2017-04-09T07:24:56Z</time>
      </trkpt>
      <trkpt lat="43.21889" lon="5.60291">
        <ele>128.6</ele>
        <time>2017-04-09T07:24:58Z</time>
      </trkpt>
      <trkpt lat="43.21882" lon="5.60287">
        <ele>128.6</ele>
        <time>2017-04-09T07:25:00Z</time>
      </trkpt>
      <trkpt lat="43.21866" lon="5.60282">
        <ele>127.8</ele>
        <time>2017-04-09T07:25:04Z</time>
      </trkpt>
      <trkpt lat="43.21858" lon="5.60284">
        <ele>128</ele>
        <time>2017-04-09T07:25:06Z</time>
      </trkpt>
      <trkpt lat="43.21849" lon="5.60285">
        <ele>127</ele>
        <time>2017-04-09T07:25:08Z</time>
      </trkpt>
      <trkpt lat="43.21844" lon="5.60284">
        <ele>126.2</ele>
        <time>2017-04-09T07:25:09Z</time>
      </trkpt>
      <trkpt lat="43.21831" lon="5.60282">
        <ele>124.8</ele>
        <time>2017-04-09T07:25:11Z</time>
      </trkpt>
      <trkpt lat="43.21826" lon="5.60279">
        <ele>124.6</ele>
        <time>2017-04-09T07:25:12Z</time>
      </trkpt>
      <trkpt lat="43.21808" lon="5.60271">
        <ele>124.2</ele>
        <time>2017-04-09T07:25:15Z</time>
      </trkpt>
      <trkpt lat="43.21803" lon="5.60269">
        <ele>123.6</ele>
        <time>2017-04-09T07:25:16Z</time>
      </trkpt>
      <trkpt lat="43.21797" lon="5.60265">
        <ele>123.4</ele>
        <time>2017-04-09T07:25:17Z</time>
      </trkpt>
      <trkpt lat="43.21787" lon="5.60257">
        <ele>123.4</ele>
        <time>2017-04-09T07:25:19Z</time>
      </trkpt>
      <trkpt lat="43.21782" lon="5.60256">
        <ele>123.6</ele>
        <time>2017-04-09T07:25:20Z</time>
      </trkpt>
      <trkpt lat="43.21777" lon="5.60256">
        <ele>123.8</ele>
        <time>2017-04-09T07:25:21Z</time>
      </trkpt>
      <trkpt lat="43.21769" lon="5.60254">
        <ele>124.8</ele>
        <time>2017-04-09T07:25:23Z</time>
      </trkpt>
      <trkpt lat="43.21766" lon="5.60252">
        <ele>125.2</ele>
        <time>2017-04-09T07:25:24Z</time>
      </trkpt>
      <trkpt lat="43.21765" lon="5.60248">
        <ele>125.4</ele>
        <time>2017-04-09T07:25:26Z</time>
      </trkpt>
      <trkpt lat="43.21765" lon="5.60247">
        <ele>125.6</ele>
        <time>2017-04-09T07:25:27Z</time>
      </trkpt>
      <trkpt lat="43.21767" lon="5.60239">
        <ele>125.4</ele>
        <time>2017-04-09T07:25:32Z</time>
      </trkpt>
      <trkpt lat="43.21772" lon="5.60231">
        <ele>125.4</ele>
        <time>2017-04-09T07:25:35Z</time>
      </trkpt>
      <trkpt lat="43.21776" lon="5.60226">
        <ele>125.6</ele>
        <time>2017-04-09T07:25:37Z</time>
      </trkpt>
      <trkpt lat="43.21788" lon="5.60214">
        <ele>126</ele>
        <time>2017-04-09T07:25:42Z</time>
      </trkpt>
      <trkpt lat="43.21798" lon="5.60203">
        <ele>126.4</ele>
        <time>2017-04-09T07:25:46Z</time>
      </trkpt>
      <trkpt lat="43.21811" lon="5.60191">
        <ele>127</ele>
        <time>2017-04-09T07:25:51Z</time>
      </trkpt>
      <trkpt lat="43.21823" lon="5.60175">
        <ele>127.8</ele>
        <time>2017-04-09T07:25:56Z</time>
      </trkpt>
      <trkpt lat="43.21825" lon="5.60172">
        <ele>128.2</ele>
        <time>2017-04-09T07:25:57Z</time>
      </trkpt>
      <trkpt lat="43.21836" lon="5.60155">
        <ele>129</ele>
        <time>2017-04-09T07:26:02Z</time>
      </trkpt>
      <trkpt lat="43.21841" lon="5.60149">
        <ele>129.2</ele>
        <time>2017-04-09T07:26:04Z</time>
      </trkpt>
      <trkpt lat="43.21847" lon="5.60137">
        <ele>129.6</ele>
        <time>2017-04-09T07:26:07Z</time>
      </trkpt>
      <trkpt lat="43.21859" lon="5.60119">
        <ele>130.4</ele>
        <time>2017-04-09T07:26:12Z</time>
      </trkpt>
      <trkpt lat="43.21869" lon="5.60106">
        <ele>131.4</ele>
        <time>2017-04-09T07:26:16Z</time>
      </trkpt>
      <trkpt lat="43.21877" lon="5.60092">
        <ele>131.6</ele>
        <time>2017-04-09T07:26:20Z</time>
      </trkpt>
      <trkpt lat="43.21887" lon="5.60081">
        <ele>132.4</ele>
        <time>2017-04-09T07:26:24Z</time>
      </trkpt>
      <trkpt lat="43.21888" lon="5.60079">
        <ele>132.6</ele>
        <time>2017-04-09T07:26:25Z</time>
      </trkpt>
      <trkpt lat="43.21894" lon="5.60073">
        <ele>133.6</ele>
        <time>2017-04-09T07:26:28Z</time>
      </trkpt>
      <trkpt lat="43.219" lon="5.60063">
        <ele>134.4</ele>
        <time>2017-04-09T07:26:32Z</time>
      </trkpt>
      <trkpt lat="43.21902" lon="5.60062">
        <ele>134.6</ele>
        <time>2017-04-09T07:26:33Z</time>
      </trkpt>
      <trkpt lat="43.21909" lon="5.6005">
        <ele>136</ele>
        <time>2017-04-09T07:26:38Z</time>
      </trkpt>
      <trkpt lat="43.2191" lon="5.60048">
        <ele>136.6</ele>
        <time>2017-04-09T07:26:39Z</time>
      </trkpt>
      <trkpt lat="43.21911" lon="5.60046">
        <ele>136.8</ele>
        <time>2017-04-09T07:26:40Z</time>
      </trkpt>
      <trkpt lat="43.21911" lon="5.60044">
        <ele>137.2</ele>
        <time>2017-04-09T07:26:41Z</time>
      </trkpt>
      <trkpt lat="43.21914" lon="5.60037">
        <ele>137.6</ele>
        <time>2017-04-09T07:26:44Z</time>
      </trkpt>
      <trkpt lat="43.21918" lon="5.60031">
        <ele>138.4</ele>
        <time>2017-04-09T07:26:47Z</time>
      </trkpt>
      <trkpt lat="43.2192" lon="5.60027">
        <ele>139</ele>
        <time>2017-04-09T07:26:50Z</time>
      </trkpt>
      <trkpt lat="43.21924" lon="5.60021">
        <ele>139.6</ele>
        <time>2017-04-09T07:26:53Z</time>
      </trkpt>
      <trkpt lat="43.21926" lon="5.60016">
        <ele>140.4</ele>
        <time>2017-04-09T07:26:55Z</time>
      </trkpt>
      <trkpt lat="43.21927" lon="5.60012">
        <ele>141.2</ele>
        <time>2017-04-09T07:26:57Z</time>
      </trkpt>
      <trkpt lat="43.21933" lon="5.60003">
        <ele>142</ele>
        <time>2017-04-09T07:27:02Z</time>
      </trkpt>
      <trkpt lat="43.21934" lon="5.60001">
        <ele>142.4</ele>
        <time>2017-04-09T07:27:03Z</time>
      </trkpt>
      <trkpt lat="43.21936" lon="5.59997">
        <ele>143</ele>
        <time>2017-04-09T07:27:05Z</time>
      </trkpt>
      <trkpt lat="43.21938" lon="5.59995">
        <ele>143.4</ele>
        <time>2017-04-09T07:27:07Z</time>
      </trkpt>
      <trkpt lat="43.21946" lon="5.59987">
        <ele>144.6</ele>
        <time>2017-04-09T07:27:13Z</time>
      </trkpt>
      <trkpt lat="43.21946" lon="5.59985">
        <ele>145</ele>
        <time>2017-04-09T07:27:14Z</time>
      </trkpt>
      <trkpt lat="43.21947" lon="5.5998">
        <ele>145.2</ele>
        <time>2017-04-09T07:27:16Z</time>
      </trkpt>
      <trkpt lat="43.21948" lon="5.5997">
        <ele>145.6</ele>
        <time>2017-04-09T07:27:20Z</time>
      </trkpt>
      <trkpt lat="43.21945" lon="5.59962">
        <ele>146.8</ele>
        <time>2017-04-09T07:27:24Z</time>
      </trkpt>
      <trkpt lat="43.21938" lon="5.59947">
        <ele>148</ele>
        <time>2017-04-09T07:27:31Z</time>
      </trkpt>
      <trkpt lat="43.21937" lon="5.59945">
        <ele>148</ele>
        <time>2017-04-09T07:27:32Z</time>
      </trkpt>
      <trkpt lat="43.2193" lon="5.59925">
        <ele>148.6</ele>
        <time>2017-04-09T07:27:39Z</time>
      </trkpt>
      <trkpt lat="43.21928" lon="5.5992">
        <ele>149</ele>
        <time>2017-04-09T07:27:41Z</time>
      </trkpt>
      <trkpt lat="43.21921" lon="5.59908">
        <ele>149.4</ele>
        <time>2017-04-09T07:27:45Z</time>
      </trkpt>
      <trkpt lat="43.21913" lon="5.59889">
        <ele>150</ele>
        <time>2017-04-09T07:27:51Z</time>
      </trkpt>
      <trkpt lat="43.21911" lon="5.59884">
        <ele>150.2</ele>
        <time>2017-04-09T07:27:52Z</time>
      </trkpt>
      <trkpt lat="43.21908" lon="5.59872">
        <ele>150.4</ele>
        <time>2017-04-09T07:27:55Z</time>
      </trkpt>
      <trkpt lat="43.21908" lon="5.59868">
        <ele>150.2</ele>
        <time>2017-04-09T07:27:56Z</time>
      </trkpt>
      <trkpt lat="43.2191" lon="5.59856">
        <ele>150.6</ele>
        <time>2017-04-09T07:27:59Z</time>
      </trkpt>
      <trkpt lat="43.21917" lon="5.59837">
        <ele>151.2</ele>
        <time>2017-04-09T07:28:04Z</time>
      </trkpt>
      <trkpt lat="43.2192" lon="5.5983">
        <ele>151.2</ele>
        <time>2017-04-09T07:28:06Z</time>
      </trkpt>
      <trkpt lat="43.21927" lon="5.59821">
        <ele>151.8</ele>
        <time>2017-04-09T07:28:09Z</time>
      </trkpt>
      <trkpt lat="43.21936" lon="5.5981">
        <ele>152</ele>
        <time>2017-04-09T07:28:13Z</time>
      </trkpt>
      <trkpt lat="43.21938" lon="5.59806">
        <ele>152.4</ele>
        <time>2017-04-09T07:28:14Z</time>
      </trkpt>
      <trkpt lat="43.21945" lon="5.59793">
        <ele>153.4</ele>
        <time>2017-04-09T07:28:18Z</time>
      </trkpt>
      <trkpt lat="43.21946" lon="5.5979">
        <ele>153.4</ele>
        <time>2017-04-09T07:28:19Z</time>
      </trkpt>
      <trkpt lat="43.21958" lon="5.59774">
        <ele>154</ele>
        <time>2017-04-09T07:28:24Z</time>
      </trkpt>
      <trkpt lat="43.2196" lon="5.59773">
        <ele>154</ele>
        <time>2017-04-09T07:28:25Z</time>
      </trkpt>
      <trkpt lat="43.2197" lon="5.5977">
        <ele>154.4</ele>
        <time>2017-04-09T07:28:28Z</time>
      </trkpt>
      <trkpt lat="43.21973" lon="5.59771">
        <ele>154.8</ele>
        <time>2017-04-09T07:28:29Z</time>
      </trkpt>
      <trkpt lat="43.21981" lon="5.59774">
        <ele>155</ele>
        <time>2017-04-09T07:28:32Z</time>
      </trkpt>
      <trkpt lat="43.21992" lon="5.59779">
        <ele>155.6</ele>
        <time>2017-04-09T07:28:36Z</time>
      </trkpt>
      <trkpt lat="43.21995" lon="5.59778">
        <ele>155.8</ele>
        <time>2017-04-09T07:28:37Z</time>
      </trkpt>
      <trkpt lat="43.22002" lon="5.59776">
        <ele>156</ele>
        <time>2017-04-09T07:28:39Z</time>
      </trkpt>
      <trkpt lat="43.2201" lon="5.59771">
        <ele>156</ele>
        <time>2017-04-09T07:28:42Z</time>
      </trkpt>
      <trkpt lat="43.22021" lon="5.59756">
        <ele>156.6</ele>
        <time>2017-04-09T07:28:47Z</time>
      </trkpt>
      <trkpt lat="43.22026" lon="5.59746">
        <ele>157.2</ele>
        <time>2017-04-09T07:28:50Z</time>
      </trkpt>
      <trkpt lat="43.22029" lon="5.59739">
        <ele>157.4</ele>
        <time>2017-04-09T07:28:52Z</time>
      </trkpt>
      <trkpt lat="43.22039" lon="5.59715">
        <ele>158.4</ele>
        <time>2017-04-09T07:28:58Z</time>
      </trkpt>
      <trkpt lat="43.22047" lon="5.59701">
        <ele>158.8</ele>
        <time>2017-04-09T07:29:02Z</time>
      </trkpt>
      <trkpt lat="43.22053" lon="5.59691">
        <ele>159.6</ele>
        <time>2017-04-09T07:29:05Z</time>
      </trkpt>
      <trkpt lat="43.22058" lon="5.59681">
        <ele>160.2</ele>
        <time>2017-04-09T07:29:08Z</time>
      </trkpt>
      <trkpt lat="43.22065" lon="5.59668">
        <ele>160.6</ele>
        <time>2017-04-09T07:29:12Z</time>
      </trkpt>
      <trkpt lat="43.22066" lon="5.59664">
        <ele>160.8</ele>
        <time>2017-04-09T07:29:13Z</time>
      </trkpt>
      <trkpt lat="43.22068" lon="5.59661">
        <ele>160.8</ele>
        <time>2017-04-09T07:29:14Z</time>
      </trkpt>
      <trkpt lat="43.22075" lon="5.59647">
        <ele>161.6</ele>
        <time>2017-04-09T07:29:18Z</time>
      </trkpt>
      <trkpt lat="43.22077" lon="5.59645">
        <ele>161.8</ele>
        <time>2017-04-09T07:29:19Z</time>
      </trkpt>
      <trkpt lat="43.22088" lon="5.59637">
        <ele>162.4</ele>
        <time>2017-04-09T07:29:23Z</time>
      </trkpt>
      <trkpt lat="43.22091" lon="5.59635">
        <ele>162.6</ele>
        <time>2017-04-09T07:29:24Z</time>
      </trkpt>
      <trkpt lat="43.22097" lon="5.59632">
        <ele>163</ele>
        <time>2017-04-09T07:29:26Z</time>
      </trkpt>
      <trkpt lat="43.2211" lon="5.59631">
        <ele>163.4</ele>
        <time>2017-04-09T07:29:30Z</time>
      </trkpt>
      <trkpt lat="43.22119" lon="5.59629">
        <ele>164.2</ele>
        <time>2017-04-09T07:29:33Z</time>
      </trkpt>
      <trkpt lat="43.22131" lon="5.59623">
        <ele>164.6</ele>
        <time>2017-04-09T07:29:37Z</time>
      </trkpt>
      <trkpt lat="43.22149" lon="5.59613">
        <ele>165.2</ele>
        <time>2017-04-09T07:29:43Z</time>
      </trkpt>
      <trkpt lat="43.22155" lon="5.59614">
        <ele>165.4</ele>
        <time>2017-04-09T07:29:45Z</time>
      </trkpt>
      <trkpt lat="43.2216" lon="5.59618">
        <ele>165.8</ele>
        <time>2017-04-09T07:29:47Z</time>
      </trkpt>
      <trkpt lat="43.22165" lon="5.59622">
        <ele>166.4</ele>
        <time>2017-04-09T07:29:49Z</time>
      </trkpt>
      <trkpt lat="43.22176" lon="5.59627">
        <ele>167.2</ele>
        <time>2017-04-09T07:29:53Z</time>
      </trkpt>
      <trkpt lat="43.22182" lon="5.59627">
        <ele>167.4</ele>
        <time>2017-04-09T07:29:55Z</time>
      </trkpt>
      <trkpt lat="43.22191" lon="5.59625">
        <ele>168</ele>
        <time>2017-04-09T07:29:58Z</time>
      </trkpt>
      <trkpt lat="43.22199" lon="5.59622">
        <ele>168.6</ele>
        <time>2017-04-09T07:30:01Z</time>
      </trkpt>
      <trkpt lat="43.2221" lon="5.59615">
        <ele>169</ele>
        <time>2017-04-09T07:30:05Z</time>
      </trkpt>
      <trkpt lat="43.22222" lon="5.59608">
        <ele>169.6</ele>
        <time>2017-04-09T07:30:09Z</time>
      </trkpt>
      <trkpt lat="43.22234" lon="5.596">
        <ele>170.4</ele>
        <time>2017-04-09T07:30:13Z</time>
      </trkpt>
      <trkpt lat="43.22253" lon="5.59594">
        <ele>170.8</ele>
        <time>2017-04-09T07:30:19Z</time>
      </trkpt>
      <trkpt lat="43.2226" lon="5.59593">
        <ele>171.2</ele>
        <time>2017-04-09T07:30:21Z</time>
      </trkpt>
      <trkpt lat="43.22266" lon="5.59592">
        <ele>171.8</ele>
        <time>2017-04-09T07:30:23Z</time>
      </trkpt>
      <trkpt lat="43.22282" lon="5.59591">
        <ele>172.6</ele>
        <time>2017-04-09T07:30:28Z</time>
      </trkpt>
      <trkpt lat="43.22288" lon="5.59591">
        <ele>173</ele>
        <time>2017-04-09T07:30:30Z</time>
      </trkpt>
      <trkpt lat="43.22308" lon="5.59591">
        <ele>174</ele>
        <time>2017-04-09T07:30:36Z</time>
      </trkpt>
      <trkpt lat="43.22321" lon="5.59587">
        <ele>174.2</ele>
        <time>2017-04-09T07:30:40Z</time>
      </trkpt>
      <trkpt lat="43.22329" lon="5.59584">
        <ele>174.8</ele>
        <time>2017-04-09T07:30:43Z</time>
      </trkpt>
      <trkpt lat="43.22334" lon="5.59581">
        <ele>175.4</ele>
        <time>2017-04-09T07:30:45Z</time>
      </trkpt>
      <trkpt lat="43.22341" lon="5.59576">
        <ele>176.4</ele>
        <time>2017-04-09T07:30:48Z</time>
      </trkpt>
      <trkpt lat="43.22348" lon="5.5957">
        <ele>176.8</ele>
        <time>2017-04-09T07:30:51Z</time>
      </trkpt>
      <trkpt lat="43.22356" lon="5.59561">
        <ele>177.6</ele>
        <time>2017-04-09T07:30:55Z</time>
      </trkpt>
      <trkpt lat="43.22364" lon="5.59551">
        <ele>178.2</ele>
        <time>2017-04-09T07:30:59Z</time>
      </trkpt>
      <trkpt lat="43.22371" lon="5.59543">
        <ele>178.6</ele>
        <time>2017-04-09T07:31:02Z</time>
      </trkpt>
      <trkpt lat="43.22378" lon="5.59534">
        <ele>179.4</ele>
        <time>2017-04-09T07:31:05Z</time>
      </trkpt>
      <trkpt lat="43.22392" lon="5.59516">
        <ele>179.6</ele>
        <time>2017-04-09T07:31:11Z</time>
      </trkpt>
      <trkpt lat="43.22394" lon="5.59513">
        <ele>179.8</ele>
        <time>2017-04-09T07:31:12Z</time>
      </trkpt>
      <trkpt lat="43.22407" lon="5.59501">
        <ele>180.4</ele>
        <time>2017-04-09T07:31:17Z</time>
      </trkpt>
      <trkpt lat="43.22412" lon="5.59495">
        <ele>180.8</ele>
        <time>2017-04-09T07:31:19Z</time>
      </trkpt>
      <trkpt lat="43.22425" lon="5.5948">
        <ele>181.4</ele>
        <time>2017-04-09T07:31:24Z</time>
      </trkpt>
      <trkpt lat="43.22439" lon="5.59461">
        <ele>182</ele>
        <time>2017-04-09T07:31:30Z</time>
      </trkpt>
      <trkpt lat="43.22442" lon="5.59457">
        <ele>182.2</ele>
        <time>2017-04-09T07:31:31Z</time>
      </trkpt>
      <trkpt lat="43.22452" lon="5.5944">
        <ele>182.8</ele>
        <time>2017-04-09T07:31:36Z</time>
      </trkpt>
      <trkpt lat="43.22456" lon="5.59434">
        <ele>183</ele>
        <time>2017-04-09T07:31:38Z</time>
      </trkpt>
      <trkpt lat="43.22467" lon="5.59416">
        <ele>184</ele>
        <time>2017-04-09T07:31:43Z</time>
      </trkpt>
      <trkpt lat="43.22469" lon="5.59413">
        <ele>184.2</ele>
        <time>2017-04-09T07:31:44Z</time>
      </trkpt>
      <trkpt lat="43.22477" lon="5.59399">
        <ele>184.6</ele>
        <time>2017-04-09T07:31:48Z</time>
      </trkpt>
      <trkpt lat="43.22487" lon="5.59377">
        <ele>185.2</ele>
        <time>2017-04-09T07:31:54Z</time>
      </trkpt>
      <trkpt lat="43.22495" lon="5.59358">
        <ele>185.8</ele>
        <time>2017-04-09T07:31:59Z</time>
      </trkpt>
      <trkpt lat="43.22501" lon="5.59347">
        <ele>186.4</ele>
        <time>2017-04-09T07:32:02Z</time>
      </trkpt>
      <trkpt lat="43.22507" lon="5.59337">
        <ele>186.8</ele>
        <time>2017-04-09T07:32:05Z</time>
      </trkpt>
      <trkpt lat="43.22512" lon="5.59326">
        <ele>187.4</ele>
        <time>2017-04-09T07:32:08Z</time>
      </trkpt>
      <trkpt lat="43.22519" lon="5.59317">
        <ele>188</ele>
        <time>2017-04-09T07:32:11Z</time>
      </trkpt>
      <trkpt lat="43.22534" lon="5.59296">
        <ele>188.6</ele>
        <time>2017-04-09T07:32:18Z</time>
      </trkpt>
      <trkpt lat="43.22545" lon="5.59288">
        <ele>189.2</ele>
        <time>2017-04-09T07:32:22Z</time>
      </trkpt>
      <trkpt lat="43.22547" lon="5.59286">
        <ele>189.6</ele>
        <time>2017-04-09T07:32:23Z</time>
      </trkpt>
      <trkpt lat="43.22561" lon="5.59277">
        <ele>190.6</ele>
        <time>2017-04-09T07:32:28Z</time>
      </trkpt>
      <trkpt lat="43.22576" lon="5.59267">
        <ele>191.6</ele>
        <time>2017-04-09T07:32:34Z</time>
      </trkpt>
      <trkpt lat="43.22586" lon="5.59261">
        <ele>192.6</ele>
        <time>2017-04-09T07:32:38Z</time>
      </trkpt>
      <trkpt lat="43.22588" lon="5.5926">
        <ele>192.8</ele>
        <time>2017-04-09T07:32:39Z</time>
      </trkpt>
      <trkpt lat="43.22601" lon="5.59253">
        <ele>193.8</ele>
        <time>2017-04-09T07:32:44Z</time>
      </trkpt>
      <trkpt lat="43.22603" lon="5.59252">
        <ele>194</ele>
        <time>2017-04-09T07:32:45Z</time>
      </trkpt>
      <trkpt lat="43.22621" lon="5.59245">
        <ele>194.8</ele>
        <time>2017-04-09T07:32:52Z</time>
      </trkpt>
      <trkpt lat="43.22626" lon="5.59242">
        <ele>194.8</ele>
        <time>2017-04-09T07:32:54Z</time>
      </trkpt>
      <trkpt lat="43.22639" lon="5.59237">
        <ele>196</ele>
        <time>2017-04-09T07:32:59Z</time>
      </trkpt>
      <trkpt lat="43.22641" lon="5.59235">
        <ele>196.2</ele>
        <time>2017-04-09T07:33:00Z</time>
      </trkpt>
      <trkpt lat="43.22651" lon="5.59232">
        <ele>197.2</ele>
        <time>2017-04-09T07:33:04Z</time>
      </trkpt>
      <trkpt lat="43.22654" lon="5.59231">
        <ele>197.2</ele>
        <time>2017-04-09T07:33:05Z</time>
      </trkpt>
      <trkpt lat="43.22669" lon="5.59226">
        <ele>197.6</ele>
        <time>2017-04-09T07:33:11Z</time>
      </trkpt>
      <trkpt lat="43.22677" lon="5.59222">
        <ele>198.2</ele>
        <time>2017-04-09T07:33:14Z</time>
      </trkpt>
      <trkpt lat="43.22686" lon="5.59217">
        <ele>198.8</ele>
        <time>2017-04-09T07:33:17Z</time>
      </trkpt>
      <trkpt lat="43.22712" lon="5.59212">
        <ele>199.2</ele>
        <time>2017-04-09T07:33:25Z</time>
      </trkpt>
      <trkpt lat="43.22715" lon="5.59211">
        <ele>199.4</ele>
        <time>2017-04-09T07:33:26Z</time>
      </trkpt>
      <trkpt lat="43.22737" lon="5.59209">
        <ele>200.4</ele>
        <time>2017-04-09T07:33:33Z</time>
      </trkpt>
      <trkpt lat="43.22743" lon="5.59207">
        <ele>200.4</ele>
        <time>2017-04-09T07:33:35Z</time>
      </trkpt>
      <trkpt lat="43.22752" lon="5.59203">
        <ele>200.8</ele>
        <time>2017-04-09T07:33:38Z</time>
      </trkpt>
      <trkpt lat="43.22763" lon="5.59197">
        <ele>201.8</ele>
        <time>2017-04-09T07:33:42Z</time>
      </trkpt>
      <trkpt lat="43.22772" lon="5.59191">
        <ele>201.8</ele>
        <time>2017-04-09T07:33:45Z</time>
      </trkpt>
      <trkpt lat="43.22781" lon="5.59188">
        <ele>202.8</ele>
        <time>2017-04-09T07:33:48Z</time>
      </trkpt>
      <trkpt lat="43.22786" lon="5.59185">
        <ele>203</ele>
        <time>2017-04-09T07:33:50Z</time>
      </trkpt>
      <trkpt lat="43.22798" lon="5.59179">
        <ele>203.8</ele>
        <time>2017-04-09T07:33:55Z</time>
      </trkpt>
      <trkpt lat="43.22803" lon="5.59179">
        <ele>204.2</ele>
        <time>2017-04-09T07:33:57Z</time>
      </trkpt>
      <trkpt lat="43.22813" lon="5.59182">
        <ele>204.8</ele>
        <time>2017-04-09T07:34:01Z</time>
      </trkpt>
      <trkpt lat="43.22819" lon="5.59183">
        <ele>205.2</ele>
        <time>2017-04-09T07:34:03Z</time>
      </trkpt>
      <trkpt lat="43.22828" lon="5.59186">
        <ele>206</ele>
        <time>2017-04-09T07:34:07Z</time>
      </trkpt>
      <trkpt lat="43.22839" lon="5.59194">
        <ele>207.2</ele>
        <time>2017-04-09T07:34:12Z</time>
      </trkpt>
      <trkpt lat="43.22841" lon="5.59197">
        <ele>207.2</ele>
        <time>2017-04-09T07:34:13Z</time>
      </trkpt>
      <trkpt lat="43.22843" lon="5.59199">
        <ele>207.6</ele>
        <time>2017-04-09T07:34:14Z</time>
      </trkpt>
      <trkpt lat="43.22848" lon="5.59202">
        <ele>208.2</ele>
        <time>2017-04-09T07:34:16Z</time>
      </trkpt>
      <trkpt lat="43.22852" lon="5.59207">
        <ele>208.6</ele>
        <time>2017-04-09T07:34:18Z</time>
      </trkpt>
      <trkpt lat="43.2286" lon="5.59213">
        <ele>209.2</ele>
        <time>2017-04-09T07:34:21Z</time>
      </trkpt>
      <trkpt lat="43.22867" lon="5.59216">
        <ele>209.8</ele>
        <time>2017-04-09T07:34:24Z</time>
      </trkpt>
      <trkpt lat="43.22871" lon="5.59219">
        <ele>210.6</ele>
        <time>2017-04-09T07:34:26Z</time>
      </trkpt>
      <trkpt lat="43.22879" lon="5.5922">
        <ele>211.6</ele>
        <time>2017-04-09T07:34:30Z</time>
      </trkpt>
      <trkpt lat="43.22881" lon="5.59221">
        <ele>211.8</ele>
        <time>2017-04-09T07:34:31Z</time>
      </trkpt>
      <trkpt lat="43.22889" lon="5.59227">
        <ele>212.8</ele>
        <time>2017-04-09T07:34:35Z</time>
      </trkpt>
      <trkpt lat="43.22892" lon="5.5923">
        <ele>213.2</ele>
        <time>2017-04-09T07:34:37Z</time>
      </trkpt>
      <trkpt lat="43.22894" lon="5.59232">
        <ele>213.6</ele>
        <time>2017-04-09T07:34:38Z</time>
      </trkpt>
      <trkpt lat="43.22895" lon="5.59234">
        <ele>213.8</ele>
        <time>2017-04-09T07:34:39Z</time>
      </trkpt>
      <trkpt lat="43.22898" lon="5.59239">
        <ele>214.6</ele>
        <time>2017-04-09T07:34:42Z</time>
      </trkpt>
      <trkpt lat="43.229" lon="5.59245">
        <ele>214.8</ele>
        <time>2017-04-09T07:34:44Z</time>
      </trkpt>
      <trkpt lat="43.22903" lon="5.59253">
        <ele>215.4</ele>
        <time>2017-04-09T07:34:47Z</time>
      </trkpt>
      <trkpt lat="43.22909" lon="5.59256">
        <ele>216.2</ele>
        <time>2017-04-09T07:34:50Z</time>
      </trkpt>
      <trkpt lat="43.22913" lon="5.59256">
        <ele>216.8</ele>
        <time>2017-04-09T07:34:52Z</time>
      </trkpt>
      <trkpt lat="43.22917" lon="5.59253">
        <ele>217.4</ele>
        <time>2017-04-09T07:34:54Z</time>
      </trkpt>
      <trkpt lat="43.22923" lon="5.59246">
        <ele>218.6</ele>
        <time>2017-04-09T07:34:58Z</time>
      </trkpt>
      <trkpt lat="43.22924" lon="5.59236">
        <ele>219.8</ele>
        <time>2017-04-09T07:35:02Z</time>
      </trkpt>
      <trkpt lat="43.22924" lon="5.59233">
        <ele>220.2</ele>
        <time>2017-04-09T07:35:03Z</time>
      </trkpt>
      <trkpt lat="43.22924" lon="5.59222">
        <ele>221</ele>
        <time>2017-04-09T07:35:07Z</time>
      </trkpt>
      <trkpt lat="43.22923" lon="5.59214">
        <ele>221.8</ele>
        <time>2017-04-09T07:35:10Z</time>
      </trkpt>
      <trkpt lat="43.22921" lon="5.59209">
        <ele>222.2</ele>
        <time>2017-04-09T07:35:12Z</time>
      </trkpt>
      <trkpt lat="43.22916" lon="5.59199">
        <ele>223</ele>
        <time>2017-04-09T07:35:16Z</time>
      </trkpt>
      <trkpt lat="43.22914" lon="5.59196">
        <ele>223.2</ele>
        <time>2017-04-09T07:35:17Z</time>
      </trkpt>
      <trkpt lat="43.22906" lon="5.59188">
        <ele>224.2</ele>
        <time>2017-04-09T07:35:21Z</time>
      </trkpt>
      <trkpt lat="43.22905" lon="5.59186">
        <ele>224.2</ele>
        <time>2017-04-09T07:35:22Z</time>
      </trkpt>
      <trkpt lat="43.22896" lon="5.59174">
        <ele>225.4</ele>
        <time>2017-04-09T07:35:27Z</time>
      </trkpt>
      <trkpt lat="43.22893" lon="5.59165">
        <ele>226</ele>
        <time>2017-04-09T07:35:30Z</time>
      </trkpt>
      <trkpt lat="43.22894" lon="5.59153">
        <ele>226.6</ele>
        <time>2017-04-09T07:35:34Z</time>
      </trkpt>
      <trkpt lat="43.22895" lon="5.5915">
        <ele>226.6</ele>
        <time>2017-04-09T07:35:35Z</time>
      </trkpt>
      <trkpt lat="43.22903" lon="5.59138">
        <ele>227.4</ele>
        <time>2017-04-09T07:35:40Z</time>
      </trkpt>
      <trkpt lat="43.22906" lon="5.59133">
        <ele>227.6</ele>
        <time>2017-04-09T07:35:42Z</time>
      </trkpt>
      <trkpt lat="43.22912" lon="5.59123">
        <ele>228.6</ele>
        <time>2017-04-09T07:35:46Z</time>
      </trkpt>
      <trkpt lat="43.22919" lon="5.59111">
        <ele>229.8</ele>
        <time>2017-04-09T07:35:51Z</time>
      </trkpt>
      <trkpt lat="43.22922" lon="5.59106">
        <ele>230.2</ele>
        <time>2017-04-09T07:35:53Z</time>
      </trkpt>
      <trkpt lat="43.22924" lon="5.591">
        <ele>230.8</ele>
        <time>2017-04-09T07:35:55Z</time>
      </trkpt>
      <trkpt lat="43.22929" lon="5.59089">
        <ele>231.2</ele>
        <time>2017-04-09T07:35:59Z</time>
      </trkpt>
      <trkpt lat="43.2293" lon="5.59083">
        <ele>232</ele>
        <time>2017-04-09T07:36:01Z</time>
      </trkpt>
      <trkpt lat="43.22932" lon="5.59076">
        <ele>232</ele>
        <time>2017-04-09T07:36:03Z</time>
      </trkpt>
      <trkpt lat="43.22935" lon="5.59071">
        <ele>232.6</ele>
        <time>2017-04-09T07:36:05Z</time>
      </trkpt>
      <trkpt lat="43.2294" lon="5.59057">
        <ele>233.2</ele>
        <time>2017-04-09T07:36:10Z</time>
      </trkpt>
      <trkpt lat="43.22939" lon="5.59054">
        <ele>233.6</ele>
        <time>2017-04-09T07:36:11Z</time>
      </trkpt>
      <trkpt lat="43.22932" lon="5.59047">
        <ele>234.2</ele>
        <time>2017-04-09T07:36:15Z</time>
      </trkpt>
      <trkpt lat="43.2293" lon="5.59047">
        <ele>234.8</ele>
        <time>2017-04-09T07:36:16Z</time>
      </trkpt>
      <trkpt lat="43.22921" lon="5.59048">
        <ele>236</ele>
        <time>2017-04-09T07:36:20Z</time>
      </trkpt>
      <trkpt lat="43.22919" lon="5.59048">
        <ele>236.2</ele>
        <time>2017-04-09T07:36:21Z</time>
      </trkpt>
      <trkpt lat="43.22912" lon="5.59049">
        <ele>237.2</ele>
        <time>2017-04-09T07:36:24Z</time>
      </trkpt>
      <trkpt lat="43.22903" lon="5.59044">
        <ele>238</ele>
        <time>2017-04-09T07:36:28Z</time>
      </trkpt>
      <trkpt lat="43.229" lon="5.5904">
        <ele>238.2</ele>
        <time>2017-04-09T07:36:30Z</time>
      </trkpt>
      <trkpt lat="43.22893" lon="5.59035">
        <ele>238.6</ele>
        <time>2017-04-09T07:36:33Z</time>
      </trkpt>
      <trkpt lat="43.22888" lon="5.59035">
        <ele>238.8</ele>
        <time>2017-04-09T07:36:35Z</time>
      </trkpt>
      <trkpt lat="43.22884" lon="5.59038">
        <ele>239.2</ele>
        <time>2017-04-09T07:36:37Z</time>
      </trkpt>
      <trkpt lat="43.22881" lon="5.59043">
        <ele>239.6</ele>
        <time>2017-04-09T07:36:39Z</time>
      </trkpt>
      <trkpt lat="43.22877" lon="5.59047">
        <ele>239.8</ele>
        <time>2017-04-09T07:36:41Z</time>
      </trkpt>
      <trkpt lat="43.22875" lon="5.5905">
        <ele>239.8</ele>
        <time>2017-04-09T07:36:42Z</time>
      </trkpt>
      <trkpt lat="43.22869" lon="5.59056">
        <ele>240.8</ele>
        <time>2017-04-09T07:36:45Z</time>
      </trkpt>
      <trkpt lat="43.22864" lon="5.59059">
        <ele>241.4</ele>
        <time>2017-04-09T07:36:47Z</time>
      </trkpt>
      <trkpt lat="43.22854" lon="5.59057">
        <ele>242</ele>
        <time>2017-04-09T07:36:51Z</time>
      </trkpt>
      <trkpt lat="43.22851" lon="5.59056">
        <ele>242.2</ele>
        <time>2017-04-09T07:36:52Z</time>
      </trkpt>
      <trkpt lat="43.22839" lon="5.59049">
        <ele>243</ele>
        <time>2017-04-09T07:36:57Z</time>
      </trkpt>
      <trkpt lat="43.22835" lon="5.59047">
        <ele>243.6</ele>
        <time>2017-04-09T07:36:59Z</time>
      </trkpt>
      <trkpt lat="43.22831" lon="5.59044">
        <ele>244.2</ele>
        <time>2017-04-09T07:37:01Z</time>
      </trkpt>
      <trkpt lat="43.22829" lon="5.59044">
        <ele>244.4</ele>
        <time>2017-04-09T07:37:02Z</time>
      </trkpt>
      <trkpt lat="43.22822" lon="5.59042">
        <ele>245</ele>
        <time>2017-04-09T07:37:05Z</time>
      </trkpt>
      <trkpt lat="43.22819" lon="5.59041">
        <ele>245.4</ele>
        <time>2017-04-09T07:37:06Z</time>
      </trkpt>
      <trkpt lat="43.22809" lon="5.59039">
        <ele>246</ele>
        <time>2017-04-09T07:37:10Z</time>
      </trkpt>
      <trkpt lat="43.22807" lon="5.59039">
        <ele>246.8</ele>
        <time>2017-04-09T07:37:11Z</time>
      </trkpt>
      <trkpt lat="43.22796" lon="5.59035">
        <ele>247.8</ele>
        <time>2017-04-09T07:37:16Z</time>
      </trkpt>
      <trkpt lat="43.22785" lon="5.59029">
        <ele>248.8</ele>
        <time>2017-04-09T07:37:21Z</time>
      </trkpt>
      <trkpt lat="43.2278" lon="5.59026">
        <ele>249.6</ele>
        <time>2017-04-09T07:37:23Z</time>
      </trkpt>
      <trkpt lat="43.22776" lon="5.59023">
        <ele>250</ele>
        <time>2017-04-09T07:37:25Z</time>
      </trkpt>
      <trkpt lat="43.22767" lon="5.59013">
        <ele>250.6</ele>
        <time>2017-04-09T07:37:30Z</time>
      </trkpt>
      <trkpt lat="43.22765" lon="5.5901">
        <ele>251</ele>
        <time>2017-04-09T07:37:31Z</time>
      </trkpt>
      <trkpt lat="43.22763" lon="5.59006">
        <ele>251.6</ele>
        <time>2017-04-09T07:37:33Z</time>
      </trkpt>
      <trkpt lat="43.22761" lon="5.59">
        <ele>252</ele>
        <time>2017-04-09T07:37:35Z</time>
      </trkpt>
      <trkpt lat="43.22755" lon="5.58994">
        <ele>253</ele>
        <time>2017-04-09T07:37:38Z</time>
      </trkpt>
      <trkpt lat="43.22749" lon="5.58984">
        <ele>253.8</ele>
        <time>2017-04-09T07:37:42Z</time>
      </trkpt>
      <trkpt lat="43.22746" lon="5.58979">
        <ele>254.2</ele>
        <time>2017-04-09T07:37:44Z</time>
      </trkpt>
      <trkpt lat="43.22741" lon="5.58968">
        <ele>255.2</ele>
        <time>2017-04-09T07:37:48Z</time>
      </trkpt>
      <trkpt lat="43.2274" lon="5.58965">
        <ele>255.4</ele>
        <time>2017-04-09T07:37:49Z</time>
      </trkpt>
      <trkpt lat="43.22736" lon="5.58951">
        <ele>256.4</ele>
        <time>2017-04-09T07:37:54Z</time>
      </trkpt>
      <trkpt lat="43.22733" lon="5.58934">
        <ele>257.8</ele>
        <time>2017-04-09T07:38:00Z</time>
      </trkpt>
      <trkpt lat="43.22732" lon="5.58931">
        <ele>257.8</ele>
        <time>2017-04-09T07:38:01Z</time>
      </trkpt>
      <trkpt lat="43.22732" lon="5.58922">
        <ele>259</ele>
        <time>2017-04-09T07:38:04Z</time>
      </trkpt>
      <trkpt lat="43.22731" lon="5.5891">
        <ele>260.2</ele>
        <time>2017-04-09T07:38:08Z</time>
      </trkpt>
      <trkpt lat="43.22724" lon="5.58898">
        <ele>260.8</ele>
        <time>2017-04-09T07:38:13Z</time>
      </trkpt>
      <trkpt lat="43.22719" lon="5.58895">
        <ele>261.4</ele>
        <time>2017-04-09T07:38:15Z</time>
      </trkpt>
      <trkpt lat="43.22713" lon="5.58892">
        <ele>262.4</ele>
        <time>2017-04-09T07:38:18Z</time>
      </trkpt>
      <trkpt lat="43.2271" lon="5.58891">
        <ele>262.4</ele>
        <time>2017-04-09T07:38:19Z</time>
      </trkpt>
      <trkpt lat="43.22699" lon="5.58887">
        <ele>263.4</ele>
        <time>2017-04-09T07:38:24Z</time>
      </trkpt>
      <trkpt lat="43.22692" lon="5.58885">
        <ele>264.2</ele>
        <time>2017-04-09T07:38:27Z</time>
      </trkpt>
      <trkpt lat="43.22687" lon="5.58885">
        <ele>264.6</ele>
        <time>2017-04-09T07:38:29Z</time>
      </trkpt>
      <trkpt lat="43.22681" lon="5.5888">
        <ele>264.8</ele>
        <time>2017-04-09T07:38:32Z</time>
      </trkpt>
      <trkpt lat="43.22681" lon="5.5888">
        <ele>266</ele>
        <time>2017-04-09T07:38:39Z</time>
      </trkpt>
      <trkpt lat="43.22677" lon="5.58856">
        <ele>266.4</ele>
        <time>2017-04-09T07:38:40Z</time>
      </trkpt>
      <trkpt lat="43.22678" lon="5.5885">
        <ele>266.6</ele>
        <time>2017-04-09T07:38:42Z</time>
      </trkpt>
      <trkpt lat="43.22678" lon="5.58839">
        <ele>267</ele>
        <time>2017-04-09T07:38:45Z</time>
      </trkpt>
      <trkpt lat="43.22679" lon="5.58825">
        <ele>268.2</ele>
        <time>2017-04-09T07:38:49Z</time>
      </trkpt>
      <trkpt lat="43.22677" lon="5.58808">
        <ele>268.6</ele>
        <time>2017-04-09T07:38:54Z</time>
      </trkpt>
      <trkpt lat="43.2267" lon="5.58796">
        <ele>268.4</ele>
        <time>2017-04-09T07:38:58Z</time>
      </trkpt>
      <trkpt lat="43.22666" lon="5.5878">
        <ele>267</ele>
        <time>2017-04-09T07:39:01Z</time>
      </trkpt>
      <trkpt lat="43.22664" lon="5.58774">
        <ele>266.6</ele>
        <time>2017-04-09T07:39:02Z</time>
      </trkpt>
      <trkpt lat="43.22663" lon="5.58766">
        <ele>266</ele>
        <time>2017-04-09T07:39:03Z</time>
      </trkpt>
      <trkpt lat="43.22658" lon="5.5875">
        <ele>264.8</ele>
        <time>2017-04-09T07:39:05Z</time>
      </trkpt>
      <trkpt lat="43.22651" lon="5.58733">
        <ele>263.2</ele>
        <time>2017-04-09T07:39:07Z</time>
      </trkpt>
      <trkpt lat="43.22646" lon="5.58724">
        <ele>262</ele>
        <time>2017-04-09T07:39:08Z</time>
      </trkpt>
      <trkpt lat="43.22641" lon="5.58716">
        <ele>260.8</ele>
        <time>2017-04-09T07:39:09Z</time>
      </trkpt>
      <trkpt lat="43.22636" lon="5.58707">
        <ele>259.6</ele>
        <time>2017-04-09T07:39:10Z</time>
      </trkpt>
      <trkpt lat="43.2263" lon="5.58698">
        <ele>258.8</ele>
        <time>2017-04-09T07:39:11Z</time>
      </trkpt>
      <trkpt lat="43.22626" lon="5.58688">
        <ele>257.8</ele>
        <time>2017-04-09T07:39:12Z</time>
      </trkpt>
      <trkpt lat="43.22617" lon="5.58666">
        <ele>256.6</ele>
        <time>2017-04-09T07:39:14Z</time>
      </trkpt>
      <trkpt lat="43.22613" lon="5.58655">
        <ele>255.8</ele>
        <time>2017-04-09T07:39:15Z</time>
      </trkpt>
      <trkpt lat="43.22609" lon="5.58643">
        <ele>254.8</ele>
        <time>2017-04-09T07:39:16Z</time>
      </trkpt>
      <trkpt lat="43.22605" lon="5.58631">
        <ele>253.8</ele>
        <time>2017-04-09T07:39:17Z</time>
      </trkpt>
      <trkpt lat="43.226" lon="5.5862">
        <ele>252.8</ele>
        <time>2017-04-09T07:39:18Z</time>
      </trkpt>
      <trkpt lat="43.22593" lon="5.58609">
        <ele>251.2</ele>
        <time>2017-04-09T07:39:19Z</time>
      </trkpt>
      <trkpt lat="43.22588" lon="5.58598">
        <ele>249.6</ele>
        <time>2017-04-09T07:39:20Z</time>
      </trkpt>
      <trkpt lat="43.22583" lon="5.58586">
        <ele>247.4</ele>
        <time>2017-04-09T07:39:21Z</time>
      </trkpt>
      <trkpt lat="43.22579" lon="5.58574">
        <ele>246.4</ele>
        <time>2017-04-09T07:39:22Z</time>
      </trkpt>
      <trkpt lat="43.22567" lon="5.58553">
        <ele>245.2</ele>
        <time>2017-04-09T07:39:24Z</time>
      </trkpt>
      <trkpt lat="43.22553" lon="5.58533">
        <ele>244.2</ele>
        <time>2017-04-09T07:39:26Z</time>
      </trkpt>
      <trkpt lat="43.22546" lon="5.58522">
        <ele>243.2</ele>
        <time>2017-04-09T07:39:27Z</time>
      </trkpt>
      <trkpt lat="43.22538" lon="5.58505">
        <ele>242.4</ele>
        <time>2017-04-09T07:39:29Z</time>
      </trkpt>
      <trkpt lat="43.22537" lon="5.58495">
        <ele>243</ele>
        <time>2017-04-09T07:39:31Z</time>
      </trkpt>
      <trkpt lat="43.2254" lon="5.58492">
        <ele>243.2</ele>
        <time>2017-04-09T07:39:34Z</time>
      </trkpt>
      <trkpt lat="43.22538" lon="5.58495">
        <ele>243.4</ele>
        <time>2017-04-09T07:39:37Z</time>
      </trkpt>
      <trkpt lat="43.22528" lon="5.58489">
        <ele>243.6</ele>
        <time>2017-04-09T07:39:42Z</time>
      </trkpt>
      <trkpt lat="43.22522" lon="5.58479">
        <ele>242.6</ele>
        <time>2017-04-09T07:39:44Z</time>
      </trkpt>
      <trkpt lat="43.22518" lon="5.58473">
        <ele>241.6</ele>
        <time>2017-04-09T07:39:45Z</time>
      </trkpt>
      <trkpt lat="43.22514" lon="5.58466">
        <ele>240.4</ele>
        <time>2017-04-09T07:39:46Z</time>
      </trkpt>
      <trkpt lat="43.2251" lon="5.5846">
        <ele>239</ele>
        <time>2017-04-09T07:39:47Z</time>
      </trkpt>
      <trkpt lat="43.225" lon="5.58446">
        <ele>237.2</ele>
        <time>2017-04-09T07:39:49Z</time>
      </trkpt>
      <trkpt lat="43.22494" lon="5.58438">
        <ele>235.6</ele>
        <time>2017-04-09T07:39:50Z</time>
      </trkpt>
      <trkpt lat="43.22489" lon="5.58432">
        <ele>234.4</ele>
        <time>2017-04-09T07:39:51Z</time>
      </trkpt>
      <trkpt lat="43.2248" lon="5.58425">
        <ele>233.4</ele>
        <time>2017-04-09T07:39:53Z</time>
      </trkpt>
      <trkpt lat="43.22472" lon="5.58425">
        <ele>233.2</ele>
        <time>2017-04-09T07:39:55Z</time>
      </trkpt>
      <trkpt lat="43.22468" lon="5.58429">
        <ele>232.4</ele>
        <time>2017-04-09T07:39:56Z</time>
      </trkpt>
      <trkpt lat="43.22463" lon="5.58433">
        <ele>231.6</ele>
        <time>2017-04-09T07:39:57Z</time>
      </trkpt>
      <trkpt lat="43.22458" lon="5.58438">
        <ele>230.2</ele>
        <time>2017-04-09T07:39:58Z</time>
      </trkpt>
      <trkpt lat="43.22453" lon="5.58442">
        <ele>229</ele>
        <time>2017-04-09T07:39:59Z</time>
      </trkpt>
      <trkpt lat="43.22447" lon="5.58445">
        <ele>228.4</ele>
        <time>2017-04-09T07:40:00Z</time>
      </trkpt>
      <trkpt lat="43.22428" lon="5.58447">
        <ele>228.2</ele>
        <time>2017-04-09T07:40:03Z</time>
      </trkpt>
      <trkpt lat="43.22422" lon="5.58447">
        <ele>228.2</ele>
        <time>2017-04-09T07:40:04Z</time>
      </trkpt>
      <trkpt lat="43.22391" lon="5.58446">
        <ele>227.6</ele>
        <time>2017-04-09T07:40:09Z</time>
      </trkpt>
      <trkpt lat="43.22384" lon="5.58447">
        <ele>227.2</ele>
        <time>2017-04-09T07:40:10Z</time>
      </trkpt>
      <trkpt lat="43.22377" lon="5.58447">
        <ele>227</ele>
        <time>2017-04-09T07:40:11Z</time>
      </trkpt>
      <trkpt lat="43.2237" lon="5.58448">
        <ele>226.4</ele>
        <time>2017-04-09T07:40:12Z</time>
      </trkpt>
      <trkpt lat="43.22364" lon="5.5845">
        <ele>224.8</ele>
        <time>2017-04-09T07:40:13Z</time>
      </trkpt>
      <trkpt lat="43.22357" lon="5.58451">
        <ele>224.2</ele>
        <time>2017-04-09T07:40:14Z</time>
      </trkpt>
      <trkpt lat="43.22341" lon="5.58446">
        <ele>225.2</ele>
        <time>2017-04-09T07:40:17Z</time>
      </trkpt>
      <trkpt lat="43.22336" lon="5.58437">
        <ele>226.4</ele>
        <time>2017-04-09T07:40:19Z</time>
      </trkpt>
      <trkpt lat="43.22335" lon="5.58433">
        <ele>227.4</ele>
        <time>2017-04-09T07:40:20Z</time>
      </trkpt>
      <trkpt lat="43.22334" lon="5.58428">
        <ele>227.8</ele>
        <time>2017-04-09T07:40:21Z</time>
      </trkpt>
      <trkpt lat="43.22333" lon="5.5841">
        <ele>228.6</ele>
        <time>2017-04-09T07:40:25Z</time>
      </trkpt>
      <trkpt lat="43.22333" lon="5.58405">
        <ele>229</ele>
        <time>2017-04-09T07:40:26Z</time>
      </trkpt>
      <trkpt lat="43.22334" lon="5.5838">
        <ele>230</ele>
        <time>2017-04-09T07:40:31Z</time>
      </trkpt>
      <trkpt lat="43.22334" lon="5.58375">
        <ele>230.2</ele>
        <time>2017-04-09T07:40:32Z</time>
      </trkpt>
      <trkpt lat="43.22332" lon="5.58358">
        <ele>230.8</ele>
        <time>2017-04-09T07:40:36Z</time>
      </trkpt>
      <trkpt lat="43.2233" lon="5.58351">
        <ele>231.6</ele>
        <time>2017-04-09T07:40:38Z</time>
      </trkpt>
      <trkpt lat="43.22329" lon="5.58343">
        <ele>232.6</ele>
        <time>2017-04-09T07:40:40Z</time>
      </trkpt>
      <trkpt lat="43.22327" lon="5.58332">
        <ele>232.6</ele>
        <time>2017-04-09T07:40:43Z</time>
      </trkpt>
      <trkpt lat="43.22323" lon="5.58306">
        <ele>232</ele>
        <time>2017-04-09T07:40:48Z</time>
      </trkpt>
      <trkpt lat="43.22322" lon="5.583">
        <ele>231.4</ele>
        <time>2017-04-09T07:40:49Z</time>
      </trkpt>
      <trkpt lat="43.2232" lon="5.58293">
        <ele>231.2</ele>
        <time>2017-04-09T07:40:50Z</time>
      </trkpt>
      <trkpt lat="43.22315" lon="5.58279">
        <ele>230.2</ele>
        <time>2017-04-09T07:40:52Z</time>
      </trkpt>
      <trkpt lat="43.22312" lon="5.58271">
        <ele>229.4</ele>
        <time>2017-04-09T07:40:53Z</time>
      </trkpt>
      <trkpt lat="43.2231" lon="5.58263">
        <ele>228.2</ele>
        <time>2017-04-09T07:40:54Z</time>
      </trkpt>
      <trkpt lat="43.22308" lon="5.58255">
        <ele>227.6</ele>
        <time>2017-04-09T07:40:55Z</time>
      </trkpt>
      <trkpt lat="43.22305" lon="5.58247">
        <ele>227</ele>
        <time>2017-04-09T07:40:56Z</time>
      </trkpt>
      <trkpt lat="43.22301" lon="5.58241">
        <ele>226.2</ele>
        <time>2017-04-09T07:40:57Z</time>
      </trkpt>
      <trkpt lat="43.22296" lon="5.58236">
        <ele>225</ele>
        <time>2017-04-09T07:40:58Z</time>
      </trkpt>
      <trkpt lat="43.22287" lon="5.58228">
        <ele>224.6</ele>
        <time>2017-04-09T07:41:00Z</time>
      </trkpt>
      <trkpt lat="43.22255" lon="5.58212">
        <ele>224.4</ele>
        <time>2017-04-09T07:41:06Z</time>
      </trkpt>
      <trkpt lat="43.22249" lon="5.58209">
        <ele>223.6</ele>
        <time>2017-04-09T07:41:07Z</time>
      </trkpt>
      <trkpt lat="43.22236" lon="5.58204">
        <ele>222.4</ele>
        <time>2017-04-09T07:41:09Z</time>
      </trkpt>
      <trkpt lat="43.22222" lon="5.58199">
        <ele>221.4</ele>
        <time>2017-04-09T07:41:11Z</time>
      </trkpt>
      <trkpt lat="43.22216" lon="5.58197">
        <ele>221.2</ele>
        <time>2017-04-09T07:41:12Z</time>
      </trkpt>
      <trkpt lat="43.2221" lon="5.58195">
        <ele>220.8</ele>
        <time>2017-04-09T07:41:13Z</time>
      </trkpt>
      <trkpt lat="43.22199" lon="5.58188">
        <ele>219.6</ele>
        <time>2017-04-09T07:41:15Z</time>
      </trkpt>
      <trkpt lat="43.22193" lon="5.58183">
        <ele>218.4</ele>
        <time>2017-04-09T07:41:16Z</time>
      </trkpt>
      <trkpt lat="43.22188" lon="5.58178">
        <ele>216.8</ele>
        <time>2017-04-09T07:41:17Z</time>
      </trkpt>
      <trkpt lat="43.22181" lon="5.58174">
        <ele>215.2</ele>
        <time>2017-04-09T07:41:18Z</time>
      </trkpt>
      <trkpt lat="43.22175" lon="5.5817">
        <ele>213</ele>
        <time>2017-04-09T07:41:19Z</time>
      </trkpt>
      <trkpt lat="43.22167" lon="5.58168">
        <ele>210.6</ele>
        <time>2017-04-09T07:41:20Z</time>
      </trkpt>
      <trkpt lat="43.22158" lon="5.58166">
        <ele>208.8</ele>
        <time>2017-04-09T07:41:21Z</time>
      </trkpt>
      <trkpt lat="43.2215" lon="5.58167">
        <ele>206.8</ele>
        <time>2017-04-09T07:41:22Z</time>
      </trkpt>
      <trkpt lat="43.2214" lon="5.58167">
        <ele>204.8</ele>
        <time>2017-04-09T07:41:23Z</time>
      </trkpt>
      <trkpt lat="43.22131" lon="5.58166">
        <ele>203.4</ele>
        <time>2017-04-09T07:41:24Z</time>
      </trkpt>
      <trkpt lat="43.22115" lon="5.58164">
        <ele>202</ele>
        <time>2017-04-09T07:41:26Z</time>
      </trkpt>
      <trkpt lat="43.22108" lon="5.58163">
        <ele>200.8</ele>
        <time>2017-04-09T07:41:27Z</time>
      </trkpt>
      <trkpt lat="43.22095" lon="5.58163">
        <ele>199.4</ele>
        <time>2017-04-09T07:41:29Z</time>
      </trkpt>
      <trkpt lat="43.22091" lon="5.58166">
        <ele>199</ele>
        <time>2017-04-09T07:41:30Z</time>
      </trkpt>
      <trkpt lat="43.22082" lon="5.58175">
        <ele>199.6</ele>
        <time>2017-04-09T07:41:33Z</time>
      </trkpt>
      <trkpt lat="43.22075" lon="5.58182">
        <ele>200.4</ele>
        <time>2017-04-09T07:41:36Z</time>
      </trkpt>
      <trkpt lat="43.22067" lon="5.5819">
        <ele>201.2</ele>
        <time>2017-04-09T07:41:39Z</time>
      </trkpt>
      <trkpt lat="43.22059" lon="5.58205">
        <ele>201.2</ele>
        <time>2017-04-09T07:41:43Z</time>
      </trkpt>
      <trkpt lat="43.22057" lon="5.58208">
        <ele>201.2</ele>
        <time>2017-04-09T07:41:44Z</time>
      </trkpt>
      <trkpt lat="43.22055" lon="5.58212">
        <ele>201.6</ele>
        <time>2017-04-09T07:41:45Z</time>
      </trkpt>
      <trkpt lat="43.22046" lon="5.58227">
        <ele>201.8</ele>
        <time>2017-04-09T07:41:49Z</time>
      </trkpt>
      <trkpt lat="43.22034" lon="5.58233">
        <ele>202.6</ele>
        <time>2017-04-09T07:41:53Z</time>
      </trkpt>
      <trkpt lat="43.22027" lon="5.58234">
        <ele>204.4</ele>
        <time>2017-04-09T07:41:56Z</time>
      </trkpt>
      <trkpt lat="43.2202" lon="5.58237">
        <ele>205.6</ele>
        <time>2017-04-09T07:41:59Z</time>
      </trkpt>
      <trkpt lat="43.22018" lon="5.58238">
        <ele>206</ele>
        <time>2017-04-09T07:42:00Z</time>
      </trkpt>
      <trkpt lat="43.22014" lon="5.58239">
        <ele>206.8</ele>
        <time>2017-04-09T07:42:02Z</time>
      </trkpt>
      <trkpt lat="43.22006" lon="5.58241">
        <ele>208.2</ele>
        <time>2017-04-09T07:42:06Z</time>
      </trkpt>
      <trkpt lat="43.22004" lon="5.58241">
        <ele>208.6</ele>
        <time>2017-04-09T07:42:07Z</time>
      </trkpt>
      <trkpt lat="43.21993" lon="5.58243">
        <ele>209.2</ele>
        <time>2017-04-09T07:42:12Z</time>
      </trkpt>
      <trkpt lat="43.21992" lon="5.58244">
        <ele>209.6</ele>
        <time>2017-04-09T07:42:13Z</time>
      </trkpt>
      <trkpt lat="43.21981" lon="5.58246">
        <ele>210.6</ele>
        <time>2017-04-09T07:42:18Z</time>
      </trkpt>
      <trkpt lat="43.21967" lon="5.5825">
        <ele>211.6</ele>
        <time>2017-04-09T07:42:24Z</time>
      </trkpt>
      <trkpt lat="43.21958" lon="5.58252">
        <ele>212.6</ele>
        <time>2017-04-09T07:42:28Z</time>
      </trkpt>
      <trkpt lat="43.21951" lon="5.58253">
        <ele>213.2</ele>
        <time>2017-04-09T07:42:31Z</time>
      </trkpt>
      <trkpt lat="43.21949" lon="5.58252">
        <ele>213.8</ele>
        <time>2017-04-09T07:42:32Z</time>
      </trkpt>
      <trkpt lat="43.21943" lon="5.5825">
        <ele>214.8</ele>
        <time>2017-04-09T07:42:35Z</time>
      </trkpt>
      <trkpt lat="43.21941" lon="5.58249">
        <ele>215.4</ele>
        <time>2017-04-09T07:42:36Z</time>
      </trkpt>
      <trkpt lat="43.21938" lon="5.58249">
        <ele>216</ele>
        <time>2017-04-09T07:42:38Z</time>
      </trkpt>
      <trkpt lat="43.21934" lon="5.58248">
        <ele>217.4</ele>
        <time>2017-04-09T07:42:41Z</time>
      </trkpt>
      <trkpt lat="43.21932" lon="5.58247">
        <ele>217.4</ele>
        <time>2017-04-09T07:42:42Z</time>
      </trkpt>
      <trkpt lat="43.21927" lon="5.58245">
        <ele>218.4</ele>
        <time>2017-04-09T07:42:45Z</time>
      </trkpt>
      <trkpt lat="43.21922" lon="5.58244">
        <ele>219.4</ele>
        <time>2017-04-09T07:42:48Z</time>
      </trkpt>
      <trkpt lat="43.21919" lon="5.58245">
        <ele>220.2</ele>
        <time>2017-04-09T07:42:50Z</time>
      </trkpt>
      <trkpt lat="43.21917" lon="5.58246">
        <ele>220.6</ele>
        <time>2017-04-09T07:42:51Z</time>
      </trkpt>
      <trkpt lat="43.21907" lon="5.58251">
        <ele>221</ele>
        <time>2017-04-09T07:42:57Z</time>
      </trkpt>
      <trkpt lat="43.21889" lon="5.58262">
        <ele>219.6</ele>
        <time>2017-04-09T07:43:03Z</time>
      </trkpt>
      <trkpt lat="43.21875" lon="5.58272">
        <ele>217.8</ele>
        <time>2017-04-09T07:43:06Z</time>
      </trkpt>
      <trkpt lat="43.21866" lon="5.58277">
        <ele>216.6</ele>
        <time>2017-04-09T07:43:08Z</time>
      </trkpt>
      <trkpt lat="43.21853" lon="5.58287">
        <ele>215.8</ele>
        <time>2017-04-09T07:43:11Z</time>
      </trkpt>
      <trkpt lat="43.21848" lon="5.58291">
        <ele>214.4</ele>
        <time>2017-04-09T07:43:12Z</time>
      </trkpt>
      <trkpt lat="43.21843" lon="5.58297">
        <ele>214</ele>
        <time>2017-04-09T07:43:13Z</time>
      </trkpt>
      <trkpt lat="43.21834" lon="5.58307">
        <ele>213.2</ele>
        <time>2017-04-09T07:43:15Z</time>
      </trkpt>
      <trkpt lat="43.21831" lon="5.58313">
        <ele>213</ele>
        <time>2017-04-09T07:43:16Z</time>
      </trkpt>
      <trkpt lat="43.21827" lon="5.58325">
        <ele>213.2</ele>
        <time>2017-04-09T07:43:18Z</time>
      </trkpt>
      <trkpt lat="43.21825" lon="5.5835">
        <ele>214</ele>
        <time>2017-04-09T07:43:23Z</time>
      </trkpt>
      <trkpt lat="43.21825" lon="5.58355">
        <ele>214.2</ele>
        <time>2017-04-09T07:43:24Z</time>
      </trkpt>
      <trkpt lat="43.21824" lon="5.58366">
        <ele>215</ele>
        <time>2017-04-09T07:43:27Z</time>
      </trkpt>
      <trkpt lat="43.21824" lon="5.58369">
        <ele>215</ele>
        <time>2017-04-09T07:43:28Z</time>
      </trkpt>
      <trkpt lat="43.21823" lon="5.58391">
        <ele>214.2</ele>
        <time>2017-04-09T07:43:33Z</time>
      </trkpt>
      <trkpt lat="43.21822" lon="5.58405">
        <ele>213.8</ele>
        <time>2017-04-09T07:43:36Z</time>
      </trkpt>
      <trkpt lat="43.21821" lon="5.58417">
        <ele>213.2</ele>
        <time>2017-04-09T07:43:38Z</time>
      </trkpt>
      <trkpt lat="43.21819" lon="5.58452">
        <ele>213.2</ele>
        <time>2017-04-09T07:43:44Z</time>
      </trkpt>
      <trkpt lat="43.2182" lon="5.58479">
        <ele>214.2</ele>
        <time>2017-04-09T07:43:49Z</time>
      </trkpt>
      <trkpt lat="43.21821" lon="5.58484">
        <ele>214.2</ele>
        <time>2017-04-09T07:43:50Z</time>
      </trkpt>
      <trkpt lat="43.21824" lon="5.58503">
        <ele>215</ele>
        <time>2017-04-09T07:43:55Z</time>
      </trkpt>
      <trkpt lat="43.21824" lon="5.58507">
        <ele>215.4</ele>
        <time>2017-04-09T07:43:56Z</time>
      </trkpt>
      <trkpt lat="43.21825" lon="5.58516">
        <ele>215.8</ele>
        <time>2017-04-09T07:43:59Z</time>
      </trkpt>
      <trkpt lat="43.21825" lon="5.58519">
        <ele>215.8</ele>
        <time>2017-04-09T07:44:00Z</time>
      </trkpt>
      <trkpt lat="43.21823" lon="5.58532">
        <ele>214.8</ele>
        <time>2017-04-09T07:44:04Z</time>
      </trkpt>
      <trkpt lat="43.21823" lon="5.58538">
        <ele>214.4</ele>
        <time>2017-04-09T07:44:06Z</time>
      </trkpt>
      <trkpt lat="43.21822" lon="5.58545">
        <ele>213.8</ele>
        <time>2017-04-09T07:44:09Z</time>
      </trkpt>
      <trkpt lat="43.21821" lon="5.58547">
        <ele>213.6</ele>
        <time>2017-04-09T07:44:10Z</time>
      </trkpt>
      <trkpt lat="43.21821" lon="5.58549">
        <ele>213.6</ele>
        <time>2017-04-09T07:44:12Z</time>
      </trkpt>
      <trkpt lat="43.21822" lon="5.58551">
        <ele>213.6</ele>
        <time>2017-04-09T07:44:13Z</time>
      </trkpt>
      <trkpt lat="43.21823" lon="5.58553">
        <ele>213.4</ele>
        <time>2017-04-09T07:44:14Z</time>
      </trkpt>
      <trkpt lat="43.21824" lon="5.58555">
        <ele>213.4</ele>
        <time>2017-04-09T07:44:16Z</time>
      </trkpt>
      <trkpt lat="43.21825" lon="5.58558">
        <ele>213.8</ele>
        <time>2017-04-09T07:44:18Z</time>
      </trkpt>
      <trkpt lat="43.21827" lon="5.58557">
        <ele>214.4</ele>
        <time>2017-04-09T07:44:21Z</time>
      </trkpt>
      <trkpt lat="43.2183" lon="5.58556">
        <ele>214.8</ele>
        <time>2017-04-09T07:44:23Z</time>
      </trkpt>
      <trkpt lat="43.21833" lon="5.58555">
        <ele>215.4</ele>
        <time>2017-04-09T07:44:25Z</time>
      </trkpt>
      <trkpt lat="43.21837" lon="5.58552">
        <ele>216.6</ele>
        <time>2017-04-09T07:44:28Z</time>
      </trkpt>
      <trkpt lat="43.2184" lon="5.58548">
        <ele>217.8</ele>
        <time>2017-04-09T07:44:31Z</time>
      </trkpt>
      <trkpt lat="43.21842" lon="5.58546">
        <ele>218.2</ele>
        <time>2017-04-09T07:44:33Z</time>
      </trkpt>
      <trkpt lat="43.21842" lon="5.58545">
        <ele>218.2</ele>
        <time>2017-04-09T07:44:34Z</time>
      </trkpt>
      <trkpt lat="43.21844" lon="5.58543">
        <ele>219</ele>
        <time>2017-04-09T07:44:36Z</time>
      </trkpt>
      <trkpt lat="43.21847" lon="5.5854">
        <ele>219.6</ele>
        <time>2017-04-09T07:44:38Z</time>
      </trkpt>
      <trkpt lat="43.21848" lon="5.58538">
        <ele>219.8</ele>
        <time>2017-04-09T07:44:39Z</time>
      </trkpt>
      <trkpt lat="43.21849" lon="5.58537">
        <ele>220.2</ele>
        <time>2017-04-09T07:44:40Z</time>
      </trkpt>
      <trkpt lat="43.21852" lon="5.58532">
        <ele>220.8</ele>
        <time>2017-04-09T07:44:43Z</time>
      </trkpt>
      <trkpt lat="43.21853" lon="5.5853">
        <ele>221</ele>
        <time>2017-04-09T07:44:44Z</time>
      </trkpt>
      <trkpt lat="43.21855" lon="5.58529">
        <ele>221.6</ele>
        <time>2017-04-09T07:44:45Z</time>
      </trkpt>
      <trkpt lat="43.21861" lon="5.5852">
        <ele>222.8</ele>
        <time>2017-04-09T07:44:50Z</time>
      </trkpt>
      <trkpt lat="43.21865" lon="5.58515">
        <ele>223.4</ele>
        <time>2017-04-09T07:44:53Z</time>
      </trkpt>
      <trkpt lat="43.21868" lon="5.5851">
        <ele>223.8</ele>
        <time>2017-04-09T07:44:55Z</time>
      </trkpt>
      <trkpt lat="43.21874" lon="5.58501">
        <ele>224.2</ele>
        <time>2017-04-09T07:44:59Z</time>
      </trkpt>
      <trkpt lat="43.21884" lon="5.58488">
        <ele>224.8</ele>
        <time>2017-04-09T07:45:05Z</time>
      </trkpt>
      <trkpt lat="43.21888" lon="5.58486">
        <ele>224.8</ele>
        <time>2017-04-09T07:45:07Z</time>
      </trkpt>
      <trkpt lat="43.21893" lon="5.58484">
        <ele>225.6</ele>
        <time>2017-04-09T07:45:10Z</time>
      </trkpt>
      <trkpt lat="43.21894" lon="5.58483">
        <ele>226</ele>
        <time>2017-04-09T07:45:11Z</time>
      </trkpt>
      <trkpt lat="43.21895" lon="5.58483">
        <ele>226</ele>
        <time>2017-04-09T07:45:12Z</time>
      </trkpt>
      <trkpt lat="43.21898" lon="5.58484">
        <ele>226.6</ele>
        <time>2017-04-09T07:45:14Z</time>
      </trkpt>
      <trkpt lat="43.21899" lon="5.58484">
        <ele>227</ele>
        <time>2017-04-09T07:45:15Z</time>
      </trkpt>
      <trkpt lat="43.21904" lon="5.58484">
        <ele>228.2</ele>
        <time>2017-04-09T07:45:18Z</time>
      </trkpt>
      <trkpt lat="43.21909" lon="5.58484">
        <ele>228.8</ele>
        <time>2017-04-09T07:45:21Z</time>
      </trkpt>
      <trkpt lat="43.2191" lon="5.58484">
        <ele>229.2</ele>
        <time>2017-04-09T07:45:22Z</time>
      </trkpt>
      <trkpt lat="43.21911" lon="5.58484">
        <ele>229.6</ele>
        <time>2017-04-09T07:45:23Z</time>
      </trkpt>
      <trkpt lat="43.21917" lon="5.58484">
        <ele>230.4</ele>
        <time>2017-04-09T07:45:27Z</time>
      </trkpt>
      <trkpt lat="43.21925" lon="5.58485">
        <ele>231.4</ele>
        <time>2017-04-09T07:45:32Z</time>
      </trkpt>
      <trkpt lat="43.21927" lon="5.58485">
        <ele>232</ele>
        <time>2017-04-09T07:45:34Z</time>
      </trkpt>
      <trkpt lat="43.21931" lon="5.58484">
        <ele>232.6</ele>
        <time>2017-04-09T07:45:37Z</time>
      </trkpt>
      <trkpt lat="43.21935" lon="5.58483">
        <ele>233.2</ele>
        <time>2017-04-09T07:45:39Z</time>
      </trkpt>
      <trkpt lat="43.21938" lon="5.58481">
        <ele>233.6</ele>
        <time>2017-04-09T07:45:41Z</time>
      </trkpt>
      <trkpt lat="43.21944" lon="5.58477">
        <ele>234.8</ele>
        <time>2017-04-09T07:45:45Z</time>
      </trkpt>
      <trkpt lat="43.21946" lon="5.58476">
        <ele>235</ele>
        <time>2017-04-09T07:45:46Z</time>
      </trkpt>
      <trkpt lat="43.21949" lon="5.58473">
        <ele>236.2</ele>
        <time>2017-04-09T07:45:48Z</time>
      </trkpt>
      <trkpt lat="43.21956" lon="5.58465">
        <ele>237.2</ele>
        <time>2017-04-09T07:45:53Z</time>
      </trkpt>
      <trkpt lat="43.21957" lon="5.58463">
        <ele>237.4</ele>
        <time>2017-04-09T07:45:54Z</time>
      </trkpt>
      <trkpt lat="43.21959" lon="5.58459">
        <ele>238.2</ele>
        <time>2017-04-09T07:45:56Z</time>
      </trkpt>
      <trkpt lat="43.21964" lon="5.58451">
        <ele>238.6</ele>
        <time>2017-04-09T07:46:00Z</time>
      </trkpt>
      <trkpt lat="43.21973" lon="5.5844">
        <ele>239.6</ele>
        <time>2017-04-09T07:46:06Z</time>
      </trkpt>
      <trkpt lat="43.21975" lon="5.58437">
        <ele>240</ele>
        <time>2017-04-09T07:46:08Z</time>
      </trkpt>
      <trkpt lat="43.21979" lon="5.58432">
        <ele>240.8</ele>
        <time>2017-04-09T07:46:11Z</time>
      </trkpt>
      <trkpt lat="43.21983" lon="5.58427">
        <ele>242</ele>
        <time>2017-04-09T07:46:14Z</time>
      </trkpt>
      <trkpt lat="43.21986" lon="5.58424">
        <ele>242.4</ele>
        <time>2017-04-09T07:46:16Z</time>
      </trkpt>
      <trkpt lat="43.21991" lon="5.58419">
        <ele>243.4</ele>
        <time>2017-04-09T07:46:20Z</time>
      </trkpt>
      <trkpt lat="43.21994" lon="5.58416">
        <ele>244.4</ele>
        <time>2017-04-09T07:46:22Z</time>
      </trkpt>
      <trkpt lat="43.21995" lon="5.58415">
        <ele>244.4</ele>
        <time>2017-04-09T07:46:23Z</time>
      </trkpt>
      <trkpt lat="43.22004" lon="5.58411">
        <ele>245.8</ele>
        <time>2017-04-09T07:46:29Z</time>
      </trkpt>
      <trkpt lat="43.22005" lon="5.58411">
        <ele>245.8</ele>
        <time>2017-04-09T07:46:30Z</time>
      </trkpt>
      <trkpt lat="43.2201" lon="5.58409">
        <ele>246.8</ele>
        <time>2017-04-09T07:46:33Z</time>
      </trkpt>
      <trkpt lat="43.22016" lon="5.58406">
        <ele>248</ele>
        <time>2017-04-09T07:46:37Z</time>
      </trkpt>
      <trkpt lat="43.22018" lon="5.58405">
        <ele>248.6</ele>
        <time>2017-04-09T07:46:38Z</time>
      </trkpt>
      <trkpt lat="43.22021" lon="5.58403">
        <ele>249.2</ele>
        <time>2017-04-09T07:46:40Z</time>
      </trkpt>
      <trkpt lat="43.22032" lon="5.58398">
        <ele>250.4</ele>
        <time>2017-04-09T07:46:46Z</time>
      </trkpt>
      <trkpt lat="43.22033" lon="5.58397">
        <ele>250.6</ele>
        <time>2017-04-09T07:46:47Z</time>
      </trkpt>
      <trkpt lat="43.22038" lon="5.58395">
        <ele>251.4</ele>
        <time>2017-04-09T07:46:50Z</time>
      </trkpt>
      <trkpt lat="43.22045" lon="5.58393">
        <ele>252.4</ele>
        <time>2017-04-09T07:46:54Z</time>
      </trkpt>
      <trkpt lat="43.22047" lon="5.58393">
        <ele>252.4</ele>
        <time>2017-04-09T07:46:55Z</time>
      </trkpt>
      <trkpt lat="43.22055" lon="5.58391">
        <ele>253.6</ele>
        <time>2017-04-09T07:47:00Z</time>
      </trkpt>
      <trkpt lat="43.22058" lon="5.5839">
        <ele>254.2</ele>
        <time>2017-04-09T07:47:02Z</time>
      </trkpt>
      <trkpt lat="43.2206" lon="5.5839">
        <ele>254.8</ele>
        <time>2017-04-09T07:47:03Z</time>
      </trkpt>
      <trkpt lat="43.22064" lon="5.58389">
        <ele>255.8</ele>
        <time>2017-04-09T07:47:06Z</time>
      </trkpt>
      <trkpt lat="43.22068" lon="5.58388">
        <ele>256.4</ele>
        <time>2017-04-09T07:47:08Z</time>
      </trkpt>
      <trkpt lat="43.22073" lon="5.58386">
        <ele>257</ele>
        <time>2017-04-09T07:47:12Z</time>
      </trkpt>
      <trkpt lat="43.2208" lon="5.58385">
        <ele>258</ele>
        <time>2017-04-09T07:47:16Z</time>
      </trkpt>
      <trkpt lat="43.22082" lon="5.58385">
        <ele>258.2</ele>
        <time>2017-04-09T07:47:17Z</time>
      </trkpt>
      <trkpt lat="43.2209" lon="5.58383">
        <ele>259.4</ele>
        <time>2017-04-09T07:47:22Z</time>
      </trkpt>
      <trkpt lat="43.22091" lon="5.58382">
        <ele>259.6</ele>
        <time>2017-04-09T07:47:23Z</time>
      </trkpt>
      <trkpt lat="43.22096" lon="5.58382">
        <ele>260.6</ele>
        <time>2017-04-09T07:47:26Z</time>
      </trkpt>
      <trkpt lat="43.22105" lon="5.58382">
        <ele>262</ele>
        <time>2017-04-09T07:47:31Z</time>
      </trkpt>
      <trkpt lat="43.22106" lon="5.58382">
        <ele>262.6</ele>
        <time>2017-04-09T07:47:32Z</time>
      </trkpt>
      <trkpt lat="43.2211" lon="5.58382">
        <ele>263.2</ele>
        <time>2017-04-09T07:47:34Z</time>
      </trkpt>
      <trkpt lat="43.22118" lon="5.58382">
        <ele>264</ele>
        <time>2017-04-09T07:47:39Z</time>
      </trkpt>
      <trkpt lat="43.22119" lon="5.58382">
        <ele>264.4</ele>
        <time>2017-04-09T07:47:40Z</time>
      </trkpt>
      <trkpt lat="43.22122" lon="5.58382">
        <ele>265.6</ele>
        <time>2017-04-09T07:47:42Z</time>
      </trkpt>
      <trkpt lat="43.22129" lon="5.58382">
        <ele>266</ele>
        <time>2017-04-09T07:47:46Z</time>
      </trkpt>
      <trkpt lat="43.2213" lon="5.58383">
        <ele>266.6</ele>
        <time>2017-04-09T07:47:47Z</time>
      </trkpt>
      <trkpt lat="43.22138" lon="5.58383">
        <ele>267.8</ele>
        <time>2017-04-09T07:47:52Z</time>
      </trkpt>
      <trkpt lat="43.2214" lon="5.58383">
        <ele>268</ele>
        <time>2017-04-09T07:47:53Z</time>
      </trkpt>
      <trkpt lat="43.22145" lon="5.58384">
        <ele>268.8</ele>
        <time>2017-04-09T07:47:56Z</time>
      </trkpt>
      <trkpt lat="43.22151" lon="5.58386">
        <ele>270.4</ele>
        <time>2017-04-09T07:48:00Z</time>
      </trkpt>
      <trkpt lat="43.22153" lon="5.58386">
        <ele>270.6</ele>
        <time>2017-04-09T07:48:01Z</time>
      </trkpt>
      <trkpt lat="43.22158" lon="5.58388">
        <ele>271.4</ele>
        <time>2017-04-09T07:48:04Z</time>
      </trkpt>
      <trkpt lat="43.22165" lon="5.58391">
        <ele>272.6</ele>
        <time>2017-04-09T07:48:09Z</time>
      </trkpt>
      <trkpt lat="43.2217" lon="5.58393">
        <ele>273.8</ele>
        <time>2017-04-09T07:48:12Z</time>
      </trkpt>
      <trkpt lat="43.22179" lon="5.58394">
        <ele>274.6</ele>
        <time>2017-04-09T07:48:17Z</time>
      </trkpt>
      <trkpt lat="43.2218" lon="5.58394">
        <ele>274.8</ele>
        <time>2017-04-09T07:48:18Z</time>
      </trkpt>
      <trkpt lat="43.22188" lon="5.58394">
        <ele>276</ele>
        <time>2017-04-09T07:48:22Z</time>
      </trkpt>
      <trkpt lat="43.22189" lon="5.58394">
        <ele>276.2</ele>
        <time>2017-04-09T07:48:23Z</time>
      </trkpt>
      <trkpt lat="43.22193" lon="5.58395">
        <ele>277</ele>
        <time>2017-04-09T07:48:25Z</time>
      </trkpt>
      <trkpt lat="43.22199" lon="5.58399">
        <ele>277.2</ele>
        <time>2017-04-09T07:48:29Z</time>
      </trkpt>
      <trkpt lat="43.22201" lon="5.58401">
        <ele>277</ele>
        <time>2017-04-09T07:48:30Z</time>
      </trkpt>
      <trkpt lat="43.22204" lon="5.58409">
        <ele>277.4</ele>
        <time>2017-04-09T07:48:33Z</time>
      </trkpt>
      <trkpt lat="43.22207" lon="5.58419">
        <ele>277.8</ele>
        <time>2017-04-09T07:48:36Z</time>
      </trkpt>
      <trkpt lat="43.22208" lon="5.58422">
        <ele>278</ele>
        <time>2017-04-09T07:48:37Z</time>
      </trkpt>
      <trkpt lat="43.22208" lon="5.58425">
        <ele>278.2</ele>
        <time>2017-04-09T07:48:38Z</time>
      </trkpt>
      <trkpt lat="43.22215" lon="5.58445">
        <ele>278.8</ele>
        <time>2017-04-09T07:48:44Z</time>
      </trkpt>
      <trkpt lat="43.22216" lon="5.58448">
        <ele>279</ele>
        <time>2017-04-09T07:48:45Z</time>
      </trkpt>
      <trkpt lat="43.22223" lon="5.58473">
        <ele>280</ele>
        <time>2017-04-09T07:48:52Z</time>
      </trkpt>
      <trkpt lat="43.22228" lon="5.58505">
        <ele>279.6</ele>
        <time>2017-04-09T07:48:59Z</time>
      </trkpt>
      <trkpt lat="43.22229" lon="5.58546">
        <ele>279.4</ele>
        <time>2017-04-09T07:49:07Z</time>
      </trkpt>
      <trkpt lat="43.22224" lon="5.58564">
        <ele>280.2</ele>
        <time>2017-04-09T07:49:11Z</time>
      </trkpt>
      <trkpt lat="43.22223" lon="5.58568">
        <ele>280.4</ele>
        <time>2017-04-09T07:49:12Z</time>
      </trkpt>
      <trkpt lat="43.22221" lon="5.5859">
        <ele>281.2</ele>
        <time>2017-04-09T07:49:17Z</time>
      </trkpt>
      <trkpt lat="43.22221" lon="5.58595">
        <ele>281.6</ele>
        <time>2017-04-09T07:49:18Z</time>
      </trkpt>
      <trkpt lat="43.22217" lon="5.58611">
        <ele>281.8</ele>
        <time>2017-04-09T07:49:22Z</time>
      </trkpt>
      <trkpt lat="43.22217" lon="5.5863">
        <ele>282.2</ele>
        <time>2017-04-09T07:49:27Z</time>
      </trkpt>
      <trkpt lat="43.2222" lon="5.58645">
        <ele>282.6</ele>
        <time>2017-04-09T07:49:31Z</time>
      </trkpt>
      <trkpt lat="43.2223" lon="5.58661">
        <ele>283.4</ele>
        <time>2017-04-09T07:49:37Z</time>
      </trkpt>
      <trkpt lat="43.22232" lon="5.58663">
        <ele>283.6</ele>
        <time>2017-04-09T07:49:38Z</time>
      </trkpt>
      <trkpt lat="43.22243" lon="5.5868">
        <ele>284.8</ele>
        <time>2017-04-09T07:49:44Z</time>
      </trkpt>
      <trkpt lat="43.22249" lon="5.58692">
        <ele>286</ele>
        <time>2017-04-09T07:49:48Z</time>
      </trkpt>
      <trkpt lat="43.22255" lon="5.587">
        <ele>286.4</ele>
        <time>2017-04-09T07:49:51Z</time>
      </trkpt>
      <trkpt lat="43.22259" lon="5.58715">
        <ele>286.8</ele>
        <time>2017-04-09T07:49:56Z</time>
      </trkpt>
      <trkpt lat="43.2226" lon="5.58742">
        <ele>285.6</ele>
        <time>2017-04-09T07:50:02Z</time>
      </trkpt>
      <trkpt lat="43.2226" lon="5.58754">
        <ele>284.8</ele>
        <time>2017-04-09T07:50:04Z</time>
      </trkpt>
      <trkpt lat="43.2226" lon="5.58776">
        <ele>283.4</ele>
        <time>2017-04-09T07:50:07Z</time>
      </trkpt>
      <trkpt lat="43.22259" lon="5.58789">
        <ele>282.4</ele>
        <time>2017-04-09T07:50:09Z</time>
      </trkpt>
      <trkpt lat="43.22259" lon="5.58795">
        <ele>281.8</ele>
        <time>2017-04-09T07:50:11Z</time>
      </trkpt>
      <trkpt lat="43.22257" lon="5.58801">
        <ele>281.4</ele>
        <time>2017-04-09T07:50:15Z</time>
      </trkpt>
      <trkpt lat="43.22256" lon="5.58802">
        <ele>281.4</ele>
        <time>2017-04-09T07:50:16Z</time>
      </trkpt>
      <trkpt lat="43.22256" lon="5.58804">
        <ele>281</ele>
        <time>2017-04-09T07:50:17Z</time>
      </trkpt>
      <trkpt lat="43.22254" lon="5.58808">
        <ele>280.4</ele>
        <time>2017-04-09T07:50:21Z</time>
      </trkpt>
      <trkpt lat="43.22251" lon="5.58798">
        <ele>280.8</ele>
        <time>2017-04-09T07:54:10Z</time>
      </trkpt>
      <trkpt lat="43.22246" lon="5.58796">
        <ele>281.2</ele>
        <time>2017-04-09T07:54:12Z</time>
      </trkpt>
      <trkpt lat="43.22241" lon="5.58796">
        <ele>281.4</ele>
        <time>2017-04-09T07:54:14Z</time>
      </trkpt>
      <trkpt lat="43.22234" lon="5.58797">
        <ele>281.2</ele>
        <time>2017-04-09T07:54:18Z</time>
      </trkpt>
      <trkpt lat="43.22232" lon="5.58797">
        <ele>280.8</ele>
        <time>2017-04-09T07:54:19Z</time>
      </trkpt>
      <trkpt lat="43.2223" lon="5.58796">
        <ele>281.2</ele>
        <time>2017-04-09T07:54:22Z</time>
      </trkpt>
      <trkpt lat="43.2222" lon="5.58796">
        <ele>280</ele>
        <time>2017-04-09T07:54:51Z</time>
      </trkpt>
      <trkpt lat="43.22219" lon="5.58795">
        <ele>279.8</ele>
        <time>2017-04-09T07:54:52Z</time>
      </trkpt>
      <trkpt lat="43.22217" lon="5.58793">
        <ele>279.6</ele>
        <time>2017-04-09T07:54:53Z</time>
      </trkpt>
      <trkpt lat="43.22214" lon="5.5879">
        <ele>279.2</ele>
        <time>2017-04-09T07:54:56Z</time>
      </trkpt>
      <trkpt lat="43.22212" lon="5.58788">
        <ele>279</ele>
        <time>2017-04-09T07:54:57Z</time>
      </trkpt>
      <trkpt lat="43.22208" lon="5.58783">
        <ele>278.8</ele>
        <time>2017-04-09T07:54:59Z</time>
      </trkpt>
      <trkpt lat="43.22206" lon="5.58781">
        <ele>278.4</ele>
        <time>2017-04-09T07:55:00Z</time>
      </trkpt>
      <trkpt lat="43.22202" lon="5.58777">
        <ele>278.2</ele>
        <time>2017-04-09T07:55:02Z</time>
      </trkpt>
      <trkpt lat="43.22199" lon="5.58773">
        <ele>277.6</ele>
        <time>2017-04-09T07:55:04Z</time>
      </trkpt>
      <trkpt lat="43.22194" lon="5.58768">
        <ele>277</ele>
        <time>2017-04-09T07:55:06Z</time>
      </trkpt>
      <trkpt lat="43.22191" lon="5.58765">
        <ele>276.6</ele>
        <time>2017-04-09T07:55:07Z</time>
      </trkpt>
      <trkpt lat="43.22183" lon="5.5876">
        <ele>274.8</ele>
        <time>2017-04-09T07:55:09Z</time>
      </trkpt>
      <trkpt lat="43.22179" lon="5.58756">
        <ele>274</ele>
        <time>2017-04-09T07:55:10Z</time>
      </trkpt>
      <trkpt lat="43.22174" lon="5.58752">
        <ele>273.2</ele>
        <time>2017-04-09T07:55:11Z</time>
      </trkpt>
      <trkpt lat="43.22164" lon="5.58745">
        <ele>272</ele>
        <time>2017-04-09T07:55:13Z</time>
      </trkpt>
      <trkpt lat="43.22156" lon="5.5874">
        <ele>270.8</ele>
        <time>2017-04-09T07:55:15Z</time>
      </trkpt>
      <trkpt lat="43.22142" lon="5.58736">
        <ele>269.6</ele>
        <time>2017-04-09T07:55:18Z</time>
      </trkpt>
      <trkpt lat="43.22137" lon="5.58736">
        <ele>268.8</ele>
        <time>2017-04-09T07:55:19Z</time>
      </trkpt>
      <trkpt lat="43.22133" lon="5.58737">
        <ele>268.4</ele>
        <time>2017-04-09T07:55:20Z</time>
      </trkpt>
      <trkpt lat="43.22129" lon="5.5874">
        <ele>268</ele>
        <time>2017-04-09T07:55:21Z</time>
      </trkpt>
      <trkpt lat="43.22127" lon="5.58744">
        <ele>267.6</ele>
        <time>2017-04-09T07:55:22Z</time>
      </trkpt>
      <trkpt lat="43.22122" lon="5.58755">
        <ele>267.2</ele>
        <time>2017-04-09T07:55:24Z</time>
      </trkpt>
      <trkpt lat="43.22118" lon="5.58769">
        <ele>265.8</ele>
        <time>2017-04-09T07:55:26Z</time>
      </trkpt>
      <trkpt lat="43.22114" lon="5.58786">
        <ele>264.4</ele>
        <time>2017-04-09T07:55:28Z</time>
      </trkpt>
      <trkpt lat="43.2211" lon="5.58803">
        <ele>262.8</ele>
        <time>2017-04-09T07:55:30Z</time>
      </trkpt>
      <trkpt lat="43.22109" lon="5.5881">
        <ele>261.8</ele>
        <time>2017-04-09T07:55:31Z</time>
      </trkpt>
      <trkpt lat="43.22109" lon="5.58817">
        <ele>261.4</ele>
        <time>2017-04-09T07:55:32Z</time>
      </trkpt>
      <trkpt lat="43.22102" lon="5.5884">
        <ele>259.8</ele>
        <time>2017-04-09T07:55:35Z</time>
      </trkpt>
      <trkpt lat="43.22099" lon="5.58848">
        <ele>258.6</ele>
        <time>2017-04-09T07:55:36Z</time>
      </trkpt>
      <trkpt lat="43.22092" lon="5.58864">
        <ele>257.4</ele>
        <time>2017-04-09T07:55:38Z</time>
      </trkpt>
      <trkpt lat="43.22085" lon="5.58881">
        <ele>256.2</ele>
        <time>2017-04-09T07:55:40Z</time>
      </trkpt>
      <trkpt lat="43.22083" lon="5.58889">
        <ele>255.4</ele>
        <time>2017-04-09T07:55:41Z</time>
      </trkpt>
      <trkpt lat="43.22081" lon="5.58896">
        <ele>255</ele>
        <time>2017-04-09T07:55:42Z</time>
      </trkpt>
      <trkpt lat="43.22079" lon="5.5891">
        <ele>253.8</ele>
        <time>2017-04-09T07:55:44Z</time>
      </trkpt>
      <trkpt lat="43.22079" lon="5.58917">
        <ele>253.4</ele>
        <time>2017-04-09T07:55:45Z</time>
      </trkpt>
      <trkpt lat="43.22084" lon="5.58941">
        <ele>252.8</ele>
        <time>2017-04-09T07:55:48Z</time>
      </trkpt>
      <trkpt lat="43.22085" lon="5.5895">
        <ele>251.8</ele>
        <time>2017-04-09T07:55:49Z</time>
      </trkpt>
      <trkpt lat="43.22085" lon="5.58959">
        <ele>251.2</ele>
        <time>2017-04-09T07:55:50Z</time>
      </trkpt>
      <trkpt lat="43.22082" lon="5.58979">
        <ele>249.8</ele>
        <time>2017-04-09T07:55:52Z</time>
      </trkpt>
      <trkpt lat="43.2208" lon="5.58989">
        <ele>248.6</ele>
        <time>2017-04-09T07:55:53Z</time>
      </trkpt>
      <trkpt lat="43.22076" lon="5.5901">
        <ele>246.6</ele>
        <time>2017-04-09T07:55:55Z</time>
      </trkpt>
      <trkpt lat="43.22072" lon="5.59021">
        <ele>245.6</ele>
        <time>2017-04-09T07:55:56Z</time>
      </trkpt>
      <trkpt lat="43.22069" lon="5.59031">
        <ele>244.8</ele>
        <time>2017-04-09T07:55:57Z</time>
      </trkpt>
      <trkpt lat="43.22065" lon="5.59043">
        <ele>244</ele>
        <time>2017-04-09T07:55:58Z</time>
      </trkpt>
      <trkpt lat="43.22057" lon="5.59061">
        <ele>242.8</ele>
        <time>2017-04-09T07:56:00Z</time>
      </trkpt>
      <trkpt lat="43.22054" lon="5.59069">
        <ele>242.6</ele>
        <time>2017-04-09T07:56:01Z</time>
      </trkpt>
      <trkpt lat="43.22053" lon="5.59076">
        <ele>242.4</ele>
        <time>2017-04-09T07:56:02Z</time>
      </trkpt>
      <trkpt lat="43.22052" lon="5.59094">
        <ele>241</ele>
        <time>2017-04-09T07:56:04Z</time>
      </trkpt>
      <trkpt lat="43.22052" lon="5.59102">
        <ele>240</ele>
        <time>2017-04-09T07:56:05Z</time>
      </trkpt>
      <trkpt lat="43.22053" lon="5.5911">
        <ele>239.4</ele>
        <time>2017-04-09T07:56:06Z</time>
      </trkpt>
      <trkpt lat="43.22055" lon="5.59127">
        <ele>238.2</ele>
        <time>2017-04-09T07:56:08Z</time>
      </trkpt>
      <trkpt lat="43.22055" lon="5.59136">
        <ele>237</ele>
        <time>2017-04-09T07:56:09Z</time>
      </trkpt>
      <trkpt lat="43.22055" lon="5.59148">
        <ele>236</ele>
        <time>2017-04-09T07:56:11Z</time>
      </trkpt>
      <trkpt lat="43.22053" lon="5.59154">
        <ele>238</ele>
        <time>2017-04-09T07:56:13Z</time>
      </trkpt>
      <trkpt lat="43.22052" lon="5.59157">
        <ele>238.8</ele>
        <time>2017-04-09T07:56:14Z</time>
      </trkpt>
      <trkpt lat="43.22051" lon="5.59166">
        <ele>239.2</ele>
        <time>2017-04-09T07:56:17Z</time>
      </trkpt>
      <trkpt lat="43.2205" lon="5.59169">
        <ele>239.6</ele>
        <time>2017-04-09T07:56:18Z</time>
      </trkpt>
      <trkpt lat="43.22048" lon="5.59181">
        <ele>238.4</ele>
        <time>2017-04-09T07:56:21Z</time>
      </trkpt>
      <trkpt lat="43.22047" lon="5.59183">
        <ele>238.2</ele>
        <time>2017-04-09T07:56:22Z</time>
      </trkpt>
      <trkpt lat="43.22044" lon="5.59202">
        <ele>236.6</ele>
        <time>2017-04-09T07:56:26Z</time>
      </trkpt>
      <trkpt lat="43.22042" lon="5.59217">
        <ele>234.6</ele>
        <time>2017-04-09T07:56:28Z</time>
      </trkpt>
      <trkpt lat="43.22041" lon="5.59226">
        <ele>233.6</ele>
        <time>2017-04-09T07:56:29Z</time>
      </trkpt>
      <trkpt lat="43.22038" lon="5.59235">
        <ele>232.2</ele>
        <time>2017-04-09T07:56:30Z</time>
      </trkpt>
      <trkpt lat="43.22035" lon="5.59243">
        <ele>230.8</ele>
        <time>2017-04-09T07:56:31Z</time>
      </trkpt>
      <trkpt lat="43.22033" lon="5.59251">
        <ele>229.8</ele>
        <time>2017-04-09T07:56:32Z</time>
      </trkpt>
      <trkpt lat="43.2203" lon="5.59265">
        <ele>229.2</ele>
        <time>2017-04-09T07:56:34Z</time>
      </trkpt>
      <trkpt lat="43.22028" lon="5.59273">
        <ele>228.6</ele>
        <time>2017-04-09T07:56:35Z</time>
      </trkpt>
      <trkpt lat="43.22027" lon="5.59281">
        <ele>227.4</ele>
        <time>2017-04-09T07:56:36Z</time>
      </trkpt>
      <trkpt lat="43.22022" lon="5.59297">
        <ele>225.2</ele>
        <time>2017-04-09T07:56:38Z</time>
      </trkpt>
      <trkpt lat="43.22019" lon="5.59313">
        <ele>223.6</ele>
        <time>2017-04-09T07:56:40Z</time>
      </trkpt>
      <trkpt lat="43.22018" lon="5.59322">
        <ele>222.4</ele>
        <time>2017-04-09T07:56:41Z</time>
      </trkpt>
      <trkpt lat="43.22017" lon="5.59332">
        <ele>221.2</ele>
        <time>2017-04-09T07:56:42Z</time>
      </trkpt>
      <trkpt lat="43.22015" lon="5.59342">
        <ele>220</ele>
        <time>2017-04-09T07:56:43Z</time>
      </trkpt>
      <trkpt lat="43.22013" lon="5.59357">
        <ele>218.6</ele>
        <time>2017-04-09T07:56:45Z</time>
      </trkpt>
      <trkpt lat="43.22011" lon="5.59364">
        <ele>217.4</ele>
        <time>2017-04-09T07:56:46Z</time>
      </trkpt>
      <trkpt lat="43.22008" lon="5.59377">
        <ele>216.4</ele>
        <time>2017-04-09T07:56:49Z</time>
      </trkpt>
      <trkpt lat="43.22005" lon="5.59382">
        <ele>215.8</ele>
        <time>2017-04-09T07:56:50Z</time>
      </trkpt>
      <trkpt lat="43.22002" lon="5.59385">
        <ele>215</ele>
        <time>2017-04-09T07:56:51Z</time>
      </trkpt>
      <trkpt lat="43.21998" lon="5.59388">
        <ele>213.8</ele>
        <time>2017-04-09T07:56:52Z</time>
      </trkpt>
      <trkpt lat="43.21996" lon="5.5939">
        <ele>213</ele>
        <time>2017-04-09T07:56:53Z</time>
      </trkpt>
      <trkpt lat="43.21994" lon="5.59393">
        <ele>212.6</ele>
        <time>2017-04-09T07:56:54Z</time>
      </trkpt>
      <trkpt lat="43.21995" lon="5.59401">
        <ele>212.2</ele>
        <time>2017-04-09T07:56:56Z</time>
      </trkpt>
      <trkpt lat="43.21995" lon="5.59406">
        <ele>212.2</ele>
        <time>2017-04-09T07:56:57Z</time>
      </trkpt>
      <trkpt lat="43.21994" lon="5.5943">
        <ele>211.8</ele>
        <time>2017-04-09T07:57:01Z</time>
      </trkpt>
      <trkpt lat="43.21995" lon="5.59452">
        <ele>212.4</ele>
        <time>2017-04-09T07:57:04Z</time>
      </trkpt>
      <trkpt lat="43.21996" lon="5.59484">
        <ele>212.4</ele>
        <time>2017-04-09T07:57:08Z</time>
      </trkpt>
      <trkpt lat="43.21998" lon="5.59516">
        <ele>211</ele>
        <time>2017-04-09T07:57:12Z</time>
      </trkpt>
      <trkpt lat="43.21997" lon="5.59524">
        <ele>210.6</ele>
        <time>2017-04-09T07:57:13Z</time>
      </trkpt>
      <trkpt lat="43.21995" lon="5.59556">
        <ele>210.2</ele>
        <time>2017-04-09T07:57:17Z</time>
      </trkpt>
      <trkpt lat="43.21993" lon="5.59563">
        <ele>209.6</ele>
        <time>2017-04-09T07:57:18Z</time>
      </trkpt>
      <trkpt lat="43.21988" lon="5.59577">
        <ele>208.6</ele>
        <time>2017-04-09T07:57:20Z</time>
      </trkpt>
      <trkpt lat="43.21987" lon="5.59585">
        <ele>208</ele>
        <time>2017-04-09T07:57:21Z</time>
      </trkpt>
      <trkpt lat="43.21984" lon="5.59591">
        <ele>207.4</ele>
        <time>2017-04-09T07:57:22Z</time>
      </trkpt>
      <trkpt lat="43.21975" lon="5.59612">
        <ele>205.2</ele>
        <time>2017-04-09T07:57:25Z</time>
      </trkpt>
      <trkpt lat="43.2197" lon="5.59619">
        <ele>203.8</ele>
        <time>2017-04-09T07:57:26Z</time>
      </trkpt>
      <trkpt lat="43.21965" lon="5.59625">
        <ele>202.4</ele>
        <time>2017-04-09T07:57:27Z</time>
      </trkpt>
      <trkpt lat="43.21958" lon="5.59636">
        <ele>201.2</ele>
        <time>2017-04-09T07:57:29Z</time>
      </trkpt>
      <trkpt lat="43.21954" lon="5.5964">
        <ele>200.8</ele>
        <time>2017-04-09T07:57:30Z</time>
      </trkpt>
      <trkpt lat="43.2195" lon="5.59644">
        <ele>200.2</ele>
        <time>2017-04-09T07:57:31Z</time>
      </trkpt>
      <trkpt lat="43.2194" lon="5.5965">
        <ele>198.8</ele>
        <time>2017-04-09T07:57:33Z</time>
      </trkpt>
      <trkpt lat="43.21935" lon="5.59655">
        <ele>198</ele>
        <time>2017-04-09T07:57:34Z</time>
      </trkpt>
      <trkpt lat="43.21929" lon="5.5966">
        <ele>197.2</ele>
        <time>2017-04-09T07:57:35Z</time>
      </trkpt>
      <trkpt lat="43.21925" lon="5.59666">
        <ele>196</ele>
        <time>2017-04-09T07:57:36Z</time>
      </trkpt>
      <trkpt lat="43.21921" lon="5.59673">
        <ele>193.8</ele>
        <time>2017-04-09T07:57:37Z</time>
      </trkpt>
      <trkpt lat="43.21916" lon="5.5968">
        <ele>193.2</ele>
        <time>2017-04-09T07:57:38Z</time>
      </trkpt>
      <trkpt lat="43.21911" lon="5.59687">
        <ele>192.6</ele>
        <time>2017-04-09T07:57:39Z</time>
      </trkpt>
      <trkpt lat="43.21904" lon="5.59698">
        <ele>192.8</ele>
        <time>2017-04-09T07:57:41Z</time>
      </trkpt>
      <trkpt lat="43.219" lon="5.59704">
        <ele>192.6</ele>
        <time>2017-04-09T07:57:42Z</time>
      </trkpt>
      <trkpt lat="43.21889" lon="5.59718">
        <ele>190</ele>
        <time>2017-04-09T07:57:44Z</time>
      </trkpt>
      <trkpt lat="43.21883" lon="5.59724">
        <ele>188.4</ele>
        <time>2017-04-09T07:57:45Z</time>
      </trkpt>
      <trkpt lat="43.21877" lon="5.5973">
        <ele>187.4</ele>
        <time>2017-04-09T07:57:46Z</time>
      </trkpt>
      <trkpt lat="43.21869" lon="5.59745">
        <ele>185.8</ele>
        <time>2017-04-09T07:57:48Z</time>
      </trkpt>
      <trkpt lat="43.2186" lon="5.59759">
        <ele>184.2</ele>
        <time>2017-04-09T07:57:50Z</time>
      </trkpt>
      <trkpt lat="43.2185" lon="5.59769">
        <ele>182.8</ele>
        <time>2017-04-09T07:57:52Z</time>
      </trkpt>
      <trkpt lat="43.2184" lon="5.59779">
        <ele>181.6</ele>
        <time>2017-04-09T07:57:54Z</time>
      </trkpt>
      <trkpt lat="43.21836" lon="5.59786">
        <ele>180</ele>
        <time>2017-04-09T07:57:55Z</time>
      </trkpt>
      <trkpt lat="43.21832" lon="5.59794">
        <ele>178.8</ele>
        <time>2017-04-09T07:57:56Z</time>
      </trkpt>
      <trkpt lat="43.21828" lon="5.59804">
        <ele>177.2</ele>
        <time>2017-04-09T07:57:57Z</time>
      </trkpt>
      <trkpt lat="43.21823" lon="5.59813">
        <ele>176</ele>
        <time>2017-04-09T07:57:58Z</time>
      </trkpt>
      <trkpt lat="43.21818" lon="5.59822">
        <ele>174.8</ele>
        <time>2017-04-09T07:57:59Z</time>
      </trkpt>
      <trkpt lat="43.21809" lon="5.59839">
        <ele>173.6</ele>
        <time>2017-04-09T07:58:01Z</time>
      </trkpt>
      <trkpt lat="43.21801" lon="5.59861">
        <ele>172.4</ele>
        <time>2017-04-09T07:58:04Z</time>
      </trkpt>
      <trkpt lat="43.21799" lon="5.59868">
        <ele>172</ele>
        <time>2017-04-09T07:58:05Z</time>
      </trkpt>
      <trkpt lat="43.21791" lon="5.5988">
        <ele>171.2</ele>
        <time>2017-04-09T07:58:07Z</time>
      </trkpt>
      <trkpt lat="43.21787" lon="5.59885">
        <ele>170.4</ele>
        <time>2017-04-09T07:58:08Z</time>
      </trkpt>
      <trkpt lat="43.21782" lon="5.59892">
        <ele>169.4</ele>
        <time>2017-04-09T07:58:09Z</time>
      </trkpt>
      <trkpt lat="43.21779" lon="5.59899">
        <ele>168.4</ele>
        <time>2017-04-09T07:58:10Z</time>
      </trkpt>
      <trkpt lat="43.21774" lon="5.59907">
        <ele>167.4</ele>
        <time>2017-04-09T07:58:11Z</time>
      </trkpt>
      <trkpt lat="43.21769" lon="5.59915">
        <ele>166</ele>
        <time>2017-04-09T07:58:12Z</time>
      </trkpt>
      <trkpt lat="43.21764" lon="5.59922">
        <ele>165</ele>
        <time>2017-04-09T07:58:13Z</time>
      </trkpt>
      <trkpt lat="43.21759" lon="5.5993">
        <ele>163.8</ele>
        <time>2017-04-09T07:58:14Z</time>
      </trkpt>
      <trkpt lat="43.21749" lon="5.59947">
        <ele>162.4</ele>
        <time>2017-04-09T07:58:16Z</time>
      </trkpt>
      <trkpt lat="43.21745" lon="5.59955">
        <ele>161.2</ele>
        <time>2017-04-09T07:58:17Z</time>
      </trkpt>
      <trkpt lat="43.21742" lon="5.59965">
        <ele>160.2</ele>
        <time>2017-04-09T07:58:18Z</time>
      </trkpt>
      <trkpt lat="43.21733" lon="5.59982">
        <ele>158.8</ele>
        <time>2017-04-09T07:58:20Z</time>
      </trkpt>
      <trkpt lat="43.21728" lon="5.59989">
        <ele>157.6</ele>
        <time>2017-04-09T07:58:21Z</time>
      </trkpt>
      <trkpt lat="43.21723" lon="5.59995">
        <ele>156.4</ele>
        <time>2017-04-09T07:58:22Z</time>
      </trkpt>
      <trkpt lat="43.21713" lon="5.60006">
        <ele>155</ele>
        <time>2017-04-09T07:58:24Z</time>
      </trkpt>
      <trkpt lat="43.21705" lon="5.60019">
        <ele>154.2</ele>
        <time>2017-04-09T07:58:27Z</time>
      </trkpt>
      <trkpt lat="43.21704" lon="5.60023">
        <ele>154.2</ele>
        <time>2017-04-09T07:58:28Z</time>
      </trkpt>
      <trkpt lat="43.21705" lon="5.60029">
        <ele>153.6</ele>
        <time>2017-04-09T07:58:29Z</time>
      </trkpt>
      <trkpt lat="43.21705" lon="5.60035">
        <ele>152.8</ele>
        <time>2017-04-09T07:58:30Z</time>
      </trkpt>
      <trkpt lat="43.21706" lon="5.60041">
        <ele>152</ele>
        <time>2017-04-09T07:58:31Z</time>
      </trkpt>
      <trkpt lat="43.21707" lon="5.60048">
        <ele>151.4</ele>
        <time>2017-04-09T07:58:32Z</time>
      </trkpt>
      <trkpt lat="43.21708" lon="5.60054">
        <ele>151</ele>
        <time>2017-04-09T07:58:33Z</time>
      </trkpt>
      <trkpt lat="43.21709" lon="5.6007">
        <ele>149.2</ele>
        <time>2017-04-09T07:58:35Z</time>
      </trkpt>
      <trkpt lat="43.2171" lon="5.60086">
        <ele>147.4</ele>
        <time>2017-04-09T07:58:37Z</time>
      </trkpt>
      <trkpt lat="43.21711" lon="5.60096">
        <ele>146.8</ele>
        <time>2017-04-09T07:58:38Z</time>
      </trkpt>
      <trkpt lat="43.21711" lon="5.60104">
        <ele>145.8</ele>
        <time>2017-04-09T07:58:39Z</time>
      </trkpt>
      <trkpt lat="43.2171" lon="5.60111">
        <ele>145.2</ele>
        <time>2017-04-09T07:58:40Z</time>
      </trkpt>
      <trkpt lat="43.2171" lon="5.60118">
        <ele>144.4</ele>
        <time>2017-04-09T07:58:41Z</time>
      </trkpt>
      <trkpt lat="43.21708" lon="5.60132">
        <ele>142.8</ele>
        <time>2017-04-09T07:58:43Z</time>
      </trkpt>
      <trkpt lat="43.21704" lon="5.60143">
        <ele>141.6</ele>
        <time>2017-04-09T07:58:45Z</time>
      </trkpt>
      <trkpt lat="43.217" lon="5.60152">
        <ele>139.8</ele>
        <time>2017-04-09T07:58:47Z</time>
      </trkpt>
      <trkpt lat="43.21698" lon="5.60155">
        <ele>138.8</ele>
        <time>2017-04-09T07:58:48Z</time>
      </trkpt>
      <trkpt lat="43.21693" lon="5.60158">
        <ele>138.6</ele>
        <time>2017-04-09T07:58:49Z</time>
      </trkpt>
      <trkpt lat="43.21689" lon="5.60161">
        <ele>137.8</ele>
        <time>2017-04-09T07:59:02Z</time>
      </trkpt>
      <trkpt lat="43.21686" lon="5.60163">
        <ele>136.8</ele>
        <time>2017-04-09T07:59:03Z</time>
      </trkpt>
      <trkpt lat="43.21681" lon="5.60162">
        <ele>135.8</ele>
        <time>2017-04-09T07:59:04Z</time>
      </trkpt>
      <trkpt lat="43.21672" lon="5.60159">
        <ele>134</ele>
        <time>2017-04-09T07:59:06Z</time>
      </trkpt>
      <trkpt lat="43.21666" lon="5.60168">
        <ele>132.4</ele>
        <time>2017-04-09T07:59:08Z</time>
      </trkpt>
      <trkpt lat="43.21665" lon="5.60182">
        <ele>130</ele>
        <time>2017-04-09T07:59:10Z</time>
      </trkpt>
      <trkpt lat="43.21666" lon="5.6019">
        <ele>129</ele>
        <time>2017-04-09T07:59:11Z</time>
      </trkpt>
      <trkpt lat="43.21666" lon="5.602">
        <ele>127.6</ele>
        <time>2017-04-09T07:59:12Z</time>
      </trkpt>
      <trkpt lat="43.21668" lon="5.60209">
        <ele>126.4</ele>
        <time>2017-04-09T07:59:13Z</time>
      </trkpt>
      <trkpt lat="43.21669" lon="5.60216">
        <ele>125.2</ele>
        <time>2017-04-09T07:59:14Z</time>
      </trkpt>
      <trkpt lat="43.21669" lon="5.60224">
        <ele>124.8</ele>
        <time>2017-04-09T07:59:15Z</time>
      </trkpt>
      <trkpt lat="43.21664" lon="5.60238">
        <ele>124</ele>
        <time>2017-04-09T07:59:17Z</time>
      </trkpt>
      <trkpt lat="43.21661" lon="5.60245">
        <ele>123.2</ele>
        <time>2017-04-09T07:59:18Z</time>
      </trkpt>
      <trkpt lat="43.21659" lon="5.60252">
        <ele>122.4</ele>
        <time>2017-04-09T07:59:19Z</time>
      </trkpt>
      <trkpt lat="43.21659" lon="5.6026">
        <ele>122.4</ele>
        <time>2017-04-09T07:59:21Z</time>
      </trkpt>
      <trkpt lat="43.21666" lon="5.60274">
        <ele>123</ele>
        <time>2017-04-09T07:59:25Z</time>
      </trkpt>
      <trkpt lat="43.2167" lon="5.60275">
        <ele>123</ele>
        <time>2017-04-09T07:59:26Z</time>
      </trkpt>
      <trkpt lat="43.21677" lon="5.60273">
        <ele>123</ele>
        <time>2017-04-09T07:59:28Z</time>
      </trkpt>
      <trkpt lat="43.21679" lon="5.60273">
        <ele>123.6</ele>
        <time>2017-04-09T07:59:29Z</time>
      </trkpt>
      <trkpt lat="43.21683" lon="5.60272">
        <ele>123.6</ele>
        <time>2017-04-09T07:59:31Z</time>
      </trkpt>
      <trkpt lat="43.21684" lon="5.60273">
        <ele>123.2</ele>
        <time>2017-04-09T07:59:32Z</time>
      </trkpt>
      <trkpt lat="43.21685" lon="5.60276">
        <ele>123</ele>
        <time>2017-04-09T07:59:34Z</time>
      </trkpt>
      <trkpt lat="43.21688" lon="5.60276">
        <ele>122.4</ele>
        <time>2017-04-09T07:59:36Z</time>
      </trkpt>
      <trkpt lat="43.2169" lon="5.60274">
        <ele>122.4</ele>
        <time>2017-04-09T07:59:38Z</time>
      </trkpt>
      <trkpt lat="43.21694" lon="5.6027">
        <ele>122.6</ele>
        <time>2017-04-09T07:59:43Z</time>
      </trkpt>
      <trkpt lat="43.21694" lon="5.60271">
        <ele>122.8</ele>
        <time>2017-04-09T07:59:47Z</time>
      </trkpt>
      <trkpt lat="43.21693" lon="5.60271">
        <ele>122.6</ele>
        <time>2017-04-09T07:59:48Z</time>
      </trkpt>
      <trkpt lat="43.21687" lon="5.60278">
        <ele>121.8</ele>
        <time>2017-04-09T07:59:51Z</time>
      </trkpt>
      <trkpt lat="43.21686" lon="5.60282">
        <ele>121.4</ele>
        <time>2017-04-09T07:59:52Z</time>
      </trkpt>
      <trkpt lat="43.21681" lon="5.60289">
        <ele>120.2</ele>
        <time>2017-04-09T07:59:54Z</time>
      </trkpt>
      <trkpt lat="43.21679" lon="5.60294">
        <ele>119.8</ele>
        <time>2017-04-09T07:59:55Z</time>
      </trkpt>
      <trkpt lat="43.21677" lon="5.60299">
        <ele>119.4</ele>
        <time>2017-04-09T07:59:56Z</time>
      </trkpt>
      <trkpt lat="43.21673" lon="5.60312">
        <ele>119.2</ele>
        <time>2017-04-09T07:59:58Z</time>
      </trkpt>
      <trkpt lat="43.21671" lon="5.60318">
        <ele>119</ele>
        <time>2017-04-09T07:59:59Z</time>
      </trkpt>
      <trkpt lat="43.21669" lon="5.60333">
        <ele>118.4</ele>
        <time>2017-04-09T08:00:01Z</time>
      </trkpt>
      <trkpt lat="43.21667" lon="5.6034">
        <ele>118.4</ele>
        <time>2017-04-09T08:00:02Z</time>
      </trkpt>
      <trkpt lat="43.21663" lon="5.60355">
        <ele>118</ele>
        <time>2017-04-09T08:00:04Z</time>
      </trkpt>
      <trkpt lat="43.2166" lon="5.60361">
        <ele>117.8</ele>
        <time>2017-04-09T08:00:05Z</time>
      </trkpt>
      <trkpt lat="43.21653" lon="5.60374">
        <ele>117.6</ele>
        <time>2017-04-09T08:00:07Z</time>
      </trkpt>
      <trkpt lat="43.21645" lon="5.60386">
        <ele>117.2</ele>
        <time>2017-04-09T08:00:09Z</time>
      </trkpt>
      <trkpt lat="43.21635" lon="5.60403">
        <ele>118</ele>
        <time>2017-04-09T08:00:12Z</time>
      </trkpt>
      <trkpt lat="43.21628" lon="5.60411">
        <ele>118.6</ele>
        <time>2017-04-09T08:00:14Z</time>
      </trkpt>
      <trkpt lat="43.21625" lon="5.60415">
        <ele>119</ele>
        <time>2017-04-09T08:00:15Z</time>
      </trkpt>
      <trkpt lat="43.21619" lon="5.60422">
        <ele>120</ele>
        <time>2017-04-09T08:00:17Z</time>
      </trkpt>
      <trkpt lat="43.21617" lon="5.60425">
        <ele>120.2</ele>
        <time>2017-04-09T08:00:18Z</time>
      </trkpt>
      <trkpt lat="43.21604" lon="5.60435">
        <ele>121.2</ele>
        <time>2017-04-09T08:00:23Z</time>
      </trkpt>
      <trkpt lat="43.21597" lon="5.60442">
        <ele>122.2</ele>
        <time>2017-04-09T08:00:26Z</time>
      </trkpt>
      <trkpt lat="43.21595" lon="5.60444">
        <ele>122.6</ele>
        <time>2017-04-09T08:00:27Z</time>
      </trkpt>
      <trkpt lat="43.21584" lon="5.60452">
        <ele>123.4</ele>
        <time>2017-04-09T08:00:31Z</time>
      </trkpt>
      <trkpt lat="43.21578" lon="5.60455">
        <ele>123.6</ele>
        <time>2017-04-09T08:00:33Z</time>
      </trkpt>
      <trkpt lat="43.21562" lon="5.60464">
        <ele>124.2</ele>
        <time>2017-04-09T08:00:39Z</time>
      </trkpt>
      <trkpt lat="43.21556" lon="5.60465">
        <ele>124.8</ele>
        <time>2017-04-09T08:00:41Z</time>
      </trkpt>
      <trkpt lat="43.21552" lon="5.60464">
        <ele>125</ele>
        <time>2017-04-09T08:00:43Z</time>
      </trkpt>
      <trkpt lat="43.2155" lon="5.60463">
        <ele>125</ele>
        <time>2017-04-09T08:00:44Z</time>
      </trkpt>
      <trkpt lat="43.21545" lon="5.60461">
        <ele>126</ele>
        <time>2017-04-09T08:00:46Z</time>
      </trkpt>
      <trkpt lat="43.21531" lon="5.60459">
        <ele>126.8</ele>
        <time>2017-04-09T08:00:51Z</time>
      </trkpt>
      <trkpt lat="43.21522" lon="5.60456">
        <ele>127</ele>
        <time>2017-04-09T08:00:54Z</time>
      </trkpt>
      <trkpt lat="43.21516" lon="5.60456">
        <ele>127.2</ele>
        <time>2017-04-09T08:00:56Z</time>
      </trkpt>
      <trkpt lat="43.21494" lon="5.60457">
        <ele>127.6</ele>
        <time>2017-04-09T08:01:02Z</time>
      </trkpt>
      <trkpt lat="43.21463" lon="5.60456">
        <ele>127.4</ele>
        <time>2017-04-09T08:01:09Z</time>
      </trkpt>
      <trkpt lat="43.21428" lon="5.6046">
        <ele>126.8</ele>
        <time>2017-04-09T08:01:16Z</time>
      </trkpt>
      <trkpt lat="43.21408" lon="5.60465">
        <ele>127.4</ele>
        <time>2017-04-09T08:01:20Z</time>
      </trkpt>
      <trkpt lat="43.21403" lon="5.60463">
        <ele>127.6</ele>
        <time>2017-04-09T08:01:21Z</time>
      </trkpt>
      <trkpt lat="43.21399" lon="5.60462">
        <ele>128.2</ele>
        <time>2017-04-09T08:01:22Z</time>
      </trkpt>
      <trkpt lat="43.21392" lon="5.60457">
        <ele>129.2</ele>
        <time>2017-04-09T08:01:24Z</time>
      </trkpt>
      <trkpt lat="43.21388" lon="5.60455">
        <ele>129.4</ele>
        <time>2017-04-09T08:01:25Z</time>
      </trkpt>
      <trkpt lat="43.21385" lon="5.60454">
        <ele>129.8</ele>
        <time>2017-04-09T08:01:26Z</time>
      </trkpt>
      <trkpt lat="43.21374" lon="5.60446">
        <ele>130.4</ele>
        <time>2017-04-09T08:01:29Z</time>
      </trkpt>
      <trkpt lat="43.21366" lon="5.60442">
        <ele>130.2</ele>
        <time>2017-04-09T08:01:31Z</time>
      </trkpt>
      <trkpt lat="43.2135" lon="5.60433">
        <ele>130.4</ele>
        <time>2017-04-09T08:01:35Z</time>
      </trkpt>
      <trkpt lat="43.21333" lon="5.60429">
        <ele>130.6</ele>
        <time>2017-04-09T08:01:39Z</time>
      </trkpt>
      <trkpt lat="43.21319" lon="5.60416">
        <ele>130.8</ele>
        <time>2017-04-09T08:01:43Z</time>
      </trkpt>
      <trkpt lat="43.21299" lon="5.604">
        <ele>131.2</ele>
        <time>2017-04-09T08:01:48Z</time>
      </trkpt>
      <trkpt lat="43.21295" lon="5.60396">
        <ele>131.6</ele>
        <time>2017-04-09T08:01:49Z</time>
      </trkpt>
      <trkpt lat="43.21282" lon="5.60387">
        <ele>133</ele>
        <time>2017-04-09T08:01:53Z</time>
      </trkpt>
      <trkpt lat="43.21279" lon="5.60385">
        <ele>133.2</ele>
        <time>2017-04-09T08:01:54Z</time>
      </trkpt>
      <trkpt lat="43.21271" lon="5.60379">
        <ele>134</ele>
        <time>2017-04-09T08:01:57Z</time>
      </trkpt>
      <trkpt lat="43.21262" lon="5.60375">
        <ele>135</ele>
        <time>2017-04-09T08:02:01Z</time>
      </trkpt>
      <trkpt lat="43.21259" lon="5.60375">
        <ele>135</ele>
        <time>2017-04-09T08:02:03Z</time>
      </trkpt>
      <trkpt lat="43.21255" lon="5.60373">
        <ele>135.8</ele>
        <time>2017-04-09T08:02:05Z</time>
      </trkpt>
      <trkpt lat="43.21252" lon="5.60373">
        <ele>136</ele>
        <time>2017-04-09T08:02:06Z</time>
      </trkpt>
      <trkpt lat="43.2125" lon="5.60372">
        <ele>136</ele>
        <time>2017-04-09T08:02:07Z</time>
      </trkpt>
      <trkpt lat="43.21248" lon="5.60374">
        <ele>136</ele>
        <time>2017-04-09T08:02:08Z</time>
      </trkpt>
      <trkpt lat="43.21246" lon="5.60379">
        <ele>136.2</ele>
        <time>2017-04-09T08:02:10Z</time>
      </trkpt>
      <trkpt lat="43.21248" lon="5.60387">
        <ele>137.2</ele>
        <time>2017-04-09T08:02:14Z</time>
      </trkpt>
      <trkpt lat="43.21253" lon="5.60393">
        <ele>137</ele>
        <time>2017-04-09T08:02:17Z</time>
      </trkpt>
      <trkpt lat="43.21255" lon="5.60397">
        <ele>138.2</ele>
        <time>2017-04-09T08:02:19Z</time>
      </trkpt>
      <trkpt lat="43.21259" lon="5.60402">
        <ele>138.4</ele>
        <time>2017-04-09T08:02:21Z</time>
      </trkpt>
      <trkpt lat="43.21272" lon="5.60419">
        <ele>139.2</ele>
        <time>2017-04-09T08:02:27Z</time>
      </trkpt>
      <trkpt lat="43.21275" lon="5.60422">
        <ele>139.2</ele>
        <time>2017-04-09T08:02:28Z</time>
      </trkpt>
      <trkpt lat="43.21283" lon="5.60433">
        <ele>139.8</ele>
        <time>2017-04-09T08:02:32Z</time>
      </trkpt>
      <trkpt lat="43.21286" lon="5.60439">
        <ele>140.6</ele>
        <time>2017-04-09T08:02:34Z</time>
      </trkpt>
      <trkpt lat="43.21292" lon="5.60451">
        <ele>141.6</ele>
        <time>2017-04-09T08:02:38Z</time>
      </trkpt>
      <trkpt lat="43.21294" lon="5.60454">
        <ele>142</ele>
        <time>2017-04-09T08:02:39Z</time>
      </trkpt>
      <trkpt lat="43.21299" lon="5.60462">
        <ele>142.6</ele>
        <time>2017-04-09T08:02:42Z</time>
      </trkpt>
      <trkpt lat="43.21303" lon="5.6047">
        <ele>143.6</ele>
        <time>2017-04-09T08:02:45Z</time>
      </trkpt>
      <trkpt lat="43.21304" lon="5.60472">
        <ele>144</ele>
        <time>2017-04-09T08:02:46Z</time>
      </trkpt>
      <trkpt lat="43.21309" lon="5.60482">
        <ele>145</ele>
        <time>2017-04-09T08:02:49Z</time>
      </trkpt>
      <trkpt lat="43.21313" lon="5.60487">
        <ele>145.6</ele>
        <time>2017-04-09T08:02:51Z</time>
      </trkpt>
      <trkpt lat="43.21317" lon="5.60493">
        <ele>146</ele>
        <time>2017-04-09T08:02:53Z</time>
      </trkpt>
      <trkpt lat="43.2132" lon="5.60496">
        <ele>146.4</ele>
        <time>2017-04-09T08:02:54Z</time>
      </trkpt>
      <trkpt lat="43.21327" lon="5.60504">
        <ele>147.2</ele>
        <time>2017-04-09T08:02:57Z</time>
      </trkpt>
      <trkpt lat="43.21332" lon="5.60508">
        <ele>147.6</ele>
        <time>2017-04-09T08:02:59Z</time>
      </trkpt>
      <trkpt lat="43.21336" lon="5.60516">
        <ele>148.2</ele>
        <time>2017-04-09T08:03:02Z</time>
      </trkpt>
      <trkpt lat="43.21339" lon="5.60521">
        <ele>148.8</ele>
        <time>2017-04-09T08:03:04Z</time>
      </trkpt>
      <trkpt lat="43.21342" lon="5.6053">
        <ele>149.4</ele>
        <time>2017-04-09T08:03:07Z</time>
      </trkpt>
      <trkpt lat="43.21347" lon="5.60544">
        <ele>150.4</ele>
        <time>2017-04-09T08:03:11Z</time>
      </trkpt>
      <trkpt lat="43.21348" lon="5.60548">
        <ele>150.8</ele>
        <time>2017-04-09T08:03:12Z</time>
      </trkpt>
      <trkpt lat="43.21352" lon="5.60561">
        <ele>151.8</ele>
        <time>2017-04-09T08:03:16Z</time>
      </trkpt>
      <trkpt lat="43.21354" lon="5.60567">
        <ele>152.4</ele>
        <time>2017-04-09T08:03:18Z</time>
      </trkpt>
      <trkpt lat="43.21357" lon="5.60572">
        <ele>153</ele>
        <time>2017-04-09T08:03:20Z</time>
      </trkpt>
      <trkpt lat="43.21361" lon="5.60577">
        <ele>154</ele>
        <time>2017-04-09T08:03:23Z</time>
      </trkpt>
      <trkpt lat="43.21367" lon="5.60588">
        <ele>154.6</ele>
        <time>2017-04-09T08:03:28Z</time>
      </trkpt>
      <trkpt lat="43.2137" lon="5.60589">
        <ele>155</ele>
        <time>2017-04-09T08:03:29Z</time>
      </trkpt>
      <trkpt lat="43.21372" lon="5.6059">
        <ele>155.4</ele>
        <time>2017-04-09T08:03:30Z</time>
      </trkpt>
      <trkpt lat="43.21379" lon="5.60597">
        <ele>156.6</ele>
        <time>2017-04-09T08:03:34Z</time>
      </trkpt>
      <trkpt lat="43.21383" lon="5.60601">
        <ele>157</ele>
        <time>2017-04-09T08:03:36Z</time>
      </trkpt>
      <trkpt lat="43.2139" lon="5.60607">
        <ele>157.8</ele>
        <time>2017-04-09T08:03:40Z</time>
      </trkpt>
      <trkpt lat="43.21395" lon="5.60613">
        <ele>159</ele>
        <time>2017-04-09T08:03:43Z</time>
      </trkpt>
      <trkpt lat="43.21397" lon="5.60614">
        <ele>159.2</ele>
        <time>2017-04-09T08:03:44Z</time>
      </trkpt>
      <trkpt lat="43.21403" lon="5.60619">
        <ele>160.2</ele>
        <time>2017-04-09T08:03:47Z</time>
      </trkpt>
      <trkpt lat="43.21412" lon="5.60626">
        <ele>161.4</ele>
        <time>2017-04-09T08:03:52Z</time>
      </trkpt>
      <trkpt lat="43.21414" lon="5.60628">
        <ele>161.6</ele>
        <time>2017-04-09T08:03:53Z</time>
      </trkpt>
      <trkpt lat="43.2142" lon="5.60631">
        <ele>162.6</ele>
        <time>2017-04-09T08:03:56Z</time>
      </trkpt>
      <trkpt lat="43.21428" lon="5.60636">
        <ele>164.2</ele>
        <time>2017-04-09T08:04:00Z</time>
      </trkpt>
      <trkpt lat="43.21437" lon="5.60643">
        <ele>165.6</ele>
        <time>2017-04-09T08:04:05Z</time>
      </trkpt>
      <trkpt lat="43.21443" lon="5.60647">
        <ele>166.6</ele>
        <time>2017-04-09T08:04:08Z</time>
      </trkpt>
      <trkpt lat="43.21445" lon="5.60648">
        <ele>167</ele>
        <time>2017-04-09T08:04:09Z</time>
      </trkpt>
      <trkpt lat="43.21452" lon="5.6065">
        <ele>168.2</ele>
        <time>2017-04-09T08:04:12Z</time>
      </trkpt>
      <trkpt lat="43.21461" lon="5.60649">
        <ele>169</ele>
        <time>2017-04-09T08:04:16Z</time>
      </trkpt>
      <trkpt lat="43.21463" lon="5.60649">
        <ele>169.4</ele>
        <time>2017-04-09T08:04:17Z</time>
      </trkpt>
      <trkpt lat="43.21475" lon="5.60644">
        <ele>170.8</ele>
        <time>2017-04-09T08:04:22Z</time>
      </trkpt>
      <trkpt lat="43.21477" lon="5.60642">
        <ele>171.4</ele>
        <time>2017-04-09T08:04:23Z</time>
      </trkpt>
      <trkpt lat="43.21484" lon="5.6064">
        <ele>171.8</ele>
        <time>2017-04-09T08:04:26Z</time>
      </trkpt>
      <trkpt lat="43.21492" lon="5.60637">
        <ele>172.4</ele>
        <time>2017-04-09T08:04:29Z</time>
      </trkpt>
      <trkpt lat="43.21499" lon="5.60638">
        <ele>173</ele>
        <time>2017-04-09T08:04:32Z</time>
      </trkpt>
      <trkpt lat="43.21507" lon="5.60639">
        <ele>173.2</ele>
        <time>2017-04-09T08:04:35Z</time>
      </trkpt>
      <trkpt lat="43.21517" lon="5.60639">
        <ele>174</ele>
        <time>2017-04-09T08:04:39Z</time>
      </trkpt>
      <trkpt lat="43.21528" lon="5.60642">
        <ele>174.6</ele>
        <time>2017-04-09T08:04:43Z</time>
      </trkpt>
      <trkpt lat="43.21539" lon="5.60646">
        <ele>175.2</ele>
        <time>2017-04-09T08:04:47Z</time>
      </trkpt>
      <trkpt lat="43.2155" lon="5.6065">
        <ele>176</ele>
        <time>2017-04-09T08:04:51Z</time>
      </trkpt>
      <trkpt lat="43.21555" lon="5.60652">
        <ele>176.4</ele>
        <time>2017-04-09T08:04:53Z</time>
      </trkpt>
      <trkpt lat="43.21568" lon="5.60656">
        <ele>177.2</ele>
        <time>2017-04-09T08:04:58Z</time>
      </trkpt>
      <trkpt lat="43.21571" lon="5.60656">
        <ele>177.4</ele>
        <time>2017-04-09T08:04:59Z</time>
      </trkpt>
      <trkpt lat="43.21581" lon="5.60658">
        <ele>178.4</ele>
        <time>2017-04-09T08:05:03Z</time>
      </trkpt>
      <trkpt lat="43.21586" lon="5.60659">
        <ele>179.2</ele>
        <time>2017-04-09T08:05:05Z</time>
      </trkpt>
      <trkpt lat="43.21588" lon="5.60659">
        <ele>179.6</ele>
        <time>2017-04-09T08:05:06Z</time>
      </trkpt>
      <trkpt lat="43.21597" lon="5.60656">
        <ele>180.8</ele>
        <time>2017-04-09T08:05:10Z</time>
      </trkpt>
      <trkpt lat="43.21599" lon="5.60655">
        <ele>181.2</ele>
        <time>2017-04-09T08:05:11Z</time>
      </trkpt>
      <trkpt lat="43.21603" lon="5.6065">
        <ele>181.8</ele>
        <time>2017-04-09T08:05:13Z</time>
      </trkpt>
      <trkpt lat="43.21606" lon="5.60642">
        <ele>182.8</ele>
        <time>2017-04-09T08:05:16Z</time>
      </trkpt>
      <trkpt lat="43.21613" lon="5.60634">
        <ele>184</ele>
        <time>2017-04-09T08:05:20Z</time>
      </trkpt>
      <trkpt lat="43.21615" lon="5.60634">
        <ele>184.4</ele>
        <time>2017-04-09T08:05:21Z</time>
      </trkpt>
      <trkpt lat="43.21618" lon="5.60635">
        <ele>185.4</ele>
        <time>2017-04-09T08:05:23Z</time>
      </trkpt>
      <trkpt lat="43.21622" lon="5.60639">
        <ele>186</ele>
        <time>2017-04-09T08:05:25Z</time>
      </trkpt>
      <trkpt lat="43.21622" lon="5.60643">
        <ele>186</ele>
        <time>2017-04-09T08:05:26Z</time>
      </trkpt>
      <trkpt lat="43.21624" lon="5.60649">
        <ele>186.4</ele>
        <time>2017-04-09T08:05:28Z</time>
      </trkpt>
      <trkpt lat="43.21625" lon="5.60655">
        <ele>187</ele>
        <time>2017-04-09T08:05:30Z</time>
      </trkpt>
      <trkpt lat="43.21628" lon="5.60659">
        <ele>187.4</ele>
        <time>2017-04-09T08:05:32Z</time>
      </trkpt>
      <trkpt lat="43.21633" lon="5.60659">
        <ele>188</ele>
        <time>2017-04-09T08:05:34Z</time>
      </trkpt>
      <trkpt lat="43.21637" lon="5.60655">
        <ele>188.8</ele>
        <time>2017-04-09T08:05:36Z</time>
      </trkpt>
      <trkpt lat="43.21638" lon="5.6065">
        <ele>189</ele>
        <time>2017-04-09T08:05:38Z</time>
      </trkpt>
      <trkpt lat="43.21641" lon="5.60637">
        <ele>190</ele>
        <time>2017-04-09T08:05:42Z</time>
      </trkpt>
      <trkpt lat="43.21645" lon="5.60632">
        <ele>190.8</ele>
        <time>2017-04-09T08:05:44Z</time>
      </trkpt>
      <trkpt lat="43.21647" lon="5.60631">
        <ele>191</ele>
        <time>2017-04-09T08:05:45Z</time>
      </trkpt>
      <trkpt lat="43.21649" lon="5.6063">
        <ele>191.2</ele>
        <time>2017-04-09T08:05:46Z</time>
      </trkpt>
      <trkpt lat="43.21656" lon="5.60634">
        <ele>192.4</ele>
        <time>2017-04-09T08:05:49Z</time>
      </trkpt>
      <trkpt lat="43.21658" lon="5.60641">
        <ele>192.8</ele>
        <time>2017-04-09T08:05:51Z</time>
      </trkpt>
      <trkpt lat="43.2166" lon="5.60648">
        <ele>192.6</ele>
        <time>2017-04-09T08:05:53Z</time>
      </trkpt>
      <trkpt lat="43.21661" lon="5.60658">
        <ele>193.4</ele>
        <time>2017-04-09T08:05:56Z</time>
      </trkpt>
      <trkpt lat="43.21662" lon="5.60662">
        <ele>193.6</ele>
        <time>2017-04-09T08:05:57Z</time>
      </trkpt>
      <trkpt lat="43.21669" lon="5.60677">
        <ele>194.8</ele>
        <time>2017-04-09T08:06:02Z</time>
      </trkpt>
      <trkpt lat="43.21684" lon="5.60686">
        <ele>195.6</ele>
        <time>2017-04-09T08:06:08Z</time>
      </trkpt>
      <trkpt lat="43.21686" lon="5.60688">
        <ele>196</ele>
        <time>2017-04-09T08:06:09Z</time>
      </trkpt>
      <trkpt lat="43.21693" lon="5.60692">
        <ele>196.8</ele>
        <time>2017-04-09T08:06:12Z</time>
      </trkpt>
      <trkpt lat="43.21696" lon="5.60694">
        <ele>197</ele>
        <time>2017-04-09T08:06:13Z</time>
      </trkpt>
      <trkpt lat="43.21706" lon="5.60698">
        <ele>197.6</ele>
        <time>2017-04-09T08:06:17Z</time>
      </trkpt>
      <trkpt lat="43.21712" lon="5.60703">
        <ele>198</ele>
        <time>2017-04-09T08:06:20Z</time>
      </trkpt>
      <trkpt lat="43.21716" lon="5.60707">
        <ele>198.6</ele>
        <time>2017-04-09T08:06:22Z</time>
      </trkpt>
      <trkpt lat="43.2172" lon="5.60711">
        <ele>199.2</ele>
        <time>2017-04-09T08:06:24Z</time>
      </trkpt>
      <trkpt lat="43.21728" lon="5.60721">
        <ele>200.4</ele>
        <time>2017-04-09T08:06:28Z</time>
      </trkpt>
      <trkpt lat="43.21729" lon="5.60724">
        <ele>200.8</ele>
        <time>2017-04-09T08:06:29Z</time>
      </trkpt>
      <trkpt lat="43.21735" lon="5.60731">
        <ele>201.6</ele>
        <time>2017-04-09T08:06:32Z</time>
      </trkpt>
      <trkpt lat="43.21736" lon="5.60734">
        <ele>202</ele>
        <time>2017-04-09T08:06:33Z</time>
      </trkpt>
      <trkpt lat="43.21741" lon="5.60742">
        <ele>202.8</ele>
        <time>2017-04-09T08:06:36Z</time>
      </trkpt>
      <trkpt lat="43.2175" lon="5.6075">
        <ele>203.2</ele>
        <time>2017-04-09T08:06:40Z</time>
      </trkpt>
      <trkpt lat="43.21752" lon="5.60751">
        <ele>203.4</ele>
        <time>2017-04-09T08:06:41Z</time>
      </trkpt>
      <trkpt lat="43.21756" lon="5.60756">
        <ele>203.8</ele>
        <time>2017-04-09T08:06:43Z</time>
      </trkpt>
      <trkpt lat="43.21766" lon="5.60766">
        <ele>204.2</ele>
        <time>2017-04-09T08:06:47Z</time>
      </trkpt>
      <trkpt lat="43.21774" lon="5.60774">
        <ele>205</ele>
        <time>2017-04-09T08:06:50Z</time>
      </trkpt>
      <trkpt lat="43.2179" lon="5.6079">
        <ele>205.4</ele>
        <time>2017-04-09T08:06:56Z</time>
      </trkpt>
      <trkpt lat="43.21793" lon="5.60793">
        <ele>205.6</ele>
        <time>2017-04-09T08:06:57Z</time>
      </trkpt>
      <trkpt lat="43.218" lon="5.60802">
        <ele>206.4</ele>
        <time>2017-04-09T08:07:00Z</time>
      </trkpt>
      <trkpt lat="43.21807" lon="5.60809">
        <ele>206.8</ele>
        <time>2017-04-09T08:07:03Z</time>
      </trkpt>
      <trkpt lat="43.21811" lon="5.60815">
        <ele>207.4</ele>
        <time>2017-04-09T08:07:05Z</time>
      </trkpt>
      <trkpt lat="43.21818" lon="5.6083">
        <ele>208.6</ele>
        <time>2017-04-09T08:07:10Z</time>
      </trkpt>
      <trkpt lat="43.21823" lon="5.60848">
        <ele>209.8</ele>
        <time>2017-04-09T08:07:15Z</time>
      </trkpt>
      <trkpt lat="43.21823" lon="5.60856">
        <ele>210.2</ele>
        <time>2017-04-09T08:07:17Z</time>
      </trkpt>
      <trkpt lat="43.21823" lon="5.60863">
        <ele>210.8</ele>
        <time>2017-04-09T08:07:19Z</time>
      </trkpt>
      <trkpt lat="43.21823" lon="5.6089">
        <ele>211.8</ele>
        <time>2017-04-09T08:07:25Z</time>
      </trkpt>
      <trkpt lat="43.21832" lon="5.60913">
        <ele>212.8</ele>
        <time>2017-04-09T08:07:31Z</time>
      </trkpt>
      <trkpt lat="43.21834" lon="5.60917">
        <ele>213</ele>
        <time>2017-04-09T08:07:32Z</time>
      </trkpt>
      <trkpt lat="43.21847" lon="5.60933">
        <ele>214.2</ele>
        <time>2017-04-09T08:07:37Z</time>
      </trkpt>
      <trkpt lat="43.2185" lon="5.60935">
        <ele>214.4</ele>
        <time>2017-04-09T08:07:38Z</time>
      </trkpt>
      <trkpt lat="43.21865" lon="5.60941">
        <ele>215.4</ele>
        <time>2017-04-09T08:07:43Z</time>
      </trkpt>
      <trkpt lat="43.21867" lon="5.60942">
        <ele>215.8</ele>
        <time>2017-04-09T08:07:44Z</time>
      </trkpt>
      <trkpt lat="43.21877" lon="5.60948">
        <ele>216.6</ele>
        <time>2017-04-09T08:07:48Z</time>
      </trkpt>
      <trkpt lat="43.21882" lon="5.60951">
        <ele>217.8</ele>
        <time>2017-04-09T08:07:50Z</time>
      </trkpt>
      <trkpt lat="43.21895" lon="5.60965">
        <ele>218.8</ele>
        <time>2017-04-09T08:07:56Z</time>
      </trkpt>
      <trkpt lat="43.21897" lon="5.60969">
        <ele>217.8</ele>
        <time>2017-04-09T08:07:57Z</time>
      </trkpt>
      <trkpt lat="43.21903" lon="5.60977">
        <ele>219.8</ele>
        <time>2017-04-09T08:08:00Z</time>
      </trkpt>
      <trkpt lat="43.21908" lon="5.60983">
        <ele>220.2</ele>
        <time>2017-04-09T08:08:03Z</time>
      </trkpt>
      <trkpt lat="43.21909" lon="5.60988">
        <ele>220.4</ele>
        <time>2017-04-09T08:08:05Z</time>
      </trkpt>
      <trkpt lat="43.21908" lon="5.60994">
        <ele>220</ele>
        <time>2017-04-09T08:08:07Z</time>
      </trkpt>
      <trkpt lat="43.21906" lon="5.61005">
        <ele>218.6</ele>
        <time>2017-04-09T08:08:09Z</time>
      </trkpt>
      <trkpt lat="43.21902" lon="5.6101">
        <ele>217.8</ele>
        <time>2017-04-09T08:08:10Z</time>
      </trkpt>
      <trkpt lat="43.21899" lon="5.61016">
        <ele>216.6</ele>
        <time>2017-04-09T08:08:11Z</time>
      </trkpt>
      <trkpt lat="43.21896" lon="5.6102">
        <ele>215.6</ele>
        <time>2017-04-09T08:08:12Z</time>
      </trkpt>
      <trkpt lat="43.21888" lon="5.61031">
        <ele>214.8</ele>
        <time>2017-04-09T08:08:14Z</time>
      </trkpt>
      <trkpt lat="43.21884" lon="5.61037">
        <ele>213.2</ele>
        <time>2017-04-09T08:08:15Z</time>
      </trkpt>
      <trkpt lat="43.21877" lon="5.61047">
        <ele>213</ele>
        <time>2017-04-09T08:08:18Z</time>
      </trkpt>
      <trkpt lat="43.21871" lon="5.61055">
        <ele>212.2</ele>
        <time>2017-04-09T08:08:20Z</time>
      </trkpt>
      <trkpt lat="43.21869" lon="5.6106">
        <ele>211.6</ele>
        <time>2017-04-09T08:08:21Z</time>
      </trkpt>
      <trkpt lat="43.21866" lon="5.61065">
        <ele>210.6</ele>
        <time>2017-04-09T08:08:22Z</time>
      </trkpt>
      <trkpt lat="43.21864" lon="5.61071">
        <ele>209.8</ele>
        <time>2017-04-09T08:08:23Z</time>
      </trkpt>
      <trkpt lat="43.21861" lon="5.61081">
        <ele>208.4</ele>
        <time>2017-04-09T08:08:25Z</time>
      </trkpt>
      <trkpt lat="43.21859" lon="5.61087">
        <ele>207.8</ele>
        <time>2017-04-09T08:08:27Z</time>
      </trkpt>
      <trkpt lat="43.2186" lon="5.6109">
        <ele>208</ele>
        <time>2017-04-09T08:08:29Z</time>
      </trkpt>
      <trkpt lat="43.21862" lon="5.61092">
        <ele>208.2</ele>
        <time>2017-04-09T08:08:31Z</time>
      </trkpt>
      <trkpt lat="43.21869" lon="5.61094">
        <ele>208.2</ele>
        <time>2017-04-09T08:08:35Z</time>
      </trkpt>
      <trkpt lat="43.21876" lon="5.611">
        <ele>208</ele>
        <time>2017-04-09T08:08:38Z</time>
      </trkpt>
      <trkpt lat="43.2188" lon="5.61104">
        <ele>206.4</ele>
        <time>2017-04-09T08:08:40Z</time>
      </trkpt>
      <trkpt lat="43.21886" lon="5.61107">
        <ele>205.2</ele>
        <time>2017-04-09T08:08:43Z</time>
      </trkpt>
      <trkpt lat="43.21888" lon="5.61108">
        <ele>204.2</ele>
        <time>2017-04-09T08:08:44Z</time>
      </trkpt>
      <trkpt lat="43.2189" lon="5.6111">
        <ele>203.6</ele>
        <time>2017-04-09T08:08:45Z</time>
      </trkpt>
      <trkpt lat="43.21891" lon="5.61112">
        <ele>203</ele>
        <time>2017-04-09T08:08:46Z</time>
      </trkpt>
      <trkpt lat="43.21895" lon="5.61116">
        <ele>201.6</ele>
        <time>2017-04-09T08:08:48Z</time>
      </trkpt>
      <trkpt lat="43.21897" lon="5.6112">
        <ele>200.2</ele>
        <time>2017-04-09T08:08:50Z</time>
      </trkpt>
      <trkpt lat="43.21899" lon="5.61122">
        <ele>199.6</ele>
        <time>2017-04-09T08:08:51Z</time>
      </trkpt>
      <trkpt lat="43.219" lon="5.61122">
        <ele>199</ele>
        <time>2017-04-09T08:08:52Z</time>
      </trkpt>
      <trkpt lat="43.219" lon="5.61122">
        <ele>198.4</ele>
        <time>2017-04-09T08:08:54Z</time>
      </trkpt>
      <trkpt lat="43.219" lon="5.61121">
        <ele>198</ele>
        <time>2017-04-09T08:08:56Z</time>
      </trkpt>
      <trkpt lat="43.21935" lon="5.61126">
        <ele>184.2</ele>
        <time>2017-04-09T08:09:40Z</time>
      </trkpt>
      <trkpt lat="43.21937" lon="5.61127">
        <ele>183</ele>
        <time>2017-04-09T08:09:42Z</time>
      </trkpt>
      <trkpt lat="43.21939" lon="5.6113">
        <ele>182</ele>
        <time>2017-04-09T08:09:45Z</time>
      </trkpt>
      <trkpt lat="43.21942" lon="5.61133">
        <ele>180.8</ele>
        <time>2017-04-09T08:09:48Z</time>
      </trkpt>
      <trkpt lat="43.21944" lon="5.61136">
        <ele>179.6</ele>
        <time>2017-04-09T08:09:51Z</time>
      </trkpt>
      <trkpt lat="43.21945" lon="5.61137">
        <ele>179.4</ele>
        <time>2017-04-09T08:09:52Z</time>
      </trkpt>
      <trkpt lat="43.21946" lon="5.61138">
        <ele>178.2</ele>
        <time>2017-04-09T08:09:54Z</time>
      </trkpt>
      <trkpt lat="43.21949" lon="5.6114">
        <ele>177</ele>
        <time>2017-04-09T08:09:57Z</time>
      </trkpt>
      <trkpt lat="43.21952" lon="5.6114">
        <ele>176.4</ele>
        <time>2017-04-09T08:09:59Z</time>
      </trkpt>
      <trkpt lat="43.21952" lon="5.61142">
        <ele>176.2</ele>
        <time>2017-04-09T08:10:00Z</time>
      </trkpt>
      <trkpt lat="43.21953" lon="5.61142">
        <ele>175.8</ele>
        <time>2017-04-09T08:10:01Z</time>
      </trkpt>
      <trkpt lat="43.21956" lon="5.61145">
        <ele>175</ele>
        <time>2017-04-09T08:10:04Z</time>
      </trkpt>
      <trkpt lat="43.21957" lon="5.61146">
        <ele>174.6</ele>
        <time>2017-04-09T08:10:05Z</time>
      </trkpt>
      <trkpt lat="43.21958" lon="5.61148">
        <ele>173.8</ele>
        <time>2017-04-09T08:10:09Z</time>
      </trkpt>
      <trkpt lat="43.21964" lon="5.6115">
        <ele>172</ele>
        <time>2017-04-09T08:10:24Z</time>
      </trkpt>
      <trkpt lat="43.21966" lon="5.61152">
        <ele>171.4</ele>
        <time>2017-04-09T08:10:25Z</time>
      </trkpt>
      <trkpt lat="43.21967" lon="5.61154">
        <ele>170.8</ele>
        <time>2017-04-09T08:10:26Z</time>
      </trkpt>
      <trkpt lat="43.21975" lon="5.61163">
        <ele>169.4</ele>
        <time>2017-04-09T08:10:29Z</time>
      </trkpt>
      <trkpt lat="43.21978" lon="5.61167">
        <ele>168.4</ele>
        <time>2017-04-09T08:10:30Z</time>
      </trkpt>
      <trkpt lat="43.2198" lon="5.6117">
        <ele>167.8</ele>
        <time>2017-04-09T08:10:31Z</time>
      </trkpt>
      <trkpt lat="43.2198" lon="5.61174">
        <ele>167.8</ele>
        <time>2017-04-09T08:10:32Z</time>
      </trkpt>
      <trkpt lat="43.21979" lon="5.61177">
        <ele>168</ele>
        <time>2017-04-09T08:10:33Z</time>
      </trkpt>
      <trkpt lat="43.21977" lon="5.61189">
        <ele>168.8</ele>
        <time>2017-04-09T08:10:36Z</time>
      </trkpt>
      <trkpt lat="43.21977" lon="5.61198">
        <ele>169</ele>
        <time>2017-04-09T08:10:38Z</time>
      </trkpt>
      <trkpt lat="43.21978" lon="5.61217">
        <ele>170</ele>
        <time>2017-04-09T08:10:42Z</time>
      </trkpt>
      <trkpt lat="43.2198" lon="5.61225">
        <ele>171.2</ele>
        <time>2017-04-09T08:10:44Z</time>
      </trkpt>
      <trkpt lat="43.21983" lon="5.61242">
        <ele>172.2</ele>
        <time>2017-04-09T08:10:48Z</time>
      </trkpt>
      <trkpt lat="43.21985" lon="5.61247">
        <ele>172.2</ele>
        <time>2017-04-09T08:10:49Z</time>
      </trkpt>
      <trkpt lat="43.21992" lon="5.61261">
        <ele>173.2</ele>
        <time>2017-04-09T08:10:53Z</time>
      </trkpt>
      <trkpt lat="43.21994" lon="5.61267">
        <ele>173.6</ele>
        <time>2017-04-09T08:10:55Z</time>
      </trkpt>
      <trkpt lat="43.21995" lon="5.61269">
        <ele>174.2</ele>
        <time>2017-04-09T08:10:56Z</time>
      </trkpt>
      <trkpt lat="43.22" lon="5.61278">
        <ele>175.2</ele>
        <time>2017-04-09T08:11:00Z</time>
      </trkpt>
      <trkpt lat="43.22002" lon="5.6128">
        <ele>175.4</ele>
        <time>2017-04-09T08:11:01Z</time>
      </trkpt>
      <trkpt lat="43.22009" lon="5.61287">
        <ele>176.6</ele>
        <time>2017-04-09T08:11:05Z</time>
      </trkpt>
      <trkpt lat="43.22012" lon="5.61291">
        <ele>177</ele>
        <time>2017-04-09T08:11:07Z</time>
      </trkpt>
      <trkpt lat="43.22018" lon="5.61298">
        <ele>177.6</ele>
        <time>2017-04-09T08:11:11Z</time>
      </trkpt>
      <trkpt lat="43.22025" lon="5.61303">
        <ele>179</ele>
        <time>2017-04-09T08:11:15Z</time>
      </trkpt>
      <trkpt lat="43.22026" lon="5.61305">
        <ele>177.8</ele>
        <time>2017-04-09T08:11:16Z</time>
      </trkpt>
      <trkpt lat="43.22031" lon="5.6131">
        <ele>180.4</ele>
        <time>2017-04-09T08:11:19Z</time>
      </trkpt>
      <trkpt lat="43.22036" lon="5.6131">
        <ele>180.6</ele>
        <time>2017-04-09T08:11:21Z</time>
      </trkpt>
      <trkpt lat="43.22044" lon="5.61314">
        <ele>181</ele>
        <time>2017-04-09T08:11:25Z</time>
      </trkpt>
      <trkpt lat="43.22047" lon="5.61317">
        <ele>181.4</ele>
        <time>2017-04-09T08:11:27Z</time>
      </trkpt>
      <trkpt lat="43.22057" lon="5.61321">
        <ele>182</ele>
        <time>2017-04-09T08:11:31Z</time>
      </trkpt>
      <trkpt lat="43.22061" lon="5.61332">
        <ele>182</ele>
        <time>2017-04-09T08:11:34Z</time>
      </trkpt>
      <trkpt lat="43.2206" lon="5.61336">
        <ele>181.8</ele>
        <time>2017-04-09T08:11:35Z</time>
      </trkpt>
      <trkpt lat="43.22057" lon="5.61357">
        <ele>183</ele>
        <time>2017-04-09T08:11:40Z</time>
      </trkpt>
      <trkpt lat="43.22057" lon="5.61361">
        <ele>183.2</ele>
        <time>2017-04-09T08:11:41Z</time>
      </trkpt>
      <trkpt lat="43.22058" lon="5.61364">
        <ele>182.8</ele>
        <time>2017-04-09T08:11:42Z</time>
      </trkpt>
      <trkpt lat="43.22062" lon="5.61367">
        <ele>183.6</ele>
        <time>2017-04-09T08:11:44Z</time>
      </trkpt>
      <trkpt lat="43.22067" lon="5.61368">
        <ele>184</ele>
        <time>2017-04-09T08:11:46Z</time>
      </trkpt>
      <trkpt lat="43.22079" lon="5.61369">
        <ele>184</ele>
        <time>2017-04-09T08:11:50Z</time>
      </trkpt>
      <trkpt lat="43.22092" lon="5.61375">
        <ele>183.6</ele>
        <time>2017-04-09T08:11:54Z</time>
      </trkpt>
      <trkpt lat="43.22107" lon="5.61381">
        <ele>184.8</ele>
        <time>2017-04-09T08:11:59Z</time>
      </trkpt>
      <trkpt lat="43.22128" lon="5.61388">
        <ele>183</ele>
        <time>2017-04-09T08:12:04Z</time>
      </trkpt>
      <trkpt lat="43.22138" lon="5.61391">
        <ele>181.4</ele>
        <time>2017-04-09T08:12:06Z</time>
      </trkpt>
      <trkpt lat="43.2215" lon="5.61395">
        <ele>179.6</ele>
        <time>2017-04-09T08:12:08Z</time>
      </trkpt>
      <trkpt lat="43.22155" lon="5.61399">
        <ele>179.2</ele>
        <time>2017-04-09T08:12:09Z</time>
      </trkpt>
      <trkpt lat="43.22167" lon="5.61408">
        <ele>180.4</ele>
        <time>2017-04-09T08:12:12Z</time>
      </trkpt>
      <trkpt lat="43.2217" lon="5.6141">
        <ele>180.6</ele>
        <time>2017-04-09T08:12:13Z</time>
      </trkpt>
      <trkpt lat="43.22171" lon="5.61413">
        <ele>181.2</ele>
        <time>2017-04-09T08:12:15Z</time>
      </trkpt>
      <trkpt lat="43.22162" lon="5.61413">
        <ele>179.2</ele>
        <time>2017-04-09T08:12:18Z</time>
      </trkpt>
      <trkpt lat="43.22157" lon="5.61413">
        <ele>178.2</ele>
        <time>2017-04-09T08:12:19Z</time>
      </trkpt>
      <trkpt lat="43.22152" lon="5.61414">
        <ele>177</ele>
        <time>2017-04-09T08:12:20Z</time>
      </trkpt>
      <trkpt lat="43.22143" lon="5.6142">
        <ele>175.4</ele>
        <time>2017-04-09T08:12:22Z</time>
      </trkpt>
      <trkpt lat="43.22134" lon="5.61426">
        <ele>173</ele>
        <time>2017-04-09T08:12:24Z</time>
      </trkpt>
      <trkpt lat="43.22129" lon="5.61431">
        <ele>171.2</ele>
        <time>2017-04-09T08:12:25Z</time>
      </trkpt>
      <trkpt lat="43.22124" lon="5.61434">
        <ele>169.4</ele>
        <time>2017-04-09T08:12:26Z</time>
      </trkpt>
      <trkpt lat="43.2212" lon="5.61437">
        <ele>168.2</ele>
        <time>2017-04-09T08:12:27Z</time>
      </trkpt>
      <trkpt lat="43.22115" lon="5.6144">
        <ele>167</ele>
        <time>2017-04-09T08:12:28Z</time>
      </trkpt>
      <trkpt lat="43.2211" lon="5.61442">
        <ele>166.2</ele>
        <time>2017-04-09T08:12:29Z</time>
      </trkpt>
      <trkpt lat="43.22105" lon="5.61445">
        <ele>165.2</ele>
        <time>2017-04-09T08:12:30Z</time>
      </trkpt>
      <trkpt lat="43.22101" lon="5.61449">
        <ele>162.8</ele>
        <time>2017-04-09T08:12:31Z</time>
      </trkpt>
      <trkpt lat="43.22096" lon="5.61454">
        <ele>161.4</ele>
        <time>2017-04-09T08:12:32Z</time>
      </trkpt>
      <trkpt lat="43.22086" lon="5.6146">
        <ele>160.2</ele>
        <time>2017-04-09T08:12:34Z</time>
      </trkpt>
      <trkpt lat="43.22083" lon="5.61461">
        <ele>160.4</ele>
        <time>2017-04-09T08:12:35Z</time>
      </trkpt>
      <trkpt lat="43.22081" lon="5.61462">
        <ele>160.8</ele>
        <time>2017-04-09T08:12:36Z</time>
      </trkpt>
      <trkpt lat="43.2207" lon="5.61464">
        <ele>158.6</ele>
        <time>2017-04-09T08:12:39Z</time>
      </trkpt>
      <trkpt lat="43.22066" lon="5.61466">
        <ele>157.8</ele>
        <time>2017-04-09T08:12:40Z</time>
      </trkpt>
      <trkpt lat="43.22061" lon="5.6147">
        <ele>156.6</ele>
        <time>2017-04-09T08:12:41Z</time>
      </trkpt>
      <trkpt lat="43.22057" lon="5.61472">
        <ele>155.8</ele>
        <time>2017-04-09T08:12:42Z</time>
      </trkpt>
      <trkpt lat="43.22054" lon="5.61474">
        <ele>155.4</ele>
        <time>2017-04-09T08:12:43Z</time>
      </trkpt>
      <trkpt lat="43.22053" lon="5.61477">
        <ele>155.2</ele>
        <time>2017-04-09T08:12:44Z</time>
      </trkpt>
      <trkpt lat="43.22053" lon="5.61482">
        <ele>155.2</ele>
        <time>2017-04-09T08:12:45Z</time>
      </trkpt>
      <trkpt lat="43.22046" lon="5.61489">
        <ele>154.2</ele>
        <time>2017-04-09T08:12:47Z</time>
      </trkpt>
      <trkpt lat="43.22044" lon="5.61493">
        <ele>153.4</ele>
        <time>2017-04-09T08:12:48Z</time>
      </trkpt>
      <trkpt lat="43.22042" lon="5.61497">
        <ele>153</ele>
        <time>2017-04-09T08:12:49Z</time>
      </trkpt>
      <trkpt lat="43.22032" lon="5.61504">
        <ele>152</ele>
        <time>2017-04-09T08:12:52Z</time>
      </trkpt>
      <trkpt lat="43.22023" lon="5.61512">
        <ele>150.6</ele>
        <time>2017-04-09T08:12:54Z</time>
      </trkpt>
      <trkpt lat="43.22018" lon="5.61514">
        <ele>149.8</ele>
        <time>2017-04-09T08:12:55Z</time>
      </trkpt>
      <trkpt lat="43.22015" lon="5.61517">
        <ele>149</ele>
        <time>2017-04-09T08:12:56Z</time>
      </trkpt>
      <trkpt lat="43.22002" lon="5.61529">
        <ele>147.4</ele>
        <time>2017-04-09T08:12:59Z</time>
      </trkpt>
      <trkpt lat="43.21994" lon="5.61542">
        <ele>146.6</ele>
        <time>2017-04-09T08:13:02Z</time>
      </trkpt>
      <trkpt lat="43.21991" lon="5.61546">
        <ele>146.2</ele>
        <time>2017-04-09T08:13:03Z</time>
      </trkpt>
      <trkpt lat="43.21988" lon="5.6156">
        <ele>145.2</ele>
        <time>2017-04-09T08:13:06Z</time>
      </trkpt>
      <trkpt lat="43.21988" lon="5.61577">
        <ele>144.8</ele>
        <time>2017-04-09T08:13:09Z</time>
      </trkpt>
      <trkpt lat="43.21982" lon="5.61594">
        <ele>145.8</ele>
        <time>2017-04-09T08:13:13Z</time>
      </trkpt>
      <trkpt lat="43.21974" lon="5.61603">
        <ele>146.4</ele>
        <time>2017-04-09T08:13:16Z</time>
      </trkpt>
      <trkpt lat="43.21971" lon="5.61606">
        <ele>146.4</ele>
        <time>2017-04-09T08:13:17Z</time>
      </trkpt>
      <trkpt lat="43.21969" lon="5.6161">
        <ele>146.4</ele>
        <time>2017-04-09T08:13:18Z</time>
      </trkpt>
      <trkpt lat="43.21956" lon="5.61627">
        <ele>147.2</ele>
        <time>2017-04-09T08:13:23Z</time>
      </trkpt>
      <trkpt lat="43.21954" lon="5.61629">
        <ele>147.6</ele>
        <time>2017-04-09T08:13:24Z</time>
      </trkpt>
      <trkpt lat="43.21943" lon="5.61641">
        <ele>148.6</ele>
        <time>2017-04-09T08:13:28Z</time>
      </trkpt>
      <trkpt lat="43.21933" lon="5.61648">
        <ele>148.8</ele>
        <time>2017-04-09T08:13:31Z</time>
      </trkpt>
      <trkpt lat="43.21928" lon="5.61654">
        <ele>149</ele>
        <time>2017-04-09T08:13:33Z</time>
      </trkpt>
      <trkpt lat="43.21918" lon="5.61663">
        <ele>150</ele>
        <time>2017-04-09T08:13:37Z</time>
      </trkpt>
      <trkpt lat="43.21913" lon="5.61665">
        <ele>150.4</ele>
        <time>2017-04-09T08:13:39Z</time>
      </trkpt>
      <trkpt lat="43.21905" lon="5.61669">
        <ele>151.2</ele>
        <time>2017-04-09T08:13:42Z</time>
      </trkpt>
      <trkpt lat="43.219" lon="5.61671">
        <ele>151.6</ele>
        <time>2017-04-09T08:13:44Z</time>
      </trkpt>
      <trkpt lat="43.21894" lon="5.61673">
        <ele>152.2</ele>
        <time>2017-04-09T08:13:46Z</time>
      </trkpt>
      <trkpt lat="43.21886" lon="5.61679">
        <ele>153</ele>
        <time>2017-04-09T08:13:49Z</time>
      </trkpt>
      <trkpt lat="43.21883" lon="5.6168">
        <ele>153.4</ele>
        <time>2017-04-09T08:13:50Z</time>
      </trkpt>
      <trkpt lat="43.21873" lon="5.61684">
        <ele>153.2</ele>
        <time>2017-04-09T08:13:53Z</time>
      </trkpt>
      <trkpt lat="43.21858" lon="5.61694">
        <ele>152.8</ele>
        <time>2017-04-09T08:13:57Z</time>
      </trkpt>
      <trkpt lat="43.2184" lon="5.61696">
        <ele>152.8</ele>
        <time>2017-04-09T08:14:01Z</time>
      </trkpt>
      <trkpt lat="43.21822" lon="5.61699">
        <ele>152.2</ele>
        <time>2017-04-09T08:14:05Z</time>
      </trkpt>
      <trkpt lat="43.21818" lon="5.61699">
        <ele>151.8</ele>
        <time>2017-04-09T08:14:06Z</time>
      </trkpt>
      <trkpt lat="43.2181" lon="5.61702">
        <ele>151.2</ele>
        <time>2017-04-09T08:14:09Z</time>
      </trkpt>
      <trkpt lat="43.21809" lon="5.61702">
        <ele>151.6</ele>
        <time>2017-04-09T08:14:10Z</time>
      </trkpt>
      <trkpt lat="43.2181" lon="5.61707">
        <ele>152.2</ele>
        <time>2017-04-09T08:14:29Z</time>
      </trkpt>
      <trkpt lat="43.21811" lon="5.61708">
        <ele>152.2</ele>
        <time>2017-04-09T08:14:30Z</time>
      </trkpt>
      <trkpt lat="43.21821" lon="5.61711">
        <ele>153.4</ele>
        <time>2017-04-09T08:14:36Z</time>
      </trkpt>
      <trkpt lat="43.21831" lon="5.61713">
        <ele>154.4</ele>
        <time>2017-04-09T08:14:41Z</time>
      </trkpt>
      <trkpt lat="43.21835" lon="5.61713">
        <ele>154.8</ele>
        <time>2017-04-09T08:14:43Z</time>
      </trkpt>
      <trkpt lat="43.21851" lon="5.61715">
        <ele>155.2</ele>
        <time>2017-04-09T08:14:49Z</time>
      </trkpt>
      <trkpt lat="43.21856" lon="5.61716">
        <ele>155.6</ele>
        <time>2017-04-09T08:14:51Z</time>
      </trkpt>
      <trkpt lat="43.21863" lon="5.61718">
        <ele>155.8</ele>
        <time>2017-04-09T08:14:54Z</time>
      </trkpt>
      <trkpt lat="43.2187" lon="5.61717">
        <ele>156.8</ele>
        <time>2017-04-09T08:14:57Z</time>
      </trkpt>
      <trkpt lat="43.21874" lon="5.61718">
        <ele>157</ele>
        <time>2017-04-09T08:14:59Z</time>
      </trkpt>
      <trkpt lat="43.21881" lon="5.61719">
        <ele>158</ele>
        <time>2017-04-09T08:15:02Z</time>
      </trkpt>
      <trkpt lat="43.21888" lon="5.61719">
        <ele>159.2</ele>
        <time>2017-04-09T08:15:05Z</time>
      </trkpt>
      <trkpt lat="43.21893" lon="5.61719">
        <ele>159.4</ele>
        <time>2017-04-09T08:15:07Z</time>
      </trkpt>
      <trkpt lat="43.21899" lon="5.61719">
        <ele>160.4</ele>
        <time>2017-04-09T08:15:10Z</time>
      </trkpt>
      <trkpt lat="43.21907" lon="5.61721">
        <ele>161.6</ele>
        <time>2017-04-09T08:15:14Z</time>
      </trkpt>
      <trkpt lat="43.21913" lon="5.61723">
        <ele>162.8</ele>
        <time>2017-04-09T08:15:18Z</time>
      </trkpt>
      <trkpt lat="43.21916" lon="5.61725">
        <ele>163.4</ele>
        <time>2017-04-09T08:15:20Z</time>
      </trkpt>
      <trkpt lat="43.21919" lon="5.61726">
        <ele>164</ele>
        <time>2017-04-09T08:15:22Z</time>
      </trkpt>
      <trkpt lat="43.21924" lon="5.61728">
        <ele>165</ele>
        <time>2017-04-09T08:15:25Z</time>
      </trkpt>
      <trkpt lat="43.21927" lon="5.6173">
        <ele>165.8</ele>
        <time>2017-04-09T08:15:27Z</time>
      </trkpt>
      <trkpt lat="43.21928" lon="5.6173">
        <ele>166</ele>
        <time>2017-04-09T08:15:28Z</time>
      </trkpt>
      <trkpt lat="43.21933" lon="5.6173">
        <ele>167.2</ele>
        <time>2017-04-09T08:15:31Z</time>
      </trkpt>
      <trkpt lat="43.21937" lon="5.61732">
        <ele>167.6</ele>
        <time>2017-04-09T08:15:33Z</time>
      </trkpt>
      <trkpt lat="43.21941" lon="5.61736">
        <ele>168.2</ele>
        <time>2017-04-09T08:15:36Z</time>
      </trkpt>
      <trkpt lat="43.21946" lon="5.61738">
        <ele>169</ele>
        <time>2017-04-09T08:15:39Z</time>
      </trkpt>
      <trkpt lat="43.21948" lon="5.61738">
        <ele>169.6</ele>
        <time>2017-04-09T08:15:40Z</time>
      </trkpt>
      <trkpt lat="43.21953" lon="5.61741">
        <ele>170.6</ele>
        <time>2017-04-09T08:15:43Z</time>
      </trkpt>
      <trkpt lat="43.21956" lon="5.61742">
        <ele>171.4</ele>
        <time>2017-04-09T08:15:45Z</time>
      </trkpt>
      <trkpt lat="43.21959" lon="5.61744">
        <ele>171.8</ele>
        <time>2017-04-09T08:15:47Z</time>
      </trkpt>
      <trkpt lat="43.21965" lon="5.61747">
        <ele>173</ele>
        <time>2017-04-09T08:15:51Z</time>
      </trkpt>
      <trkpt lat="43.21966" lon="5.61747">
        <ele>173.2</ele>
        <time>2017-04-09T08:15:52Z</time>
      </trkpt>
      <trkpt lat="43.2197" lon="5.6175">
        <ele>174.4</ele>
        <time>2017-04-09T08:15:55Z</time>
      </trkpt>
      <trkpt lat="43.21971" lon="5.61751">
        <ele>174.8</ele>
        <time>2017-04-09T08:15:56Z</time>
      </trkpt>
      <trkpt lat="43.21974" lon="5.61751">
        <ele>175.4</ele>
        <time>2017-04-09T08:15:58Z</time>
      </trkpt>
      <trkpt lat="43.21978" lon="5.61751">
        <ele>176.2</ele>
        <time>2017-04-09T08:16:01Z</time>
      </trkpt>
      <trkpt lat="43.21979" lon="5.61751">
        <ele>176.6</ele>
        <time>2017-04-09T08:16:02Z</time>
      </trkpt>
      <trkpt lat="43.21982" lon="5.61751">
        <ele>177.6</ele>
        <time>2017-04-09T08:16:05Z</time>
      </trkpt>
      <trkpt lat="43.21985" lon="5.61752">
        <ele>178</ele>
        <time>2017-04-09T08:16:07Z</time>
      </trkpt>
      <trkpt lat="43.21987" lon="5.6175">
        <ele>178.2</ele>
        <time>2017-04-09T08:16:09Z</time>
      </trkpt>
      <trkpt lat="43.21991" lon="5.6175">
        <ele>179</ele>
        <time>2017-04-09T08:16:11Z</time>
      </trkpt>
      <trkpt lat="43.21997" lon="5.61745">
        <ele>180.4</ele>
        <time>2017-04-09T08:16:15Z</time>
      </trkpt>
      <trkpt lat="43.21999" lon="5.61746">
        <ele>180.6</ele>
        <time>2017-04-09T08:16:16Z</time>
      </trkpt>
      <trkpt lat="43.22003" lon="5.61748">
        <ele>181.4</ele>
        <time>2017-04-09T08:16:19Z</time>
      </trkpt>
      <trkpt lat="43.2201" lon="5.61748">
        <ele>182.6</ele>
        <time>2017-04-09T08:16:23Z</time>
      </trkpt>
      <trkpt lat="43.22012" lon="5.61747">
        <ele>182.6</ele>
        <time>2017-04-09T08:16:24Z</time>
      </trkpt>
      <trkpt lat="43.22013" lon="5.61747">
        <ele>182.8</ele>
        <time>2017-04-09T08:16:25Z</time>
      </trkpt>
      <trkpt lat="43.22015" lon="5.61748">
        <ele>183.2</ele>
        <time>2017-04-09T08:16:26Z</time>
      </trkpt>
      <trkpt lat="43.22018" lon="5.61747">
        <ele>183.8</ele>
        <time>2017-04-09T08:16:28Z</time>
      </trkpt>
      <trkpt lat="43.22021" lon="5.6175">
        <ele>184.4</ele>
        <time>2017-04-09T08:16:30Z</time>
      </trkpt>
      <trkpt lat="43.22024" lon="5.61753">
        <ele>185</ele>
        <time>2017-04-09T08:16:32Z</time>
      </trkpt>
      <trkpt lat="43.22029" lon="5.61758">
        <ele>185.6</ele>
        <time>2017-04-09T08:16:36Z</time>
      </trkpt>
      <trkpt lat="43.22032" lon="5.6176">
        <ele>186</ele>
        <time>2017-04-09T08:16:38Z</time>
      </trkpt>
      <trkpt lat="43.22037" lon="5.61765">
        <ele>187.2</ele>
        <time>2017-04-09T08:16:42Z</time>
      </trkpt>
      <trkpt lat="43.2204" lon="5.61767">
        <ele>187.8</ele>
        <time>2017-04-09T08:16:44Z</time>
      </trkpt>
      <trkpt lat="43.22043" lon="5.61769">
        <ele>188.6</ele>
        <time>2017-04-09T08:16:46Z</time>
      </trkpt>
      <trkpt lat="43.22049" lon="5.61777">
        <ele>189.6</ele>
        <time>2017-04-09T08:16:51Z</time>
      </trkpt>
      <trkpt lat="43.22053" lon="5.61785">
        <ele>190.6</ele>
        <time>2017-04-09T08:16:55Z</time>
      </trkpt>
      <trkpt lat="43.22056" lon="5.61791">
        <ele>190.4</ele>
        <time>2017-04-09T08:16:58Z</time>
      </trkpt>
      <trkpt lat="43.22063" lon="5.61806">
        <ele>191.4</ele>
        <time>2017-04-09T08:17:04Z</time>
      </trkpt>
      <trkpt lat="43.22075" lon="5.6183">
        <ele>191.2</ele>
        <time>2017-04-09T08:17:11Z</time>
      </trkpt>
      <trkpt lat="43.22089" lon="5.61856">
        <ele>190.4</ele>
        <time>2017-04-09T08:17:18Z</time>
      </trkpt>
      <trkpt lat="43.22105" lon="5.61863">
        <ele>189.8</ele>
        <time>2017-04-09T08:17:23Z</time>
      </trkpt>
      <trkpt lat="43.22109" lon="5.61863">
        <ele>189.6</ele>
        <time>2017-04-09T08:17:24Z</time>
      </trkpt>
      <trkpt lat="43.22113" lon="5.61863">
        <ele>189</ele>
        <time>2017-04-09T08:17:25Z</time>
      </trkpt>
      <trkpt lat="43.22118" lon="5.61862">
        <ele>188.6</ele>
        <time>2017-04-09T08:17:26Z</time>
      </trkpt>
      <trkpt lat="43.22127" lon="5.61861">
        <ele>188</ele>
        <time>2017-04-09T08:17:28Z</time>
      </trkpt>
      <trkpt lat="43.22131" lon="5.61859">
        <ele>187.6</ele>
        <time>2017-04-09T08:17:29Z</time>
      </trkpt>
      <trkpt lat="43.22144" lon="5.61862">
        <ele>188.2</ele>
        <time>2017-04-09T08:17:32Z</time>
      </trkpt>
      <trkpt lat="43.22151" lon="5.61864">
        <ele>188.2</ele>
        <time>2017-04-09T08:17:34Z</time>
      </trkpt>
      <trkpt lat="43.22158" lon="5.61867">
        <ele>189.2</ele>
        <time>2017-04-09T08:17:37Z</time>
      </trkpt>
      <trkpt lat="43.22164" lon="5.61871">
        <ele>190.4</ele>
        <time>2017-04-09T08:17:40Z</time>
      </trkpt>
      <trkpt lat="43.22169" lon="5.61876">
        <ele>191</ele>
        <time>2017-04-09T08:17:43Z</time>
      </trkpt>
      <trkpt lat="43.22173" lon="5.6188">
        <ele>191.4</ele>
        <time>2017-04-09T08:17:45Z</time>
      </trkpt>
      <trkpt lat="43.2218" lon="5.61888">
        <ele>192</ele>
        <time>2017-04-09T08:17:49Z</time>
      </trkpt>
      <trkpt lat="43.22193" lon="5.61899">
        <ele>192.2</ele>
        <time>2017-04-09T08:17:55Z</time>
      </trkpt>
      <trkpt lat="43.22198" lon="5.61904">
        <ele>192.6</ele>
        <time>2017-04-09T08:17:58Z</time>
      </trkpt>
      <trkpt lat="43.22202" lon="5.61907">
        <ele>192.6</ele>
        <time>2017-04-09T08:18:00Z</time>
      </trkpt>
      <trkpt lat="43.22208" lon="5.61913">
        <ele>193.6</ele>
        <time>2017-04-09T08:18:03Z</time>
      </trkpt>
      <trkpt lat="43.22216" lon="5.61924">
        <ele>193.4</ele>
        <time>2017-04-09T08:18:07Z</time>
      </trkpt>
      <trkpt lat="43.22226" lon="5.61939">
        <ele>194.2</ele>
        <time>2017-04-09T08:18:13Z</time>
      </trkpt>
      <trkpt lat="43.22231" lon="5.61941">
        <ele>194.4</ele>
        <time>2017-04-09T08:18:15Z</time>
      </trkpt>
      <trkpt lat="43.22235" lon="5.61937">
        <ele>194.2</ele>
        <time>2017-04-09T08:18:17Z</time>
      </trkpt>
      <trkpt lat="43.22243" lon="5.61921">
        <ele>193.2</ele>
        <time>2017-04-09T08:18:22Z</time>
      </trkpt>
      <trkpt lat="43.22243" lon="5.61919">
        <ele>193</ele>
        <time>2017-04-09T08:18:23Z</time>
      </trkpt>
      <trkpt lat="43.22245" lon="5.61914">
        <ele>192.8</ele>
        <time>2017-04-09T08:18:26Z</time>
      </trkpt>
      <trkpt lat="43.22248" lon="5.61908">
        <ele>192.4</ele>
        <time>2017-04-09T08:18:28Z</time>
      </trkpt>
      <trkpt lat="43.22253" lon="5.61905">
        <ele>191.4</ele>
        <time>2017-04-09T08:18:30Z</time>
      </trkpt>
      <trkpt lat="43.22255" lon="5.61907">
        <ele>191</ele>
        <time>2017-04-09T08:18:31Z</time>
      </trkpt>
      <trkpt lat="43.22258" lon="5.61916">
        <ele>189.6</ele>
        <time>2017-04-09T08:18:33Z</time>
      </trkpt>
      <trkpt lat="43.2226" lon="5.61926">
        <ele>188.6</ele>
        <time>2017-04-09T08:18:35Z</time>
      </trkpt>
      <trkpt lat="43.22262" lon="5.6194">
        <ele>187.2</ele>
        <time>2017-04-09T08:18:37Z</time>
      </trkpt>
      <trkpt lat="43.22263" lon="5.61947">
        <ele>186.2</ele>
        <time>2017-04-09T08:18:38Z</time>
      </trkpt>
      <trkpt lat="43.22263" lon="5.61954">
        <ele>185.4</ele>
        <time>2017-04-09T08:18:39Z</time>
      </trkpt>
      <trkpt lat="43.22265" lon="5.61975">
        <ele>184.2</ele>
        <time>2017-04-09T08:18:42Z</time>
      </trkpt>
      <trkpt lat="43.22267" lon="5.61982">
        <ele>184</ele>
        <time>2017-04-09T08:18:43Z</time>
      </trkpt>
      <trkpt lat="43.22268" lon="5.61997">
        <ele>183.2</ele>
        <time>2017-04-09T08:18:45Z</time>
      </trkpt>
      <trkpt lat="43.22268" lon="5.62005">
        <ele>182.4</ele>
        <time>2017-04-09T08:18:46Z</time>
      </trkpt>
      <trkpt lat="43.22267" lon="5.62012">
        <ele>181.8</ele>
        <time>2017-04-09T08:18:47Z</time>
      </trkpt>
      <trkpt lat="43.22266" lon="5.62017">
        <ele>181.4</ele>
        <time>2017-04-09T08:18:48Z</time>
      </trkpt>
      <trkpt lat="43.22264" lon="5.62025">
        <ele>180.8</ele>
        <time>2017-04-09T08:18:50Z</time>
      </trkpt>
      <trkpt lat="43.22268" lon="5.62026">
        <ele>180.4</ele>
        <time>2017-04-09T08:18:52Z</time>
      </trkpt>
      <trkpt lat="43.22274" lon="5.62021">
        <ele>179.6</ele>
        <time>2017-04-09T08:18:54Z</time>
      </trkpt>
      <trkpt lat="43.22278" lon="5.62017">
        <ele>177.6</ele>
        <time>2017-04-09T08:18:55Z</time>
      </trkpt>
      <trkpt lat="43.22282" lon="5.62013">
        <ele>176.6</ele>
        <time>2017-04-09T08:18:56Z</time>
      </trkpt>
      <trkpt lat="43.22285" lon="5.62009">
        <ele>175.8</ele>
        <time>2017-04-09T08:18:57Z</time>
      </trkpt>
      <trkpt lat="43.2229" lon="5.62005">
        <ele>175.4</ele>
        <time>2017-04-09T08:18:58Z</time>
      </trkpt>
      <trkpt lat="43.22295" lon="5.61998">
        <ele>174.4</ele>
        <time>2017-04-09T08:19:00Z</time>
      </trkpt>
      <trkpt lat="43.22297" lon="5.61993">
        <ele>174</ele>
        <time>2017-04-09T08:19:01Z</time>
      </trkpt>
      <trkpt lat="43.22302" lon="5.61978">
        <ele>172.6</ele>
        <time>2017-04-09T08:19:04Z</time>
      </trkpt>
      <trkpt lat="43.22305" lon="5.61964">
        <ele>170.8</ele>
        <time>2017-04-09T08:19:06Z</time>
      </trkpt>
      <trkpt lat="43.22305" lon="5.61956">
        <ele>170</ele>
        <time>2017-04-09T08:19:07Z</time>
      </trkpt>
      <trkpt lat="43.22305" lon="5.61949">
        <ele>169.6</ele>
        <time>2017-04-09T08:19:08Z</time>
      </trkpt>
      <trkpt lat="43.22305" lon="5.61936">
        <ele>170.4</ele>
        <time>2017-04-09T08:19:11Z</time>
      </trkpt>
      <trkpt lat="43.22306" lon="5.61932">
        <ele>169.8</ele>
        <time>2017-04-09T08:19:12Z</time>
      </trkpt>
      <trkpt lat="43.22304" lon="5.6192">
        <ele>168.2</ele>
        <time>2017-04-09T08:19:14Z</time>
      </trkpt>
      <trkpt lat="43.22299" lon="5.61913">
        <ele>167</ele>
        <time>2017-04-09T08:19:16Z</time>
      </trkpt>
      <trkpt lat="43.22291" lon="5.61895">
        <ele>165.4</ele>
        <time>2017-04-09T08:19:20Z</time>
      </trkpt>
      <trkpt lat="43.2229" lon="5.61889">
        <ele>165.2</ele>
        <time>2017-04-09T08:19:21Z</time>
      </trkpt>
      <trkpt lat="43.22291" lon="5.61878">
        <ele>164.2</ele>
        <time>2017-04-09T08:19:24Z</time>
      </trkpt>
      <trkpt lat="43.22292" lon="5.61873">
        <ele>163.8</ele>
        <time>2017-04-09T08:19:25Z</time>
      </trkpt>
      <trkpt lat="43.22297" lon="5.61863">
        <ele>163.2</ele>
        <time>2017-04-09T08:19:27Z</time>
      </trkpt>
      <trkpt lat="43.22301" lon="5.61857">
        <ele>163.4</ele>
        <time>2017-04-09T08:19:29Z</time>
      </trkpt>
      <trkpt lat="43.2231" lon="5.61838">
        <ele>163.6</ele>
        <time>2017-04-09T08:19:34Z</time>
      </trkpt>
      <trkpt lat="43.2232" lon="5.61825">
        <ele>162.4</ele>
        <time>2017-04-09T08:19:38Z</time>
      </trkpt>
      <trkpt lat="43.22322" lon="5.61819">
        <ele>161.4</ele>
        <time>2017-04-09T08:19:39Z</time>
      </trkpt>
      <trkpt lat="43.22326" lon="5.61805">
        <ele>160</ele>
        <time>2017-04-09T08:19:42Z</time>
      </trkpt>
      <trkpt lat="43.22327" lon="5.61801">
        <ele>159.4</ele>
        <time>2017-04-09T08:19:43Z</time>
      </trkpt>
      <trkpt lat="43.22329" lon="5.61802">
        <ele>159.8</ele>
        <time>2017-04-09T08:19:45Z</time>
      </trkpt>
      <trkpt lat="43.2233" lon="5.61804">
        <ele>159.6</ele>
        <time>2017-04-09T08:19:46Z</time>
      </trkpt>
      <trkpt lat="43.2233" lon="5.61808">
        <ele>158.8</ele>
        <time>2017-04-09T08:19:48Z</time>
      </trkpt>
      <trkpt lat="43.22331" lon="5.61815">
        <ele>158.2</ele>
        <time>2017-04-09T08:19:50Z</time>
      </trkpt>
      <trkpt lat="43.22332" lon="5.6182">
        <ele>157.8</ele>
        <time>2017-04-09T08:19:51Z</time>
      </trkpt>
      <trkpt lat="43.22329" lon="5.61829">
        <ele>157.2</ele>
        <time>2017-04-09T08:19:53Z</time>
      </trkpt>
      <trkpt lat="43.22325" lon="5.61834">
        <ele>156.8</ele>
        <time>2017-04-09T08:19:54Z</time>
      </trkpt>
      <trkpt lat="43.22318" lon="5.61842">
        <ele>156.2</ele>
        <time>2017-04-09T08:19:56Z</time>
      </trkpt>
      <trkpt lat="43.22316" lon="5.61848">
        <ele>155.4</ele>
        <time>2017-04-09T08:19:57Z</time>
      </trkpt>
      <trkpt lat="43.22311" lon="5.61859">
        <ele>154.6</ele>
        <time>2017-04-09T08:19:59Z</time>
      </trkpt>
      <trkpt lat="43.22309" lon="5.61864">
        <ele>154.8</ele>
        <time>2017-04-09T08:20:00Z</time>
      </trkpt>
      <trkpt lat="43.22311" lon="5.61878">
        <ele>155.2</ele>
        <time>2017-04-09T08:20:03Z</time>
      </trkpt>
      <trkpt lat="43.22316" lon="5.61885">
        <ele>154.4</ele>
        <time>2017-04-09T08:20:05Z</time>
      </trkpt>
      <trkpt lat="43.2232" lon="5.6189">
        <ele>154.2</ele>
        <time>2017-04-09T08:20:06Z</time>
      </trkpt>
      <trkpt lat="43.22323" lon="5.61895">
        <ele>154</ele>
        <time>2017-04-09T08:20:07Z</time>
      </trkpt>
      <trkpt lat="43.22325" lon="5.61901">
        <ele>153.6</ele>
        <time>2017-04-09T08:20:08Z</time>
      </trkpt>
      <trkpt lat="43.22324" lon="5.61905">
        <ele>153.4</ele>
        <time>2017-04-09T08:20:09Z</time>
      </trkpt>
      <trkpt lat="43.22325" lon="5.6191">
        <ele>153.8</ele>
        <time>2017-04-09T08:20:10Z</time>
      </trkpt>
      <trkpt lat="43.22326" lon="5.61914">
        <ele>155.2</ele>
        <time>2017-04-09T08:20:11Z</time>
      </trkpt>
      <trkpt lat="43.22325" lon="5.61941">
        <ele>154</ele>
        <time>2017-04-09T08:20:15Z</time>
      </trkpt>
      <trkpt lat="43.2233" lon="5.61965">
        <ele>152.8</ele>
        <time>2017-04-09T08:20:18Z</time>
      </trkpt>
      <trkpt lat="43.22332" lon="5.6198">
        <ele>152.4</ele>
        <time>2017-04-09T08:20:20Z</time>
      </trkpt>
      <trkpt lat="43.22336" lon="5.62003">
        <ele>153.6</ele>
        <time>2017-04-09T08:20:24Z</time>
      </trkpt>
      <trkpt lat="43.22336" lon="5.62009">
        <ele>153.6</ele>
        <time>2017-04-09T08:20:25Z</time>
      </trkpt>
      <trkpt lat="43.22336" lon="5.62019">
        <ele>151.8</ele>
        <time>2017-04-09T08:20:27Z</time>
      </trkpt>
      <trkpt lat="43.22336" lon="5.62025">
        <ele>150.6</ele>
        <time>2017-04-09T08:20:28Z</time>
      </trkpt>
      <trkpt lat="43.22337" lon="5.62031">
        <ele>149.6</ele>
        <time>2017-04-09T08:20:29Z</time>
      </trkpt>
      <trkpt lat="43.22335" lon="5.62045">
        <ele>148</ele>
        <time>2017-04-09T08:20:31Z</time>
      </trkpt>
      <trkpt lat="43.22334" lon="5.62052">
        <ele>146.8</ele>
        <time>2017-04-09T08:20:32Z</time>
      </trkpt>
      <trkpt lat="43.22332" lon="5.62059">
        <ele>145.6</ele>
        <time>2017-04-09T08:20:33Z</time>
      </trkpt>
      <trkpt lat="43.22331" lon="5.62065">
        <ele>144.4</ele>
        <time>2017-04-09T08:20:34Z</time>
      </trkpt>
      <trkpt lat="43.22328" lon="5.62071">
        <ele>143.2</ele>
        <time>2017-04-09T08:20:35Z</time>
      </trkpt>
      <trkpt lat="43.22323" lon="5.62084">
        <ele>141.6</ele>
        <time>2017-04-09T08:20:37Z</time>
      </trkpt>
      <trkpt lat="43.22321" lon="5.62095">
        <ele>140.4</ele>
        <time>2017-04-09T08:20:39Z</time>
      </trkpt>
      <trkpt lat="43.22318" lon="5.62108">
        <ele>139.4</ele>
        <time>2017-04-09T08:20:41Z</time>
      </trkpt>
      <trkpt lat="43.22316" lon="5.62115">
        <ele>139</ele>
        <time>2017-04-09T08:20:42Z</time>
      </trkpt>
      <trkpt lat="43.22312" lon="5.62125">
        <ele>138</ele>
        <time>2017-04-09T08:20:44Z</time>
      </trkpt>
      <trkpt lat="43.22309" lon="5.6213">
        <ele>137.6</ele>
        <time>2017-04-09T08:20:45Z</time>
      </trkpt>
      <trkpt lat="43.22304" lon="5.62138">
        <ele>136.4</ele>
        <time>2017-04-09T08:20:47Z</time>
      </trkpt>
      <trkpt lat="43.22302" lon="5.62141">
        <ele>135.8</ele>
        <time>2017-04-09T08:20:48Z</time>
      </trkpt>
      <trkpt lat="43.22298" lon="5.62146">
        <ele>135.4</ele>
        <time>2017-04-09T08:20:49Z</time>
      </trkpt>
      <trkpt lat="43.2229" lon="5.62153">
        <ele>133.8</ele>
        <time>2017-04-09T08:20:51Z</time>
      </trkpt>
      <trkpt lat="43.22289" lon="5.62158">
        <ele>133</ele>
        <time>2017-04-09T08:20:52Z</time>
      </trkpt>
      <trkpt lat="43.22291" lon="5.62164">
        <ele>132.8</ele>
        <time>2017-04-09T08:20:53Z</time>
      </trkpt>
      <trkpt lat="43.22291" lon="5.62167">
        <ele>132.8</ele>
        <time>2017-04-09T08:20:54Z</time>
      </trkpt>
      <trkpt lat="43.22293" lon="5.62178">
        <ele>131.6</ele>
        <time>2017-04-09T08:20:57Z</time>
      </trkpt>
      <trkpt lat="43.22291" lon="5.6218">
        <ele>131.4</ele>
        <time>2017-04-09T08:20:58Z</time>
      </trkpt>
      <trkpt lat="43.22287" lon="5.62187">
        <ele>130.2</ele>
        <time>2017-04-09T08:21:00Z</time>
      </trkpt>
      <trkpt lat="43.22287" lon="5.62194">
        <ele>128.4</ele>
        <time>2017-04-09T08:21:01Z</time>
      </trkpt>
      <trkpt lat="43.22286" lon="5.62201">
        <ele>127.4</ele>
        <time>2017-04-09T08:21:02Z</time>
      </trkpt>
      <trkpt lat="43.22285" lon="5.62208">
        <ele>126.8</ele>
        <time>2017-04-09T08:21:03Z</time>
      </trkpt>
      <trkpt lat="43.2228" lon="5.62221">
        <ele>126</ele>
        <time>2017-04-09T08:21:05Z</time>
      </trkpt>
      <trkpt lat="43.22278" lon="5.62227">
        <ele>125.8</ele>
        <time>2017-04-09T08:21:06Z</time>
      </trkpt>
      <trkpt lat="43.22274" lon="5.62234">
        <ele>125.6</ele>
        <time>2017-04-09T08:21:07Z</time>
      </trkpt>
      <trkpt lat="43.22263" lon="5.6225">
        <ele>124</ele>
        <time>2017-04-09T08:21:10Z</time>
      </trkpt>
      <trkpt lat="43.2226" lon="5.62256">
        <ele>124.2</ele>
        <time>2017-04-09T08:21:11Z</time>
      </trkpt>
      <trkpt lat="43.22253" lon="5.6227">
        <ele>122.8</ele>
        <time>2017-04-09T08:21:14Z</time>
      </trkpt>
      <trkpt lat="43.22249" lon="5.62275">
        <ele>122.2</ele>
        <time>2017-04-09T08:21:15Z</time>
      </trkpt>
      <trkpt lat="43.22243" lon="5.62283">
        <ele>121.4</ele>
        <time>2017-04-09T08:21:17Z</time>
      </trkpt>
      <trkpt lat="43.2224" lon="5.62295">
        <ele>120.4</ele>
        <time>2017-04-09T08:21:19Z</time>
      </trkpt>
      <trkpt lat="43.22238" lon="5.62307">
        <ele>119.8</ele>
        <time>2017-04-09T08:21:22Z</time>
      </trkpt>
      <trkpt lat="43.22237" lon="5.6231">
        <ele>119.4</ele>
        <time>2017-04-09T08:21:23Z</time>
      </trkpt>
      <trkpt lat="43.22235" lon="5.62317">
        <ele>118.2</ele>
        <time>2017-04-09T08:21:25Z</time>
      </trkpt>
      <trkpt lat="43.22231" lon="5.62327">
        <ele>117</ele>
        <time>2017-04-09T08:21:27Z</time>
      </trkpt>
      <trkpt lat="43.22228" lon="5.62332">
        <ele>116.4</ele>
        <time>2017-04-09T08:21:28Z</time>
      </trkpt>
      <trkpt lat="43.22226" lon="5.62338">
        <ele>115.6</ele>
        <time>2017-04-09T08:21:29Z</time>
      </trkpt>
      <trkpt lat="43.22224" lon="5.62344">
        <ele>114.6</ele>
        <time>2017-04-09T08:21:30Z</time>
      </trkpt>
      <trkpt lat="43.22222" lon="5.62352">
        <ele>114</ele>
        <time>2017-04-09T08:21:31Z</time>
      </trkpt>
      <trkpt lat="43.2222" lon="5.62358">
        <ele>113.4</ele>
        <time>2017-04-09T08:21:32Z</time>
      </trkpt>
      <trkpt lat="43.22216" lon="5.62373">
        <ele>112</ele>
        <time>2017-04-09T08:21:34Z</time>
      </trkpt>
      <trkpt lat="43.22213" lon="5.62381">
        <ele>111.4</ele>
        <time>2017-04-09T08:21:35Z</time>
      </trkpt>
      <trkpt lat="43.2221" lon="5.62388">
        <ele>110.8</ele>
        <time>2017-04-09T08:21:36Z</time>
      </trkpt>
      <trkpt lat="43.22202" lon="5.62407">
        <ele>110</ele>
        <time>2017-04-09T08:21:39Z</time>
      </trkpt>
      <trkpt lat="43.222" lon="5.62412">
        <ele>110</ele>
        <time>2017-04-09T08:21:40Z</time>
      </trkpt>
      <trkpt lat="43.22198" lon="5.6242">
        <ele>110.4</ele>
        <time>2017-04-09T08:21:41Z</time>
      </trkpt>
      <trkpt lat="43.22191" lon="5.62429">
        <ele>109.6</ele>
        <time>2017-04-09T08:21:43Z</time>
      </trkpt>
      <trkpt lat="43.22187" lon="5.62433">
        <ele>108.8</ele>
        <time>2017-04-09T08:21:44Z</time>
      </trkpt>
      <trkpt lat="43.22183" lon="5.62435">
        <ele>108.2</ele>
        <time>2017-04-09T08:21:45Z</time>
      </trkpt>
      <trkpt lat="43.22177" lon="5.62436">
        <ele>108</ele>
        <time>2017-04-09T08:21:47Z</time>
      </trkpt>
      <trkpt lat="43.22173" lon="5.62434">
        <ele>108</ele>
        <time>2017-04-09T08:21:48Z</time>
      </trkpt>
      <trkpt lat="43.2217" lon="5.62431">
        <ele>107.6</ele>
        <time>2017-04-09T08:21:49Z</time>
      </trkpt>
      <trkpt lat="43.22165" lon="5.62422">
        <ele>106.6</ele>
        <time>2017-04-09T08:21:51Z</time>
      </trkpt>
      <trkpt lat="43.22148" lon="5.62395">
        <ele>106.6</ele>
        <time>2017-04-09T08:21:57Z</time>
      </trkpt>
      <trkpt lat="43.22142" lon="5.62393">
        <ele>107</ele>
        <time>2017-04-09T08:21:59Z</time>
      </trkpt>
      <trkpt lat="43.22135" lon="5.62391">
        <ele>107.6</ele>
        <time>2017-04-09T08:22:02Z</time>
      </trkpt>
      <trkpt lat="43.22133" lon="5.62391">
        <ele>107.6</ele>
        <time>2017-04-09T08:22:03Z</time>
      </trkpt>
      <trkpt lat="43.22115" lon="5.62395">
        <ele>108.8</ele>
        <time>2017-04-09T08:22:10Z</time>
      </trkpt>
      <trkpt lat="43.22103" lon="5.62403">
        <ele>109.4</ele>
        <time>2017-04-09T08:22:15Z</time>
      </trkpt>
      <trkpt lat="43.22092" lon="5.62413">
        <ele>110</ele>
        <time>2017-04-09T08:22:20Z</time>
      </trkpt>
      <trkpt lat="43.2209" lon="5.62415">
        <ele>109.8</ele>
        <time>2017-04-09T08:22:21Z</time>
      </trkpt>
      <trkpt lat="43.22077" lon="5.62419">
        <ele>111</ele>
        <time>2017-04-09T08:22:26Z</time>
      </trkpt>
      <trkpt lat="43.22074" lon="5.62419">
        <ele>111.2</ele>
        <time>2017-04-09T08:22:27Z</time>
      </trkpt>
      <trkpt lat="43.22067" lon="5.62424">
        <ele>112</ele>
        <time>2017-04-09T08:22:30Z</time>
      </trkpt>
      <trkpt lat="43.22065" lon="5.62425">
        <ele>112.2</ele>
        <time>2017-04-09T08:22:31Z</time>
      </trkpt>
      <trkpt lat="43.22063" lon="5.62426">
        <ele>112.6</ele>
        <time>2017-04-09T08:22:32Z</time>
      </trkpt>
      <trkpt lat="43.22053" lon="5.62434">
        <ele>113.6</ele>
        <time>2017-04-09T08:22:38Z</time>
      </trkpt>
      <trkpt lat="43.22051" lon="5.62435">
        <ele>113.8</ele>
        <time>2017-04-09T08:22:39Z</time>
      </trkpt>
      <trkpt lat="43.22048" lon="5.62438">
        <ele>114</ele>
        <time>2017-04-09T08:22:41Z</time>
      </trkpt>
      <trkpt lat="43.22045" lon="5.62441">
        <ele>115</ele>
        <time>2017-04-09T08:22:43Z</time>
      </trkpt>
      <trkpt lat="43.22044" lon="5.62443">
        <ele>115</ele>
        <time>2017-04-09T08:22:44Z</time>
      </trkpt>
      <trkpt lat="43.22039" lon="5.62449">
        <ele>116</ele>
        <time>2017-04-09T08:22:48Z</time>
      </trkpt>
      <trkpt lat="43.22036" lon="5.62452">
        <ele>116.4</ele>
        <time>2017-04-09T08:22:50Z</time>
      </trkpt>
      <trkpt lat="43.22034" lon="5.62455">
        <ele>116.8</ele>
        <time>2017-04-09T08:22:52Z</time>
      </trkpt>
      <trkpt lat="43.22033" lon="5.62456">
        <ele>117</ele>
        <time>2017-04-09T08:22:53Z</time>
      </trkpt>
      <trkpt lat="43.2203" lon="5.62459">
        <ele>117.6</ele>
        <time>2017-04-09T08:22:55Z</time>
      </trkpt>
      <trkpt lat="43.22027" lon="5.62462">
        <ele>118</ele>
        <time>2017-04-09T08:22:57Z</time>
      </trkpt>
      <trkpt lat="43.22023" lon="5.62466">
        <ele>118</ele>
        <time>2017-04-09T08:23:00Z</time>
      </trkpt>
      <trkpt lat="43.22018" lon="5.62469">
        <ele>119</ele>
        <time>2017-04-09T08:23:03Z</time>
      </trkpt>
      <trkpt lat="43.22014" lon="5.62473">
        <ele>119.4</ele>
        <time>2017-04-09T08:23:06Z</time>
      </trkpt>
      <trkpt lat="43.22006" lon="5.62476">
        <ele>120</ele>
        <time>2017-04-09T08:23:10Z</time>
      </trkpt>
      <trkpt lat="43.22004" lon="5.62476">
        <ele>120.4</ele>
        <time>2017-04-09T08:23:11Z</time>
      </trkpt>
      <trkpt lat="43.21992" lon="5.62476">
        <ele>121.2</ele>
        <time>2017-04-09T08:23:17Z</time>
      </trkpt>
      <trkpt lat="43.21983" lon="5.62477">
        <ele>122.2</ele>
        <time>2017-04-09T08:23:22Z</time>
      </trkpt>
      <trkpt lat="43.21981" lon="5.62478">
        <ele>122.4</ele>
        <time>2017-04-09T08:23:23Z</time>
      </trkpt>
      <trkpt lat="43.21975" lon="5.6248">
        <ele>123.4</ele>
        <time>2017-04-09T08:23:26Z</time>
      </trkpt>
      <trkpt lat="43.21973" lon="5.6248">
        <ele>123.6</ele>
        <time>2017-04-09T08:23:27Z</time>
      </trkpt>
      <trkpt lat="43.21963" lon="5.62482">
        <ele>124.6</ele>
        <time>2017-04-09T08:23:32Z</time>
      </trkpt>
      <trkpt lat="43.21962" lon="5.62483">
        <ele>124.8</ele>
        <time>2017-04-09T08:23:33Z</time>
      </trkpt>
      <trkpt lat="43.21958" lon="5.62485">
        <ele>125.6</ele>
        <time>2017-04-09T08:23:35Z</time>
      </trkpt>
      <trkpt lat="43.21958" lon="5.62485">
        <ele>126</ele>
        <time>2017-04-09T08:23:39Z</time>
      </trkpt>
      <trkpt lat="43.21943" lon="5.62492">
        <ele>126.6</ele>
        <time>2017-04-09T08:23:42Z</time>
      </trkpt>
      <trkpt lat="43.21933" lon="5.62498">
        <ele>127.8</ele>
        <time>2017-04-09T08:23:47Z</time>
      </trkpt>
      <trkpt lat="43.21931" lon="5.625">
        <ele>128</ele>
        <time>2017-04-09T08:23:48Z</time>
      </trkpt>
      <trkpt lat="43.21922" lon="5.62505">
        <ele>128.8</ele>
        <time>2017-04-09T08:23:52Z</time>
      </trkpt>
      <trkpt lat="43.21916" lon="5.62509">
        <ele>129.6</ele>
        <time>2017-04-09T08:23:55Z</time>
      </trkpt>
      <trkpt lat="43.21909" lon="5.62515">
        <ele>130</ele>
        <time>2017-04-09T08:23:59Z</time>
      </trkpt>
      <trkpt lat="43.21905" lon="5.62519">
        <ele>130.6</ele>
        <time>2017-04-09T08:24:01Z</time>
      </trkpt>
      <trkpt lat="43.21902" lon="5.62523">
        <ele>131.2</ele>
        <time>2017-04-09T08:24:03Z</time>
      </trkpt>
      <trkpt lat="43.21895" lon="5.6253">
        <ele>131.8</ele>
        <time>2017-04-09T08:24:07Z</time>
      </trkpt>
      <trkpt lat="43.21892" lon="5.62535">
        <ele>132.4</ele>
        <time>2017-04-09T08:24:09Z</time>
      </trkpt>
      <trkpt lat="43.21887" lon="5.62545">
        <ele>132.8</ele>
        <time>2017-04-09T08:24:13Z</time>
      </trkpt>
      <trkpt lat="43.21887" lon="5.62549">
        <ele>133</ele>
        <time>2017-04-09T08:24:14Z</time>
      </trkpt>
      <trkpt lat="43.21888" lon="5.62552">
        <ele>133.4</ele>
        <time>2017-04-09T08:24:15Z</time>
      </trkpt>
      <trkpt lat="43.21891" lon="5.62556">
        <ele>133.8</ele>
        <time>2017-04-09T08:24:17Z</time>
      </trkpt>
      <trkpt lat="43.21899" lon="5.62558">
        <ele>134.6</ele>
        <time>2017-04-09T08:24:21Z</time>
      </trkpt>
      <trkpt lat="43.2191" lon="5.62557">
        <ele>135.6</ele>
        <time>2017-04-09T08:24:26Z</time>
      </trkpt>
      <trkpt lat="43.21912" lon="5.62557">
        <ele>135.8</ele>
        <time>2017-04-09T08:24:27Z</time>
      </trkpt>
      <trkpt lat="43.21921" lon="5.62556">
        <ele>136.8</ele>
        <time>2017-04-09T08:24:31Z</time>
      </trkpt>
      <trkpt lat="43.21928" lon="5.62555">
        <ele>137.8</ele>
        <time>2017-04-09T08:24:34Z</time>
      </trkpt>
      <trkpt lat="43.2193" lon="5.62554">
        <ele>137.8</ele>
        <time>2017-04-09T08:24:35Z</time>
      </trkpt>
      <trkpt lat="43.21939" lon="5.62554">
        <ele>139</ele>
        <time>2017-04-09T08:24:39Z</time>
      </trkpt>
      <trkpt lat="43.21943" lon="5.62554">
        <ele>139.4</ele>
        <time>2017-04-09T08:24:41Z</time>
      </trkpt>
      <trkpt lat="43.21948" lon="5.62553">
        <ele>140</ele>
        <time>2017-04-09T08:24:43Z</time>
      </trkpt>
      <trkpt lat="43.21962" lon="5.62553">
        <ele>140.8</ele>
        <time>2017-04-09T08:24:49Z</time>
      </trkpt>
      <trkpt lat="43.21964" lon="5.62552">
        <ele>141</ele>
        <time>2017-04-09T08:24:50Z</time>
      </trkpt>
      <trkpt lat="43.21973" lon="5.62551">
        <ele>142.4</ele>
        <time>2017-04-09T08:24:54Z</time>
      </trkpt>
      <trkpt lat="43.21975" lon="5.62551">
        <ele>142.6</ele>
        <time>2017-04-09T08:24:55Z</time>
      </trkpt>
      <trkpt lat="43.21984" lon="5.62554">
        <ele>143.4</ele>
        <time>2017-04-09T08:24:59Z</time>
      </trkpt>
      <trkpt lat="43.2199" lon="5.62556">
        <ele>144</ele>
        <time>2017-04-09T08:25:02Z</time>
      </trkpt>
      <trkpt lat="43.21996" lon="5.62559">
        <ele>144.6</ele>
        <time>2017-04-09T08:25:05Z</time>
      </trkpt>
      <trkpt lat="43.22004" lon="5.62561">
        <ele>145.8</ele>
        <time>2017-04-09T08:25:09Z</time>
      </trkpt>
      <trkpt lat="43.22018" lon="5.62562">
        <ele>147</ele>
        <time>2017-04-09T08:25:15Z</time>
      </trkpt>
      <trkpt lat="43.22025" lon="5.62562">
        <ele>147.6</ele>
        <time>2017-04-09T08:25:18Z</time>
      </trkpt>
      <trkpt lat="43.22029" lon="5.62563">
        <ele>148.6</ele>
        <time>2017-04-09T08:25:20Z</time>
      </trkpt>
      <trkpt lat="43.2204" lon="5.62561">
        <ele>149.6</ele>
        <time>2017-04-09T08:25:25Z</time>
      </trkpt>
      <trkpt lat="43.22043" lon="5.6256">
        <ele>149.6</ele>
        <time>2017-04-09T08:25:26Z</time>
      </trkpt>
      <trkpt lat="43.22054" lon="5.62557">
        <ele>150.8</ele>
        <time>2017-04-09T08:25:31Z</time>
      </trkpt>
      <trkpt lat="43.22059" lon="5.62555">
        <ele>151.4</ele>
        <time>2017-04-09T08:25:33Z</time>
      </trkpt>
      <trkpt lat="43.22065" lon="5.62552">
        <ele>151.8</ele>
        <time>2017-04-09T08:25:36Z</time>
      </trkpt>
      <trkpt lat="43.22069" lon="5.6255">
        <ele>152.4</ele>
        <time>2017-04-09T08:25:38Z</time>
      </trkpt>
      <trkpt lat="43.22074" lon="5.62549">
        <ele>153</ele>
        <time>2017-04-09T08:25:40Z</time>
      </trkpt>
      <trkpt lat="43.22086" lon="5.6255">
        <ele>154.6</ele>
        <time>2017-04-09T08:25:45Z</time>
      </trkpt>
      <trkpt lat="43.22098" lon="5.62554">
        <ele>155.8</ele>
        <time>2017-04-09T08:25:50Z</time>
      </trkpt>
      <trkpt lat="43.22103" lon="5.62556">
        <ele>156</ele>
        <time>2017-04-09T08:25:52Z</time>
      </trkpt>
      <trkpt lat="43.22108" lon="5.62561">
        <ele>157.2</ele>
        <time>2017-04-09T08:25:55Z</time>
      </trkpt>
      <trkpt lat="43.22114" lon="5.62567">
        <ele>157.6</ele>
        <time>2017-04-09T08:25:58Z</time>
      </trkpt>
      <trkpt lat="43.22121" lon="5.62575">
        <ele>158.4</ele>
        <time>2017-04-09T08:26:02Z</time>
      </trkpt>
      <trkpt lat="43.22125" lon="5.62579">
        <ele>158.8</ele>
        <time>2017-04-09T08:26:04Z</time>
      </trkpt>
      <trkpt lat="43.22134" lon="5.62586">
        <ele>159.6</ele>
        <time>2017-04-09T08:26:08Z</time>
      </trkpt>
      <trkpt lat="43.22141" lon="5.62591">
        <ele>160.2</ele>
        <time>2017-04-09T08:26:11Z</time>
      </trkpt>
      <trkpt lat="43.22148" lon="5.62594">
        <ele>161</ele>
        <time>2017-04-09T08:26:14Z</time>
      </trkpt>
      <trkpt lat="43.2216" lon="5.626">
        <ele>162</ele>
        <time>2017-04-09T08:26:19Z</time>
      </trkpt>
      <trkpt lat="43.22173" lon="5.62605">
        <ele>163</ele>
        <time>2017-04-09T08:26:24Z</time>
      </trkpt>
      <trkpt lat="43.22176" lon="5.62607">
        <ele>163</ele>
        <time>2017-04-09T08:26:25Z</time>
      </trkpt>
      <trkpt lat="43.22182" lon="5.62614">
        <ele>163.8</ele>
        <time>2017-04-09T08:26:28Z</time>
      </trkpt>
      <trkpt lat="43.22187" lon="5.62619">
        <ele>164.2</ele>
        <time>2017-04-09T08:26:30Z</time>
      </trkpt>
      <trkpt lat="43.22192" lon="5.62624">
        <ele>164.2</ele>
        <time>2017-04-09T08:26:32Z</time>
      </trkpt>
      <trkpt lat="43.222" lon="5.62641">
        <ele>165.2</ele>
        <time>2017-04-09T08:26:37Z</time>
      </trkpt>
      <trkpt lat="43.22202" lon="5.62645">
        <ele>165.6</ele>
        <time>2017-04-09T08:26:38Z</time>
      </trkpt>
      <trkpt lat="43.22209" lon="5.62664">
        <ele>166.6</ele>
        <time>2017-04-09T08:26:43Z</time>
      </trkpt>
      <trkpt lat="43.22212" lon="5.62672">
        <ele>167</ele>
        <time>2017-04-09T08:26:45Z</time>
      </trkpt>
      <trkpt lat="43.22214" lon="5.62685">
        <ele>167.6</ele>
        <time>2017-04-09T08:26:48Z</time>
      </trkpt>
      <trkpt lat="43.22216" lon="5.62707">
        <ele>168.4</ele>
        <time>2017-04-09T08:26:53Z</time>
      </trkpt>
      <trkpt lat="43.22217" lon="5.62716">
        <ele>168.6</ele>
        <time>2017-04-09T08:26:55Z</time>
      </trkpt>
      <trkpt lat="43.22221" lon="5.62731">
        <ele>169.8</ele>
        <time>2017-04-09T08:26:59Z</time>
      </trkpt>
      <trkpt lat="43.22231" lon="5.62747">
        <ele>171</ele>
        <time>2017-04-09T08:27:05Z</time>
      </trkpt>
      <trkpt lat="43.2224" lon="5.62759">
        <ele>172.2</ele>
        <time>2017-04-09T08:27:10Z</time>
      </trkpt>
      <trkpt lat="43.22242" lon="5.62761">
        <ele>172.8</ele>
        <time>2017-04-09T08:27:11Z</time>
      </trkpt>
      <trkpt lat="43.22245" lon="5.62767">
        <ele>173.2</ele>
        <time>2017-04-09T08:27:13Z</time>
      </trkpt>
      <trkpt lat="43.22249" lon="5.62776">
        <ele>174</ele>
        <time>2017-04-09T08:27:16Z</time>
      </trkpt>
      <trkpt lat="43.22251" lon="5.62786">
        <ele>174.4</ele>
        <time>2017-04-09T08:27:19Z</time>
      </trkpt>
      <trkpt lat="43.2225" lon="5.62793">
        <ele>175</ele>
        <time>2017-04-09T08:27:21Z</time>
      </trkpt>
      <trkpt lat="43.2225" lon="5.62812">
        <ele>175.8</ele>
        <time>2017-04-09T08:27:26Z</time>
      </trkpt>
      <trkpt lat="43.22251" lon="5.62816">
        <ele>176</ele>
        <time>2017-04-09T08:27:27Z</time>
      </trkpt>
      <trkpt lat="43.22258" lon="5.62836">
        <ele>176.8</ele>
        <time>2017-04-09T08:27:33Z</time>
      </trkpt>
      <trkpt lat="43.22259" lon="5.6284">
        <ele>177.2</ele>
        <time>2017-04-09T08:27:34Z</time>
      </trkpt>
      <trkpt lat="43.22263" lon="5.62869">
        <ele>178.2</ele>
        <time>2017-04-09T08:27:41Z</time>
      </trkpt>
      <trkpt lat="43.22271" lon="5.62887">
        <ele>179.2</ele>
        <time>2017-04-09T08:27:47Z</time>
      </trkpt>
      <trkpt lat="43.22273" lon="5.62891">
        <ele>179.4</ele>
        <time>2017-04-09T08:27:48Z</time>
      </trkpt>
      <trkpt lat="43.22284" lon="5.62905">
        <ele>180.4</ele>
        <time>2017-04-09T08:27:53Z</time>
      </trkpt>
      <trkpt lat="43.22287" lon="5.62906">
        <ele>180.2</ele>
        <time>2017-04-09T08:27:54Z</time>
      </trkpt>
      <trkpt lat="43.22299" lon="5.62909">
        <ele>181.4</ele>
        <time>2017-04-09T08:27:59Z</time>
      </trkpt>
      <trkpt lat="43.223" lon="5.6291">
        <ele>181.4</ele>
        <time>2017-04-09T08:28:00Z</time>
      </trkpt>
      <trkpt lat="43.223" lon="5.62911">
        <ele>181.4</ele>
        <time>2017-04-09T08:28:03Z</time>
      </trkpt>
      <trkpt lat="43.22303" lon="5.6292">
        <ele>181.6</ele>
        <time>2017-04-09T08:28:15Z</time>
      </trkpt>
      <trkpt lat="43.22303" lon="5.62921">
        <ele>181.6</ele>
        <time>2017-04-09T08:28:17Z</time>
      </trkpt>
      <trkpt lat="43.22304" lon="5.62926">
        <ele>182</ele>
        <time>2017-04-09T08:28:21Z</time>
      </trkpt>
      <trkpt lat="43.22305" lon="5.62931">
        <ele>181.8</ele>
        <time>2017-04-09T08:28:23Z</time>
      </trkpt>
      <trkpt lat="43.22311" lon="5.6294">
        <ele>182.6</ele>
        <time>2017-04-09T08:28:28Z</time>
      </trkpt>
      <trkpt lat="43.22312" lon="5.62944">
        <ele>182.8</ele>
        <time>2017-04-09T08:28:30Z</time>
      </trkpt>
      <trkpt lat="43.22311" lon="5.62946">
        <ele>182.8</ele>
        <time>2017-04-09T08:28:32Z</time>
      </trkpt>
      <trkpt lat="43.2231" lon="5.62948">
        <ele>182.4</ele>
        <time>2017-04-09T08:28:38Z</time>
      </trkpt>
      <trkpt lat="43.22307" lon="5.62952">
        <ele>182.4</ele>
        <time>2017-04-09T08:28:40Z</time>
      </trkpt>
      <trkpt lat="43.22293" lon="5.62966">
        <ele>182</ele>
        <time>2017-04-09T08:28:47Z</time>
      </trkpt>
      <trkpt lat="43.22289" lon="5.62971">
        <ele>182</ele>
        <time>2017-04-09T08:28:50Z</time>
      </trkpt>
      <trkpt lat="43.22286" lon="5.62974">
        <ele>182.2</ele>
        <time>2017-04-09T08:28:52Z</time>
      </trkpt>
      <trkpt lat="43.22284" lon="5.62974">
        <ele>182</ele>
        <time>2017-04-09T08:31:30Z</time>
      </trkpt>
      <trkpt lat="43.22287" lon="5.62969">
        <ele>181.6</ele>
        <time>2017-04-09T08:31:32Z</time>
      </trkpt>
      <trkpt lat="43.22288" lon="5.62966">
        <ele>181.6</ele>
        <time>2017-04-09T08:31:33Z</time>
      </trkpt>
      <trkpt lat="43.22299" lon="5.62953">
        <ele>181.6</ele>
        <time>2017-04-09T08:31:39Z</time>
      </trkpt>
      <trkpt lat="43.22307" lon="5.62945">
        <ele>181.8</ele>
        <time>2017-04-09T08:31:42Z</time>
      </trkpt>
      <trkpt lat="43.22311" lon="5.62947">
        <ele>182</ele>
        <time>2017-04-09T08:31:43Z</time>
      </trkpt>
      <trkpt lat="43.22315" lon="5.62961">
        <ele>182.2</ele>
        <time>2017-04-09T08:31:46Z</time>
      </trkpt>
      <trkpt lat="43.22316" lon="5.62992">
        <ele>181.6</ele>
        <time>2017-04-09T08:31:51Z</time>
      </trkpt>
      <trkpt lat="43.22316" lon="5.62999">
        <ele>181.6</ele>
        <time>2017-04-09T08:31:52Z</time>
      </trkpt>
      <trkpt lat="43.22317" lon="5.63019">
        <ele>181</ele>
        <time>2017-04-09T08:31:55Z</time>
      </trkpt>
      <trkpt lat="43.22315" lon="5.63047">
        <ele>180.8</ele>
        <time>2017-04-09T08:31:59Z</time>
      </trkpt>
      <trkpt lat="43.22316" lon="5.63054">
        <ele>181.2</ele>
        <time>2017-04-09T08:32:00Z</time>
      </trkpt>
      <trkpt lat="43.22317" lon="5.63061">
        <ele>181.2</ele>
        <time>2017-04-09T08:32:01Z</time>
      </trkpt>
      <trkpt lat="43.22319" lon="5.63079">
        <ele>180.8</ele>
        <time>2017-04-09T08:32:04Z</time>
      </trkpt>
      <trkpt lat="43.2232" lon="5.63084">
        <ele>181.2</ele>
        <time>2017-04-09T08:32:05Z</time>
      </trkpt>
      <trkpt lat="43.22323" lon="5.6311">
        <ele>182.4</ele>
        <time>2017-04-09T08:32:10Z</time>
      </trkpt>
      <trkpt lat="43.22329" lon="5.63135">
        <ele>182.6</ele>
        <time>2017-04-09T08:32:15Z</time>
      </trkpt>
      <trkpt lat="43.22332" lon="5.63159">
        <ele>183.8</ele>
        <time>2017-04-09T08:32:20Z</time>
      </trkpt>
      <trkpt lat="43.22338" lon="5.63181">
        <ele>185</ele>
        <time>2017-04-09T08:32:25Z</time>
      </trkpt>
      <trkpt lat="43.22339" lon="5.63185">
        <ele>185.2</ele>
        <time>2017-04-09T08:32:26Z</time>
      </trkpt>
      <trkpt lat="43.22345" lon="5.63207">
        <ele>186.2</ele>
        <time>2017-04-09T08:32:31Z</time>
      </trkpt>
      <trkpt lat="43.22351" lon="5.63223">
        <ele>187</ele>
        <time>2017-04-09T08:32:35Z</time>
      </trkpt>
      <trkpt lat="43.22353" lon="5.63227">
        <ele>187.2</ele>
        <time>2017-04-09T08:32:36Z</time>
      </trkpt>
      <trkpt lat="43.22357" lon="5.63236">
        <ele>188.4</ele>
        <time>2017-04-09T08:32:39Z</time>
      </trkpt>
      <trkpt lat="43.22359" lon="5.63239">
        <ele>188.8</ele>
        <time>2017-04-09T08:32:40Z</time>
      </trkpt>
      <trkpt lat="43.2236" lon="5.63241">
        <ele>189.4</ele>
        <time>2017-04-09T08:32:41Z</time>
      </trkpt>
      <trkpt lat="43.22362" lon="5.63247">
        <ele>189.6</ele>
        <time>2017-04-09T08:32:43Z</time>
      </trkpt>
      <trkpt lat="43.22363" lon="5.63253">
        <ele>190</ele>
        <time>2017-04-09T08:32:45Z</time>
      </trkpt>
      <trkpt lat="43.22366" lon="5.63257">
        <ele>190.2</ele>
        <time>2017-04-09T08:32:47Z</time>
      </trkpt>
      <trkpt lat="43.22367" lon="5.6326">
        <ele>190.4</ele>
        <time>2017-04-09T08:32:48Z</time>
      </trkpt>
      <trkpt lat="43.22369" lon="5.63261">
        <ele>190.6</ele>
        <time>2017-04-09T08:32:49Z</time>
      </trkpt>
      <trkpt lat="43.2237" lon="5.63265">
        <ele>191.4</ele>
        <time>2017-04-09T08:32:51Z</time>
      </trkpt>
      <trkpt lat="43.2237" lon="5.63268">
        <ele>191.6</ele>
        <time>2017-04-09T08:32:52Z</time>
      </trkpt>
      <trkpt lat="43.22372" lon="5.63276">
        <ele>192</ele>
        <time>2017-04-09T08:32:55Z</time>
      </trkpt>
      <trkpt lat="43.22377" lon="5.63281">
        <ele>192.8</ele>
        <time>2017-04-09T08:32:58Z</time>
      </trkpt>
      <trkpt lat="43.22382" lon="5.63283">
        <ele>193.8</ele>
        <time>2017-04-09T08:33:00Z</time>
      </trkpt>
      <trkpt lat="43.22384" lon="5.63284">
        <ele>194.2</ele>
        <time>2017-04-09T08:33:01Z</time>
      </trkpt>
      <trkpt lat="43.22394" lon="5.63289">
        <ele>195.2</ele>
        <time>2017-04-09T08:33:06Z</time>
      </trkpt>
      <trkpt lat="43.22396" lon="5.6329">
        <ele>195.6</ele>
        <time>2017-04-09T08:33:07Z</time>
      </trkpt>
      <trkpt lat="43.22403" lon="5.63292">
        <ele>196.6</ele>
        <time>2017-04-09T08:33:10Z</time>
      </trkpt>
      <trkpt lat="43.22409" lon="5.63293">
        <ele>197</ele>
        <time>2017-04-09T08:33:13Z</time>
      </trkpt>
      <trkpt lat="43.22413" lon="5.63295">
        <ele>197.6</ele>
        <time>2017-04-09T08:33:15Z</time>
      </trkpt>
      <trkpt lat="43.22414" lon="5.63297">
        <ele>197.8</ele>
        <time>2017-04-09T08:33:16Z</time>
      </trkpt>
      <trkpt lat="43.22418" lon="5.633">
        <ele>198.2</ele>
        <time>2017-04-09T08:33:18Z</time>
      </trkpt>
      <trkpt lat="43.2242" lon="5.63301">
        <ele>198.2</ele>
        <time>2017-04-09T08:33:19Z</time>
      </trkpt>
      <trkpt lat="43.22424" lon="5.63306">
        <ele>199.2</ele>
        <time>2017-04-09T08:33:21Z</time>
      </trkpt>
      <trkpt lat="43.22429" lon="5.63313">
        <ele>199.6</ele>
        <time>2017-04-09T08:33:24Z</time>
      </trkpt>
      <trkpt lat="43.22433" lon="5.63316">
        <ele>200.6</ele>
        <time>2017-04-09T08:33:26Z</time>
      </trkpt>
      <trkpt lat="43.22441" lon="5.63322">
        <ele>201.2</ele>
        <time>2017-04-09T08:33:30Z</time>
      </trkpt>
      <trkpt lat="43.22447" lon="5.63326">
        <ele>202</ele>
        <time>2017-04-09T08:33:33Z</time>
      </trkpt>
      <trkpt lat="43.22456" lon="5.6333">
        <ele>202.6</ele>
        <time>2017-04-09T08:33:37Z</time>
      </trkpt>
      <trkpt lat="43.2246" lon="5.63333">
        <ele>203.2</ele>
        <time>2017-04-09T08:33:39Z</time>
      </trkpt>
      <trkpt lat="43.22477" lon="5.63347">
        <ele>204.4</ele>
        <time>2017-04-09T08:33:47Z</time>
      </trkpt>
      <trkpt lat="43.22485" lon="5.63356">
        <ele>205.8</ele>
        <time>2017-04-09T08:33:51Z</time>
      </trkpt>
      <trkpt lat="43.22487" lon="5.63358">
        <ele>205.8</ele>
        <time>2017-04-09T08:33:52Z</time>
      </trkpt>
      <trkpt lat="43.22497" lon="5.63366">
        <ele>207</ele>
        <time>2017-04-09T08:33:57Z</time>
      </trkpt>
      <trkpt lat="43.22502" lon="5.63369">
        <ele>207</ele>
        <time>2017-04-09T08:33:59Z</time>
      </trkpt>
      <trkpt lat="43.22511" lon="5.63372">
        <ele>207.8</ele>
        <time>2017-04-09T08:34:03Z</time>
      </trkpt>
      <trkpt lat="43.22514" lon="5.63373">
        <ele>208</ele>
        <time>2017-04-09T08:34:04Z</time>
      </trkpt>
      <trkpt lat="43.22516" lon="5.63374">
        <ele>208.2</ele>
        <time>2017-04-09T08:34:05Z</time>
      </trkpt>
      <trkpt lat="43.22524" lon="5.63381">
        <ele>209.2</ele>
        <time>2017-04-09T08:34:09Z</time>
      </trkpt>
      <trkpt lat="43.22529" lon="5.63387">
        <ele>209.6</ele>
        <time>2017-04-09T08:34:11Z</time>
      </trkpt>
      <trkpt lat="43.22536" lon="5.63399">
        <ele>210.4</ele>
        <time>2017-04-09T08:34:15Z</time>
      </trkpt>
      <trkpt lat="43.22542" lon="5.63411">
        <ele>211</ele>
        <time>2017-04-09T08:34:19Z</time>
      </trkpt>
      <trkpt lat="43.22544" lon="5.63413">
        <ele>211.6</ele>
        <time>2017-04-09T08:34:20Z</time>
      </trkpt>
      <trkpt lat="43.22559" lon="5.63424">
        <ele>212.4</ele>
        <time>2017-04-09T08:34:26Z</time>
      </trkpt>
      <trkpt lat="43.22562" lon="5.63425">
        <ele>212.6</ele>
        <time>2017-04-09T08:34:27Z</time>
      </trkpt>
      <trkpt lat="43.22574" lon="5.63436">
        <ele>213.6</ele>
        <time>2017-04-09T08:34:32Z</time>
      </trkpt>
      <trkpt lat="43.22582" lon="5.63455">
        <ele>214.4</ele>
        <time>2017-04-09T08:34:37Z</time>
      </trkpt>
      <trkpt lat="43.22583" lon="5.63464">
        <ele>214.6</ele>
        <time>2017-04-09T08:34:39Z</time>
      </trkpt>
      <trkpt lat="43.22584" lon="5.63484">
        <ele>214.6</ele>
        <time>2017-04-09T08:34:43Z</time>
      </trkpt>
      <trkpt lat="43.22587" lon="5.63499">
        <ele>215.8</ele>
        <time>2017-04-09T08:34:46Z</time>
      </trkpt>
      <trkpt lat="43.22589" lon="5.63514">
        <ele>216</ele>
        <time>2017-04-09T08:34:49Z</time>
      </trkpt>
      <trkpt lat="43.22602" lon="5.63544">
        <ele>216.8</ele>
        <time>2017-04-09T08:34:56Z</time>
      </trkpt>
      <trkpt lat="43.22604" lon="5.63548">
        <ele>217</ele>
        <time>2017-04-09T08:34:57Z</time>
      </trkpt>
      <trkpt lat="43.22611" lon="5.63554">
        <ele>218</ele>
        <time>2017-04-09T08:35:00Z</time>
      </trkpt>
      <trkpt lat="43.22614" lon="5.63556">
        <ele>218.6</ele>
        <time>2017-04-09T08:35:01Z</time>
      </trkpt>
      <trkpt lat="43.22618" lon="5.63559">
        <ele>219.2</ele>
        <time>2017-04-09T08:35:03Z</time>
      </trkpt>
      <trkpt lat="43.22627" lon="5.63563">
        <ele>220</ele>
        <time>2017-04-09T08:35:07Z</time>
      </trkpt>
      <trkpt lat="43.22629" lon="5.63563">
        <ele>220.6</ele>
        <time>2017-04-09T08:35:08Z</time>
      </trkpt>
      <trkpt lat="43.22634" lon="5.63563">
        <ele>221.8</ele>
        <time>2017-04-09T08:35:11Z</time>
      </trkpt>
      <trkpt lat="43.2264" lon="5.63562">
        <ele>222.8</ele>
        <time>2017-04-09T08:35:14Z</time>
      </trkpt>
      <trkpt lat="43.22642" lon="5.63562">
        <ele>223.2</ele>
        <time>2017-04-09T08:35:15Z</time>
      </trkpt>
      <trkpt lat="43.2265" lon="5.63568">
        <ele>224</ele>
        <time>2017-04-09T08:35:20Z</time>
      </trkpt>
      <trkpt lat="43.22651" lon="5.6357">
        <ele>224.4</ele>
        <time>2017-04-09T08:35:21Z</time>
      </trkpt>
      <trkpt lat="43.22652" lon="5.63578">
        <ele>225.2</ele>
        <time>2017-04-09T08:35:24Z</time>
      </trkpt>
      <trkpt lat="43.22651" lon="5.6358">
        <ele>225.8</ele>
        <time>2017-04-09T08:35:25Z</time>
      </trkpt>
      <trkpt lat="43.22651" lon="5.6359">
        <ele>226.8</ele>
        <time>2017-04-09T08:35:29Z</time>
      </trkpt>
      <trkpt lat="43.22651" lon="5.63592">
        <ele>226.8</ele>
        <time>2017-04-09T08:35:30Z</time>
      </trkpt>
      <trkpt lat="43.22654" lon="5.63604">
        <ele>228</ele>
        <time>2017-04-09T08:35:34Z</time>
      </trkpt>
      <trkpt lat="43.22656" lon="5.63613">
        <ele>228.4</ele>
        <time>2017-04-09T08:35:37Z</time>
      </trkpt>
      <trkpt lat="43.22657" lon="5.63619">
        <ele>229.2</ele>
        <time>2017-04-09T08:35:39Z</time>
      </trkpt>
      <trkpt lat="43.22662" lon="5.63632">
        <ele>230.2</ele>
        <time>2017-04-09T08:35:44Z</time>
      </trkpt>
      <trkpt lat="43.22667" lon="5.63646">
        <ele>231.2</ele>
        <time>2017-04-09T08:35:49Z</time>
      </trkpt>
      <trkpt lat="43.2267" lon="5.63658">
        <ele>232.4</ele>
        <time>2017-04-09T08:35:53Z</time>
      </trkpt>
      <trkpt lat="43.22671" lon="5.63663">
        <ele>232.6</ele>
        <time>2017-04-09T08:35:55Z</time>
      </trkpt>
      <trkpt lat="43.22673" lon="5.63673">
        <ele>233.4</ele>
        <time>2017-04-09T08:35:58Z</time>
      </trkpt>
      <trkpt lat="43.22677" lon="5.63689">
        <ele>234.6</ele>
        <time>2017-04-09T08:36:03Z</time>
      </trkpt>
      <trkpt lat="43.2268" lon="5.63701">
        <ele>235.4</ele>
        <time>2017-04-09T08:36:07Z</time>
      </trkpt>
      <trkpt lat="43.2268" lon="5.63704">
        <ele>236</ele>
        <time>2017-04-09T08:36:08Z</time>
      </trkpt>
      <trkpt lat="43.22683" lon="5.63714">
        <ele>236.4</ele>
        <time>2017-04-09T08:36:11Z</time>
      </trkpt>
      <trkpt lat="43.22686" lon="5.63719">
        <ele>236.6</ele>
        <time>2017-04-09T08:36:13Z</time>
      </trkpt>
      <trkpt lat="43.22687" lon="5.63722">
        <ele>237</ele>
        <time>2017-04-09T08:36:14Z</time>
      </trkpt>
      <trkpt lat="43.22691" lon="5.6373">
        <ele>238</ele>
        <time>2017-04-09T08:36:17Z</time>
      </trkpt>
      <trkpt lat="43.22697" lon="5.63739">
        <ele>238.8</ele>
        <time>2017-04-09T08:36:21Z</time>
      </trkpt>
      <trkpt lat="43.227" lon="5.63744">
        <ele>239.6</ele>
        <time>2017-04-09T08:36:23Z</time>
      </trkpt>
      <trkpt lat="43.22706" lon="5.63753">
        <ele>240.6</ele>
        <time>2017-04-09T08:36:27Z</time>
      </trkpt>
      <trkpt lat="43.22709" lon="5.63757">
        <ele>241.2</ele>
        <time>2017-04-09T08:36:29Z</time>
      </trkpt>
      <trkpt lat="43.22714" lon="5.63763">
        <ele>241.8</ele>
        <time>2017-04-09T08:36:32Z</time>
      </trkpt>
      <trkpt lat="43.22719" lon="5.63769">
        <ele>243</ele>
        <time>2017-04-09T08:36:35Z</time>
      </trkpt>
      <trkpt lat="43.22721" lon="5.6377">
        <ele>243.2</ele>
        <time>2017-04-09T08:36:36Z</time>
      </trkpt>
      <trkpt lat="43.22729" lon="5.63777">
        <ele>244.2</ele>
        <time>2017-04-09T08:36:40Z</time>
      </trkpt>
      <trkpt lat="43.22735" lon="5.6378">
        <ele>245.2</ele>
        <time>2017-04-09T08:36:43Z</time>
      </trkpt>
      <trkpt lat="43.22737" lon="5.63781">
        <ele>245.6</ele>
        <time>2017-04-09T08:36:44Z</time>
      </trkpt>
      <trkpt lat="43.22742" lon="5.63786">
        <ele>246.4</ele>
        <time>2017-04-09T08:36:47Z</time>
      </trkpt>
      <trkpt lat="43.2275" lon="5.63791">
        <ele>247.4</ele>
        <time>2017-04-09T08:36:51Z</time>
      </trkpt>
      <trkpt lat="43.22758" lon="5.63796">
        <ele>248.6</ele>
        <time>2017-04-09T08:36:55Z</time>
      </trkpt>
      <trkpt lat="43.22768" lon="5.63804">
        <ele>249.8</ele>
        <time>2017-04-09T08:37:00Z</time>
      </trkpt>
      <trkpt lat="43.22778" lon="5.63813">
        <ele>251</ele>
        <time>2017-04-09T08:37:05Z</time>
      </trkpt>
      <trkpt lat="43.22782" lon="5.63817">
        <ele>251.8</ele>
        <time>2017-04-09T08:37:07Z</time>
      </trkpt>
      <trkpt lat="43.22784" lon="5.63819">
        <ele>252</ele>
        <time>2017-04-09T08:37:08Z</time>
      </trkpt>
      <trkpt lat="43.22794" lon="5.63831">
        <ele>253.4</ele>
        <time>2017-04-09T08:37:14Z</time>
      </trkpt>
      <trkpt lat="43.22796" lon="5.63832">
        <ele>253.6</ele>
        <time>2017-04-09T08:37:15Z</time>
      </trkpt>
      <trkpt lat="43.22803" lon="5.63842">
        <ele>254.4</ele>
        <time>2017-04-09T08:37:19Z</time>
      </trkpt>
      <trkpt lat="43.22808" lon="5.63849">
        <ele>255.4</ele>
        <time>2017-04-09T08:37:22Z</time>
      </trkpt>
      <trkpt lat="43.22809" lon="5.63851">
        <ele>255.6</ele>
        <time>2017-04-09T08:37:23Z</time>
      </trkpt>
      <trkpt lat="43.22816" lon="5.63865">
        <ele>256.4</ele>
        <time>2017-04-09T08:37:28Z</time>
      </trkpt>
      <trkpt lat="43.22818" lon="5.63871">
        <ele>256.6</ele>
        <time>2017-04-09T08:37:30Z</time>
      </trkpt>
      <trkpt lat="43.22821" lon="5.63889">
        <ele>257.8</ele>
        <time>2017-04-09T08:37:35Z</time>
      </trkpt>
      <trkpt lat="43.22821" lon="5.63893">
        <ele>258.2</ele>
        <time>2017-04-09T08:37:36Z</time>
      </trkpt>
      <trkpt lat="43.2282" lon="5.63904">
        <ele>259</ele>
        <time>2017-04-09T08:37:39Z</time>
      </trkpt>
      <trkpt lat="43.2282" lon="5.63915">
        <ele>259.4</ele>
        <time>2017-04-09T08:37:42Z</time>
      </trkpt>
      <trkpt lat="43.22821" lon="5.63928">
        <ele>260.2</ele>
        <time>2017-04-09T08:37:46Z</time>
      </trkpt>
      <trkpt lat="43.22824" lon="5.63933">
        <ele>261.2</ele>
        <time>2017-04-09T08:37:48Z</time>
      </trkpt>
      <trkpt lat="43.22831" lon="5.63945">
        <ele>262.6</ele>
        <time>2017-04-09T08:37:53Z</time>
      </trkpt>
      <trkpt lat="43.22832" lon="5.63947">
        <ele>262.6</ele>
        <time>2017-04-09T08:37:54Z</time>
      </trkpt>
      <trkpt lat="43.2284" lon="5.63959">
        <ele>263.8</ele>
        <time>2017-04-09T08:37:59Z</time>
      </trkpt>
      <trkpt lat="43.22845" lon="5.63966">
        <ele>264.6</ele>
        <time>2017-04-09T08:38:02Z</time>
      </trkpt>
      <trkpt lat="43.22848" lon="5.63971">
        <ele>264.8</ele>
        <time>2017-04-09T08:38:04Z</time>
      </trkpt>
      <trkpt lat="43.22852" lon="5.63978">
        <ele>266</ele>
        <time>2017-04-09T08:38:07Z</time>
      </trkpt>
      <trkpt lat="43.22854" lon="5.63983">
        <ele>266.2</ele>
        <time>2017-04-09T08:38:09Z</time>
      </trkpt>
      <trkpt lat="43.22857" lon="5.63988">
        <ele>267.2</ele>
        <time>2017-04-09T08:38:11Z</time>
      </trkpt>
      <trkpt lat="43.22861" lon="5.63994">
        <ele>268.2</ele>
        <time>2017-04-09T08:38:14Z</time>
      </trkpt>
      <trkpt lat="43.22863" lon="5.63998">
        <ele>268.8</ele>
        <time>2017-04-09T08:38:16Z</time>
      </trkpt>
      <trkpt lat="43.22869" lon="5.64">
        <ele>269.4</ele>
        <time>2017-04-09T08:38:20Z</time>
      </trkpt>
      <trkpt lat="43.2287" lon="5.63993">
        <ele>270</ele>
        <time>2017-04-09T08:38:23Z</time>
      </trkpt>
      <trkpt lat="43.2287" lon="5.6399">
        <ele>270.4</ele>
        <time>2017-04-09T08:38:24Z</time>
      </trkpt>
      <trkpt lat="43.22871" lon="5.63971">
        <ele>271.6</ele>
        <time>2017-04-09T08:38:30Z</time>
      </trkpt>
      <trkpt lat="43.22871" lon="5.63957">
        <ele>273</ele>
        <time>2017-04-09T08:38:34Z</time>
      </trkpt>
      <trkpt lat="43.22871" lon="5.63947">
        <ele>273.6</ele>
        <time>2017-04-09T08:38:37Z</time>
      </trkpt>
      <trkpt lat="43.22872" lon="5.6394">
        <ele>274.2</ele>
        <time>2017-04-09T08:38:39Z</time>
      </trkpt>
      <trkpt lat="43.22877" lon="5.63927">
        <ele>274.6</ele>
        <time>2017-04-09T08:38:43Z</time>
      </trkpt>
      <trkpt lat="43.22879" lon="5.63917">
        <ele>275.2</ele>
        <time>2017-04-09T08:38:46Z</time>
      </trkpt>
      <trkpt lat="43.22881" lon="5.63907">
        <ele>275.6</ele>
        <time>2017-04-09T08:38:49Z</time>
      </trkpt>
      <trkpt lat="43.22881" lon="5.63896">
        <ele>276.4</ele>
        <time>2017-04-09T08:38:52Z</time>
      </trkpt>
      <trkpt lat="43.22881" lon="5.63885">
        <ele>277.2</ele>
        <time>2017-04-09T08:38:55Z</time>
      </trkpt>
      <trkpt lat="43.22881" lon="5.63881">
        <ele>277.6</ele>
        <time>2017-04-09T08:38:56Z</time>
      </trkpt>
      <trkpt lat="43.22882" lon="5.63878">
        <ele>277.8</ele>
        <time>2017-04-09T08:38:57Z</time>
      </trkpt>
      <trkpt lat="43.22887" lon="5.63875">
        <ele>278.4</ele>
        <time>2017-04-09T08:38:59Z</time>
      </trkpt>
      <trkpt lat="43.22892" lon="5.63877">
        <ele>278.8</ele>
        <time>2017-04-09T08:39:01Z</time>
      </trkpt>
      <trkpt lat="43.22893" lon="5.63881">
        <ele>278.8</ele>
        <time>2017-04-09T08:39:02Z</time>
      </trkpt>
      <trkpt lat="43.22894" lon="5.63892">
        <ele>279.6</ele>
        <time>2017-04-09T08:39:05Z</time>
      </trkpt>
      <trkpt lat="43.22895" lon="5.63898">
        <ele>280</ele>
        <time>2017-04-09T08:39:07Z</time>
      </trkpt>
      <trkpt lat="43.22896" lon="5.63901">
        <ele>280.2</ele>
        <time>2017-04-09T08:39:08Z</time>
      </trkpt>
      <trkpt lat="43.22899" lon="5.6391">
        <ele>281</ele>
        <time>2017-04-09T08:39:11Z</time>
      </trkpt>
      <trkpt lat="43.22904" lon="5.63922">
        <ele>282</ele>
        <time>2017-04-09T08:39:15Z</time>
      </trkpt>
      <trkpt lat="43.22905" lon="5.63925">
        <ele>282.2</ele>
        <time>2017-04-09T08:39:16Z</time>
      </trkpt>
      <trkpt lat="43.22914" lon="5.63942">
        <ele>283.6</ele>
        <time>2017-04-09T08:39:22Z</time>
      </trkpt>
      <trkpt lat="43.22922" lon="5.63952">
        <ele>284.8</ele>
        <time>2017-04-09T08:39:26Z</time>
      </trkpt>
      <trkpt lat="43.22926" lon="5.63956">
        <ele>285</ele>
        <time>2017-04-09T08:39:28Z</time>
      </trkpt>
      <trkpt lat="43.22932" lon="5.63962">
        <ele>286</ele>
        <time>2017-04-09T08:39:31Z</time>
      </trkpt>
      <trkpt lat="43.22937" lon="5.63969">
        <ele>286.4</ele>
        <time>2017-04-09T08:39:34Z</time>
      </trkpt>
      <trkpt lat="43.2294" lon="5.63974">
        <ele>287.2</ele>
        <time>2017-04-09T08:39:36Z</time>
      </trkpt>
      <trkpt lat="43.22948" lon="5.63982">
        <ele>288.2</ele>
        <time>2017-04-09T08:39:40Z</time>
      </trkpt>
      <trkpt lat="43.2295" lon="5.63985">
        <ele>288.6</ele>
        <time>2017-04-09T08:39:41Z</time>
      </trkpt>
      <trkpt lat="43.22955" lon="5.63993">
        <ele>289.2</ele>
        <time>2017-04-09T08:39:44Z</time>
      </trkpt>
      <trkpt lat="43.2296" lon="5.64001">
        <ele>290.4</ele>
        <time>2017-04-09T08:39:47Z</time>
      </trkpt>
      <trkpt lat="43.22963" lon="5.64007">
        <ele>290.8</ele>
        <time>2017-04-09T08:39:49Z</time>
      </trkpt>
      <trkpt lat="43.22966" lon="5.64012">
        <ele>291.4</ele>
        <time>2017-04-09T08:39:51Z</time>
      </trkpt>
      <trkpt lat="43.22974" lon="5.64023">
        <ele>292.6</ele>
        <time>2017-04-09T08:39:55Z</time>
      </trkpt>
      <trkpt lat="43.22975" lon="5.64026">
        <ele>292.8</ele>
        <time>2017-04-09T08:39:56Z</time>
      </trkpt>
      <trkpt lat="43.22982" lon="5.64037">
        <ele>293.6</ele>
        <time>2017-04-09T08:40:00Z</time>
      </trkpt>
      <trkpt lat="43.22985" lon="5.64043">
        <ele>293.8</ele>
        <time>2017-04-09T08:40:02Z</time>
      </trkpt>
      <trkpt lat="43.22991" lon="5.64052">
        <ele>294.8</ele>
        <time>2017-04-09T08:40:05Z</time>
      </trkpt>
      <trkpt lat="43.22998" lon="5.64067">
        <ele>296.4</ele>
        <time>2017-04-09T08:40:10Z</time>
      </trkpt>
      <trkpt lat="43.23001" lon="5.64073">
        <ele>297</ele>
        <time>2017-04-09T08:40:12Z</time>
      </trkpt>
      <trkpt lat="43.23006" lon="5.64085">
        <ele>297.6</ele>
        <time>2017-04-09T08:40:16Z</time>
      </trkpt>
      <trkpt lat="43.23007" lon="5.64089">
        <ele>297.6</ele>
        <time>2017-04-09T08:40:17Z</time>
      </trkpt>
      <trkpt lat="43.23014" lon="5.64104">
        <ele>298.4</ele>
        <time>2017-04-09T08:40:22Z</time>
      </trkpt>
      <trkpt lat="43.23016" lon="5.64107">
        <ele>298.8</ele>
        <time>2017-04-09T08:40:23Z</time>
      </trkpt>
      <trkpt lat="43.23018" lon="5.64108">
        <ele>299.2</ele>
        <time>2017-04-09T08:40:24Z</time>
      </trkpt>
      <trkpt lat="43.23022" lon="5.64106">
        <ele>300</ele>
        <time>2017-04-09T08:40:26Z</time>
      </trkpt>
      <trkpt lat="43.23025" lon="5.64093">
        <ele>300.6</ele>
        <time>2017-04-09T08:40:31Z</time>
      </trkpt>
      <trkpt lat="43.23024" lon="5.64087">
        <ele>300.2</ele>
        <time>2017-04-09T08:40:33Z</time>
      </trkpt>
      <trkpt lat="43.23025" lon="5.64077">
        <ele>301.4</ele>
        <time>2017-04-09T08:40:36Z</time>
      </trkpt>
      <trkpt lat="43.23026" lon="5.64067">
        <ele>302.4</ele>
        <time>2017-04-09T08:40:39Z</time>
      </trkpt>
      <trkpt lat="43.23027" lon="5.64064">
        <ele>302.4</ele>
        <time>2017-04-09T08:40:40Z</time>
      </trkpt>
      <trkpt lat="43.23034" lon="5.64054">
        <ele>303.6</ele>
        <time>2017-04-09T08:40:44Z</time>
      </trkpt>
      <trkpt lat="43.23036" lon="5.64054">
        <ele>303.8</ele>
        <time>2017-04-09T08:40:45Z</time>
      </trkpt>
      <trkpt lat="43.23041" lon="5.64056">
        <ele>304.4</ele>
        <time>2017-04-09T08:40:47Z</time>
      </trkpt>
      <trkpt lat="43.23043" lon="5.64058">
        <ele>304.8</ele>
        <time>2017-04-09T08:40:48Z</time>
      </trkpt>
      <trkpt lat="43.23045" lon="5.6406">
        <ele>305.2</ele>
        <time>2017-04-09T08:40:49Z</time>
      </trkpt>
      <trkpt lat="43.23053" lon="5.6407">
        <ele>306</ele>
        <time>2017-04-09T08:40:53Z</time>
      </trkpt>
      <trkpt lat="43.23056" lon="5.64076">
        <ele>306.6</ele>
        <time>2017-04-09T08:40:55Z</time>
      </trkpt>
      <trkpt lat="43.23062" lon="5.64088">
        <ele>307.2</ele>
        <time>2017-04-09T08:40:59Z</time>
      </trkpt>
      <trkpt lat="43.23064" lon="5.64091">
        <ele>307.2</ele>
        <time>2017-04-09T08:41:00Z</time>
      </trkpt>
      <trkpt lat="43.23072" lon="5.6411">
        <ele>308</ele>
        <time>2017-04-09T08:41:05Z</time>
      </trkpt>
      <trkpt lat="43.23074" lon="5.64117">
        <ele>308.2</ele>
        <time>2017-04-09T08:41:07Z</time>
      </trkpt>
      <trkpt lat="43.23077" lon="5.64126">
        <ele>308.8</ele>
        <time>2017-04-09T08:41:10Z</time>
      </trkpt>
      <trkpt lat="43.23079" lon="5.64131">
        <ele>309.6</ele>
        <time>2017-04-09T08:41:12Z</time>
      </trkpt>
      <trkpt lat="43.23085" lon="5.64142">
        <ele>310.4</ele>
        <time>2017-04-09T08:41:16Z</time>
      </trkpt>
      <trkpt lat="43.23087" lon="5.64145">
        <ele>310.6</ele>
        <time>2017-04-09T08:41:17Z</time>
      </trkpt>
      <trkpt lat="43.23092" lon="5.64157">
        <ele>312</ele>
        <time>2017-04-09T08:41:21Z</time>
      </trkpt>
      <trkpt lat="43.23094" lon="5.6416">
        <ele>312.2</ele>
        <time>2017-04-09T08:41:22Z</time>
      </trkpt>
      <trkpt lat="43.23098" lon="5.64173">
        <ele>313.4</ele>
        <time>2017-04-09T08:41:26Z</time>
      </trkpt>
      <trkpt lat="43.231" lon="5.64179">
        <ele>313.8</ele>
        <time>2017-04-09T08:41:28Z</time>
      </trkpt>
      <trkpt lat="43.23103" lon="5.64185">
        <ele>314.4</ele>
        <time>2017-04-09T08:41:30Z</time>
      </trkpt>
      <trkpt lat="43.23111" lon="5.642">
        <ele>315.4</ele>
        <time>2017-04-09T08:41:35Z</time>
      </trkpt>
      <trkpt lat="43.23113" lon="5.64203">
        <ele>315.6</ele>
        <time>2017-04-09T08:41:36Z</time>
      </trkpt>
      <trkpt lat="43.23119" lon="5.6421">
        <ele>317</ele>
        <time>2017-04-09T08:41:39Z</time>
      </trkpt>
      <trkpt lat="43.2312" lon="5.64213">
        <ele>317.2</ele>
        <time>2017-04-09T08:41:40Z</time>
      </trkpt>
      <trkpt lat="43.23126" lon="5.64222">
        <ele>318</ele>
        <time>2017-04-09T08:41:43Z</time>
      </trkpt>
      <trkpt lat="43.23133" lon="5.64233">
        <ele>319</ele>
        <time>2017-04-09T08:41:47Z</time>
      </trkpt>
      <trkpt lat="43.23134" lon="5.64236">
        <ele>319.2</ele>
        <time>2017-04-09T08:41:48Z</time>
      </trkpt>
      <trkpt lat="43.23141" lon="5.64252">
        <ele>320.2</ele>
        <time>2017-04-09T08:41:53Z</time>
      </trkpt>
      <trkpt lat="43.23142" lon="5.64255">
        <ele>320.4</ele>
        <time>2017-04-09T08:41:54Z</time>
      </trkpt>
      <trkpt lat="43.23146" lon="5.64264">
        <ele>321.2</ele>
        <time>2017-04-09T08:41:57Z</time>
      </trkpt>
      <trkpt lat="43.23148" lon="5.6427">
        <ele>321.8</ele>
        <time>2017-04-09T08:41:59Z</time>
      </trkpt>
      <trkpt lat="43.23151" lon="5.64281">
        <ele>322.4</ele>
        <time>2017-04-09T08:42:02Z</time>
      </trkpt>
      <trkpt lat="43.23153" lon="5.64291">
        <ele>323.2</ele>
        <time>2017-04-09T08:42:05Z</time>
      </trkpt>
      <trkpt lat="43.23155" lon="5.64297">
        <ele>323.6</ele>
        <time>2017-04-09T08:42:07Z</time>
      </trkpt>
      <trkpt lat="43.23155" lon="5.64304">
        <ele>323.8</ele>
        <time>2017-04-09T08:42:09Z</time>
      </trkpt>
      <trkpt lat="43.23159" lon="5.64325">
        <ele>324.6</ele>
        <time>2017-04-09T08:42:14Z</time>
      </trkpt>
      <trkpt lat="43.23162" lon="5.64333">
        <ele>324.8</ele>
        <time>2017-04-09T08:42:16Z</time>
      </trkpt>
      <trkpt lat="43.23169" lon="5.64346">
        <ele>325.8</ele>
        <time>2017-04-09T08:42:20Z</time>
      </trkpt>
      <trkpt lat="43.23171" lon="5.6435">
        <ele>326</ele>
        <time>2017-04-09T08:42:21Z</time>
      </trkpt>
      <trkpt lat="43.23177" lon="5.64364">
        <ele>327</ele>
        <time>2017-04-09T08:42:25Z</time>
      </trkpt>
      <trkpt lat="43.2318" lon="5.6437">
        <ele>327.2</ele>
        <time>2017-04-09T08:42:27Z</time>
      </trkpt>
      <trkpt lat="43.23189" lon="5.64389">
        <ele>327.6</ele>
        <time>2017-04-09T08:42:32Z</time>
      </trkpt>
      <trkpt lat="43.23192" lon="5.64397">
        <ele>328</ele>
        <time>2017-04-09T08:42:34Z</time>
      </trkpt>
      <trkpt lat="43.23202" lon="5.64419">
        <ele>328.2</ele>
        <time>2017-04-09T08:42:39Z</time>
      </trkpt>
      <trkpt lat="43.2321" lon="5.64434">
        <ele>329.2</ele>
        <time>2017-04-09T08:42:43Z</time>
      </trkpt>
      <trkpt lat="43.23213" lon="5.64441">
        <ele>329.4</ele>
        <time>2017-04-09T08:42:45Z</time>
      </trkpt>
      <trkpt lat="43.23217" lon="5.6445">
        <ele>330.4</ele>
        <time>2017-04-09T08:42:48Z</time>
      </trkpt>
      <trkpt lat="43.23221" lon="5.64456">
        <ele>331</ele>
        <time>2017-04-09T08:42:50Z</time>
      </trkpt>
      <trkpt lat="43.23226" lon="5.64462">
        <ele>331.4</ele>
        <time>2017-04-09T08:42:53Z</time>
      </trkpt>
      <trkpt lat="43.2323" lon="5.64465">
        <ele>332</ele>
        <time>2017-04-09T08:42:55Z</time>
      </trkpt>
      <trkpt lat="43.23232" lon="5.64467">
        <ele>332.6</ele>
        <time>2017-04-09T08:42:56Z</time>
      </trkpt>
      <trkpt lat="43.23238" lon="5.64477">
        <ele>333.6</ele>
        <time>2017-04-09T08:43:00Z</time>
      </trkpt>
      <trkpt lat="43.23239" lon="5.64479">
        <ele>334.2</ele>
        <time>2017-04-09T08:43:01Z</time>
      </trkpt>
      <trkpt lat="43.23241" lon="5.64489">
        <ele>334.6</ele>
        <time>2017-04-09T08:43:04Z</time>
      </trkpt>
      <trkpt lat="43.23242" lon="5.64498">
        <ele>335.4</ele>
        <time>2017-04-09T08:43:07Z</time>
      </trkpt>
      <trkpt lat="43.23242" lon="5.64501">
        <ele>336</ele>
        <time>2017-04-09T08:43:08Z</time>
      </trkpt>
      <trkpt lat="43.23242" lon="5.64513">
        <ele>337</ele>
        <time>2017-04-09T08:43:12Z</time>
      </trkpt>
      <trkpt lat="43.23242" lon="5.64521">
        <ele>338</ele>
        <time>2017-04-09T08:43:15Z</time>
      </trkpt>
      <trkpt lat="43.23242" lon="5.64523">
        <ele>338.4</ele>
        <time>2017-04-09T08:43:16Z</time>
      </trkpt>
      <trkpt lat="43.23242" lon="5.64535">
        <ele>339.4</ele>
        <time>2017-04-09T08:43:20Z</time>
      </trkpt>
      <trkpt lat="43.23243" lon="5.64544">
        <ele>340.2</ele>
        <time>2017-04-09T08:43:23Z</time>
      </trkpt>
      <trkpt lat="43.23245" lon="5.6455">
        <ele>340.6</ele>
        <time>2017-04-09T08:43:25Z</time>
      </trkpt>
      <trkpt lat="43.23248" lon="5.64554">
        <ele>341.4</ele>
        <time>2017-04-09T08:43:27Z</time>
      </trkpt>
      <trkpt lat="43.23249" lon="5.64556">
        <ele>341.8</ele>
        <time>2017-04-09T08:43:28Z</time>
      </trkpt>
      <trkpt lat="43.23255" lon="5.64558">
        <ele>342.6</ele>
        <time>2017-04-09T08:43:31Z</time>
      </trkpt>
      <trkpt lat="43.23257" lon="5.64558">
        <ele>342.8</ele>
        <time>2017-04-09T08:43:32Z</time>
      </trkpt>
      <trkpt lat="43.23261" lon="5.64558">
        <ele>343.2</ele>
        <time>2017-04-09T08:43:34Z</time>
      </trkpt>
      <trkpt lat="43.23268" lon="5.64563">
        <ele>344</ele>
        <time>2017-04-09T08:43:37Z</time>
      </trkpt>
      <trkpt lat="43.23272" lon="5.64567">
        <ele>345</ele>
        <time>2017-04-09T08:43:40Z</time>
      </trkpt>
      <trkpt lat="43.23273" lon="5.6457">
        <ele>345.4</ele>
        <time>2017-04-09T08:43:41Z</time>
      </trkpt>
      <trkpt lat="43.23276" lon="5.64581">
        <ele>346.2</ele>
        <time>2017-04-09T08:43:45Z</time>
      </trkpt>
      <trkpt lat="43.23277" lon="5.64584">
        <ele>346.6</ele>
        <time>2017-04-09T08:43:46Z</time>
      </trkpt>
      <trkpt lat="43.2328" lon="5.64592">
        <ele>347.2</ele>
        <time>2017-04-09T08:43:49Z</time>
      </trkpt>
      <trkpt lat="43.23284" lon="5.646">
        <ele>347.8</ele>
        <time>2017-04-09T08:43:52Z</time>
      </trkpt>
      <trkpt lat="43.23286" lon="5.64605">
        <ele>348.4</ele>
        <time>2017-04-09T08:43:54Z</time>
      </trkpt>
      <trkpt lat="43.23289" lon="5.64613">
        <ele>349</ele>
        <time>2017-04-09T08:43:57Z</time>
      </trkpt>
      <trkpt lat="43.23293" lon="5.64622">
        <ele>349.4</ele>
        <time>2017-04-09T08:44:00Z</time>
      </trkpt>
      <trkpt lat="43.23296" lon="5.64632">
        <ele>350.4</ele>
        <time>2017-04-09T08:44:03Z</time>
      </trkpt>
      <trkpt lat="43.23303" lon="5.64653">
        <ele>351.2</ele>
        <time>2017-04-09T08:44:09Z</time>
      </trkpt>
      <trkpt lat="43.23305" lon="5.64656">
        <ele>351.4</ele>
        <time>2017-04-09T08:44:10Z</time>
      </trkpt>
      <trkpt lat="43.23309" lon="5.64665">
        <ele>352.6</ele>
        <time>2017-04-09T08:44:13Z</time>
      </trkpt>
      <trkpt lat="43.23315" lon="5.64676">
        <ele>353</ele>
        <time>2017-04-09T08:44:17Z</time>
      </trkpt>
      <trkpt lat="43.23318" lon="5.64682">
        <ele>353.8</ele>
        <time>2017-04-09T08:44:19Z</time>
      </trkpt>
      <trkpt lat="43.23323" lon="5.64693">
        <ele>354.4</ele>
        <time>2017-04-09T08:44:23Z</time>
      </trkpt>
      <trkpt lat="43.23327" lon="5.64703">
        <ele>355</ele>
        <time>2017-04-09T08:44:26Z</time>
      </trkpt>
      <trkpt lat="43.23329" lon="5.64705">
        <ele>355</ele>
        <time>2017-04-09T08:44:27Z</time>
      </trkpt>
      <trkpt lat="43.2333" lon="5.64708">
        <ele>355.8</ele>
        <time>2017-04-09T08:44:28Z</time>
      </trkpt>
      <trkpt lat="43.23331" lon="5.64711">
        <ele>356.2</ele>
        <time>2017-04-09T08:44:29Z</time>
      </trkpt>
      <trkpt lat="43.23337" lon="5.64722">
        <ele>356.6</ele>
        <time>2017-04-09T08:44:33Z</time>
      </trkpt>
      <trkpt lat="43.2334" lon="5.64729">
        <ele>357.4</ele>
        <time>2017-04-09T08:44:35Z</time>
      </trkpt>
      <trkpt lat="43.23347" lon="5.64741">
        <ele>358.4</ele>
        <time>2017-04-09T08:44:39Z</time>
      </trkpt>
      <trkpt lat="43.23348" lon="5.64743">
        <ele>358.6</ele>
        <time>2017-04-09T08:44:40Z</time>
      </trkpt>
      <trkpt lat="43.23353" lon="5.64752">
        <ele>359.4</ele>
        <time>2017-04-09T08:44:43Z</time>
      </trkpt>
      <trkpt lat="43.2336" lon="5.64762">
        <ele>360.2</ele>
        <time>2017-04-09T08:44:47Z</time>
      </trkpt>
      <trkpt lat="43.23362" lon="5.64766">
        <ele>360.8</ele>
        <time>2017-04-09T08:44:49Z</time>
      </trkpt>
      <trkpt lat="43.23366" lon="5.64775">
        <ele>361.4</ele>
        <time>2017-04-09T08:44:52Z</time>
      </trkpt>
      <trkpt lat="43.23368" lon="5.64778">
        <ele>361.8</ele>
        <time>2017-04-09T08:44:53Z</time>
      </trkpt>
      <trkpt lat="43.23372" lon="5.64791">
        <ele>363</ele>
        <time>2017-04-09T08:44:57Z</time>
      </trkpt>
      <trkpt lat="43.23375" lon="5.64801">
        <ele>364.2</ele>
        <time>2017-04-09T08:45:00Z</time>
      </trkpt>
      <trkpt lat="43.23378" lon="5.64811">
        <ele>365</ele>
        <time>2017-04-09T08:45:03Z</time>
      </trkpt>
      <trkpt lat="43.23379" lon="5.64814">
        <ele>365.2</ele>
        <time>2017-04-09T08:45:04Z</time>
      </trkpt>
      <trkpt lat="43.23381" lon="5.64827">
        <ele>366.4</ele>
        <time>2017-04-09T08:45:08Z</time>
      </trkpt>
      <trkpt lat="43.23383" lon="5.64834">
        <ele>366.8</ele>
        <time>2017-04-09T08:45:10Z</time>
      </trkpt>
      <trkpt lat="43.23386" lon="5.64839">
        <ele>367.2</ele>
        <time>2017-04-09T08:45:12Z</time>
      </trkpt>
      <trkpt lat="43.23388" lon="5.64842">
        <ele>367.6</ele>
        <time>2017-04-09T08:45:13Z</time>
      </trkpt>
      <trkpt lat="43.23389" lon="5.64845">
        <ele>368.2</ele>
        <time>2017-04-09T08:45:14Z</time>
      </trkpt>
      <trkpt lat="43.23392" lon="5.64851">
        <ele>368.4</ele>
        <time>2017-04-09T08:45:16Z</time>
      </trkpt>
      <trkpt lat="43.23394" lon="5.64857">
        <ele>369</ele>
        <time>2017-04-09T08:45:18Z</time>
      </trkpt>
      <trkpt lat="43.234" lon="5.64865">
        <ele>370</ele>
        <time>2017-04-09T08:45:21Z</time>
      </trkpt>
      <trkpt lat="43.23402" lon="5.64867">
        <ele>370.4</ele>
        <time>2017-04-09T08:45:22Z</time>
      </trkpt>
      <trkpt lat="43.23413" lon="5.64881">
        <ele>371.4</ele>
        <time>2017-04-09T08:45:28Z</time>
      </trkpt>
      <trkpt lat="43.23421" lon="5.64888">
        <ele>373.2</ele>
        <time>2017-04-09T08:45:32Z</time>
      </trkpt>
      <trkpt lat="43.23426" lon="5.64891">
        <ele>373.4</ele>
        <time>2017-04-09T08:45:34Z</time>
      </trkpt>
      <trkpt lat="43.23442" lon="5.64904">
        <ele>374.4</ele>
        <time>2017-04-09T08:45:41Z</time>
      </trkpt>
      <trkpt lat="43.23453" lon="5.6492">
        <ele>375.6</ele>
        <time>2017-04-09T08:45:47Z</time>
      </trkpt>
      <trkpt lat="43.2345" lon="5.64937">
        <ele>376.6</ele>
        <time>2017-04-09T08:45:52Z</time>
      </trkpt>
      <trkpt lat="43.23448" lon="5.64943">
        <ele>377.4</ele>
        <time>2017-04-09T08:45:54Z</time>
      </trkpt>
      <trkpt lat="43.23447" lon="5.64946">
        <ele>377.6</ele>
        <time>2017-04-09T08:45:55Z</time>
      </trkpt>
      <trkpt lat="43.23444" lon="5.64955">
        <ele>378</ele>
        <time>2017-04-09T08:45:58Z</time>
      </trkpt>
      <trkpt lat="43.23444" lon="5.64969">
        <ele>378.8</ele>
        <time>2017-04-09T08:46:02Z</time>
      </trkpt>
      <trkpt lat="43.23445" lon="5.64976">
        <ele>379.8</ele>
        <time>2017-04-09T08:46:04Z</time>
      </trkpt>
      <trkpt lat="43.23448" lon="5.64985">
        <ele>380.4</ele>
        <time>2017-04-09T08:46:07Z</time>
      </trkpt>
      <trkpt lat="43.2345" lon="5.6499">
        <ele>380.8</ele>
        <time>2017-04-09T08:46:09Z</time>
      </trkpt>
      <trkpt lat="43.23454" lon="5.64999">
        <ele>382</ele>
        <time>2017-04-09T08:46:12Z</time>
      </trkpt>
      <trkpt lat="43.23461" lon="5.65011">
        <ele>383.4</ele>
        <time>2017-04-09T08:46:17Z</time>
      </trkpt>
      <trkpt lat="43.23464" lon="5.65019">
        <ele>383.8</ele>
        <time>2017-04-09T08:46:20Z</time>
      </trkpt>
      <trkpt lat="43.23468" lon="5.65027">
        <ele>384.8</ele>
        <time>2017-04-09T08:46:23Z</time>
      </trkpt>
      <trkpt lat="43.23471" lon="5.65037">
        <ele>385.8</ele>
        <time>2017-04-09T08:46:27Z</time>
      </trkpt>
      <trkpt lat="43.23478" lon="5.65049">
        <ele>387</ele>
        <time>2017-04-09T08:46:32Z</time>
      </trkpt>
      <trkpt lat="43.23481" lon="5.65053">
        <ele>387.6</ele>
        <time>2017-04-09T08:46:34Z</time>
      </trkpt>
      <trkpt lat="43.23483" lon="5.65055">
        <ele>388.2</ele>
        <time>2017-04-09T08:46:35Z</time>
      </trkpt>
      <trkpt lat="43.23492" lon="5.65069">
        <ele>389.2</ele>
        <time>2017-04-09T08:46:40Z</time>
      </trkpt>
      <trkpt lat="43.235" lon="5.6508">
        <ele>390.4</ele>
        <time>2017-04-09T08:46:46Z</time>
      </trkpt>
      <trkpt lat="43.23503" lon="5.65085">
        <ele>390.8</ele>
        <time>2017-04-09T08:46:48Z</time>
      </trkpt>
      <trkpt lat="43.23508" lon="5.65093">
        <ele>391.6</ele>
        <time>2017-04-09T08:46:51Z</time>
      </trkpt>
      <trkpt lat="43.23514" lon="5.65102">
        <ele>392.6</ele>
        <time>2017-04-09T08:46:55Z</time>
      </trkpt>
      <trkpt lat="43.23516" lon="5.65104">
        <ele>392.8</ele>
        <time>2017-04-09T08:46:56Z</time>
      </trkpt>
      <trkpt lat="43.2352" lon="5.65111">
        <ele>393.8</ele>
        <time>2017-04-09T08:46:59Z</time>
      </trkpt>
      <trkpt lat="43.23527" lon="5.6512">
        <ele>394.8</ele>
        <time>2017-04-09T08:47:03Z</time>
      </trkpt>
      <trkpt lat="43.23536" lon="5.65131">
        <ele>396</ele>
        <time>2017-04-09T08:47:08Z</time>
      </trkpt>
      <trkpt lat="43.2354" lon="5.65135">
        <ele>396.2</ele>
        <time>2017-04-09T08:47:10Z</time>
      </trkpt>
      <trkpt lat="43.23548" lon="5.6514">
        <ele>397.2</ele>
        <time>2017-04-09T08:47:14Z</time>
      </trkpt>
      <trkpt lat="43.23551" lon="5.65141">
        <ele>397.8</ele>
        <time>2017-04-09T08:47:16Z</time>
      </trkpt>
      <trkpt lat="43.23558" lon="5.65141">
        <ele>398.4</ele>
        <time>2017-04-09T08:47:19Z</time>
      </trkpt>
      <trkpt lat="43.23564" lon="5.65141">
        <ele>399.2</ele>
        <time>2017-04-09T08:47:22Z</time>
      </trkpt>
      <trkpt lat="43.23566" lon="5.65141">
        <ele>399.4</ele>
        <time>2017-04-09T08:47:23Z</time>
      </trkpt>
      <trkpt lat="43.23573" lon="5.65139">
        <ele>400.6</ele>
        <time>2017-04-09T08:47:26Z</time>
      </trkpt>
      <trkpt lat="43.23577" lon="5.65137">
        <ele>401</ele>
        <time>2017-04-09T08:47:28Z</time>
      </trkpt>
      <trkpt lat="43.23586" lon="5.65133">
        <ele>401.6</ele>
        <time>2017-04-09T08:47:32Z</time>
      </trkpt>
      <trkpt lat="43.23593" lon="5.6513">
        <ele>402.4</ele>
        <time>2017-04-09T08:47:35Z</time>
      </trkpt>
      <trkpt lat="43.23598" lon="5.6513">
        <ele>402.8</ele>
        <time>2017-04-09T08:47:37Z</time>
      </trkpt>
      <trkpt lat="43.23605" lon="5.65133">
        <ele>403</ele>
        <time>2017-04-09T08:47:40Z</time>
      </trkpt>
      <trkpt lat="43.23608" lon="5.65138">
        <ele>403.8</ele>
        <time>2017-04-09T08:47:42Z</time>
      </trkpt>
      <trkpt lat="43.23609" lon="5.65141">
        <ele>404</ele>
        <time>2017-04-09T08:47:43Z</time>
      </trkpt>
      <trkpt lat="43.23611" lon="5.65149">
        <ele>404.8</ele>
        <time>2017-04-09T08:47:46Z</time>
      </trkpt>
      <trkpt lat="43.23611" lon="5.65152">
        <ele>405</ele>
        <time>2017-04-09T08:47:47Z</time>
      </trkpt>
      <trkpt lat="43.23612" lon="5.65155">
        <ele>405.2</ele>
        <time>2017-04-09T08:47:48Z</time>
      </trkpt>
      <trkpt lat="43.23613" lon="5.65168">
        <ele>406.4</ele>
        <time>2017-04-09T08:47:52Z</time>
      </trkpt>
      <trkpt lat="43.23614" lon="5.65171">
        <ele>406.6</ele>
        <time>2017-04-09T08:47:53Z</time>
      </trkpt>
      <trkpt lat="43.23615" lon="5.6518">
        <ele>407.4</ele>
        <time>2017-04-09T08:47:56Z</time>
      </trkpt>
      <trkpt lat="43.23617" lon="5.65194">
        <ele>408.2</ele>
        <time>2017-04-09T08:48:00Z</time>
      </trkpt>
      <trkpt lat="43.23618" lon="5.65204">
        <ele>408.4</ele>
        <time>2017-04-09T08:48:03Z</time>
      </trkpt>
      <trkpt lat="43.2362" lon="5.6522">
        <ele>409.6</ele>
        <time>2017-04-09T08:48:08Z</time>
      </trkpt>
      <trkpt lat="43.23622" lon="5.65236">
        <ele>410.8</ele>
        <time>2017-04-09T08:48:13Z</time>
      </trkpt>
      <trkpt lat="43.23623" lon="5.6524">
        <ele>410.8</ele>
        <time>2017-04-09T08:48:14Z</time>
      </trkpt>
      <trkpt lat="43.23624" lon="5.6525">
        <ele>411.8</ele>
        <time>2017-04-09T08:48:17Z</time>
      </trkpt>
      <trkpt lat="43.23625" lon="5.65265">
        <ele>413</ele>
        <time>2017-04-09T08:48:22Z</time>
      </trkpt>
      <trkpt lat="43.23626" lon="5.65287">
        <ele>414</ele>
        <time>2017-04-09T08:48:28Z</time>
      </trkpt>
      <trkpt lat="43.23626" lon="5.65294">
        <ele>414.2</ele>
        <time>2017-04-09T08:48:30Z</time>
      </trkpt>
      <trkpt lat="43.23628" lon="5.65314">
        <ele>415.2</ele>
        <time>2017-04-09T08:48:35Z</time>
      </trkpt>
      <trkpt lat="43.23628" lon="5.65318">
        <ele>415.6</ele>
        <time>2017-04-09T08:48:36Z</time>
      </trkpt>
      <trkpt lat="43.2363" lon="5.65334">
        <ele>416.6</ele>
        <time>2017-04-09T08:48:40Z</time>
      </trkpt>
      <trkpt lat="43.2363" lon="5.65338">
        <ele>416.8</ele>
        <time>2017-04-09T08:48:41Z</time>
      </trkpt>
      <trkpt lat="43.23633" lon="5.65354">
        <ele>417.2</ele>
        <time>2017-04-09T08:48:45Z</time>
      </trkpt>
      <trkpt lat="43.23635" lon="5.65368">
        <ele>417.8</ele>
        <time>2017-04-09T08:48:48Z</time>
      </trkpt>
      <trkpt lat="43.23638" lon="5.65377">
        <ele>418.2</ele>
        <time>2017-04-09T08:48:50Z</time>
      </trkpt>
      <trkpt lat="43.23649" lon="5.65388">
        <ele>419</ele>
        <time>2017-04-09T08:48:54Z</time>
      </trkpt>
      <trkpt lat="43.23661" lon="5.65391">
        <ele>419.6</ele>
        <time>2017-04-09T08:48:58Z</time>
      </trkpt>
      <trkpt lat="43.23669" lon="5.65393">
        <ele>420.2</ele>
        <time>2017-04-09T08:49:01Z</time>
      </trkpt>
      <trkpt lat="43.23674" lon="5.65396">
        <ele>420.8</ele>
        <time>2017-04-09T08:49:03Z</time>
      </trkpt>
      <trkpt lat="43.23682" lon="5.654">
        <ele>421.4</ele>
        <time>2017-04-09T08:49:06Z</time>
      </trkpt>
      <trkpt lat="43.2369" lon="5.65407">
        <ele>421.4</ele>
        <time>2017-04-09T08:49:09Z</time>
      </trkpt>
      <trkpt lat="43.23695" lon="5.65416">
        <ele>421.6</ele>
        <time>2017-04-09T08:49:12Z</time>
      </trkpt>
      <trkpt lat="43.23696" lon="5.6542">
        <ele>421.4</ele>
        <time>2017-04-09T08:49:13Z</time>
      </trkpt>
      <trkpt lat="43.23696" lon="5.65431">
        <ele>420.4</ele>
        <time>2017-04-09T08:49:15Z</time>
      </trkpt>
      <trkpt lat="43.23692" lon="5.65443">
        <ele>419.4</ele>
        <time>2017-04-09T08:49:17Z</time>
      </trkpt>
      <trkpt lat="43.23692" lon="5.6545">
        <ele>419</ele>
        <time>2017-04-09T08:49:18Z</time>
      </trkpt>
      <trkpt lat="43.2369" lon="5.65465">
        <ele>417.8</ele>
        <time>2017-04-09T08:49:20Z</time>
      </trkpt>
      <trkpt lat="43.2369" lon="5.65483">
        <ele>416.2</ele>
        <time>2017-04-09T08:49:22Z</time>
      </trkpt>
      <trkpt lat="43.2369" lon="5.65493">
        <ele>415.6</ele>
        <time>2017-04-09T08:49:23Z</time>
      </trkpt>
      <trkpt lat="43.23692" lon="5.65502">
        <ele>415</ele>
        <time>2017-04-09T08:49:24Z</time>
      </trkpt>
      <trkpt lat="43.23693" lon="5.65522">
        <ele>413.4</ele>
        <time>2017-04-09T08:49:26Z</time>
      </trkpt>
      <trkpt lat="43.23693" lon="5.65533">
        <ele>412.4</ele>
        <time>2017-04-09T08:49:27Z</time>
      </trkpt>
      <trkpt lat="43.23691" lon="5.65544">
        <ele>411.8</ele>
        <time>2017-04-09T08:49:28Z</time>
      </trkpt>
      <trkpt lat="43.23689" lon="5.65555">
        <ele>411</ele>
        <time>2017-04-09T08:49:29Z</time>
      </trkpt>
      <trkpt lat="43.23684" lon="5.65577">
        <ele>409</ele>
        <time>2017-04-09T08:49:31Z</time>
      </trkpt>
      <trkpt lat="43.23676" lon="5.65597">
        <ele>408.4</ele>
        <time>2017-04-09T08:49:33Z</time>
      </trkpt>
      <trkpt lat="43.23672" lon="5.65607">
        <ele>407.8</ele>
        <time>2017-04-09T08:49:34Z</time>
      </trkpt>
      <trkpt lat="43.23661" lon="5.65639">
        <ele>406</ele>
        <time>2017-04-09T08:49:37Z</time>
      </trkpt>
      <trkpt lat="43.23654" lon="5.6566">
        <ele>404.4</ele>
        <time>2017-04-09T08:49:39Z</time>
      </trkpt>
      <trkpt lat="43.23638" lon="5.65702">
        <ele>403.2</ele>
        <time>2017-04-09T08:49:43Z</time>
      </trkpt>
      <trkpt lat="43.23631" lon="5.65723">
        <ele>402.4</ele>
        <time>2017-04-09T08:49:45Z</time>
      </trkpt>
      <trkpt lat="43.23628" lon="5.65734">
        <ele>401.8</ele>
        <time>2017-04-09T08:49:46Z</time>
      </trkpt>
      <trkpt lat="43.23619" lon="5.65767">
        <ele>400.6</ele>
        <time>2017-04-09T08:49:49Z</time>
      </trkpt>
      <trkpt lat="43.23614" lon="5.6579">
        <ele>399.8</ele>
        <time>2017-04-09T08:49:51Z</time>
      </trkpt>
      <trkpt lat="43.23613" lon="5.65802">
        <ele>399.2</ele>
        <time>2017-04-09T08:49:52Z</time>
      </trkpt>
      <trkpt lat="43.23611" lon="5.65825">
        <ele>398.4</ele>
        <time>2017-04-09T08:49:54Z</time>
      </trkpt>
      <trkpt lat="43.2361" lon="5.65837">
        <ele>398</ele>
        <time>2017-04-09T08:49:55Z</time>
      </trkpt>
      <trkpt lat="43.23609" lon="5.65849">
        <ele>397.6</ele>
        <time>2017-04-09T08:49:56Z</time>
      </trkpt>
      <trkpt lat="43.23609" lon="5.6586">
        <ele>397.2</ele>
        <time>2017-04-09T08:49:57Z</time>
      </trkpt>
      <trkpt lat="43.23608" lon="5.65872">
        <ele>396.6</ele>
        <time>2017-04-09T08:49:58Z</time>
      </trkpt>
      <trkpt lat="43.23606" lon="5.65896">
        <ele>395.4</ele>
        <time>2017-04-09T08:50:00Z</time>
      </trkpt>
      <trkpt lat="43.23603" lon="5.65942">
        <ele>394.2</ele>
        <time>2017-04-09T08:50:04Z</time>
      </trkpt>
      <trkpt lat="43.236" lon="5.65965">
        <ele>393.8</ele>
        <time>2017-04-09T08:50:06Z</time>
      </trkpt>
      <trkpt lat="43.23598" lon="5.65976">
        <ele>393.2</ele>
        <time>2017-04-09T08:50:07Z</time>
      </trkpt>
      <trkpt lat="43.23593" lon="5.66027">
        <ele>393.2</ele>
        <time>2017-04-09T08:50:12Z</time>
      </trkpt>
      <trkpt lat="43.2359" lon="5.66057">
        <ele>392.2</ele>
        <time>2017-04-09T08:50:15Z</time>
      </trkpt>
      <trkpt lat="43.23588" lon="5.66082">
        <ele>392.4</ele>
        <time>2017-04-09T08:50:18Z</time>
      </trkpt>
      <trkpt lat="43.23583" lon="5.66118">
        <ele>391.6</ele>
        <time>2017-04-09T08:50:23Z</time>
      </trkpt>
      <trkpt lat="43.2358" lon="5.66126">
        <ele>392.2</ele>
        <time>2017-04-09T08:50:26Z</time>
      </trkpt>
      <trkpt lat="43.23577" lon="5.66122">
        <ele>392.4</ele>
        <time>2017-04-09T08:50:30Z</time>
      </trkpt>
      <trkpt lat="43.23574" lon="5.66108">
        <ele>392.6</ele>
        <time>2017-04-09T08:50:34Z</time>
      </trkpt>
      <trkpt lat="43.23574" lon="5.66097">
        <ele>393.2</ele>
        <time>2017-04-09T08:50:37Z</time>
      </trkpt>
      <trkpt lat="43.23573" lon="5.66092">
        <ele>393.4</ele>
        <time>2017-04-09T08:50:39Z</time>
      </trkpt>
      <trkpt lat="43.23568" lon="5.6608">
        <ele>393.2</ele>
        <time>2017-04-09T08:55:24Z</time>
      </trkpt>
      <trkpt lat="43.23562" lon="5.66066">
        <ele>393.6</ele>
        <time>2017-04-09T08:55:31Z</time>
      </trkpt>
      <trkpt lat="43.23556" lon="5.66054">
        <ele>392.8</ele>
        <time>2017-04-09T08:55:37Z</time>
      </trkpt>
      <trkpt lat="43.2355" lon="5.66038">
        <ele>392.4</ele>
        <time>2017-04-09T08:55:43Z</time>
      </trkpt>
      <trkpt lat="43.23547" lon="5.66027">
        <ele>392.2</ele>
        <time>2017-04-09T08:55:46Z</time>
      </trkpt>
      <trkpt lat="43.23545" lon="5.66016">
        <ele>391.8</ele>
        <time>2017-04-09T08:55:49Z</time>
      </trkpt>
      <trkpt lat="43.23544" lon="5.66015">
        <ele>392.2</ele>
        <time>2017-04-09T08:55:53Z</time>
      </trkpt>
      <trkpt lat="43.23544" lon="5.66006">
        <ele>391.8</ele>
        <time>2017-04-09T08:56:42Z</time>
      </trkpt>
      <trkpt lat="43.23543" lon="5.65998">
        <ele>392</ele>
        <time>2017-04-09T08:56:44Z</time>
      </trkpt>
      <trkpt lat="43.2354" lon="5.65982">
        <ele>391</ele>
        <time>2017-04-09T08:56:47Z</time>
      </trkpt>
      <trkpt lat="43.23538" lon="5.65977">
        <ele>391</ele>
        <time>2017-04-09T08:56:48Z</time>
      </trkpt>
      <trkpt lat="43.23535" lon="5.65965">
        <ele>390</ele>
        <time>2017-04-09T08:56:50Z</time>
      </trkpt>
      <trkpt lat="43.23527" lon="5.6594">
        <ele>389</ele>
        <time>2017-04-09T08:56:54Z</time>
      </trkpt>
      <trkpt lat="43.23526" lon="5.65933">
        <ele>388.2</ele>
        <time>2017-04-09T08:56:55Z</time>
      </trkpt>
      <trkpt lat="43.23524" lon="5.65926">
        <ele>387.8</ele>
        <time>2017-04-09T08:56:56Z</time>
      </trkpt>
      <trkpt lat="43.23519" lon="5.65902">
        <ele>386.6</ele>
        <time>2017-04-09T08:56:59Z</time>
      </trkpt>
      <trkpt lat="43.23514" lon="5.65877">
        <ele>385</ele>
        <time>2017-04-09T08:57:02Z</time>
      </trkpt>
      <trkpt lat="43.23508" lon="5.65849">
        <ele>383.8</ele>
        <time>2017-04-09T08:57:05Z</time>
      </trkpt>
      <trkpt lat="43.23503" lon="5.6583">
        <ele>382.4</ele>
        <time>2017-04-09T08:57:07Z</time>
      </trkpt>
      <trkpt lat="43.23497" lon="5.65801">
        <ele>381.4</ele>
        <time>2017-04-09T08:57:10Z</time>
      </trkpt>
      <trkpt lat="43.23495" lon="5.65792">
        <ele>380.8</ele>
        <time>2017-04-09T08:57:11Z</time>
      </trkpt>
      <trkpt lat="43.23491" lon="5.65773">
        <ele>380</ele>
        <time>2017-04-09T08:57:13Z</time>
      </trkpt>
      <trkpt lat="43.23486" lon="5.65751">
        <ele>378.8</ele>
        <time>2017-04-09T08:57:15Z</time>
      </trkpt>
      <trkpt lat="43.23484" lon="5.65741">
        <ele>378</ele>
        <time>2017-04-09T08:57:16Z</time>
      </trkpt>
      <trkpt lat="43.23482" lon="5.65731">
        <ele>377</ele>
        <time>2017-04-09T08:57:17Z</time>
      </trkpt>
      <trkpt lat="43.23479" lon="5.6572">
        <ele>376</ele>
        <time>2017-04-09T08:57:18Z</time>
      </trkpt>
      <trkpt lat="43.23477" lon="5.65709">
        <ele>375.4</ele>
        <time>2017-04-09T08:57:19Z</time>
      </trkpt>
      <trkpt lat="43.23476" lon="5.65687">
        <ele>373.6</ele>
        <time>2017-04-09T08:57:21Z</time>
      </trkpt>
      <trkpt lat="43.23475" lon="5.65675">
        <ele>372.6</ele>
        <time>2017-04-09T08:57:22Z</time>
      </trkpt>
      <trkpt lat="43.23475" lon="5.65655">
        <ele>371.2</ele>
        <time>2017-04-09T08:57:24Z</time>
      </trkpt>
      <trkpt lat="43.23477" lon="5.65645">
        <ele>370.4</ele>
        <time>2017-04-09T08:57:25Z</time>
      </trkpt>
      <trkpt lat="43.23478" lon="5.65637">
        <ele>370</ele>
        <time>2017-04-09T08:57:26Z</time>
      </trkpt>
      <trkpt lat="43.23481" lon="5.65614">
        <ele>370.4</ele>
        <time>2017-04-09T08:57:29Z</time>
      </trkpt>
      <trkpt lat="43.23475" lon="5.65608">
        <ele>369.8</ele>
        <time>2017-04-09T08:57:32Z</time>
      </trkpt>
      <trkpt lat="43.23471" lon="5.6561">
        <ele>369.2</ele>
        <time>2017-04-09T08:57:36Z</time>
      </trkpt>
      <trkpt lat="43.23471" lon="5.65613">
        <ele>369</ele>
        <time>2017-04-09T08:57:37Z</time>
      </trkpt>
      <trkpt lat="43.23467" lon="5.6562">
        <ele>368.2</ele>
        <time>2017-04-09T08:57:39Z</time>
      </trkpt>
      <trkpt lat="43.23464" lon="5.65625">
        <ele>367.6</ele>
        <time>2017-04-09T08:57:40Z</time>
      </trkpt>
      <trkpt lat="43.23458" lon="5.65634">
        <ele>366</ele>
        <time>2017-04-09T08:57:42Z</time>
      </trkpt>
      <trkpt lat="43.23453" lon="5.6564">
        <ele>365</ele>
        <time>2017-04-09T08:57:43Z</time>
      </trkpt>
      <trkpt lat="43.2345" lon="5.65648">
        <ele>364.4</ele>
        <time>2017-04-09T08:57:44Z</time>
      </trkpt>
      <trkpt lat="43.23446" lon="5.65656">
        <ele>363.8</ele>
        <time>2017-04-09T08:57:45Z</time>
      </trkpt>
      <trkpt lat="43.23442" lon="5.65665">
        <ele>363.4</ele>
        <time>2017-04-09T08:57:46Z</time>
      </trkpt>
      <trkpt lat="43.23439" lon="5.65673">
        <ele>362.6</ele>
        <time>2017-04-09T08:57:47Z</time>
      </trkpt>
      <trkpt lat="43.2343" lon="5.65692">
        <ele>361.2</ele>
        <time>2017-04-09T08:57:49Z</time>
      </trkpt>
      <trkpt lat="43.23421" lon="5.65712">
        <ele>359.2</ele>
        <time>2017-04-09T08:57:51Z</time>
      </trkpt>
      <trkpt lat="43.23417" lon="5.65721">
        <ele>357.8</ele>
        <time>2017-04-09T08:57:52Z</time>
      </trkpt>
      <trkpt lat="43.23412" lon="5.65728">
        <ele>356.6</ele>
        <time>2017-04-09T08:57:53Z</time>
      </trkpt>
      <trkpt lat="43.23401" lon="5.65733">
        <ele>357</ele>
        <time>2017-04-09T08:57:55Z</time>
      </trkpt>
      <trkpt lat="43.23385" lon="5.65726">
        <ele>356</ele>
        <time>2017-04-09T08:57:58Z</time>
      </trkpt>
      <trkpt lat="43.23381" lon="5.65723">
        <ele>355.6</ele>
        <time>2017-04-09T08:57:59Z</time>
      </trkpt>
      <trkpt lat="43.23379" lon="5.6572">
        <ele>355.6</ele>
        <time>2017-04-09T08:58:00Z</time>
      </trkpt>
      <trkpt lat="43.23377" lon="5.65719">
        <ele>355.8</ele>
        <time>2017-04-09T08:58:01Z</time>
      </trkpt>
      <trkpt lat="43.23374" lon="5.65712">
        <ele>356</ele>
        <time>2017-04-09T08:58:04Z</time>
      </trkpt>
      <trkpt lat="43.23373" lon="5.6571">
        <ele>357.8</ele>
        <time>2017-04-09T08:58:05Z</time>
      </trkpt>
      <trkpt lat="43.23372" lon="5.65708">
        <ele>359.2</ele>
        <time>2017-04-09T08:58:06Z</time>
      </trkpt>
      <trkpt lat="43.23372" lon="5.65705">
        <ele>359.2</ele>
        <time>2017-04-09T08:58:07Z</time>
      </trkpt>
      <trkpt lat="43.23372" lon="5.65703">
        <ele>357.6</ele>
        <time>2017-04-09T08:58:08Z</time>
      </trkpt>
      <trkpt lat="43.23373" lon="5.65698">
        <ele>356.8</ele>
        <time>2017-04-09T08:58:12Z</time>
      </trkpt>
      <trkpt lat="43.23373" lon="5.65696">
        <ele>356.6</ele>
        <time>2017-04-09T08:58:13Z</time>
      </trkpt>
      <trkpt lat="43.23378" lon="5.65694">
        <ele>355.8</ele>
        <time>2017-04-09T08:58:31Z</time>
      </trkpt>
      <trkpt lat="43.2338" lon="5.65693">
        <ele>355.6</ele>
        <time>2017-04-09T08:58:32Z</time>
      </trkpt>
      <trkpt lat="43.23384" lon="5.65693">
        <ele>355.2</ele>
        <time>2017-04-09T08:58:33Z</time>
      </trkpt>
      <trkpt lat="43.2339" lon="5.65696">
        <ele>354.6</ele>
        <time>2017-04-09T08:58:36Z</time>
      </trkpt>
      <trkpt lat="43.23399" lon="5.65688">
        <ele>353.8</ele>
        <time>2017-04-09T08:58:40Z</time>
      </trkpt>
      <trkpt lat="43.23401" lon="5.65683">
        <ele>353.2</ele>
        <time>2017-04-09T08:58:42Z</time>
      </trkpt>
      <trkpt lat="43.23399" lon="5.65677">
        <ele>352.4</ele>
        <time>2017-04-09T08:58:44Z</time>
      </trkpt>
      <trkpt lat="43.23399" lon="5.65669">
        <ele>351.2</ele>
        <time>2017-04-09T08:58:46Z</time>
      </trkpt>
      <trkpt lat="43.23399" lon="5.65664">
        <ele>350.6</ele>
        <time>2017-04-09T08:58:47Z</time>
      </trkpt>
      <trkpt lat="43.234" lon="5.65658">
        <ele>350.2</ele>
        <time>2017-04-09T08:58:48Z</time>
      </trkpt>
      <trkpt lat="43.23402" lon="5.65646">
        <ele>348.8</ele>
        <time>2017-04-09T08:58:50Z</time>
      </trkpt>
      <trkpt lat="43.23403" lon="5.65639">
        <ele>347.6</ele>
        <time>2017-04-09T08:58:51Z</time>
      </trkpt>
      <trkpt lat="43.23406" lon="5.65619">
        <ele>346.4</ele>
        <time>2017-04-09T08:58:54Z</time>
      </trkpt>
      <trkpt lat="43.23407" lon="5.65606">
        <ele>345.6</ele>
        <time>2017-04-09T08:58:56Z</time>
      </trkpt>
      <trkpt lat="43.23408" lon="5.65599">
        <ele>345</ele>
        <time>2017-04-09T08:58:57Z</time>
      </trkpt>
      <trkpt lat="43.23406" lon="5.65584">
        <ele>344.4</ele>
        <time>2017-04-09T08:59:00Z</time>
      </trkpt>
      <trkpt lat="43.23406" lon="5.65578">
        <ele>344</ele>
        <time>2017-04-09T08:59:01Z</time>
      </trkpt>
      <trkpt lat="43.23405" lon="5.65572">
        <ele>343.6</ele>
        <time>2017-04-09T08:59:02Z</time>
      </trkpt>
      <trkpt lat="43.23402" lon="5.65561">
        <ele>342.4</ele>
        <time>2017-04-09T08:59:04Z</time>
      </trkpt>
      <trkpt lat="43.23401" lon="5.6555">
        <ele>341.4</ele>
        <time>2017-04-09T08:59:06Z</time>
      </trkpt>
      <trkpt lat="43.23399" lon="5.65544">
        <ele>340.8</ele>
        <time>2017-04-09T08:59:07Z</time>
      </trkpt>
      <trkpt lat="43.23398" lon="5.65539">
        <ele>340</ele>
        <time>2017-04-09T08:59:08Z</time>
      </trkpt>
      <trkpt lat="43.23391" lon="5.65522">
        <ele>338.8</ele>
        <time>2017-04-09T08:59:11Z</time>
      </trkpt>
      <trkpt lat="43.23386" lon="5.65513">
        <ele>337.8</ele>
        <time>2017-04-09T08:59:13Z</time>
      </trkpt>
      <trkpt lat="43.23382" lon="5.65504">
        <ele>337.4</ele>
        <time>2017-04-09T08:59:15Z</time>
      </trkpt>
      <trkpt lat="43.23379" lon="5.65499">
        <ele>337</ele>
        <time>2017-04-09T08:59:16Z</time>
      </trkpt>
      <trkpt lat="43.23375" lon="5.65494">
        <ele>336.2</ele>
        <time>2017-04-09T08:59:17Z</time>
      </trkpt>
      <trkpt lat="43.23369" lon="5.65484">
        <ele>334.6</ele>
        <time>2017-04-09T08:59:19Z</time>
      </trkpt>
      <trkpt lat="43.23365" lon="5.6548">
        <ele>334</ele>
        <time>2017-04-09T08:59:20Z</time>
      </trkpt>
      <trkpt lat="43.23362" lon="5.65474">
        <ele>333.8</ele>
        <time>2017-04-09T08:59:21Z</time>
      </trkpt>
      <trkpt lat="43.23361" lon="5.65467">
        <ele>333.2</ele>
        <time>2017-04-09T08:59:22Z</time>
      </trkpt>
      <trkpt lat="43.23357" lon="5.65456">
        <ele>332.2</ele>
        <time>2017-04-09T08:59:24Z</time>
      </trkpt>
      <trkpt lat="43.23357" lon="5.6545">
        <ele>331.6</ele>
        <time>2017-04-09T08:59:25Z</time>
      </trkpt>
      <trkpt lat="43.23357" lon="5.65445">
        <ele>331</ele>
        <time>2017-04-09T08:59:26Z</time>
      </trkpt>
      <trkpt lat="43.23357" lon="5.65435">
        <ele>329.4</ele>
        <time>2017-04-09T08:59:28Z</time>
      </trkpt>
      <trkpt lat="43.23359" lon="5.65429">
        <ele>328.8</ele>
        <time>2017-04-09T08:59:29Z</time>
      </trkpt>
      <trkpt lat="43.2336" lon="5.65423">
        <ele>328</ele>
        <time>2017-04-09T08:59:30Z</time>
      </trkpt>
      <trkpt lat="43.23362" lon="5.65417">
        <ele>327.6</ele>
        <time>2017-04-09T08:59:31Z</time>
      </trkpt>
      <trkpt lat="43.23365" lon="5.65412">
        <ele>327.2</ele>
        <time>2017-04-09T08:59:32Z</time>
      </trkpt>
      <trkpt lat="43.23367" lon="5.65406">
        <ele>326.8</ele>
        <time>2017-04-09T08:59:33Z</time>
      </trkpt>
      <trkpt lat="43.23368" lon="5.65401">
        <ele>326.2</ele>
        <time>2017-04-09T08:59:34Z</time>
      </trkpt>
      <trkpt lat="43.2337" lon="5.65394">
        <ele>325.6</ele>
        <time>2017-04-09T08:59:35Z</time>
      </trkpt>
      <trkpt lat="43.23371" lon="5.65384">
        <ele>324.4</ele>
        <time>2017-04-09T08:59:37Z</time>
      </trkpt>
      <trkpt lat="43.2337" lon="5.65379">
        <ele>324.2</ele>
        <time>2017-04-09T08:59:38Z</time>
      </trkpt>
      <trkpt lat="43.23366" lon="5.65368">
        <ele>323</ele>
        <time>2017-04-09T08:59:40Z</time>
      </trkpt>
      <trkpt lat="43.23362" lon="5.65362">
        <ele>322</ele>
        <time>2017-04-09T08:59:41Z</time>
      </trkpt>
      <trkpt lat="43.23359" lon="5.65355">
        <ele>321.2</ele>
        <time>2017-04-09T08:59:42Z</time>
      </trkpt>
      <trkpt lat="43.23351" lon="5.6534">
        <ele>320.2</ele>
        <time>2017-04-09T08:59:44Z</time>
      </trkpt>
      <trkpt lat="43.23344" lon="5.65329">
        <ele>319.4</ele>
        <time>2017-04-09T08:59:46Z</time>
      </trkpt>
      <trkpt lat="43.23342" lon="5.65325">
        <ele>319</ele>
        <time>2017-04-09T08:59:47Z</time>
      </trkpt>
      <trkpt lat="43.23335" lon="5.65318">
        <ele>317.2</ele>
        <time>2017-04-09T08:59:49Z</time>
      </trkpt>
      <trkpt lat="43.23331" lon="5.65307">
        <ele>315.8</ele>
        <time>2017-04-09T08:59:51Z</time>
      </trkpt>
      <trkpt lat="43.23331" lon="5.65301">
        <ele>315.2</ele>
        <time>2017-04-09T08:59:52Z</time>
      </trkpt>
      <trkpt lat="43.23331" lon="5.65295">
        <ele>314.6</ele>
        <time>2017-04-09T08:59:53Z</time>
      </trkpt>
      <trkpt lat="43.23333" lon="5.65285">
        <ele>313.2</ele>
        <time>2017-04-09T08:59:55Z</time>
      </trkpt>
      <trkpt lat="43.23333" lon="5.65279">
        <ele>312.6</ele>
        <time>2017-04-09T08:59:56Z</time>
      </trkpt>
      <trkpt lat="43.23332" lon="5.65267">
        <ele>311.8</ele>
        <time>2017-04-09T08:59:58Z</time>
      </trkpt>
      <trkpt lat="43.23327" lon="5.65255">
        <ele>310</ele>
        <time>2017-04-09T09:00:00Z</time>
      </trkpt>
      <trkpt lat="43.23324" lon="5.65242">
        <ele>310.2</ele>
        <time>2017-04-09T09:00:02Z</time>
      </trkpt>
      <trkpt lat="43.23322" lon="5.65239">
        <ele>310.2</ele>
        <time>2017-04-09T09:00:03Z</time>
      </trkpt>
      <trkpt lat="43.23315" lon="5.65227">
        <ele>308.8</ele>
        <time>2017-04-09T09:00:05Z</time>
      </trkpt>
      <trkpt lat="43.23312" lon="5.6522">
        <ele>308.4</ele>
        <time>2017-04-09T09:00:06Z</time>
      </trkpt>
      <trkpt lat="43.23312" lon="5.65206">
        <ele>307.2</ele>
        <time>2017-04-09T09:00:08Z</time>
      </trkpt>
      <trkpt lat="43.23313" lon="5.652">
        <ele>306.4</ele>
        <time>2017-04-09T09:00:09Z</time>
      </trkpt>
      <trkpt lat="43.23313" lon="5.65194">
        <ele>305.8</ele>
        <time>2017-04-09T09:00:10Z</time>
      </trkpt>
      <trkpt lat="43.23315" lon="5.65188">
        <ele>304.4</ele>
        <time>2017-04-09T09:00:11Z</time>
      </trkpt>
      <trkpt lat="43.23317" lon="5.65178">
        <ele>303.2</ele>
        <time>2017-04-09T09:00:13Z</time>
      </trkpt>
      <trkpt lat="43.23318" lon="5.6516">
        <ele>302</ele>
        <time>2017-04-09T09:00:17Z</time>
      </trkpt>
      <trkpt lat="43.23315" lon="5.65147">
        <ele>300.8</ele>
        <time>2017-04-09T09:00:19Z</time>
      </trkpt>
      <trkpt lat="43.23309" lon="5.65134">
        <ele>299.4</ele>
        <time>2017-04-09T09:00:21Z</time>
      </trkpt>
      <trkpt lat="43.23303" lon="5.65122">
        <ele>298.2</ele>
        <time>2017-04-09T09:00:23Z</time>
      </trkpt>
      <trkpt lat="43.23299" lon="5.65111">
        <ele>297.2</ele>
        <time>2017-04-09T09:00:25Z</time>
      </trkpt>
      <trkpt lat="43.23295" lon="5.65106">
        <ele>297.2</ele>
        <time>2017-04-09T09:00:26Z</time>
      </trkpt>
      <trkpt lat="43.23292" lon="5.65099">
        <ele>296.6</ele>
        <time>2017-04-09T09:00:27Z</time>
      </trkpt>
      <trkpt lat="43.23291" lon="5.65095">
        <ele>296.4</ele>
        <time>2017-04-09T09:00:28Z</time>
      </trkpt>
      <trkpt lat="43.23286" lon="5.65081">
        <ele>295.2</ele>
        <time>2017-04-09T09:00:30Z</time>
      </trkpt>
      <trkpt lat="43.23284" lon="5.65076">
        <ele>294.2</ele>
        <time>2017-04-09T09:00:31Z</time>
      </trkpt>
      <trkpt lat="43.23281" lon="5.65071">
        <ele>293.6</ele>
        <time>2017-04-09T09:00:32Z</time>
      </trkpt>
      <trkpt lat="43.23278" lon="5.6506">
        <ele>293</ele>
        <time>2017-04-09T09:00:34Z</time>
      </trkpt>
      <trkpt lat="43.23273" lon="5.6505">
        <ele>291.2</ele>
        <time>2017-04-09T09:00:36Z</time>
      </trkpt>
      <trkpt lat="43.23269" lon="5.65035">
        <ele>289.6</ele>
        <time>2017-04-09T09:00:38Z</time>
      </trkpt>
      <trkpt lat="43.23263" lon="5.65021">
        <ele>288</ele>
        <time>2017-04-09T09:00:40Z</time>
      </trkpt>
      <trkpt lat="43.23251" lon="5.64992">
        <ele>286.6</ele>
        <time>2017-04-09T09:00:44Z</time>
      </trkpt>
      <trkpt lat="43.23248" lon="5.64985">
        <ele>286</ele>
        <time>2017-04-09T09:00:45Z</time>
      </trkpt>
      <trkpt lat="43.23245" lon="5.64979">
        <ele>285</ele>
        <time>2017-04-09T09:00:46Z</time>
      </trkpt>
      <trkpt lat="43.23241" lon="5.64968">
        <ele>284.4</ele>
        <time>2017-04-09T09:00:48Z</time>
      </trkpt>
      <trkpt lat="43.23239" lon="5.64962">
        <ele>284.4</ele>
        <time>2017-04-09T09:00:49Z</time>
      </trkpt>
      <trkpt lat="43.23237" lon="5.64956">
        <ele>283.6</ele>
        <time>2017-04-09T09:00:50Z</time>
      </trkpt>
      <trkpt lat="43.23235" lon="5.64944">
        <ele>282.2</ele>
        <time>2017-04-09T09:00:52Z</time>
      </trkpt>
      <trkpt lat="43.23233" lon="5.64937">
        <ele>281.4</ele>
        <time>2017-04-09T09:00:53Z</time>
      </trkpt>
      <trkpt lat="43.23231" lon="5.64931">
        <ele>281.2</ele>
        <time>2017-04-09T09:00:54Z</time>
      </trkpt>
      <trkpt lat="43.23229" lon="5.64923">
        <ele>280.6</ele>
        <time>2017-04-09T09:00:55Z</time>
      </trkpt>
      <trkpt lat="43.23228" lon="5.64914">
        <ele>280.2</ele>
        <time>2017-04-09T09:00:56Z</time>
      </trkpt>
      <trkpt lat="43.23226" lon="5.64906">
        <ele>279.2</ele>
        <time>2017-04-09T09:00:57Z</time>
      </trkpt>
      <trkpt lat="43.23226" lon="5.64897">
        <ele>278.4</ele>
        <time>2017-04-09T09:00:58Z</time>
      </trkpt>
      <trkpt lat="43.23224" lon="5.64887">
        <ele>277.4</ele>
        <time>2017-04-09T09:00:59Z</time>
      </trkpt>
      <trkpt lat="43.23221" lon="5.64872">
        <ele>276.8</ele>
        <time>2017-04-09T09:01:01Z</time>
      </trkpt>
      <trkpt lat="43.23218" lon="5.6486">
        <ele>276.2</ele>
        <time>2017-04-09T09:01:03Z</time>
      </trkpt>
      <trkpt lat="43.23213" lon="5.64847">
        <ele>275</ele>
        <time>2017-04-09T09:01:05Z</time>
      </trkpt>
      <trkpt lat="43.23208" lon="5.6484">
        <ele>274.6</ele>
        <time>2017-04-09T09:01:07Z</time>
      </trkpt>
      <trkpt lat="43.23205" lon="5.64835">
        <ele>274.2</ele>
        <time>2017-04-09T09:01:08Z</time>
      </trkpt>
      <trkpt lat="43.23202" lon="5.6483">
        <ele>273.4</ele>
        <time>2017-04-09T09:01:09Z</time>
      </trkpt>
      <trkpt lat="43.23193" lon="5.64812">
        <ele>272.2</ele>
        <time>2017-04-09T09:01:12Z</time>
      </trkpt>
      <trkpt lat="43.23189" lon="5.64806">
        <ele>271.4</ele>
        <time>2017-04-09T09:01:13Z</time>
      </trkpt>
      <trkpt lat="43.23186" lon="5.648">
        <ele>270.8</ele>
        <time>2017-04-09T09:01:14Z</time>
      </trkpt>
      <trkpt lat="43.23178" lon="5.64779">
        <ele>269.6</ele>
        <time>2017-04-09T09:01:18Z</time>
      </trkpt>
      <trkpt lat="43.23176" lon="5.64764">
        <ele>268.4</ele>
        <time>2017-04-09T09:01:21Z</time>
      </trkpt>
      <trkpt lat="43.23174" lon="5.64757">
        <ele>267.8</ele>
        <time>2017-04-09T09:01:22Z</time>
      </trkpt>
      <trkpt lat="43.23173" lon="5.6475">
        <ele>267.2</ele>
        <time>2017-04-09T09:01:23Z</time>
      </trkpt>
      <trkpt lat="43.23169" lon="5.64739">
        <ele>266.4</ele>
        <time>2017-04-09T09:01:25Z</time>
      </trkpt>
      <trkpt lat="43.23165" lon="5.64732">
        <ele>266.4</ele>
        <time>2017-04-09T09:01:27Z</time>
      </trkpt>
      <trkpt lat="43.23163" lon="5.64728">
        <ele>265.8</ele>
        <time>2017-04-09T09:01:28Z</time>
      </trkpt>
      <trkpt lat="43.23159" lon="5.64724">
        <ele>264.6</ele>
        <time>2017-04-09T09:01:29Z</time>
      </trkpt>
      <trkpt lat="43.23155" lon="5.64721">
        <ele>263.6</ele>
        <time>2017-04-09T09:01:30Z</time>
      </trkpt>
      <trkpt lat="43.23149" lon="5.64713">
        <ele>262.6</ele>
        <time>2017-04-09T09:01:32Z</time>
      </trkpt>
      <trkpt lat="43.23143" lon="5.64707">
        <ele>262.4</ele>
        <time>2017-04-09T09:01:33Z</time>
      </trkpt>
      <trkpt lat="43.2314" lon="5.64702">
        <ele>261.6</ele>
        <time>2017-04-09T09:01:34Z</time>
      </trkpt>
      <trkpt lat="43.23136" lon="5.64698">
        <ele>260.8</ele>
        <time>2017-04-09T09:01:35Z</time>
      </trkpt>
      <trkpt lat="43.23128" lon="5.64693">
        <ele>259.2</ele>
        <time>2017-04-09T09:01:37Z</time>
      </trkpt>
      <trkpt lat="43.23122" lon="5.64689">
        <ele>258.2</ele>
        <time>2017-04-09T09:01:39Z</time>
      </trkpt>
      <trkpt lat="43.23116" lon="5.64691">
        <ele>257</ele>
        <time>2017-04-09T09:01:41Z</time>
      </trkpt>
      <trkpt lat="43.23114" lon="5.6469">
        <ele>256</ele>
        <time>2017-04-09T09:01:42Z</time>
      </trkpt>
      <trkpt lat="43.2311" lon="5.6469">
        <ele>255.8</ele>
        <time>2017-04-09T09:01:43Z</time>
      </trkpt>
      <trkpt lat="43.23107" lon="5.64688">
        <ele>256</ele>
        <time>2017-04-09T09:01:44Z</time>
      </trkpt>
      <trkpt lat="43.231" lon="5.64686">
        <ele>255.2</ele>
        <time>2017-04-09T09:01:46Z</time>
      </trkpt>
      <trkpt lat="43.23096" lon="5.64684">
        <ele>254.2</ele>
        <time>2017-04-09T09:01:47Z</time>
      </trkpt>
      <trkpt lat="43.23088" lon="5.64679">
        <ele>253.2</ele>
        <time>2017-04-09T09:01:49Z</time>
      </trkpt>
      <trkpt lat="43.23083" lon="5.64674">
        <ele>252.4</ele>
        <time>2017-04-09T09:01:50Z</time>
      </trkpt>
      <trkpt lat="43.23077" lon="5.6467">
        <ele>251.6</ele>
        <time>2017-04-09T09:01:51Z</time>
      </trkpt>
      <trkpt lat="43.23069" lon="5.64663">
        <ele>250</ele>
        <time>2017-04-09T09:01:53Z</time>
      </trkpt>
      <trkpt lat="43.23062" lon="5.64654">
        <ele>249.2</ele>
        <time>2017-04-09T09:01:55Z</time>
      </trkpt>
      <trkpt lat="43.23059" lon="5.64649">
        <ele>248.8</ele>
        <time>2017-04-09T09:01:56Z</time>
      </trkpt>
      <trkpt lat="43.23057" lon="5.64643">
        <ele>248.4</ele>
        <time>2017-04-09T09:01:57Z</time>
      </trkpt>
      <trkpt lat="43.23057" lon="5.64632">
        <ele>247.6</ele>
        <time>2017-04-09T09:01:59Z</time>
      </trkpt>
      <trkpt lat="43.23059" lon="5.6462">
        <ele>246.6</ele>
        <time>2017-04-09T09:02:01Z</time>
      </trkpt>
      <trkpt lat="43.23061" lon="5.64611">
        <ele>246</ele>
        <time>2017-04-09T09:02:04Z</time>
      </trkpt>
      <trkpt lat="43.23063" lon="5.646">
        <ele>245.2</ele>
        <time>2017-04-09T09:02:07Z</time>
      </trkpt>
      <trkpt lat="43.23065" lon="5.64594">
        <ele>244.6</ele>
        <time>2017-04-09T09:02:08Z</time>
      </trkpt>
      <trkpt lat="43.23067" lon="5.64589">
        <ele>244.2</ele>
        <time>2017-04-09T09:02:09Z</time>
      </trkpt>
      <trkpt lat="43.23065" lon="5.64576">
        <ele>244</ele>
        <time>2017-04-09T09:02:12Z</time>
      </trkpt>
      <trkpt lat="43.2306" lon="5.64566">
        <ele>243</ele>
        <time>2017-04-09T09:02:14Z</time>
      </trkpt>
      <trkpt lat="43.23056" lon="5.6456">
        <ele>242.2</ele>
        <time>2017-04-09T09:02:15Z</time>
      </trkpt>
      <trkpt lat="43.23053" lon="5.64555">
        <ele>241.4</ele>
        <time>2017-04-09T09:02:16Z</time>
      </trkpt>
      <trkpt lat="43.2305" lon="5.64549">
        <ele>240.6</ele>
        <time>2017-04-09T09:02:17Z</time>
      </trkpt>
      <trkpt lat="43.23048" lon="5.64544">
        <ele>240.2</ele>
        <time>2017-04-09T09:02:18Z</time>
      </trkpt>
      <trkpt lat="43.23041" lon="5.64534">
        <ele>239.6</ele>
        <time>2017-04-09T09:02:20Z</time>
      </trkpt>
      <trkpt lat="43.23038" lon="5.64531">
        <ele>239.2</ele>
        <time>2017-04-09T09:02:21Z</time>
      </trkpt>
      <trkpt lat="43.23034" lon="5.64526">
        <ele>238.8</ele>
        <time>2017-04-09T09:02:22Z</time>
      </trkpt>
      <trkpt lat="43.23031" lon="5.64521">
        <ele>238.2</ele>
        <time>2017-04-09T09:02:23Z</time>
      </trkpt>
      <trkpt lat="43.23029" lon="5.64518">
        <ele>237.6</ele>
        <time>2017-04-09T09:02:24Z</time>
      </trkpt>
      <trkpt lat="43.23025" lon="5.64516">
        <ele>237</ele>
        <time>2017-04-09T09:02:25Z</time>
      </trkpt>
      <trkpt lat="43.23017" lon="5.6451">
        <ele>236.2</ele>
        <time>2017-04-09T09:02:27Z</time>
      </trkpt>
      <trkpt lat="43.23011" lon="5.64506">
        <ele>236</ele>
        <time>2017-04-09T09:02:28Z</time>
      </trkpt>
      <trkpt lat="43.23007" lon="5.64502">
        <ele>235</ele>
        <time>2017-04-09T09:02:29Z</time>
      </trkpt>
      <trkpt lat="43.23002" lon="5.64497">
        <ele>234.6</ele>
        <time>2017-04-09T09:02:30Z</time>
      </trkpt>
      <trkpt lat="43.22999" lon="5.64493">
        <ele>234</ele>
        <time>2017-04-09T09:02:31Z</time>
      </trkpt>
      <trkpt lat="43.22997" lon="5.64487">
        <ele>234</ele>
        <time>2017-04-09T09:02:32Z</time>
      </trkpt>
      <trkpt lat="43.22991" lon="5.64469">
        <ele>232.8</ele>
        <time>2017-04-09T09:02:35Z</time>
      </trkpt>
      <trkpt lat="43.2299" lon="5.64461">
        <ele>231.8</ele>
        <time>2017-04-09T09:02:36Z</time>
      </trkpt>
      <trkpt lat="43.22989" lon="5.64454">
        <ele>230.8</ele>
        <time>2017-04-09T09:02:37Z</time>
      </trkpt>
      <trkpt lat="43.22989" lon="5.64441">
        <ele>230</ele>
        <time>2017-04-09T09:02:39Z</time>
      </trkpt>
      <trkpt lat="43.2299" lon="5.64435">
        <ele>229.8</ele>
        <time>2017-04-09T09:02:40Z</time>
      </trkpt>
      <trkpt lat="43.22987" lon="5.64416">
        <ele>229</ele>
        <time>2017-04-09T09:02:44Z</time>
      </trkpt>
      <trkpt lat="43.22986" lon="5.64412">
        <ele>228.4</ele>
        <time>2017-04-09T09:02:45Z</time>
      </trkpt>
      <trkpt lat="43.2298" lon="5.64405">
        <ele>227.2</ele>
        <time>2017-04-09T09:02:47Z</time>
      </trkpt>
      <trkpt lat="43.22974" lon="5.64401">
        <ele>226</ele>
        <time>2017-04-09T09:02:49Z</time>
      </trkpt>
      <trkpt lat="43.22968" lon="5.64396">
        <ele>224.8</ele>
        <time>2017-04-09T09:02:51Z</time>
      </trkpt>
      <trkpt lat="43.2296" lon="5.64389">
        <ele>223.6</ele>
        <time>2017-04-09T09:02:53Z</time>
      </trkpt>
      <trkpt lat="43.22952" lon="5.64379">
        <ele>223.2</ele>
        <time>2017-04-09T09:02:55Z</time>
      </trkpt>
      <trkpt lat="43.22948" lon="5.64374">
        <ele>222.8</ele>
        <time>2017-04-09T09:02:56Z</time>
      </trkpt>
      <trkpt lat="43.22943" lon="5.64369">
        <ele>222.2</ele>
        <time>2017-04-09T09:02:57Z</time>
      </trkpt>
      <trkpt lat="43.22934" lon="5.64359">
        <ele>221</ele>
        <time>2017-04-09T09:02:59Z</time>
      </trkpt>
      <trkpt lat="43.22924" lon="5.64349">
        <ele>219.4</ele>
        <time>2017-04-09T09:03:01Z</time>
      </trkpt>
      <trkpt lat="43.22922" lon="5.6434">
        <ele>218.8</ele>
        <time>2017-04-09T09:03:03Z</time>
      </trkpt>
      <trkpt lat="43.22919" lon="5.6433">
        <ele>218</ele>
        <time>2017-04-09T09:03:05Z</time>
      </trkpt>
      <trkpt lat="43.22916" lon="5.64321">
        <ele>217.4</ele>
        <time>2017-04-09T09:03:07Z</time>
      </trkpt>
      <trkpt lat="43.22911" lon="5.64312">
        <ele>216.6</ele>
        <time>2017-04-09T09:03:09Z</time>
      </trkpt>
      <trkpt lat="43.22907" lon="5.64308">
        <ele>216</ele>
        <time>2017-04-09T09:03:10Z</time>
      </trkpt>
      <trkpt lat="43.22904" lon="5.64301">
        <ele>214.8</ele>
        <time>2017-04-09T09:03:11Z</time>
      </trkpt>
      <trkpt lat="43.22894" lon="5.64281">
        <ele>213</ele>
        <time>2017-04-09T09:03:15Z</time>
      </trkpt>
      <trkpt lat="43.2289" lon="5.64275">
        <ele>212.2</ele>
        <time>2017-04-09T09:03:16Z</time>
      </trkpt>
      <trkpt lat="43.22887" lon="5.64268">
        <ele>212</ele>
        <time>2017-04-09T09:03:17Z</time>
      </trkpt>
      <trkpt lat="43.22879" lon="5.64246">
        <ele>210.6</ele>
        <time>2017-04-09T09:03:21Z</time>
      </trkpt>
      <trkpt lat="43.22871" lon="5.64233">
        <ele>209.2</ele>
        <time>2017-04-09T09:03:24Z</time>
      </trkpt>
      <trkpt lat="43.22867" lon="5.64229">
        <ele>209</ele>
        <time>2017-04-09T09:03:25Z</time>
      </trkpt>
      <trkpt lat="43.22863" lon="5.64225">
        <ele>208.8</ele>
        <time>2017-04-09T09:03:26Z</time>
      </trkpt>
      <trkpt lat="43.22859" lon="5.64221">
        <ele>208.2</ele>
        <time>2017-04-09T09:03:27Z</time>
      </trkpt>
      <trkpt lat="43.2285" lon="5.64214">
        <ele>206.4</ele>
        <time>2017-04-09T09:03:29Z</time>
      </trkpt>
      <trkpt lat="43.22843" lon="5.64208">
        <ele>206</ele>
        <time>2017-04-09T09:03:31Z</time>
      </trkpt>
      <trkpt lat="43.2283" lon="5.64198">
        <ele>205.4</ele>
        <time>2017-04-09T09:03:34Z</time>
      </trkpt>
      <trkpt lat="43.22825" lon="5.64195">
        <ele>204.4</ele>
        <time>2017-04-09T09:03:35Z</time>
      </trkpt>
      <trkpt lat="43.22821" lon="5.64193">
        <ele>202.8</ele>
        <time>2017-04-09T09:03:36Z</time>
      </trkpt>
      <trkpt lat="43.22808" lon="5.64192">
        <ele>201.4</ele>
        <time>2017-04-09T09:03:39Z</time>
      </trkpt>
      <trkpt lat="43.22795" lon="5.64193">
        <ele>199.8</ele>
        <time>2017-04-09T09:03:42Z</time>
      </trkpt>
      <trkpt lat="43.22791" lon="5.6419">
        <ele>199.2</ele>
        <time>2017-04-09T09:03:43Z</time>
      </trkpt>
      <trkpt lat="43.22786" lon="5.64183">
        <ele>198.8</ele>
        <time>2017-04-09T09:03:44Z</time>
      </trkpt>
      <trkpt lat="43.22784" lon="5.64176">
        <ele>198</ele>
        <time>2017-04-09T09:03:45Z</time>
      </trkpt>
      <trkpt lat="43.22782" lon="5.64169">
        <ele>197.4</ele>
        <time>2017-04-09T09:03:46Z</time>
      </trkpt>
      <trkpt lat="43.22779" lon="5.64162">
        <ele>196.2</ele>
        <time>2017-04-09T09:03:47Z</time>
      </trkpt>
      <trkpt lat="43.22772" lon="5.64148">
        <ele>194.6</ele>
        <time>2017-04-09T09:03:49Z</time>
      </trkpt>
      <trkpt lat="43.22761" lon="5.64135">
        <ele>194</ele>
        <time>2017-04-09T09:03:52Z</time>
      </trkpt>
      <trkpt lat="43.22758" lon="5.64131">
        <ele>193.8</ele>
        <time>2017-04-09T09:03:53Z</time>
      </trkpt>
      <trkpt lat="43.22754" lon="5.64126">
        <ele>193.4</ele>
        <time>2017-04-09T09:03:54Z</time>
      </trkpt>
      <trkpt lat="43.22749" lon="5.64122">
        <ele>192</ele>
        <time>2017-04-09T09:03:55Z</time>
      </trkpt>
      <trkpt lat="43.22743" lon="5.64116">
        <ele>190.8</ele>
        <time>2017-04-09T09:03:56Z</time>
      </trkpt>
      <trkpt lat="43.22738" lon="5.6411">
        <ele>189.8</ele>
        <time>2017-04-09T09:03:57Z</time>
      </trkpt>
      <trkpt lat="43.2273" lon="5.64098">
        <ele>188.6</ele>
        <time>2017-04-09T09:03:59Z</time>
      </trkpt>
      <trkpt lat="43.22725" lon="5.64092">
        <ele>187.6</ele>
        <time>2017-04-09T09:04:00Z</time>
      </trkpt>
      <trkpt lat="43.22721" lon="5.64085">
        <ele>186.6</ele>
        <time>2017-04-09T09:04:01Z</time>
      </trkpt>
      <trkpt lat="43.22717" lon="5.64078">
        <ele>185.4</ele>
        <time>2017-04-09T09:04:02Z</time>
      </trkpt>
      <trkpt lat="43.22712" lon="5.64067">
        <ele>185</ele>
        <time>2017-04-09T09:04:04Z</time>
      </trkpt>
      <trkpt lat="43.22704" lon="5.64059">
        <ele>184.4</ele>
        <time>2017-04-09T09:04:06Z</time>
      </trkpt>
      <trkpt lat="43.22694" lon="5.64051">
        <ele>183</ele>
        <time>2017-04-09T09:04:08Z</time>
      </trkpt>
      <trkpt lat="43.22682" lon="5.64048">
        <ele>181.4</ele>
        <time>2017-04-09T09:04:10Z</time>
      </trkpt>
      <trkpt lat="43.22677" lon="5.64048">
        <ele>180.4</ele>
        <time>2017-04-09T09:04:11Z</time>
      </trkpt>
      <trkpt lat="43.22672" lon="5.6405">
        <ele>180.2</ele>
        <time>2017-04-09T09:04:12Z</time>
      </trkpt>
      <trkpt lat="43.22666" lon="5.64051">
        <ele>179.8</ele>
        <time>2017-04-09T09:04:13Z</time>
      </trkpt>
      <trkpt lat="43.2266" lon="5.64049">
        <ele>179.6</ele>
        <time>2017-04-09T09:04:14Z</time>
      </trkpt>
      <trkpt lat="43.22655" lon="5.64048">
        <ele>178.8</ele>
        <time>2017-04-09T09:04:15Z</time>
      </trkpt>
      <trkpt lat="43.22636" lon="5.64043">
        <ele>177.6</ele>
        <time>2017-04-09T09:04:18Z</time>
      </trkpt>
      <trkpt lat="43.22631" lon="5.64042">
        <ele>177</ele>
        <time>2017-04-09T09:04:19Z</time>
      </trkpt>
      <trkpt lat="43.22625" lon="5.64041">
        <ele>176.4</ele>
        <time>2017-04-09T09:04:20Z</time>
      </trkpt>
      <trkpt lat="43.22613" lon="5.64035">
        <ele>175.8</ele>
        <time>2017-04-09T09:04:23Z</time>
      </trkpt>
      <trkpt lat="43.22603" lon="5.64026">
        <ele>175</ele>
        <time>2017-04-09T09:04:26Z</time>
      </trkpt>
      <trkpt lat="43.226" lon="5.6402">
        <ele>173.8</ele>
        <time>2017-04-09T09:04:27Z</time>
      </trkpt>
      <trkpt lat="43.22598" lon="5.64012">
        <ele>173</ele>
        <time>2017-04-09T09:04:28Z</time>
      </trkpt>
      <trkpt lat="43.22596" lon="5.64006">
        <ele>172.4</ele>
        <time>2017-04-09T09:04:29Z</time>
      </trkpt>
      <trkpt lat="43.22592" lon="5.64">
        <ele>172</ele>
        <time>2017-04-09T09:04:30Z</time>
      </trkpt>
      <trkpt lat="43.22589" lon="5.63991">
        <ele>171.8</ele>
        <time>2017-04-09T09:04:31Z</time>
      </trkpt>
      <trkpt lat="43.22585" lon="5.63979">
        <ele>172</ele>
        <time>2017-04-09T09:04:33Z</time>
      </trkpt>
      <trkpt lat="43.22581" lon="5.63966">
        <ele>171.4</ele>
        <time>2017-04-09T09:04:35Z</time>
      </trkpt>
      <trkpt lat="43.22577" lon="5.63961">
        <ele>170.6</ele>
        <time>2017-04-09T09:04:36Z</time>
      </trkpt>
      <trkpt lat="43.22569" lon="5.63958">
        <ele>169.6</ele>
        <time>2017-04-09T09:04:38Z</time>
      </trkpt>
      <trkpt lat="43.22564" lon="5.63956">
        <ele>168.8</ele>
        <time>2017-04-09T09:04:39Z</time>
      </trkpt>
      <trkpt lat="43.2256" lon="5.63955">
        <ele>168</ele>
        <time>2017-04-09T09:04:40Z</time>
      </trkpt>
      <trkpt lat="43.22555" lon="5.63955">
        <ele>167</ele>
        <time>2017-04-09T09:04:41Z</time>
      </trkpt>
      <trkpt lat="43.22539" lon="5.63954">
        <ele>165.2</ele>
        <time>2017-04-09T09:04:44Z</time>
      </trkpt>
      <trkpt lat="43.22534" lon="5.63953">
        <ele>164.6</ele>
        <time>2017-04-09T09:04:45Z</time>
      </trkpt>
      <trkpt lat="43.2253" lon="5.63948">
        <ele>164.8</ele>
        <time>2017-04-09T09:04:46Z</time>
      </trkpt>
      <trkpt lat="43.2252" lon="5.63932">
        <ele>164.2</ele>
        <time>2017-04-09T09:04:49Z</time>
      </trkpt>
      <trkpt lat="43.22517" lon="5.63925">
        <ele>163.6</ele>
        <time>2017-04-09T09:04:50Z</time>
      </trkpt>
      <trkpt lat="43.22514" lon="5.63919">
        <ele>163</ele>
        <time>2017-04-09T09:04:51Z</time>
      </trkpt>
      <trkpt lat="43.2251" lon="5.63913">
        <ele>162.4</ele>
        <time>2017-04-09T09:04:52Z</time>
      </trkpt>
      <trkpt lat="43.22506" lon="5.63909">
        <ele>161.4</ele>
        <time>2017-04-09T09:04:53Z</time>
      </trkpt>
      <trkpt lat="43.225" lon="5.63906">
        <ele>161.6</ele>
        <time>2017-04-09T09:04:54Z</time>
      </trkpt>
      <trkpt lat="43.2249" lon="5.63886">
        <ele>160</ele>
        <time>2017-04-09T09:04:58Z</time>
      </trkpt>
      <trkpt lat="43.22492" lon="5.63873">
        <ele>158.8</ele>
        <time>2017-04-09T09:05:00Z</time>
      </trkpt>
      <trkpt lat="43.22491" lon="5.63867">
        <ele>158.4</ele>
        <time>2017-04-09T09:05:01Z</time>
      </trkpt>
      <trkpt lat="43.2249" lon="5.63854">
        <ele>157.8</ele>
        <time>2017-04-09T09:05:03Z</time>
      </trkpt>
      <trkpt lat="43.22487" lon="5.63838">
        <ele>157.2</ele>
        <time>2017-04-09T09:05:05Z</time>
      </trkpt>
      <trkpt lat="43.22486" lon="5.63827">
        <ele>157.8</ele>
        <time>2017-04-09T09:05:07Z</time>
      </trkpt>
      <trkpt lat="43.22483" lon="5.63821">
        <ele>158</ele>
        <time>2017-04-09T09:05:08Z</time>
      </trkpt>
      <trkpt lat="43.22472" lon="5.63805">
        <ele>156.2</ele>
        <time>2017-04-09T09:05:11Z</time>
      </trkpt>
      <trkpt lat="43.22467" lon="5.638">
        <ele>154.6</ele>
        <time>2017-04-09T09:05:12Z</time>
      </trkpt>
      <trkpt lat="43.22456" lon="5.63797">
        <ele>152.6</ele>
        <time>2017-04-09T09:05:14Z</time>
      </trkpt>
      <trkpt lat="43.22452" lon="5.63795">
        <ele>152</ele>
        <time>2017-04-09T09:05:15Z</time>
      </trkpt>
      <trkpt lat="43.22446" lon="5.63792">
        <ele>151.6</ele>
        <time>2017-04-09T09:05:16Z</time>
      </trkpt>
      <trkpt lat="43.22432" lon="5.63784">
        <ele>149.8</ele>
        <time>2017-04-09T09:05:19Z</time>
      </trkpt>
      <trkpt lat="43.22421" lon="5.63779">
        <ele>148.8</ele>
        <time>2017-04-09T09:05:21Z</time>
      </trkpt>
      <trkpt lat="43.2241" lon="5.63777">
        <ele>147</ele>
        <time>2017-04-09T09:05:23Z</time>
      </trkpt>
      <trkpt lat="43.22398" lon="5.63774">
        <ele>145</ele>
        <time>2017-04-09T09:05:25Z</time>
      </trkpt>
      <trkpt lat="43.22391" lon="5.63773">
        <ele>144</ele>
        <time>2017-04-09T09:05:26Z</time>
      </trkpt>
      <trkpt lat="43.22386" lon="5.63775">
        <ele>144</ele>
        <time>2017-04-09T09:05:27Z</time>
      </trkpt>
      <trkpt lat="43.22377" lon="5.63779">
        <ele>145.6</ele>
        <time>2017-04-09T09:05:29Z</time>
      </trkpt>
      <trkpt lat="43.22374" lon="5.63779">
        <ele>146</ele>
        <time>2017-04-09T09:05:30Z</time>
      </trkpt>
      <trkpt lat="43.22368" lon="5.63778">
        <ele>146.8</ele>
        <time>2017-04-09T09:05:32Z</time>
      </trkpt>
      <trkpt lat="43.22363" lon="5.63775">
        <ele>147.4</ele>
        <time>2017-04-09T09:05:34Z</time>
      </trkpt>
      <trkpt lat="43.22355" lon="5.63771">
        <ele>147.8</ele>
        <time>2017-04-09T09:05:37Z</time>
      </trkpt>
      <trkpt lat="43.22347" lon="5.63769">
        <ele>148.4</ele>
        <time>2017-04-09T09:05:40Z</time>
      </trkpt>
      <trkpt lat="43.2234" lon="5.63765">
        <ele>149</ele>
        <time>2017-04-09T09:05:43Z</time>
      </trkpt>
      <trkpt lat="43.22332" lon="5.63762">
        <ele>150</ele>
        <time>2017-04-09T09:05:46Z</time>
      </trkpt>
      <trkpt lat="43.22323" lon="5.63758">
        <ele>150</ele>
        <time>2017-04-09T09:05:49Z</time>
      </trkpt>
      <trkpt lat="43.22315" lon="5.63752">
        <ele>150.2</ele>
        <time>2017-04-09T09:05:52Z</time>
      </trkpt>
      <trkpt lat="43.22305" lon="5.63742">
        <ele>151.2</ele>
        <time>2017-04-09T09:05:56Z</time>
      </trkpt>
      <trkpt lat="43.22301" lon="5.63736">
        <ele>151.4</ele>
        <time>2017-04-09T09:05:58Z</time>
      </trkpt>
      <trkpt lat="43.22292" lon="5.63726">
        <ele>152.4</ele>
        <time>2017-04-09T09:06:02Z</time>
      </trkpt>
      <trkpt lat="43.22284" lon="5.6372">
        <ele>153.2</ele>
        <time>2017-04-09T09:06:05Z</time>
      </trkpt>
      <trkpt lat="43.22281" lon="5.63718">
        <ele>153.4</ele>
        <time>2017-04-09T09:06:06Z</time>
      </trkpt>
      <trkpt lat="43.22269" lon="5.63714">
        <ele>154.4</ele>
        <time>2017-04-09T09:06:10Z</time>
      </trkpt>
      <trkpt lat="43.22263" lon="5.63712">
        <ele>154.8</ele>
        <time>2017-04-09T09:06:12Z</time>
      </trkpt>
      <trkpt lat="43.22248" lon="5.63716">
        <ele>155.6</ele>
        <time>2017-04-09T09:06:17Z</time>
      </trkpt>
      <trkpt lat="43.22245" lon="5.6373">
        <ele>156.8</ele>
        <time>2017-04-09T09:06:21Z</time>
      </trkpt>
      <trkpt lat="43.22247" lon="5.63736">
        <ele>157.4</ele>
        <time>2017-04-09T09:06:23Z</time>
      </trkpt>
      <trkpt lat="43.22248" lon="5.63738">
        <ele>158</ele>
        <time>2017-04-09T09:06:24Z</time>
      </trkpt>
      <trkpt lat="43.2225" lon="5.6374">
        <ele>158.2</ele>
        <time>2017-04-09T09:06:25Z</time>
      </trkpt>
      <trkpt lat="43.22254" lon="5.63742">
        <ele>159</ele>
        <time>2017-04-09T09:06:27Z</time>
      </trkpt>
      <trkpt lat="43.22259" lon="5.63744">
        <ele>159.6</ele>
        <time>2017-04-09T09:06:29Z</time>
      </trkpt>
      <trkpt lat="43.22264" lon="5.63745">
        <ele>160</ele>
        <time>2017-04-09T09:06:31Z</time>
      </trkpt>
      <trkpt lat="43.22277" lon="5.6375">
        <ele>161</ele>
        <time>2017-04-09T09:06:36Z</time>
      </trkpt>
      <trkpt lat="43.22279" lon="5.63751">
        <ele>161.2</ele>
        <time>2017-04-09T09:06:37Z</time>
      </trkpt>
      <trkpt lat="43.22285" lon="5.63759">
        <ele>162.2</ele>
        <time>2017-04-09T09:06:40Z</time>
      </trkpt>
      <trkpt lat="43.22288" lon="5.63765">
        <ele>162.8</ele>
        <time>2017-04-09T09:06:42Z</time>
      </trkpt>
      <trkpt lat="43.22292" lon="5.63778">
        <ele>163.2</ele>
        <time>2017-04-09T09:06:46Z</time>
      </trkpt>
      <trkpt lat="43.22298" lon="5.63789">
        <ele>163.8</ele>
        <time>2017-04-09T09:06:50Z</time>
      </trkpt>
      <trkpt lat="43.22299" lon="5.63791">
        <ele>164.2</ele>
        <time>2017-04-09T09:06:51Z</time>
      </trkpt>
      <trkpt lat="43.22308" lon="5.63799">
        <ele>165.4</ele>
        <time>2017-04-09T09:06:56Z</time>
      </trkpt>
      <trkpt lat="43.22314" lon="5.63804">
        <ele>166.6</ele>
        <time>2017-04-09T09:07:00Z</time>
      </trkpt>
      <trkpt lat="43.22316" lon="5.63809">
        <ele>167</ele>
        <time>2017-04-09T09:07:02Z</time>
      </trkpt>
      <trkpt lat="43.22318" lon="5.63813">
        <ele>167.8</ele>
        <time>2017-04-09T09:07:04Z</time>
      </trkpt>
      <trkpt lat="43.22324" lon="5.6382">
        <ele>168.8</ele>
        <time>2017-04-09T09:07:08Z</time>
      </trkpt>
      <trkpt lat="43.22325" lon="5.63821">
        <ele>168.8</ele>
        <time>2017-04-09T09:07:09Z</time>
      </trkpt>
      <trkpt lat="43.2233" lon="5.63824">
        <ele>170</ele>
        <time>2017-04-09T09:07:12Z</time>
      </trkpt>
      <trkpt lat="43.22336" lon="5.63829">
        <ele>170.8</ele>
        <time>2017-04-09T09:07:16Z</time>
      </trkpt>
      <trkpt lat="43.22337" lon="5.6383">
        <ele>171.2</ele>
        <time>2017-04-09T09:07:17Z</time>
      </trkpt>
      <trkpt lat="43.22344" lon="5.63834">
        <ele>172.4</ele>
        <time>2017-04-09T09:07:21Z</time>
      </trkpt>
      <trkpt lat="43.22349" lon="5.63836">
        <ele>173.4</ele>
        <time>2017-04-09T09:07:24Z</time>
      </trkpt>
      <trkpt lat="43.22354" lon="5.63839">
        <ele>174.6</ele>
        <time>2017-04-09T09:07:27Z</time>
      </trkpt>
      <trkpt lat="43.2236" lon="5.63844">
        <ele>175.6</ele>
        <time>2017-04-09T09:07:31Z</time>
      </trkpt>
      <trkpt lat="43.22366" lon="5.63848">
        <ele>176.8</ele>
        <time>2017-04-09T09:07:35Z</time>
      </trkpt>
      <trkpt lat="43.2237" lon="5.63852">
        <ele>177.6</ele>
        <time>2017-04-09T09:07:38Z</time>
      </trkpt>
      <trkpt lat="43.22372" lon="5.63853">
        <ele>177.8</ele>
        <time>2017-04-09T09:07:39Z</time>
      </trkpt>
      <trkpt lat="43.2238" lon="5.63857">
        <ele>179</ele>
        <time>2017-04-09T09:07:44Z</time>
      </trkpt>
      <trkpt lat="43.22383" lon="5.63859">
        <ele>180.2</ele>
        <time>2017-04-09T09:07:46Z</time>
      </trkpt>
      <trkpt lat="43.22389" lon="5.63862">
        <ele>180.2</ele>
        <time>2017-04-09T09:07:50Z</time>
      </trkpt>
      <trkpt lat="43.22394" lon="5.63864">
        <ele>181.4</ele>
        <time>2017-04-09T09:07:53Z</time>
      </trkpt>
      <trkpt lat="43.22399" lon="5.63865">
        <ele>181.8</ele>
        <time>2017-04-09T09:07:56Z</time>
      </trkpt>
      <trkpt lat="43.22405" lon="5.63867">
        <ele>182.4</ele>
        <time>2017-04-09T09:07:59Z</time>
      </trkpt>
      <trkpt lat="43.22412" lon="5.63872">
        <ele>183.6</ele>
        <time>2017-04-09T09:08:03Z</time>
      </trkpt>
      <trkpt lat="43.22414" lon="5.63872">
        <ele>184</ele>
        <time>2017-04-09T09:08:04Z</time>
      </trkpt>
      <trkpt lat="43.22427" lon="5.63881">
        <ele>184.6</ele>
        <time>2017-04-09T09:08:10Z</time>
      </trkpt>
      <trkpt lat="43.22429" lon="5.63883">
        <ele>186</ele>
        <time>2017-04-09T09:08:11Z</time>
      </trkpt>
      <trkpt lat="43.22439" lon="5.63898">
        <ele>186.2</ele>
        <time>2017-04-09T09:08:17Z</time>
      </trkpt>
      <trkpt lat="43.22446" lon="5.63916">
        <ele>188</ele>
        <time>2017-04-09T09:08:23Z</time>
      </trkpt>
      <trkpt lat="43.22447" lon="5.63922">
        <ele>188.6</ele>
        <time>2017-04-09T09:08:25Z</time>
      </trkpt>
      <trkpt lat="43.22449" lon="5.63927">
        <ele>187</ele>
        <time>2017-04-09T09:08:27Z</time>
      </trkpt>
      <trkpt lat="43.22451" lon="5.63936">
        <ele>188</ele>
        <time>2017-04-09T09:08:30Z</time>
      </trkpt>
      <trkpt lat="43.22452" lon="5.63939">
        <ele>188</ele>
        <time>2017-04-09T09:08:31Z</time>
      </trkpt>
      <trkpt lat="43.22454" lon="5.63948">
        <ele>189</ele>
        <time>2017-04-09T09:08:34Z</time>
      </trkpt>
      <trkpt lat="43.22457" lon="5.63956">
        <ele>190.4</ele>
        <time>2017-04-09T09:08:37Z</time>
      </trkpt>
      <trkpt lat="43.22457" lon="5.63959">
        <ele>190.6</ele>
        <time>2017-04-09T09:08:38Z</time>
      </trkpt>
      <trkpt lat="43.2246" lon="5.63973">
        <ele>191.4</ele>
        <time>2017-04-09T09:08:43Z</time>
      </trkpt>
      <trkpt lat="43.22461" lon="5.63976">
        <ele>191.6</ele>
        <time>2017-04-09T09:08:44Z</time>
      </trkpt>
      <trkpt lat="43.22463" lon="5.63982">
        <ele>192.6</ele>
        <time>2017-04-09T09:08:46Z</time>
      </trkpt>
      <trkpt lat="43.22467" lon="5.63993">
        <ele>193.2</ele>
        <time>2017-04-09T09:08:50Z</time>
      </trkpt>
      <trkpt lat="43.22468" lon="5.63996">
        <ele>193.6</ele>
        <time>2017-04-09T09:08:51Z</time>
      </trkpt>
      <trkpt lat="43.22471" lon="5.64004">
        <ele>194.6</ele>
        <time>2017-04-09T09:08:54Z</time>
      </trkpt>
      <trkpt lat="43.22474" lon="5.6401">
        <ele>194.8</ele>
        <time>2017-04-09T09:08:56Z</time>
      </trkpt>
      <trkpt lat="43.22479" lon="5.64024">
        <ele>195.8</ele>
        <time>2017-04-09T09:09:01Z</time>
      </trkpt>
      <trkpt lat="43.2248" lon="5.64027">
        <ele>196</ele>
        <time>2017-04-09T09:09:02Z</time>
      </trkpt>
      <trkpt lat="43.22485" lon="5.64036">
        <ele>197</ele>
        <time>2017-04-09T09:09:06Z</time>
      </trkpt>
      <trkpt lat="43.22485" lon="5.64038">
        <ele>197.6</ele>
        <time>2017-04-09T09:09:07Z</time>
      </trkpt>
      <trkpt lat="43.22487" lon="5.64046">
        <ele>198.4</ele>
        <time>2017-04-09T09:09:10Z</time>
      </trkpt>
      <trkpt lat="43.22492" lon="5.64054">
        <ele>199.8</ele>
        <time>2017-04-09T09:09:14Z</time>
      </trkpt>
      <trkpt lat="43.22497" lon="5.6406">
        <ele>200.8</ele>
        <time>2017-04-09T09:09:17Z</time>
      </trkpt>
      <trkpt lat="43.22502" lon="5.64067">
        <ele>201.2</ele>
        <time>2017-04-09T09:09:20Z</time>
      </trkpt>
      <trkpt lat="43.22509" lon="5.64075">
        <ele>202</ele>
        <time>2017-04-09T09:09:24Z</time>
      </trkpt>
      <trkpt lat="43.22515" lon="5.6408">
        <ele>203</ele>
        <time>2017-04-09T09:09:27Z</time>
      </trkpt>
      <trkpt lat="43.22525" lon="5.64089">
        <ele>204.2</ele>
        <time>2017-04-09T09:09:33Z</time>
      </trkpt>
      <trkpt lat="43.22527" lon="5.6409">
        <ele>204.8</ele>
        <time>2017-04-09T09:09:34Z</time>
      </trkpt>
      <trkpt lat="43.22529" lon="5.64092">
        <ele>205.4</ele>
        <time>2017-04-09T09:09:35Z</time>
      </trkpt>
      <trkpt lat="43.22537" lon="5.64101">
        <ele>206.2</ele>
        <time>2017-04-09T09:09:40Z</time>
      </trkpt>
      <trkpt lat="43.22539" lon="5.64103">
        <ele>206.6</ele>
        <time>2017-04-09T09:09:41Z</time>
      </trkpt>
      <trkpt lat="43.22549" lon="5.64112">
        <ele>207.2</ele>
        <time>2017-04-09T09:09:46Z</time>
      </trkpt>
      <trkpt lat="43.22553" lon="5.64117">
        <ele>207.6</ele>
        <time>2017-04-09T09:09:48Z</time>
      </trkpt>
      <trkpt lat="43.22562" lon="5.64123">
        <ele>208.4</ele>
        <time>2017-04-09T09:09:52Z</time>
      </trkpt>
      <trkpt lat="43.22565" lon="5.64124">
        <ele>208.8</ele>
        <time>2017-04-09T09:09:53Z</time>
      </trkpt>
      <trkpt lat="43.22578" lon="5.64129">
        <ele>209.8</ele>
        <time>2017-04-09T09:09:58Z</time>
      </trkpt>
      <trkpt lat="43.22585" lon="5.64134">
        <ele>210.8</ele>
        <time>2017-04-09T09:10:02Z</time>
      </trkpt>
      <trkpt lat="43.22588" lon="5.64136">
        <ele>211.2</ele>
        <time>2017-04-09T09:10:03Z</time>
      </trkpt>
      <trkpt lat="43.22592" lon="5.64139">
        <ele>212</ele>
        <time>2017-04-09T09:10:05Z</time>
      </trkpt>
      <trkpt lat="43.22604" lon="5.64147">
        <ele>213.2</ele>
        <time>2017-04-09T09:10:11Z</time>
      </trkpt>
      <trkpt lat="43.2261" lon="5.64152">
        <ele>214.4</ele>
        <time>2017-04-09T09:10:14Z</time>
      </trkpt>
      <trkpt lat="43.22615" lon="5.64154">
        <ele>215</ele>
        <time>2017-04-09T09:10:17Z</time>
      </trkpt>
      <trkpt lat="43.22617" lon="5.64154">
        <ele>215</ele>
        <time>2017-04-09T09:10:18Z</time>
      </trkpt>
      <trkpt lat="43.2262" lon="5.64157">
        <ele>215.4</ele>
        <time>2017-04-09T09:10:20Z</time>
      </trkpt>
      <trkpt lat="43.22625" lon="5.64159">
        <ele>216.4</ele>
        <time>2017-04-09T09:10:23Z</time>
      </trkpt>
      <trkpt lat="43.22627" lon="5.6416">
        <ele>217</ele>
        <time>2017-04-09T09:10:24Z</time>
      </trkpt>
      <trkpt lat="43.22632" lon="5.6416">
        <ele>218</ele>
        <time>2017-04-09T09:10:27Z</time>
      </trkpt>
      <trkpt lat="43.22636" lon="5.64162">
        <ele>218.8</ele>
        <time>2017-04-09T09:10:29Z</time>
      </trkpt>
      <trkpt lat="43.22638" lon="5.64162">
        <ele>219.4</ele>
        <time>2017-04-09T09:10:30Z</time>
      </trkpt>
      <trkpt lat="43.22643" lon="5.64165">
        <ele>220</ele>
        <time>2017-04-09T09:10:33Z</time>
      </trkpt>
      <trkpt lat="43.22647" lon="5.64165">
        <ele>220.4</ele>
        <time>2017-04-09T09:10:35Z</time>
      </trkpt>
      <trkpt lat="43.22649" lon="5.64168">
        <ele>221</ele>
        <time>2017-04-09T09:10:37Z</time>
      </trkpt>
      <trkpt lat="43.22651" lon="5.64169">
        <ele>221.4</ele>
        <time>2017-04-09T09:10:38Z</time>
      </trkpt>
      <trkpt lat="43.2266" lon="5.64172">
        <ele>222.4</ele>
        <time>2017-04-09T09:10:43Z</time>
      </trkpt>
      <trkpt lat="43.22662" lon="5.64173">
        <ele>222.8</ele>
        <time>2017-04-09T09:10:44Z</time>
      </trkpt>
      <trkpt lat="43.22663" lon="5.64175">
        <ele>223.2</ele>
        <time>2017-04-09T09:10:45Z</time>
      </trkpt>
      <trkpt lat="43.2267" lon="5.64178">
        <ele>223.8</ele>
        <time>2017-04-09T09:10:49Z</time>
      </trkpt>
      <trkpt lat="43.22672" lon="5.64179">
        <ele>224.4</ele>
        <time>2017-04-09T09:10:50Z</time>
      </trkpt>
      <trkpt lat="43.22675" lon="5.64181">
        <ele>224.8</ele>
        <time>2017-04-09T09:10:52Z</time>
      </trkpt>
      <trkpt lat="43.22682" lon="5.64184">
        <ele>226</ele>
        <time>2017-04-09T09:10:56Z</time>
      </trkpt>
      <trkpt lat="43.22686" lon="5.6419">
        <ele>227</ele>
        <time>2017-04-09T09:11:00Z</time>
      </trkpt>
      <trkpt lat="43.22689" lon="5.64193">
        <ele>227.4</ele>
        <time>2017-04-09T09:11:02Z</time>
      </trkpt>
      <trkpt lat="43.22692" lon="5.64199">
        <ele>228</ele>
        <time>2017-04-09T09:11:05Z</time>
      </trkpt>
      <trkpt lat="43.22695" lon="5.64204">
        <ele>228.4</ele>
        <time>2017-04-09T09:11:07Z</time>
      </trkpt>
      <trkpt lat="43.227" lon="5.64211">
        <ele>229.2</ele>
        <time>2017-04-09T09:11:10Z</time>
      </trkpt>
      <trkpt lat="43.22703" lon="5.64215">
        <ele>229.4</ele>
        <time>2017-04-09T09:11:12Z</time>
      </trkpt>
      <trkpt lat="43.22704" lon="5.64218">
        <ele>229.4</ele>
        <time>2017-04-09T09:11:13Z</time>
      </trkpt>
      <trkpt lat="43.2271" lon="5.64228">
        <ele>230.6</ele>
        <time>2017-04-09T09:11:17Z</time>
      </trkpt>
      <trkpt lat="43.22713" lon="5.64233">
        <ele>231</ele>
        <time>2017-04-09T09:11:19Z</time>
      </trkpt>
      <trkpt lat="43.22715" lon="5.64242">
        <ele>231.6</ele>
        <time>2017-04-09T09:11:22Z</time>
      </trkpt>
      <trkpt lat="43.22719" lon="5.64257">
        <ele>232.8</ele>
        <time>2017-04-09T09:11:27Z</time>
      </trkpt>
      <trkpt lat="43.22726" lon="5.64273">
        <ele>234</ele>
        <time>2017-04-09T09:11:33Z</time>
      </trkpt>
      <trkpt lat="43.2273" lon="5.64277">
        <ele>234.6</ele>
        <time>2017-04-09T09:11:35Z</time>
      </trkpt>
      <trkpt lat="43.22735" lon="5.64281">
        <ele>235.2</ele>
        <time>2017-04-09T09:11:38Z</time>
      </trkpt>
      <trkpt lat="43.22739" lon="5.64283">
        <ele>235.6</ele>
        <time>2017-04-09T09:11:40Z</time>
      </trkpt>
      <trkpt lat="43.22745" lon="5.64286">
        <ele>236.6</ele>
        <time>2017-04-09T09:11:43Z</time>
      </trkpt>
      <trkpt lat="43.22755" lon="5.64293">
        <ele>237.6</ele>
        <time>2017-04-09T09:11:48Z</time>
      </trkpt>
      <trkpt lat="43.22757" lon="5.64294">
        <ele>238</ele>
        <time>2017-04-09T09:11:49Z</time>
      </trkpt>
      <trkpt lat="43.22767" lon="5.64304">
        <ele>239.2</ele>
        <time>2017-04-09T09:11:55Z</time>
      </trkpt>
      <trkpt lat="43.22768" lon="5.64306">
        <ele>239.8</ele>
        <time>2017-04-09T09:11:56Z</time>
      </trkpt>
      <trkpt lat="43.22773" lon="5.64312">
        <ele>240.4</ele>
        <time>2017-04-09T09:11:59Z</time>
      </trkpt>
      <trkpt lat="43.22778" lon="5.64317">
        <ele>241.6</ele>
        <time>2017-04-09T09:12:02Z</time>
      </trkpt>
      <trkpt lat="43.2278" lon="5.64318">
        <ele>241.8</ele>
        <time>2017-04-09T09:12:03Z</time>
      </trkpt>
      <trkpt lat="43.22783" lon="5.64321">
        <ele>242.4</ele>
        <time>2017-04-09T09:12:05Z</time>
      </trkpt>
      <trkpt lat="43.22785" lon="5.64323">
        <ele>242.8</ele>
        <time>2017-04-09T09:12:06Z</time>
      </trkpt>
      <trkpt lat="43.22786" lon="5.64324">
        <ele>243.2</ele>
        <time>2017-04-09T09:12:07Z</time>
      </trkpt>
      <trkpt lat="43.22788" lon="5.64326">
        <ele>243.8</ele>
        <time>2017-04-09T09:12:08Z</time>
      </trkpt>
      <trkpt lat="43.22797" lon="5.64333">
        <ele>244.8</ele>
        <time>2017-04-09T09:12:13Z</time>
      </trkpt>
      <trkpt lat="43.22802" lon="5.64339">
        <ele>246</ele>
        <time>2017-04-09T09:12:16Z</time>
      </trkpt>
      <trkpt lat="43.22809" lon="5.64345">
        <ele>247</ele>
        <time>2017-04-09T09:12:20Z</time>
      </trkpt>
      <trkpt lat="43.22814" lon="5.64349">
        <ele>247.8</ele>
        <time>2017-04-09T09:12:23Z</time>
      </trkpt>
      <trkpt lat="43.22816" lon="5.6435">
        <ele>248.2</ele>
        <time>2017-04-09T09:12:24Z</time>
      </trkpt>
      <trkpt lat="43.22822" lon="5.64357">
        <ele>249.4</ele>
        <time>2017-04-09T09:12:28Z</time>
      </trkpt>
      <trkpt lat="43.22824" lon="5.6436">
        <ele>249.4</ele>
        <time>2017-04-09T09:12:29Z</time>
      </trkpt>
      <trkpt lat="43.22828" lon="5.64367">
        <ele>250.2</ele>
        <time>2017-04-09T09:12:32Z</time>
      </trkpt>
      <trkpt lat="43.22829" lon="5.64369">
        <ele>250.6</ele>
        <time>2017-04-09T09:12:33Z</time>
      </trkpt>
      <trkpt lat="43.22836" lon="5.64381">
        <ele>251.6</ele>
        <time>2017-04-09T09:12:38Z</time>
      </trkpt>
      <trkpt lat="43.22841" lon="5.64391">
        <ele>252.8</ele>
        <time>2017-04-09T09:12:42Z</time>
      </trkpt>
      <trkpt lat="43.22845" lon="5.64402">
        <ele>253.6</ele>
        <time>2017-04-09T09:12:46Z</time>
      </trkpt>
      <trkpt lat="43.22846" lon="5.64404">
        <ele>254</ele>
        <time>2017-04-09T09:12:47Z</time>
      </trkpt>
      <trkpt lat="43.22855" lon="5.64419">
        <ele>255.2</ele>
        <time>2017-04-09T09:12:53Z</time>
      </trkpt>
      <trkpt lat="43.2286" lon="5.6443">
        <ele>256.6</ele>
        <time>2017-04-09T09:12:57Z</time>
      </trkpt>
      <trkpt lat="43.22865" lon="5.64439">
        <ele>257.2</ele>
        <time>2017-04-09T09:13:01Z</time>
      </trkpt>
      <trkpt lat="43.22866" lon="5.64441">
        <ele>257.6</ele>
        <time>2017-04-09T09:13:02Z</time>
      </trkpt>
      <trkpt lat="43.22872" lon="5.64452">
        <ele>258.8</ele>
        <time>2017-04-09T09:13:06Z</time>
      </trkpt>
      <trkpt lat="43.22877" lon="5.64459">
        <ele>259.2</ele>
        <time>2017-04-09T09:13:09Z</time>
      </trkpt>
      <trkpt lat="43.2288" lon="5.64464">
        <ele>259.8</ele>
        <time>2017-04-09T09:13:11Z</time>
      </trkpt>
      <trkpt lat="43.22887" lon="5.64473">
        <ele>260.8</ele>
        <time>2017-04-09T09:13:15Z</time>
      </trkpt>
      <trkpt lat="43.22892" lon="5.6448">
        <ele>261.8</ele>
        <time>2017-04-09T09:13:18Z</time>
      </trkpt>
      <trkpt lat="43.22893" lon="5.64483">
        <ele>262</ele>
        <time>2017-04-09T09:13:19Z</time>
      </trkpt>
      <trkpt lat="43.22898" lon="5.6449">
        <ele>263</ele>
        <time>2017-04-09T09:13:22Z</time>
      </trkpt>
      <trkpt lat="43.22904" lon="5.64496">
        <ele>264</ele>
        <time>2017-04-09T09:13:25Z</time>
      </trkpt>
      <trkpt lat="43.22908" lon="5.64499">
        <ele>264.4</ele>
        <time>2017-04-09T09:13:27Z</time>
      </trkpt>
      <trkpt lat="43.22915" lon="5.64507">
        <ele>265.2</ele>
        <time>2017-04-09T09:13:31Z</time>
      </trkpt>
      <trkpt lat="43.22918" lon="5.64512">
        <ele>266.2</ele>
        <time>2017-04-09T09:13:33Z</time>
      </trkpt>
      <trkpt lat="43.2292" lon="5.64514">
        <ele>266.6</ele>
        <time>2017-04-09T09:13:34Z</time>
      </trkpt>
      <trkpt lat="43.22927" lon="5.64526">
        <ele>267.6</ele>
        <time>2017-04-09T09:13:39Z</time>
      </trkpt>
      <trkpt lat="43.22929" lon="5.64529">
        <ele>267.8</ele>
        <time>2017-04-09T09:13:40Z</time>
      </trkpt>
      <trkpt lat="43.22931" lon="5.64535">
        <ele>268.4</ele>
        <time>2017-04-09T09:13:42Z</time>
      </trkpt>
      <trkpt lat="43.22936" lon="5.64544">
        <ele>269</ele>
        <time>2017-04-09T09:13:45Z</time>
      </trkpt>
      <trkpt lat="43.22938" lon="5.64551">
        <ele>269.4</ele>
        <time>2017-04-09T09:13:47Z</time>
      </trkpt>
      <trkpt lat="43.22942" lon="5.64564">
        <ele>270</ele>
        <time>2017-04-09T09:13:51Z</time>
      </trkpt>
      <trkpt lat="43.22947" lon="5.64577">
        <ele>270.6</ele>
        <time>2017-04-09T09:13:55Z</time>
      </trkpt>
      <trkpt lat="43.22949" lon="5.64583">
        <ele>271.2</ele>
        <time>2017-04-09T09:13:57Z</time>
      </trkpt>
      <trkpt lat="43.22953" lon="5.64599">
        <ele>271.6</ele>
        <time>2017-04-09T09:14:01Z</time>
      </trkpt>
      <trkpt lat="43.22955" lon="5.64607">
        <ele>272.2</ele>
        <time>2017-04-09T09:14:03Z</time>
      </trkpt>
      <trkpt lat="43.22959" lon="5.64622">
        <ele>272.8</ele>
        <time>2017-04-09T09:14:07Z</time>
      </trkpt>
      <trkpt lat="43.22962" lon="5.6463">
        <ele>273.6</ele>
        <time>2017-04-09T09:14:09Z</time>
      </trkpt>
      <trkpt lat="43.22966" lon="5.64649">
        <ele>274.4</ele>
        <time>2017-04-09T09:14:14Z</time>
      </trkpt>
      <trkpt lat="43.22967" lon="5.64652">
        <ele>274.8</ele>
        <time>2017-04-09T09:14:15Z</time>
      </trkpt>
      <trkpt lat="43.22969" lon="5.64676">
        <ele>275.8</ele>
        <time>2017-04-09T09:14:21Z</time>
      </trkpt>
      <trkpt lat="43.22971" lon="5.64689">
        <ele>277</ele>
        <time>2017-04-09T09:14:25Z</time>
      </trkpt>
      <trkpt lat="43.22974" lon="5.647">
        <ele>277.4</ele>
        <time>2017-04-09T09:14:28Z</time>
      </trkpt>
      <trkpt lat="43.22976" lon="5.64706">
        <ele>278</ele>
        <time>2017-04-09T09:14:30Z</time>
      </trkpt>
      <trkpt lat="43.2298" lon="5.64713">
        <ele>279</ele>
        <time>2017-04-09T09:14:33Z</time>
      </trkpt>
      <trkpt lat="43.22981" lon="5.64716">
        <ele>279.2</ele>
        <time>2017-04-09T09:14:34Z</time>
      </trkpt>
      <trkpt lat="43.22985" lon="5.64725">
        <ele>280.2</ele>
        <time>2017-04-09T09:14:37Z</time>
      </trkpt>
      <trkpt lat="43.22989" lon="5.64732">
        <ele>281.2</ele>
        <time>2017-04-09T09:14:40Z</time>
      </trkpt>
      <trkpt lat="43.22993" lon="5.64743">
        <ele>282.4</ele>
        <time>2017-04-09T09:14:44Z</time>
      </trkpt>
      <trkpt lat="43.22995" lon="5.64751">
        <ele>283.4</ele>
        <time>2017-04-09T09:14:47Z</time>
      </trkpt>
      <trkpt lat="43.22996" lon="5.64753">
        <ele>283.8</ele>
        <time>2017-04-09T09:14:48Z</time>
      </trkpt>
      <trkpt lat="43.22997" lon="5.64758">
        <ele>284.4</ele>
        <time>2017-04-09T09:14:50Z</time>
      </trkpt>
      <trkpt lat="43.23" lon="5.64769">
        <ele>285.6</ele>
        <time>2017-04-09T09:14:54Z</time>
      </trkpt>
      <trkpt lat="43.23004" lon="5.64779">
        <ele>286.6</ele>
        <time>2017-04-09T09:14:58Z</time>
      </trkpt>
      <trkpt lat="43.23008" lon="5.64791">
        <ele>287.8</ele>
        <time>2017-04-09T09:15:02Z</time>
      </trkpt>
      <trkpt lat="43.23012" lon="5.64805">
        <ele>288.8</ele>
        <time>2017-04-09T09:15:07Z</time>
      </trkpt>
      <trkpt lat="43.23017" lon="5.64816">
        <ele>289.8</ele>
        <time>2017-04-09T09:15:11Z</time>
      </trkpt>
      <trkpt lat="43.23018" lon="5.64822">
        <ele>290.6</ele>
        <time>2017-04-09T09:15:13Z</time>
      </trkpt>
      <trkpt lat="43.2302" lon="5.64827">
        <ele>291</ele>
        <time>2017-04-09T09:15:15Z</time>
      </trkpt>
      <trkpt lat="43.23024" lon="5.64837">
        <ele>292.2</ele>
        <time>2017-04-09T09:15:19Z</time>
      </trkpt>
      <trkpt lat="43.23026" lon="5.64845">
        <ele>293</ele>
        <time>2017-04-09T09:15:22Z</time>
      </trkpt>
      <trkpt lat="43.23029" lon="5.6485">
        <ele>293.4</ele>
        <time>2017-04-09T09:15:24Z</time>
      </trkpt>
      <trkpt lat="43.23029" lon="5.64852">
        <ele>293.8</ele>
        <time>2017-04-09T09:15:25Z</time>
      </trkpt>
      <trkpt lat="43.23031" lon="5.64857">
        <ele>294.6</ele>
        <time>2017-04-09T09:15:27Z</time>
      </trkpt>
      <trkpt lat="43.23036" lon="5.64869">
        <ele>295.6</ele>
        <time>2017-04-09T09:15:31Z</time>
      </trkpt>
      <trkpt lat="43.23039" lon="5.6488">
        <ele>296.2</ele>
        <time>2017-04-09T09:15:35Z</time>
      </trkpt>
      <trkpt lat="43.2304" lon="5.64884">
        <ele>296.8</ele>
        <time>2017-04-09T09:15:37Z</time>
      </trkpt>
      <trkpt lat="43.23046" lon="5.64895">
        <ele>297.8</ele>
        <time>2017-04-09T09:15:41Z</time>
      </trkpt>
      <trkpt lat="43.23049" lon="5.64898">
        <ele>298.2</ele>
        <time>2017-04-09T09:15:43Z</time>
      </trkpt>
      <trkpt lat="43.23052" lon="5.64899">
        <ele>298.8</ele>
        <time>2017-04-09T09:15:45Z</time>
      </trkpt>
      <trkpt lat="43.23057" lon="5.64898">
        <ele>300</ele>
        <time>2017-04-09T09:15:48Z</time>
      </trkpt>
      <trkpt lat="43.23059" lon="5.64897">
        <ele>300.4</ele>
        <time>2017-04-09T09:15:49Z</time>
      </trkpt>
      <trkpt lat="43.2306" lon="5.64895">
        <ele>301</ele>
        <time>2017-04-09T09:15:50Z</time>
      </trkpt>
      <trkpt lat="43.23061" lon="5.64893">
        <ele>301.2</ele>
        <time>2017-04-09T09:15:51Z</time>
      </trkpt>
      <trkpt lat="43.23061" lon="5.6489">
        <ele>301.6</ele>
        <time>2017-04-09T09:15:52Z</time>
      </trkpt>
      <trkpt lat="43.23061" lon="5.64885">
        <ele>301.8</ele>
        <time>2017-04-09T09:15:54Z</time>
      </trkpt>
      <trkpt lat="43.23065" lon="5.64863">
        <ele>302.2</ele>
        <time>2017-04-09T09:16:01Z</time>
      </trkpt>
      <trkpt lat="43.23067" lon="5.64853">
        <ele>303.4</ele>
        <time>2017-04-09T09:16:04Z</time>
      </trkpt>
      <trkpt lat="43.2307" lon="5.64845">
        <ele>304</ele>
        <time>2017-04-09T09:16:07Z</time>
      </trkpt>
      <trkpt lat="43.23071" lon="5.64843">
        <ele>304.4</ele>
        <time>2017-04-09T09:16:08Z</time>
      </trkpt>
      <trkpt lat="43.23076" lon="5.64837">
        <ele>305.2</ele>
        <time>2017-04-09T09:16:12Z</time>
      </trkpt>
      <trkpt lat="43.23079" lon="5.64836">
        <ele>305.6</ele>
        <time>2017-04-09T09:16:13Z</time>
      </trkpt>
      <trkpt lat="43.23081" lon="5.64837">
        <ele>306</ele>
        <time>2017-04-09T09:16:14Z</time>
      </trkpt>
      <trkpt lat="43.23084" lon="5.6484">
        <ele>306.6</ele>
        <time>2017-04-09T09:16:16Z</time>
      </trkpt>
      <trkpt lat="43.23087" lon="5.64843">
        <ele>307.2</ele>
        <time>2017-04-09T09:16:18Z</time>
      </trkpt>
      <trkpt lat="43.23089" lon="5.64849">
        <ele>307.4</ele>
        <time>2017-04-09T09:16:20Z</time>
      </trkpt>
      <trkpt lat="43.23092" lon="5.64854">
        <ele>307.8</ele>
        <time>2017-04-09T09:16:22Z</time>
      </trkpt>
      <trkpt lat="43.23098" lon="5.64866">
        <ele>308.6</ele>
        <time>2017-04-09T09:16:26Z</time>
      </trkpt>
      <trkpt lat="43.23105" lon="5.64883">
        <ele>309</ele>
        <time>2017-04-09T09:16:31Z</time>
      </trkpt>
      <trkpt lat="43.23106" lon="5.64883">
        <ele>309</ele>
        <time>2017-04-09T09:16:32Z</time>
      </trkpt>
      <trkpt lat="43.23117" lon="5.64893">
        <ele>310.2</ele>
        <time>2017-04-09T09:16:37Z</time>
      </trkpt>
      <trkpt lat="43.23119" lon="5.64894">
        <ele>310.4</ele>
        <time>2017-04-09T09:16:38Z</time>
      </trkpt>
      <trkpt lat="43.23125" lon="5.649">
        <ele>311.6</ele>
        <time>2017-04-09T09:16:41Z</time>
      </trkpt>
      <trkpt lat="43.23134" lon="5.64909">
        <ele>312.2</ele>
        <time>2017-04-09T09:16:45Z</time>
      </trkpt>
      <trkpt lat="43.23141" lon="5.64919">
        <ele>312.8</ele>
        <time>2017-04-09T09:16:49Z</time>
      </trkpt>
      <trkpt lat="43.23145" lon="5.64925">
        <ele>313.2</ele>
        <time>2017-04-09T09:16:51Z</time>
      </trkpt>
      <trkpt lat="43.23154" lon="5.64938">
        <ele>313.8</ele>
        <time>2017-04-09T09:16:55Z</time>
      </trkpt>
      <trkpt lat="43.23158" lon="5.64945">
        <ele>313.6</ele>
        <time>2017-04-09T09:16:57Z</time>
      </trkpt>
      <trkpt lat="43.23168" lon="5.64969">
        <ele>314.2</ele>
        <time>2017-04-09T09:17:03Z</time>
      </trkpt>
      <trkpt lat="43.2317" lon="5.64982">
        <ele>315</ele>
        <time>2017-04-09T09:17:06Z</time>
      </trkpt>
      <trkpt lat="43.23172" lon="5.6499">
        <ele>315.8</ele>
        <time>2017-04-09T09:17:08Z</time>
      </trkpt>
      <trkpt lat="43.23172" lon="5.65001">
        <ele>316.2</ele>
        <time>2017-04-09T09:17:11Z</time>
      </trkpt>
      <trkpt lat="43.23174" lon="5.65012">
        <ele>316.8</ele>
        <time>2017-04-09T09:17:14Z</time>
      </trkpt>
      <trkpt lat="43.23175" lon="5.65018">
        <ele>317.4</ele>
        <time>2017-04-09T09:17:16Z</time>
      </trkpt>
      <trkpt lat="43.2318" lon="5.65034">
        <ele>318.6</ele>
        <time>2017-04-09T09:17:21Z</time>
      </trkpt>
      <trkpt lat="43.23185" lon="5.65045">
        <ele>319.8</ele>
        <time>2017-04-09T09:17:25Z</time>
      </trkpt>
      <trkpt lat="43.23187" lon="5.65051">
        <ele>320.4</ele>
        <time>2017-04-09T09:17:27Z</time>
      </trkpt>
      <trkpt lat="43.23189" lon="5.65058">
        <ele>320.8</ele>
        <time>2017-04-09T09:17:29Z</time>
      </trkpt>
      <trkpt lat="43.2319" lon="5.65064">
        <ele>321.2</ele>
        <time>2017-04-09T09:17:31Z</time>
      </trkpt>
      <trkpt lat="43.23191" lon="5.6507">
        <ele>322.2</ele>
        <time>2017-04-09T09:17:33Z</time>
      </trkpt>
      <trkpt lat="43.23192" lon="5.65076">
        <ele>322.6</ele>
        <time>2017-04-09T09:17:35Z</time>
      </trkpt>
      <trkpt lat="43.23195" lon="5.65085">
        <ele>323.4</ele>
        <time>2017-04-09T09:17:38Z</time>
      </trkpt>
      <trkpt lat="43.23198" lon="5.65091">
        <ele>323.8</ele>
        <time>2017-04-09T09:17:40Z</time>
      </trkpt>
      <trkpt lat="43.23202" lon="5.65099">
        <ele>324.6</ele>
        <time>2017-04-09T09:17:43Z</time>
      </trkpt>
      <trkpt lat="43.23205" lon="5.65108">
        <ele>325.4</ele>
        <time>2017-04-09T09:17:46Z</time>
      </trkpt>
      <trkpt lat="43.23207" lon="5.65114">
        <ele>325.8</ele>
        <time>2017-04-09T09:17:48Z</time>
      </trkpt>
      <trkpt lat="43.23209" lon="5.65126">
        <ele>326.8</ele>
        <time>2017-04-09T09:17:52Z</time>
      </trkpt>
      <trkpt lat="43.2321" lon="5.65133">
        <ele>327.2</ele>
        <time>2017-04-09T09:17:54Z</time>
      </trkpt>
      <trkpt lat="43.23211" lon="5.65141">
        <ele>328.2</ele>
        <time>2017-04-09T09:17:56Z</time>
      </trkpt>
      <trkpt lat="43.23211" lon="5.65156">
        <ele>328.6</ele>
        <time>2017-04-09T09:18:00Z</time>
      </trkpt>
      <trkpt lat="43.23213" lon="5.65193">
        <ele>328.8</ele>
        <time>2017-04-09T09:18:08Z</time>
      </trkpt>
      <trkpt lat="43.23214" lon="5.65208">
        <ele>329.2</ele>
        <time>2017-04-09T09:18:11Z</time>
      </trkpt>
      <trkpt lat="43.23216" lon="5.6523">
        <ele>329.2</ele>
        <time>2017-04-09T09:18:15Z</time>
      </trkpt>
      <trkpt lat="43.23222" lon="5.65259">
        <ele>330.6</ele>
        <time>2017-04-09T09:18:21Z</time>
      </trkpt>
      <trkpt lat="43.23226" lon="5.6527">
        <ele>331.8</ele>
        <time>2017-04-09T09:18:24Z</time>
      </trkpt>
      <trkpt lat="43.2323" lon="5.65281">
        <ele>332.4</ele>
        <time>2017-04-09T09:18:27Z</time>
      </trkpt>
      <trkpt lat="43.23233" lon="5.65303">
        <ele>332.2</ele>
        <time>2017-04-09T09:18:32Z</time>
      </trkpt>
      <trkpt lat="43.23235" lon="5.65317">
        <ele>332.8</ele>
        <time>2017-04-09T09:18:35Z</time>
      </trkpt>
      <trkpt lat="43.23243" lon="5.65356">
        <ele>333.8</ele>
        <time>2017-04-09T09:18:43Z</time>
      </trkpt>
      <trkpt lat="43.23249" lon="5.65378">
        <ele>335.2</ele>
        <time>2017-04-09T09:18:48Z</time>
      </trkpt>
      <trkpt lat="43.2325" lon="5.65382">
        <ele>335.4</ele>
        <time>2017-04-09T09:18:49Z</time>
      </trkpt>
      <trkpt lat="43.23253" lon="5.654">
        <ele>336.4</ele>
        <time>2017-04-09T09:18:53Z</time>
      </trkpt>
      <trkpt lat="43.23255" lon="5.6541">
        <ele>336.8</ele>
        <time>2017-04-09T09:18:55Z</time>
      </trkpt>
      <trkpt lat="43.23262" lon="5.65432">
        <ele>337.8</ele>
        <time>2017-04-09T09:19:00Z</time>
      </trkpt>
      <trkpt lat="43.23263" lon="5.65435">
        <ele>338.2</ele>
        <time>2017-04-09T09:19:01Z</time>
      </trkpt>
      <trkpt lat="43.23265" lon="5.65443">
        <ele>338.8</ele>
        <time>2017-04-09T09:19:03Z</time>
      </trkpt>
      <trkpt lat="43.23271" lon="5.65455">
        <ele>340</ele>
        <time>2017-04-09T09:19:07Z</time>
      </trkpt>
      <trkpt lat="43.23275" lon="5.65462">
        <ele>341</ele>
        <time>2017-04-09T09:19:10Z</time>
      </trkpt>
      <trkpt lat="43.23277" lon="5.65468">
        <ele>341.6</ele>
        <time>2017-04-09T09:19:12Z</time>
      </trkpt>
      <trkpt lat="43.2328" lon="5.65473">
        <ele>342.2</ele>
        <time>2017-04-09T09:19:14Z</time>
      </trkpt>
      <trkpt lat="43.23284" lon="5.65484">
        <ele>343.2</ele>
        <time>2017-04-09T09:19:18Z</time>
      </trkpt>
      <trkpt lat="43.23285" lon="5.65487">
        <ele>343.4</ele>
        <time>2017-04-09T09:19:19Z</time>
      </trkpt>
      <trkpt lat="43.2329" lon="5.65496">
        <ele>344</ele>
        <time>2017-04-09T09:19:23Z</time>
      </trkpt>
      <trkpt lat="43.23291" lon="5.65499">
        <ele>344.4</ele>
        <time>2017-04-09T09:19:24Z</time>
      </trkpt>
      <trkpt lat="43.23297" lon="5.65508">
        <ele>345.2</ele>
        <time>2017-04-09T09:19:28Z</time>
      </trkpt>
      <trkpt lat="43.233" lon="5.65513">
        <ele>345.4</ele>
        <time>2017-04-09T09:19:30Z</time>
      </trkpt>
      <trkpt lat="43.23305" lon="5.65525">
        <ele>346.6</ele>
        <time>2017-04-09T09:19:34Z</time>
      </trkpt>
      <trkpt lat="43.23306" lon="5.65527">
        <ele>346.6</ele>
        <time>2017-04-09T09:19:35Z</time>
      </trkpt>
      <trkpt lat="43.23311" lon="5.65543">
        <ele>347.8</ele>
        <time>2017-04-09T09:19:40Z</time>
      </trkpt>
      <trkpt lat="43.23314" lon="5.65551">
        <ele>348</ele>
        <time>2017-04-09T09:19:42Z</time>
      </trkpt>
      <trkpt lat="43.23318" lon="5.65563">
        <ele>349</ele>
        <time>2017-04-09T09:19:46Z</time>
      </trkpt>
      <trkpt lat="43.2332" lon="5.65566">
        <ele>349.2</ele>
        <time>2017-04-09T09:19:47Z</time>
      </trkpt>
      <trkpt lat="43.23327" lon="5.65578">
        <ele>350</ele>
        <time>2017-04-09T09:19:51Z</time>
      </trkpt>
      <trkpt lat="43.23331" lon="5.65586">
        <ele>350.8</ele>
        <time>2017-04-09T09:19:54Z</time>
      </trkpt>
      <trkpt lat="43.23332" lon="5.65589">
        <ele>351.2</ele>
        <time>2017-04-09T09:19:55Z</time>
      </trkpt>
      <trkpt lat="43.23339" lon="5.65608">
        <ele>353</ele>
        <time>2017-04-09T09:20:01Z</time>
      </trkpt>
      <trkpt lat="43.23347" lon="5.65628">
        <ele>353.8</ele>
        <time>2017-04-09T09:20:07Z</time>
      </trkpt>
      <trkpt lat="43.23348" lon="5.65632">
        <ele>354.2</ele>
        <time>2017-04-09T09:20:08Z</time>
      </trkpt>
      <trkpt lat="43.23354" lon="5.65651">
        <ele>354.6</ele>
        <time>2017-04-09T09:20:13Z</time>
      </trkpt>
      <trkpt lat="43.2336" lon="5.65672">
        <ele>354.8</ele>
        <time>2017-04-09T09:20:18Z</time>
      </trkpt>
      <trkpt lat="43.2337" lon="5.65701">
        <ele>355</ele>
        <time>2017-04-09T09:20:24Z</time>
      </trkpt>
      <trkpt lat="43.23381" lon="5.65723">
        <ele>355.4</ele>
        <time>2017-04-09T09:20:29Z</time>
      </trkpt>
      <trkpt lat="43.23383" lon="5.65726">
        <ele>355.6</ele>
        <time>2017-04-09T09:20:30Z</time>
      </trkpt>
      <trkpt lat="43.23391" lon="5.65732">
        <ele>356.4</ele>
        <time>2017-04-09T09:20:33Z</time>
      </trkpt>
      <trkpt lat="43.23401" lon="5.65732">
        <ele>356.8</ele>
        <time>2017-04-09T09:20:36Z</time>
      </trkpt>
      <trkpt lat="43.23404" lon="5.65731">
        <ele>357.6</ele>
        <time>2017-04-09T09:20:38Z</time>
      </trkpt>
      <trkpt lat="43.23411" lon="5.65725">
        <ele>358.4</ele>
        <time>2017-04-09T09:20:41Z</time>
      </trkpt>
      <trkpt lat="43.23413" lon="5.65723">
        <ele>358.6</ele>
        <time>2017-04-09T09:20:42Z</time>
      </trkpt>
      <trkpt lat="43.23421" lon="5.65709">
        <ele>360</ele>
        <time>2017-04-09T09:20:47Z</time>
      </trkpt>
      <trkpt lat="43.23423" lon="5.65703">
        <ele>360.4</ele>
        <time>2017-04-09T09:20:49Z</time>
      </trkpt>
      <trkpt lat="43.23432" lon="5.65683">
        <ele>361</ele>
        <time>2017-04-09T09:20:55Z</time>
      </trkpt>
      <trkpt lat="43.23433" lon="5.6568">
        <ele>361.4</ele>
        <time>2017-04-09T09:20:56Z</time>
      </trkpt>
      <trkpt lat="43.23436" lon="5.65673">
        <ele>362</ele>
        <time>2017-04-09T09:20:58Z</time>
      </trkpt>
      <trkpt lat="43.23444" lon="5.65657">
        <ele>363</ele>
        <time>2017-04-09T09:21:03Z</time>
      </trkpt>
      <trkpt lat="43.23445" lon="5.65654">
        <ele>363.2</ele>
        <time>2017-04-09T09:21:04Z</time>
      </trkpt>
      <trkpt lat="43.23452" lon="5.65644">
        <ele>364</ele>
        <time>2017-04-09T09:21:08Z</time>
      </trkpt>
      <trkpt lat="43.23454" lon="5.65642">
        <ele>364.4</ele>
        <time>2017-04-09T09:21:09Z</time>
      </trkpt>
      <trkpt lat="43.2346" lon="5.65632">
        <ele>365.4</ele>
        <time>2017-04-09T09:21:13Z</time>
      </trkpt>
      <trkpt lat="43.23463" lon="5.65627">
        <ele>365.8</ele>
        <time>2017-04-09T09:21:15Z</time>
      </trkpt>
      <trkpt lat="43.23465" lon="5.65622">
        <ele>366.8</ele>
        <time>2017-04-09T09:21:17Z</time>
      </trkpt>
      <trkpt lat="43.23467" lon="5.65616">
        <ele>367.2</ele>
        <time>2017-04-09T09:21:19Z</time>
      </trkpt>
      <trkpt lat="43.23469" lon="5.65614">
        <ele>367.4</ele>
        <time>2017-04-09T09:21:20Z</time>
      </trkpt>
      <trkpt lat="43.2347" lon="5.65612">
        <ele>368</ele>
        <time>2017-04-09T09:21:21Z</time>
      </trkpt>
      <trkpt lat="43.23479" lon="5.65613">
        <ele>368.8</ele>
        <time>2017-04-09T09:21:25Z</time>
      </trkpt>
      <trkpt lat="43.2348" lon="5.65618">
        <ele>369.6</ele>
        <time>2017-04-09T09:21:27Z</time>
      </trkpt>
      <trkpt lat="43.2348" lon="5.6562">
        <ele>369.6</ele>
        <time>2017-04-09T09:21:28Z</time>
      </trkpt>
      <trkpt lat="43.2348" lon="5.65623">
        <ele>370</ele>
        <time>2017-04-09T09:21:29Z</time>
      </trkpt>
      <trkpt lat="43.23479" lon="5.65629">
        <ele>370.6</ele>
        <time>2017-04-09T09:21:31Z</time>
      </trkpt>
      <trkpt lat="43.23478" lon="5.65636">
        <ele>371</ele>
        <time>2017-04-09T09:21:34Z</time>
      </trkpt>
      <trkpt lat="43.23476" lon="5.65642">
        <ele>372</ele>
        <time>2017-04-09T09:21:36Z</time>
      </trkpt>
      <trkpt lat="43.23476" lon="5.65647">
        <ele>372.6</ele>
        <time>2017-04-09T09:21:39Z</time>
      </trkpt>
      <trkpt lat="43.23476" lon="5.65651">
        <ele>373</ele>
        <time>2017-04-09T09:21:40Z</time>
      </trkpt>
      <trkpt lat="43.23475" lon="5.65654">
        <ele>373.4</ele>
        <time>2017-04-09T09:21:41Z</time>
      </trkpt>
      <trkpt lat="43.23475" lon="5.65667">
        <ele>374.2</ele>
        <time>2017-04-09T09:21:45Z</time>
      </trkpt>
      <trkpt lat="43.23475" lon="5.65674">
        <ele>374.6</ele>
        <time>2017-04-09T09:21:47Z</time>
      </trkpt>
      <trkpt lat="43.23476" lon="5.65688">
        <ele>375.4</ele>
        <time>2017-04-09T09:21:51Z</time>
      </trkpt>
      <trkpt lat="43.23477" lon="5.65694">
        <ele>375.8</ele>
        <time>2017-04-09T09:21:53Z</time>
      </trkpt>
      <trkpt lat="43.23479" lon="5.65708">
        <ele>376.8</ele>
        <time>2017-04-09T09:21:57Z</time>
      </trkpt>
      <trkpt lat="43.23479" lon="5.65711">
        <ele>377</ele>
        <time>2017-04-09T09:21:58Z</time>
      </trkpt>
      <trkpt lat="43.23483" lon="5.6573">
        <ele>377.6</ele>
        <time>2017-04-09T09:22:03Z</time>
      </trkpt>
      <trkpt lat="43.23486" lon="5.65741">
        <ele>378.4</ele>
        <time>2017-04-09T09:22:06Z</time>
      </trkpt>
      <trkpt lat="43.23488" lon="5.65752">
        <ele>378.8</ele>
        <time>2017-04-09T09:22:09Z</time>
      </trkpt>
      <trkpt lat="43.2349" lon="5.65763">
        <ele>379.8</ele>
        <time>2017-04-09T09:22:12Z</time>
      </trkpt>
      <trkpt lat="43.23492" lon="5.65774">
        <ele>380.4</ele>
        <time>2017-04-09T09:22:15Z</time>
      </trkpt>
      <trkpt lat="43.23495" lon="5.65785">
        <ele>381.2</ele>
        <time>2017-04-09T09:22:18Z</time>
      </trkpt>
      <trkpt lat="43.23496" lon="5.65793">
        <ele>381.4</ele>
        <time>2017-04-09T09:22:20Z</time>
      </trkpt>
      <trkpt lat="43.23502" lon="5.65816">
        <ele>382.2</ele>
        <time>2017-04-09T09:22:26Z</time>
      </trkpt>
      <trkpt lat="43.23505" lon="5.65828">
        <ele>383</ele>
        <time>2017-04-09T09:22:29Z</time>
      </trkpt>
      <trkpt lat="43.23506" lon="5.65836">
        <ele>383.6</ele>
        <time>2017-04-09T09:22:31Z</time>
      </trkpt>
      <trkpt lat="43.23509" lon="5.65854">
        <ele>384</ele>
        <time>2017-04-09T09:22:35Z</time>
      </trkpt>
      <trkpt lat="43.23514" lon="5.65875">
        <ele>384.8</ele>
        <time>2017-04-09T09:22:40Z</time>
      </trkpt>
      <trkpt lat="43.23516" lon="5.65887">
        <ele>385.4</ele>
        <time>2017-04-09T09:22:43Z</time>
      </trkpt>
      <trkpt lat="43.23517" lon="5.65891">
        <ele>385.8</ele>
        <time>2017-04-09T09:22:44Z</time>
      </trkpt>
      <trkpt lat="43.23522" lon="5.65916">
        <ele>386.6</ele>
        <time>2017-04-09T09:22:50Z</time>
      </trkpt>
      <trkpt lat="43.23524" lon="5.65924">
        <ele>386.8</ele>
        <time>2017-04-09T09:22:52Z</time>
      </trkpt>
      <trkpt lat="43.23527" lon="5.65936">
        <ele>388</ele>
        <time>2017-04-09T09:22:55Z</time>
      </trkpt>
      <trkpt lat="43.23528" lon="5.65944">
        <ele>388.2</ele>
        <time>2017-04-09T09:22:57Z</time>
      </trkpt>
      <trkpt lat="43.23533" lon="5.6596">
        <ele>389.2</ele>
        <time>2017-04-09T09:23:01Z</time>
      </trkpt>
      <trkpt lat="43.23534" lon="5.65965">
        <ele>389.2</ele>
        <time>2017-04-09T09:23:02Z</time>
      </trkpt>
      <trkpt lat="43.23542" lon="5.65997">
        <ele>390.4</ele>
        <time>2017-04-09T09:23:09Z</time>
      </trkpt>
      <trkpt lat="43.23548" lon="5.66027">
        <ele>390.4</ele>
        <time>2017-04-09T09:23:15Z</time>
      </trkpt>
      <trkpt lat="43.23554" lon="5.6605">
        <ele>390.2</ele>
        <time>2017-04-09T09:23:20Z</time>
      </trkpt>
      <trkpt lat="43.23556" lon="5.66053">
        <ele>391.6</ele>
        <time>2017-04-09T09:23:21Z</time>
      </trkpt>
      <trkpt lat="43.23561" lon="5.66058">
        <ele>391.6</ele>
        <time>2017-04-09T09:23:23Z</time>
      </trkpt>
      <trkpt lat="43.23564" lon="5.66058">
        <ele>392.2</ele>
        <time>2017-04-09T09:23:24Z</time>
      </trkpt>
      <trkpt lat="43.23573" lon="5.66048">
        <ele>393.2</ele>
        <time>2017-04-09T09:23:29Z</time>
      </trkpt>
      <trkpt lat="43.23583" lon="5.66033">
        <ele>393.8</ele>
        <time>2017-04-09T09:23:34Z</time>
      </trkpt>
      <trkpt lat="43.23593" lon="5.6601">
        <ele>394</ele>
        <time>2017-04-09T09:23:40Z</time>
      </trkpt>
      <trkpt lat="43.23596" lon="5.6599">
        <ele>394.4</ele>
        <time>2017-04-09T09:23:44Z</time>
      </trkpt>
      <trkpt lat="43.23597" lon="5.6598">
        <ele>394.4</ele>
        <time>2017-04-09T09:23:46Z</time>
      </trkpt>
      <trkpt lat="43.236" lon="5.65955">
        <ele>394.8</ele>
        <time>2017-04-09T09:23:51Z</time>
      </trkpt>
      <trkpt lat="43.23603" lon="5.65924">
        <ele>395.4</ele>
        <time>2017-04-09T09:23:57Z</time>
      </trkpt>
      <trkpt lat="43.23604" lon="5.65915">
        <ele>395.2</ele>
        <time>2017-04-09T09:23:59Z</time>
      </trkpt>
      <trkpt lat="43.23606" lon="5.65887">
        <ele>396.4</ele>
        <time>2017-04-09T09:24:05Z</time>
      </trkpt>
      <trkpt lat="43.23607" lon="5.65883">
        <ele>396.6</ele>
        <time>2017-04-09T09:24:06Z</time>
      </trkpt>
      <trkpt lat="43.23608" lon="5.65864">
        <ele>397.6</ele>
        <time>2017-04-09T09:24:10Z</time>
      </trkpt>
      <trkpt lat="43.23608" lon="5.6585">
        <ele>398</ele>
        <time>2017-04-09T09:24:13Z</time>
      </trkpt>
      <trkpt lat="43.23607" lon="5.65845">
        <ele>398</ele>
        <time>2017-04-09T09:24:14Z</time>
      </trkpt>
      <trkpt lat="43.2361" lon="5.65821">
        <ele>398.8</ele>
        <time>2017-04-09T09:24:19Z</time>
      </trkpt>
      <trkpt lat="43.23611" lon="5.65817">
        <ele>399</ele>
        <time>2017-04-09T09:24:20Z</time>
      </trkpt>
      <trkpt lat="43.23612" lon="5.6579">
        <ele>400</ele>
        <time>2017-04-09T09:24:25Z</time>
      </trkpt>
      <trkpt lat="43.23614" lon="5.6578">
        <ele>400.2</ele>
        <time>2017-04-09T09:24:27Z</time>
      </trkpt>
      <trkpt lat="43.23617" lon="5.65766">
        <ele>400.8</ele>
        <time>2017-04-09T09:24:30Z</time>
      </trkpt>
      <trkpt lat="43.23619" lon="5.65757">
        <ele>401.2</ele>
        <time>2017-04-09T09:24:32Z</time>
      </trkpt>
      <trkpt lat="43.23625" lon="5.65736">
        <ele>402.4</ele>
        <time>2017-04-09T09:24:37Z</time>
      </trkpt>
      <trkpt lat="43.23635" lon="5.65707">
        <ele>403.4</ele>
        <time>2017-04-09T09:24:44Z</time>
      </trkpt>
      <trkpt lat="43.23636" lon="5.65703">
        <ele>403.8</ele>
        <time>2017-04-09T09:24:45Z</time>
      </trkpt>
      <trkpt lat="43.2364" lon="5.65691">
        <ele>404.4</ele>
        <time>2017-04-09T09:24:48Z</time>
      </trkpt>
      <trkpt lat="43.23647" lon="5.6568">
        <ele>404.8</ele>
        <time>2017-04-09T09:24:51Z</time>
      </trkpt>
      <trkpt lat="43.23651" lon="5.65669">
        <ele>405.6</ele>
        <time>2017-04-09T09:24:54Z</time>
      </trkpt>
      <trkpt lat="43.23655" lon="5.65658">
        <ele>406</ele>
        <time>2017-04-09T09:24:57Z</time>
      </trkpt>
      <trkpt lat="43.23663" lon="5.65633">
        <ele>406.2</ele>
        <time>2017-04-09T09:25:03Z</time>
      </trkpt>
      <trkpt lat="43.23665" lon="5.65629">
        <ele>407.2</ele>
        <time>2017-04-09T09:25:04Z</time>
      </trkpt>
      <trkpt lat="43.23669" lon="5.65608">
        <ele>408</ele>
        <time>2017-04-09T09:25:09Z</time>
      </trkpt>
      <trkpt lat="43.2367" lon="5.65604">
        <ele>408.4</ele>
        <time>2017-04-09T09:25:10Z</time>
      </trkpt>
      <trkpt lat="43.23677" lon="5.65584">
        <ele>409.2</ele>
        <time>2017-04-09T09:25:15Z</time>
      </trkpt>
      <trkpt lat="43.2368" lon="5.65576">
        <ele>409.4</ele>
        <time>2017-04-09T09:25:17Z</time>
      </trkpt>
      <trkpt lat="43.23685" lon="5.65561">
        <ele>410.4</ele>
        <time>2017-04-09T09:25:21Z</time>
      </trkpt>
      <trkpt lat="43.23685" lon="5.65556">
        <ele>410.6</ele>
        <time>2017-04-09T09:25:22Z</time>
      </trkpt>
      <trkpt lat="43.23687" lon="5.65543">
        <ele>411.4</ele>
        <time>2017-04-09T09:25:25Z</time>
      </trkpt>
      <trkpt lat="43.2369" lon="5.65527">
        <ele>412.8</ele>
        <time>2017-04-09T09:25:29Z</time>
      </trkpt>
      <trkpt lat="43.2369" lon="5.65509">
        <ele>414</ele>
        <time>2017-04-09T09:25:33Z</time>
      </trkpt>
      <trkpt lat="43.23688" lon="5.65496">
        <ele>414.4</ele>
        <time>2017-04-09T09:25:36Z</time>
      </trkpt>
      <trkpt lat="43.23687" lon="5.65483">
        <ele>415</ele>
        <time>2017-04-09T09:25:39Z</time>
      </trkpt>
      <trkpt lat="43.23688" lon="5.6547">
        <ele>415.8</ele>
        <time>2017-04-09T09:25:42Z</time>
      </trkpt>
      <trkpt lat="43.23688" lon="5.65458">
        <ele>416.2</ele>
        <time>2017-04-09T09:25:45Z</time>
      </trkpt>
      <trkpt lat="43.2369" lon="5.65445">
        <ele>416.8</ele>
        <time>2017-04-09T09:25:48Z</time>
      </trkpt>
      <trkpt lat="43.23691" lon="5.65437">
        <ele>417.4</ele>
        <time>2017-04-09T09:25:50Z</time>
      </trkpt>
      <trkpt lat="43.23695" lon="5.65421">
        <ele>418.6</ele>
        <time>2017-04-09T09:25:54Z</time>
      </trkpt>
      <trkpt lat="43.23696" lon="5.65411">
        <ele>419.8</ele>
        <time>2017-04-09T09:25:57Z</time>
      </trkpt>
      <trkpt lat="43.23697" lon="5.65398">
        <ele>420.2</ele>
        <time>2017-04-09T09:26:00Z</time>
      </trkpt>
      <trkpt lat="43.23698" lon="5.65374">
        <ele>420.6</ele>
        <time>2017-04-09T09:26:05Z</time>
      </trkpt>
      <trkpt lat="43.23699" lon="5.65365">
        <ele>421</ele>
        <time>2017-04-09T09:26:07Z</time>
      </trkpt>
      <trkpt lat="43.23703" lon="5.65344">
        <ele>422</ele>
        <time>2017-04-09T09:26:12Z</time>
      </trkpt>
      <trkpt lat="43.23704" lon="5.6534">
        <ele>422.2</ele>
        <time>2017-04-09T09:26:13Z</time>
      </trkpt>
      <trkpt lat="43.23709" lon="5.65321">
        <ele>423.2</ele>
        <time>2017-04-09T09:26:18Z</time>
      </trkpt>
      <trkpt lat="43.23711" lon="5.65312">
        <ele>423.4</ele>
        <time>2017-04-09T09:26:20Z</time>
      </trkpt>
      <trkpt lat="43.23714" lon="5.653">
        <ele>423.6</ele>
        <time>2017-04-09T09:26:23Z</time>
      </trkpt>
      <trkpt lat="43.2372" lon="5.65283">
        <ele>424.8</ele>
        <time>2017-04-09T09:26:27Z</time>
      </trkpt>
      <trkpt lat="43.23722" lon="5.65279">
        <ele>424.8</ele>
        <time>2017-04-09T09:26:28Z</time>
      </trkpt>
      <trkpt lat="43.23727" lon="5.6524">
        <ele>425.8</ele>
        <time>2017-04-09T09:26:36Z</time>
      </trkpt>
      <trkpt lat="43.2373" lon="5.65232">
        <ele>426.4</ele>
        <time>2017-04-09T09:26:38Z</time>
      </trkpt>
      <trkpt lat="43.23732" lon="5.65228">
        <ele>427</ele>
        <time>2017-04-09T09:26:39Z</time>
      </trkpt>
      <trkpt lat="43.23741" lon="5.6521">
        <ele>428</ele>
        <time>2017-04-09T09:26:44Z</time>
      </trkpt>
      <trkpt lat="43.23749" lon="5.65191">
        <ele>428.8</ele>
        <time>2017-04-09T09:26:49Z</time>
      </trkpt>
      <trkpt lat="43.23752" lon="5.65183">
        <ele>429.2</ele>
        <time>2017-04-09T09:26:51Z</time>
      </trkpt>
      <trkpt lat="43.23757" lon="5.6517">
        <ele>430</ele>
        <time>2017-04-09T09:26:54Z</time>
      </trkpt>
      <trkpt lat="43.23763" lon="5.65149">
        <ele>430.4</ele>
        <time>2017-04-09T09:26:59Z</time>
      </trkpt>
      <trkpt lat="43.23763" lon="5.65144">
        <ele>430.6</ele>
        <time>2017-04-09T09:27:00Z</time>
      </trkpt>
      <trkpt lat="43.2377" lon="5.65118">
        <ele>431.4</ele>
        <time>2017-04-09T09:27:06Z</time>
      </trkpt>
      <trkpt lat="43.23771" lon="5.65114">
        <ele>431.6</ele>
        <time>2017-04-09T09:27:07Z</time>
      </trkpt>
      <trkpt lat="43.23781" lon="5.65081">
        <ele>432.4</ele>
        <time>2017-04-09T09:27:14Z</time>
      </trkpt>
      <trkpt lat="43.23782" lon="5.65077">
        <ele>432.8</ele>
        <time>2017-04-09T09:27:15Z</time>
      </trkpt>
      <trkpt lat="43.23787" lon="5.65056">
        <ele>433.6</ele>
        <time>2017-04-09T09:27:20Z</time>
      </trkpt>
      <trkpt lat="43.23789" lon="5.65035">
        <ele>433.8</ele>
        <time>2017-04-09T09:27:24Z</time>
      </trkpt>
      <trkpt lat="43.23789" lon="5.65024">
        <ele>434.2</ele>
        <time>2017-04-09T09:27:26Z</time>
      </trkpt>
      <trkpt lat="43.2379" lon="5.64995">
        <ele>435</ele>
        <time>2017-04-09T09:27:32Z</time>
      </trkpt>
      <trkpt lat="43.23793" lon="5.6497">
        <ele>436.4</ele>
        <time>2017-04-09T09:27:38Z</time>
      </trkpt>
      <trkpt lat="43.23794" lon="5.64957">
        <ele>437.6</ele>
        <time>2017-04-09T09:27:41Z</time>
      </trkpt>
      <trkpt lat="43.238" lon="5.64927">
        <ele>438.2</ele>
        <time>2017-04-09T09:27:48Z</time>
      </trkpt>
      <trkpt lat="43.23801" lon="5.64924">
        <ele>438.8</ele>
        <time>2017-04-09T09:27:49Z</time>
      </trkpt>
      <trkpt lat="43.23805" lon="5.64914">
        <ele>440</ele>
        <time>2017-04-09T09:27:52Z</time>
      </trkpt>
      <trkpt lat="43.23808" lon="5.64908">
        <ele>440.6</ele>
        <time>2017-04-09T09:27:54Z</time>
      </trkpt>
      <trkpt lat="43.23812" lon="5.649">
        <ele>441</ele>
        <time>2017-04-09T09:27:57Z</time>
      </trkpt>
      <trkpt lat="43.23814" lon="5.64894">
        <ele>442</ele>
        <time>2017-04-09T09:27:59Z</time>
      </trkpt>
      <trkpt lat="43.23815" lon="5.6489">
        <ele>442.4</ele>
        <time>2017-04-09T09:28:00Z</time>
      </trkpt>
      <trkpt lat="43.23819" lon="5.64873">
        <ele>443.6</ele>
        <time>2017-04-09T09:28:05Z</time>
      </trkpt>
      <trkpt lat="43.23822" lon="5.64858">
        <ele>444.6</ele>
        <time>2017-04-09T09:28:09Z</time>
      </trkpt>
      <trkpt lat="43.23822" lon="5.64853">
        <ele>444.8</ele>
        <time>2017-04-09T09:28:10Z</time>
      </trkpt>
      <trkpt lat="43.23825" lon="5.64831">
        <ele>445.2</ele>
        <time>2017-04-09T09:28:15Z</time>
      </trkpt>
      <trkpt lat="43.23831" lon="5.64802">
        <ele>445.6</ele>
        <time>2017-04-09T09:28:21Z</time>
      </trkpt>
      <trkpt lat="43.23839" lon="5.6478">
        <ele>446.2</ele>
        <time>2017-04-09T09:28:26Z</time>
      </trkpt>
      <trkpt lat="43.23841" lon="5.64777">
        <ele>446.4</ele>
        <time>2017-04-09T09:28:27Z</time>
      </trkpt>
      <trkpt lat="43.23845" lon="5.64771">
        <ele>447.2</ele>
        <time>2017-04-09T09:28:29Z</time>
      </trkpt>
      <trkpt lat="43.23853" lon="5.64756">
        <ele>448.6</ele>
        <time>2017-04-09T09:28:34Z</time>
      </trkpt>
      <trkpt lat="43.23862" lon="5.64739">
        <ele>449.6</ele>
        <time>2017-04-09T09:28:40Z</time>
      </trkpt>
      <trkpt lat="43.23863" lon="5.64736">
        <ele>449.8</ele>
        <time>2017-04-09T09:28:41Z</time>
      </trkpt>
      <trkpt lat="43.23872" lon="5.64723">
        <ele>451.2</ele>
        <time>2017-04-09T09:28:46Z</time>
      </trkpt>
      <trkpt lat="43.2388" lon="5.64713">
        <ele>452.8</ele>
        <time>2017-04-09T09:28:50Z</time>
      </trkpt>
      <trkpt lat="43.23888" lon="5.64704">
        <ele>453.6</ele>
        <time>2017-04-09T09:28:54Z</time>
      </trkpt>
      <trkpt lat="43.2389" lon="5.64702">
        <ele>453.8</ele>
        <time>2017-04-09T09:28:55Z</time>
      </trkpt>
      <trkpt lat="43.23899" lon="5.64693">
        <ele>454.8</ele>
        <time>2017-04-09T09:28:59Z</time>
      </trkpt>
      <trkpt lat="43.23906" lon="5.64686">
        <ele>455.4</ele>
        <time>2017-04-09T09:29:02Z</time>
      </trkpt>
      <trkpt lat="43.2391" lon="5.64681">
        <ele>456</ele>
        <time>2017-04-09T09:29:04Z</time>
      </trkpt>
      <trkpt lat="43.23921" lon="5.64663">
        <ele>456.4</ele>
        <time>2017-04-09T09:29:09Z</time>
      </trkpt>
      <trkpt lat="43.23931" lon="5.6465">
        <ele>457</ele>
        <time>2017-04-09T09:29:13Z</time>
      </trkpt>
      <trkpt lat="43.2394" lon="5.64642">
        <ele>457.2</ele>
        <time>2017-04-09T09:29:16Z</time>
      </trkpt>
      <trkpt lat="43.23955" lon="5.64624">
        <ele>458.2</ele>
        <time>2017-04-09T09:29:22Z</time>
      </trkpt>
      <trkpt lat="43.23957" lon="5.64622">
        <ele>458.2</ele>
        <time>2017-04-09T09:29:23Z</time>
      </trkpt>
      <trkpt lat="43.23966" lon="5.6461">
        <ele>459.2</ele>
        <time>2017-04-09T09:29:27Z</time>
      </trkpt>
      <trkpt lat="43.23974" lon="5.64603">
        <ele>459.4</ele>
        <time>2017-04-09T09:29:30Z</time>
      </trkpt>
      <trkpt lat="43.23981" lon="5.64596">
        <ele>460.4</ele>
        <time>2017-04-09T09:29:33Z</time>
      </trkpt>
      <trkpt lat="43.2399" lon="5.64586">
        <ele>461.2</ele>
        <time>2017-04-09T09:29:37Z</time>
      </trkpt>
      <trkpt lat="43.23992" lon="5.64584">
        <ele>461.6</ele>
        <time>2017-04-09T09:29:38Z</time>
      </trkpt>
      <trkpt lat="43.23998" lon="5.64577">
        <ele>462.8</ele>
        <time>2017-04-09T09:29:41Z</time>
      </trkpt>
      <trkpt lat="43.24002" lon="5.64569">
        <ele>463.6</ele>
        <time>2017-04-09T09:29:44Z</time>
      </trkpt>
      <trkpt lat="43.24004" lon="5.64567">
        <ele>464.2</ele>
        <time>2017-04-09T09:29:45Z</time>
      </trkpt>
      <trkpt lat="43.24007" lon="5.64561">
        <ele>465.4</ele>
        <time>2017-04-09T09:29:47Z</time>
      </trkpt>
      <trkpt lat="43.24011" lon="5.64553">
        <ele>465.4</ele>
        <time>2017-04-09T09:29:50Z</time>
      </trkpt>
      <trkpt lat="43.24016" lon="5.64527">
        <ele>466</ele>
        <time>2017-04-09T09:29:57Z</time>
      </trkpt>
      <trkpt lat="43.24011" lon="5.64507">
        <ele>466.4</ele>
        <time>2017-04-09T09:30:02Z</time>
      </trkpt>
      <trkpt lat="43.24008" lon="5.64504">
        <ele>466.6</ele>
        <time>2017-04-09T09:30:03Z</time>
      </trkpt>
      <trkpt lat="43.24002" lon="5.64495">
        <ele>467.6</ele>
        <time>2017-04-09T09:30:06Z</time>
      </trkpt>
      <trkpt lat="43.23995" lon="5.64488">
        <ele>468</ele>
        <time>2017-04-09T09:30:09Z</time>
      </trkpt>
      <trkpt lat="43.23992" lon="5.64483">
        <ele>468.6</ele>
        <time>2017-04-09T09:30:11Z</time>
      </trkpt>
      <trkpt lat="43.23985" lon="5.64473">
        <ele>469.6</ele>
        <time>2017-04-09T09:30:15Z</time>
      </trkpt>
      <trkpt lat="43.23984" lon="5.6447">
        <ele>470</ele>
        <time>2017-04-09T09:30:16Z</time>
      </trkpt>
      <trkpt lat="43.23979" lon="5.64454">
        <ele>471.2</ele>
        <time>2017-04-09T09:30:21Z</time>
      </trkpt>
      <trkpt lat="43.23978" lon="5.64432">
        <ele>472.2</ele>
        <time>2017-04-09T09:30:27Z</time>
      </trkpt>
      <trkpt lat="43.23978" lon="5.64429">
        <ele>472.8</ele>
        <time>2017-04-09T09:30:28Z</time>
      </trkpt>
      <trkpt lat="43.23978" lon="5.6442">
        <ele>473.4</ele>
        <time>2017-04-09T09:30:31Z</time>
      </trkpt>
      <trkpt lat="43.23978" lon="5.64412">
        <ele>474.4</ele>
        <time>2017-04-09T09:30:34Z</time>
      </trkpt>
      <trkpt lat="43.23976" lon="5.64404">
        <ele>475.4</ele>
        <time>2017-04-09T09:30:37Z</time>
      </trkpt>
      <trkpt lat="43.23974" lon="5.64403">
        <ele>475.6</ele>
        <time>2017-04-09T09:30:38Z</time>
      </trkpt>
      <trkpt lat="43.23972" lon="5.64401">
        <ele>475.6</ele>
        <time>2017-04-09T09:30:39Z</time>
      </trkpt>
      <trkpt lat="43.23962" lon="5.64398">
        <ele>475.4</ele>
        <time>2017-04-09T09:30:45Z</time>
      </trkpt>
      <trkpt lat="43.23958" lon="5.64397">
        <ele>475</ele>
        <time>2017-04-09T09:34:27Z</time>
      </trkpt>
      <trkpt lat="43.2395" lon="5.64394">
        <ele>474.6</ele>
        <time>2017-04-09T09:34:31Z</time>
      </trkpt>
      <trkpt lat="43.23944" lon="5.64393">
        <ele>474.4</ele>
        <time>2017-04-09T09:34:33Z</time>
      </trkpt>
      <trkpt lat="43.23935" lon="5.64394">
        <ele>473.6</ele>
        <time>2017-04-09T09:35:00Z</time>
      </trkpt>
      <trkpt lat="43.23933" lon="5.64395">
        <ele>473.2</ele>
        <time>2017-04-09T09:35:01Z</time>
      </trkpt>
      <trkpt lat="43.23929" lon="5.64397">
        <ele>473.2</ele>
        <time>2017-04-09T09:35:02Z</time>
      </trkpt>
      <trkpt lat="43.23921" lon="5.644">
        <ele>472.2</ele>
        <time>2017-04-09T09:35:04Z</time>
      </trkpt>
      <trkpt lat="43.23916" lon="5.64402">
        <ele>471.4</ele>
        <time>2017-04-09T09:35:05Z</time>
      </trkpt>
      <trkpt lat="43.23911" lon="5.64404">
        <ele>470.2</ele>
        <time>2017-04-09T09:35:06Z</time>
      </trkpt>
      <trkpt lat="43.23902" lon="5.64409">
        <ele>468.6</ele>
        <time>2017-04-09T09:35:08Z</time>
      </trkpt>
      <trkpt lat="43.23897" lon="5.64408">
        <ele>467.8</ele>
        <time>2017-04-09T09:35:09Z</time>
      </trkpt>
      <trkpt lat="43.23892" lon="5.64406">
        <ele>467.4</ele>
        <time>2017-04-09T09:35:10Z</time>
      </trkpt>
      <trkpt lat="43.23888" lon="5.64404">
        <ele>466.6</ele>
        <time>2017-04-09T09:35:11Z</time>
      </trkpt>
      <trkpt lat="43.23882" lon="5.64401">
        <ele>465.8</ele>
        <time>2017-04-09T09:35:12Z</time>
      </trkpt>
      <trkpt lat="43.23877" lon="5.64399">
        <ele>464.8</ele>
        <time>2017-04-09T09:35:13Z</time>
      </trkpt>
      <trkpt lat="43.23871" lon="5.64395">
        <ele>464</ele>
        <time>2017-04-09T09:35:14Z</time>
      </trkpt>
      <trkpt lat="43.23866" lon="5.64391">
        <ele>463</ele>
        <time>2017-04-09T09:35:15Z</time>
      </trkpt>
      <trkpt lat="43.23862" lon="5.64387">
        <ele>462</ele>
        <time>2017-04-09T09:35:16Z</time>
      </trkpt>
      <trkpt lat="43.23858" lon="5.64383">
        <ele>461.4</ele>
        <time>2017-04-09T09:35:17Z</time>
      </trkpt>
      <trkpt lat="43.23849" lon="5.64376">
        <ele>460.8</ele>
        <time>2017-04-09T09:35:19Z</time>
      </trkpt>
      <trkpt lat="43.23845" lon="5.64373">
        <ele>460</ele>
        <time>2017-04-09T09:35:20Z</time>
      </trkpt>
      <trkpt lat="43.23841" lon="5.64371">
        <ele>459.2</ele>
        <time>2017-04-09T09:35:21Z</time>
      </trkpt>
      <trkpt lat="43.23836" lon="5.6437">
        <ele>458.2</ele>
        <time>2017-04-09T09:35:22Z</time>
      </trkpt>
      <trkpt lat="43.23831" lon="5.6437">
        <ele>456.8</ele>
        <time>2017-04-09T09:35:23Z</time>
      </trkpt>
      <trkpt lat="43.23826" lon="5.6437">
        <ele>455</ele>
        <time>2017-04-09T09:35:24Z</time>
      </trkpt>
      <trkpt lat="43.23821" lon="5.6437">
        <ele>454.4</ele>
        <time>2017-04-09T09:35:25Z</time>
      </trkpt>
      <trkpt lat="43.23817" lon="5.64371">
        <ele>453.8</ele>
        <time>2017-04-09T09:35:26Z</time>
      </trkpt>
      <trkpt lat="43.2381" lon="5.64369">
        <ele>452.6</ele>
        <time>2017-04-09T09:35:28Z</time>
      </trkpt>
      <trkpt lat="43.23806" lon="5.64366">
        <ele>452</ele>
        <time>2017-04-09T09:35:29Z</time>
      </trkpt>
      <trkpt lat="43.23803" lon="5.64363">
        <ele>451.4</ele>
        <time>2017-04-09T09:35:30Z</time>
      </trkpt>
      <trkpt lat="43.23798" lon="5.64359">
        <ele>450</ele>
        <time>2017-04-09T09:35:32Z</time>
      </trkpt>
      <trkpt lat="43.23792" lon="5.64356">
        <ele>449</ele>
        <time>2017-04-09T09:35:34Z</time>
      </trkpt>
      <trkpt lat="43.23784" lon="5.64354">
        <ele>447</ele>
        <time>2017-04-09T09:35:36Z</time>
      </trkpt>
      <trkpt lat="43.23779" lon="5.64353">
        <ele>445</ele>
        <time>2017-04-09T09:35:37Z</time>
      </trkpt>
      <trkpt lat="43.23771" lon="5.64354">
        <ele>444</ele>
        <time>2017-04-09T09:35:38Z</time>
      </trkpt>
      <trkpt lat="43.23767" lon="5.64354">
        <ele>442.8</ele>
        <time>2017-04-09T09:35:39Z</time>
      </trkpt>
      <trkpt lat="43.23761" lon="5.64352">
        <ele>441.6</ele>
        <time>2017-04-09T09:35:40Z</time>
      </trkpt>
      <trkpt lat="43.23755" lon="5.64351">
        <ele>440.4</ele>
        <time>2017-04-09T09:35:41Z</time>
      </trkpt>
      <trkpt lat="43.23749" lon="5.6435">
        <ele>439.2</ele>
        <time>2017-04-09T09:35:42Z</time>
      </trkpt>
      <trkpt lat="43.23738" lon="5.64347">
        <ele>437.4</ele>
        <time>2017-04-09T09:35:44Z</time>
      </trkpt>
      <trkpt lat="43.2373" lon="5.64343">
        <ele>435.8</ele>
        <time>2017-04-09T09:35:46Z</time>
      </trkpt>
      <trkpt lat="43.23725" lon="5.64342">
        <ele>434.8</ele>
        <time>2017-04-09T09:35:47Z</time>
      </trkpt>
      <trkpt lat="43.2372" lon="5.64343">
        <ele>433.6</ele>
        <time>2017-04-09T09:35:48Z</time>
      </trkpt>
      <trkpt lat="43.23715" lon="5.64343">
        <ele>432.6</ele>
        <time>2017-04-09T09:35:49Z</time>
      </trkpt>
      <trkpt lat="43.2371" lon="5.64342">
        <ele>432.2</ele>
        <time>2017-04-09T09:35:50Z</time>
      </trkpt>
      <trkpt lat="43.23705" lon="5.6434">
        <ele>431</ele>
        <time>2017-04-09T09:35:51Z</time>
      </trkpt>
      <trkpt lat="43.23693" lon="5.64337">
        <ele>428.2</ele>
        <time>2017-04-09T09:35:53Z</time>
      </trkpt>
      <trkpt lat="43.23687" lon="5.64335">
        <ele>427</ele>
        <time>2017-04-09T09:35:54Z</time>
      </trkpt>
      <trkpt lat="43.23682" lon="5.64331">
        <ele>425.6</ele>
        <time>2017-04-09T09:35:55Z</time>
      </trkpt>
      <trkpt lat="43.23677" lon="5.64327">
        <ele>424.2</ele>
        <time>2017-04-09T09:35:56Z</time>
      </trkpt>
      <trkpt lat="43.23672" lon="5.64323">
        <ele>422.8</ele>
        <time>2017-04-09T09:35:57Z</time>
      </trkpt>
      <trkpt lat="43.23668" lon="5.64321">
        <ele>422</ele>
        <time>2017-04-09T09:35:58Z</time>
      </trkpt>
      <trkpt lat="43.23664" lon="5.64318">
        <ele>421.6</ele>
        <time>2017-04-09T09:35:59Z</time>
      </trkpt>
      <trkpt lat="43.2365" lon="5.64313">
        <ele>420</ele>
        <time>2017-04-09T09:36:02Z</time>
      </trkpt>
      <trkpt lat="43.23645" lon="5.64312">
        <ele>417.6</ele>
        <time>2017-04-09T09:36:03Z</time>
      </trkpt>
      <trkpt lat="43.23635" lon="5.64309">
        <ele>415.6</ele>
        <time>2017-04-09T09:36:05Z</time>
      </trkpt>
      <trkpt lat="43.23627" lon="5.64303">
        <ele>413.6</ele>
        <time>2017-04-09T09:36:07Z</time>
      </trkpt>
      <trkpt lat="43.23624" lon="5.64299">
        <ele>412.8</ele>
        <time>2017-04-09T09:36:08Z</time>
      </trkpt>
      <trkpt lat="43.23621" lon="5.64293">
        <ele>411.8</ele>
        <time>2017-04-09T09:36:09Z</time>
      </trkpt>
      <trkpt lat="43.23615" lon="5.64282">
        <ele>410</ele>
        <time>2017-04-09T09:36:11Z</time>
      </trkpt>
      <trkpt lat="43.23611" lon="5.64276">
        <ele>409</ele>
        <time>2017-04-09T09:36:12Z</time>
      </trkpt>
      <trkpt lat="43.236" lon="5.64266">
        <ele>407.2</ele>
        <time>2017-04-09T09:36:14Z</time>
      </trkpt>
      <trkpt lat="43.23594" lon="5.6426">
        <ele>406</ele>
        <time>2017-04-09T09:36:15Z</time>
      </trkpt>
      <trkpt lat="43.23581" lon="5.64249">
        <ele>403.8</ele>
        <time>2017-04-09T09:36:17Z</time>
      </trkpt>
      <trkpt lat="43.2357" lon="5.64237">
        <ele>402</ele>
        <time>2017-04-09T09:36:19Z</time>
      </trkpt>
      <trkpt lat="43.23565" lon="5.64231">
        <ele>401.6</ele>
        <time>2017-04-09T09:36:20Z</time>
      </trkpt>
      <trkpt lat="43.23561" lon="5.64224">
        <ele>401.4</ele>
        <time>2017-04-09T09:36:21Z</time>
      </trkpt>
      <trkpt lat="43.23552" lon="5.64206">
        <ele>401.6</ele>
        <time>2017-04-09T09:36:24Z</time>
      </trkpt>
      <trkpt lat="43.23541" lon="5.64194">
        <ele>402.2</ele>
        <time>2017-04-09T09:36:27Z</time>
      </trkpt>
      <trkpt lat="43.23537" lon="5.64189">
        <ele>402</ele>
        <time>2017-04-09T09:36:28Z</time>
      </trkpt>
      <trkpt lat="43.23534" lon="5.64184">
        <ele>400.8</ele>
        <time>2017-04-09T09:36:29Z</time>
      </trkpt>
      <trkpt lat="43.23531" lon="5.64171">
        <ele>399.4</ele>
        <time>2017-04-09T09:36:31Z</time>
      </trkpt>
      <trkpt lat="43.23526" lon="5.6415">
        <ele>398.8</ele>
        <time>2017-04-09T09:36:34Z</time>
      </trkpt>
      <trkpt lat="43.23524" lon="5.64146">
        <ele>398.2</ele>
        <time>2017-04-09T09:36:35Z</time>
      </trkpt>
      <trkpt lat="43.23514" lon="5.64138">
        <ele>396.6</ele>
        <time>2017-04-09T09:36:38Z</time>
      </trkpt>
      <trkpt lat="43.23509" lon="5.64135">
        <ele>395.6</ele>
        <time>2017-04-09T09:36:39Z</time>
      </trkpt>
      <trkpt lat="43.23505" lon="5.6413">
        <ele>394.4</ele>
        <time>2017-04-09T09:36:40Z</time>
      </trkpt>
      <trkpt lat="43.23497" lon="5.6412">
        <ele>392.4</ele>
        <time>2017-04-09T09:36:42Z</time>
      </trkpt>
      <trkpt lat="43.23492" lon="5.64114">
        <ele>391</ele>
        <time>2017-04-09T09:36:43Z</time>
      </trkpt>
      <trkpt lat="43.23487" lon="5.64108">
        <ele>389.8</ele>
        <time>2017-04-09T09:36:44Z</time>
      </trkpt>
      <trkpt lat="43.23478" lon="5.64096">
        <ele>388.6</ele>
        <time>2017-04-09T09:36:46Z</time>
      </trkpt>
      <trkpt lat="43.23474" lon="5.64091">
        <ele>388</ele>
        <time>2017-04-09T09:36:47Z</time>
      </trkpt>
      <trkpt lat="43.2347" lon="5.64086">
        <ele>387.4</ele>
        <time>2017-04-09T09:36:48Z</time>
      </trkpt>
      <trkpt lat="43.23467" lon="5.64079">
        <ele>386.2</ele>
        <time>2017-04-09T09:36:49Z</time>
      </trkpt>
      <trkpt lat="43.2346" lon="5.64068">
        <ele>384.4</ele>
        <time>2017-04-09T09:36:51Z</time>
      </trkpt>
      <trkpt lat="43.23454" lon="5.64063">
        <ele>383.6</ele>
        <time>2017-04-09T09:36:52Z</time>
      </trkpt>
      <trkpt lat="43.23448" lon="5.64059">
        <ele>382.4</ele>
        <time>2017-04-09T09:36:53Z</time>
      </trkpt>
      <trkpt lat="43.23443" lon="5.64053">
        <ele>381.2</ele>
        <time>2017-04-09T09:36:54Z</time>
      </trkpt>
      <trkpt lat="43.23439" lon="5.64047">
        <ele>380</ele>
        <time>2017-04-09T09:36:55Z</time>
      </trkpt>
      <trkpt lat="43.23435" lon="5.6404">
        <ele>379.4</ele>
        <time>2017-04-09T09:36:56Z</time>
      </trkpt>
      <trkpt lat="43.23431" lon="5.64032">
        <ele>378.2</ele>
        <time>2017-04-09T09:36:57Z</time>
      </trkpt>
      <trkpt lat="43.23423" lon="5.64016">
        <ele>376.8</ele>
        <time>2017-04-09T09:36:59Z</time>
      </trkpt>
      <trkpt lat="43.23417" lon="5.64001">
        <ele>377.2</ele>
        <time>2017-04-09T09:37:01Z</time>
      </trkpt>
      <trkpt lat="43.23408" lon="5.63963">
        <ele>377.8</ele>
        <time>2017-04-09T09:37:06Z</time>
      </trkpt>
      <trkpt lat="43.23405" lon="5.6395">
        <ele>377</ele>
        <time>2017-04-09T09:37:08Z</time>
      </trkpt>
      <trkpt lat="43.23398" lon="5.63939">
        <ele>377</ele>
        <time>2017-04-09T09:37:10Z</time>
      </trkpt>
      <trkpt lat="43.23384" lon="5.63922">
        <ele>376.6</ele>
        <time>2017-04-09T09:37:14Z</time>
      </trkpt>
      <trkpt lat="43.23379" lon="5.63911">
        <ele>376</ele>
        <time>2017-04-09T09:37:16Z</time>
      </trkpt>
      <trkpt lat="43.23376" lon="5.63905">
        <ele>375.2</ele>
        <time>2017-04-09T09:37:17Z</time>
      </trkpt>
      <trkpt lat="43.2337" lon="5.63892">
        <ele>374.4</ele>
        <time>2017-04-09T09:37:19Z</time>
      </trkpt>
      <trkpt lat="43.23367" lon="5.63886">
        <ele>373.6</ele>
        <time>2017-04-09T09:37:20Z</time>
      </trkpt>
      <trkpt lat="43.23363" lon="5.63872">
        <ele>372.6</ele>
        <time>2017-04-09T09:37:22Z</time>
      </trkpt>
      <trkpt lat="43.23361" lon="5.63863">
        <ele>371.6</ele>
        <time>2017-04-09T09:37:23Z</time>
      </trkpt>
      <trkpt lat="43.23359" lon="5.63855">
        <ele>370.8</ele>
        <time>2017-04-09T09:37:24Z</time>
      </trkpt>
      <trkpt lat="43.23358" lon="5.63847">
        <ele>370.2</ele>
        <time>2017-04-09T09:37:25Z</time>
      </trkpt>
      <trkpt lat="43.23357" lon="5.63839">
        <ele>370</ele>
        <time>2017-04-09T09:37:26Z</time>
      </trkpt>
      <trkpt lat="43.23358" lon="5.63831">
        <ele>369.2</ele>
        <time>2017-04-09T09:37:27Z</time>
      </trkpt>
      <trkpt lat="43.23359" lon="5.63823">
        <ele>368.4</ele>
        <time>2017-04-09T09:37:28Z</time>
      </trkpt>
      <trkpt lat="43.2336" lon="5.63814">
        <ele>367.4</ele>
        <time>2017-04-09T09:37:29Z</time>
      </trkpt>
      <trkpt lat="43.23364" lon="5.63799">
        <ele>366.2</ele>
        <time>2017-04-09T09:37:31Z</time>
      </trkpt>
      <trkpt lat="43.23365" lon="5.63791">
        <ele>366</ele>
        <time>2017-04-09T09:37:32Z</time>
      </trkpt>
      <trkpt lat="43.23361" lon="5.63764">
        <ele>364.4</ele>
        <time>2017-04-09T09:37:35Z</time>
      </trkpt>
      <trkpt lat="43.23359" lon="5.63747">
        <ele>363.2</ele>
        <time>2017-04-09T09:37:37Z</time>
      </trkpt>
      <trkpt lat="43.23357" lon="5.6374">
        <ele>363</ele>
        <time>2017-04-09T09:37:38Z</time>
      </trkpt>
      <trkpt lat="43.2335" lon="5.63727">
        <ele>361.2</ele>
        <time>2017-04-09T09:37:40Z</time>
      </trkpt>
      <trkpt lat="43.23345" lon="5.63722">
        <ele>360.2</ele>
        <time>2017-04-09T09:37:41Z</time>
      </trkpt>
      <trkpt lat="43.2334" lon="5.63716">
        <ele>359</ele>
        <time>2017-04-09T09:37:42Z</time>
      </trkpt>
      <trkpt lat="43.23334" lon="5.63709">
        <ele>357.4</ele>
        <time>2017-04-09T09:37:43Z</time>
      </trkpt>
      <trkpt lat="43.23328" lon="5.63703">
        <ele>355.8</ele>
        <time>2017-04-09T09:37:44Z</time>
      </trkpt>
      <trkpt lat="43.23321" lon="5.63695">
        <ele>354.2</ele>
        <time>2017-04-09T09:37:45Z</time>
      </trkpt>
      <trkpt lat="43.23315" lon="5.63688">
        <ele>351.2</ele>
        <time>2017-04-09T09:37:46Z</time>
      </trkpt>
      <trkpt lat="43.23303" lon="5.63676">
        <ele>349.8</ele>
        <time>2017-04-09T09:37:48Z</time>
      </trkpt>
      <trkpt lat="43.23297" lon="5.6367">
        <ele>349.2</ele>
        <time>2017-04-09T09:37:49Z</time>
      </trkpt>
      <trkpt lat="43.23292" lon="5.63663">
        <ele>348.2</ele>
        <time>2017-04-09T09:37:50Z</time>
      </trkpt>
      <trkpt lat="43.23284" lon="5.63648">
        <ele>346.8</ele>
        <time>2017-04-09T09:37:52Z</time>
      </trkpt>
      <trkpt lat="43.23279" lon="5.6364">
        <ele>345.8</ele>
        <time>2017-04-09T09:37:53Z</time>
      </trkpt>
      <trkpt lat="43.23276" lon="5.63631">
        <ele>345</ele>
        <time>2017-04-09T09:37:54Z</time>
      </trkpt>
      <trkpt lat="43.23271" lon="5.63625">
        <ele>344.2</ele>
        <time>2017-04-09T09:37:55Z</time>
      </trkpt>
      <trkpt lat="43.23266" lon="5.63617">
        <ele>343.6</ele>
        <time>2017-04-09T09:37:56Z</time>
      </trkpt>
      <trkpt lat="43.2326" lon="5.63611">
        <ele>342.6</ele>
        <time>2017-04-09T09:37:57Z</time>
      </trkpt>
      <trkpt lat="43.23253" lon="5.63604">
        <ele>341.4</ele>
        <time>2017-04-09T09:37:58Z</time>
      </trkpt>
      <trkpt lat="43.23246" lon="5.63596">
        <ele>339.6</ele>
        <time>2017-04-09T09:37:59Z</time>
      </trkpt>
      <trkpt lat="43.2324" lon="5.63588">
        <ele>338.2</ele>
        <time>2017-04-09T09:38:00Z</time>
      </trkpt>
      <trkpt lat="43.23233" lon="5.6358">
        <ele>336.8</ele>
        <time>2017-04-09T09:38:01Z</time>
      </trkpt>
      <trkpt lat="43.23226" lon="5.63572">
        <ele>336.2</ele>
        <time>2017-04-09T09:38:02Z</time>
      </trkpt>
      <trkpt lat="43.23219" lon="5.63564">
        <ele>335</ele>
        <time>2017-04-09T09:38:03Z</time>
      </trkpt>
      <trkpt lat="43.23204" lon="5.6355">
        <ele>332.8</ele>
        <time>2017-04-09T09:38:05Z</time>
      </trkpt>
      <trkpt lat="43.23196" lon="5.63543">
        <ele>331.6</ele>
        <time>2017-04-09T09:38:06Z</time>
      </trkpt>
      <trkpt lat="43.23189" lon="5.63535">
        <ele>330.6</ele>
        <time>2017-04-09T09:38:07Z</time>
      </trkpt>
      <trkpt lat="43.23181" lon="5.63529">
        <ele>329.4</ele>
        <time>2017-04-09T09:38:08Z</time>
      </trkpt>
      <trkpt lat="43.23165" lon="5.63516">
        <ele>327.8</ele>
        <time>2017-04-09T09:38:10Z</time>
      </trkpt>
      <trkpt lat="43.23148" lon="5.63504">
        <ele>326</ele>
        <time>2017-04-09T09:38:12Z</time>
      </trkpt>
      <trkpt lat="43.23133" lon="5.63497">
        <ele>326.2</ele>
        <time>2017-04-09T09:38:14Z</time>
      </trkpt>
      <trkpt lat="43.23125" lon="5.63494">
        <ele>325.6</ele>
        <time>2017-04-09T09:38:15Z</time>
      </trkpt>
      <trkpt lat="43.2311" lon="5.63491">
        <ele>324.2</ele>
        <time>2017-04-09T09:38:17Z</time>
      </trkpt>
      <trkpt lat="43.23102" lon="5.63492">
        <ele>323.4</ele>
        <time>2017-04-09T09:38:18Z</time>
      </trkpt>
      <trkpt lat="43.23094" lon="5.63492">
        <ele>322.2</ele>
        <time>2017-04-09T09:38:19Z</time>
      </trkpt>
      <trkpt lat="43.23086" lon="5.63492">
        <ele>320.4</ele>
        <time>2017-04-09T09:38:20Z</time>
      </trkpt>
      <trkpt lat="43.23077" lon="5.63492">
        <ele>319.2</ele>
        <time>2017-04-09T09:38:21Z</time>
      </trkpt>
      <trkpt lat="43.23061" lon="5.6349">
        <ele>317.6</ele>
        <time>2017-04-09T09:38:23Z</time>
      </trkpt>
      <trkpt lat="43.23054" lon="5.63487">
        <ele>316.6</ele>
        <time>2017-04-09T09:38:24Z</time>
      </trkpt>
      <trkpt lat="43.23047" lon="5.63484">
        <ele>316.2</ele>
        <time>2017-04-09T09:38:25Z</time>
      </trkpt>
      <trkpt lat="43.23041" lon="5.6348">
        <ele>316</ele>
        <time>2017-04-09T09:38:26Z</time>
      </trkpt>
      <trkpt lat="43.23028" lon="5.63473">
        <ele>314.6</ele>
        <time>2017-04-09T09:38:28Z</time>
      </trkpt>
      <trkpt lat="43.23022" lon="5.63469">
        <ele>313</ele>
        <time>2017-04-09T09:38:29Z</time>
      </trkpt>
      <trkpt lat="43.23017" lon="5.63463">
        <ele>311.6</ele>
        <time>2017-04-09T09:38:30Z</time>
      </trkpt>
      <trkpt lat="43.23012" lon="5.63457">
        <ele>310.8</ele>
        <time>2017-04-09T09:38:31Z</time>
      </trkpt>
      <trkpt lat="43.23007" lon="5.63451">
        <ele>310.6</ele>
        <time>2017-04-09T09:38:32Z</time>
      </trkpt>
      <trkpt lat="43.23003" lon="5.63444">
        <ele>310.2</ele>
        <time>2017-04-09T09:38:33Z</time>
      </trkpt>
      <trkpt lat="43.23" lon="5.63438">
        <ele>309.4</ele>
        <time>2017-04-09T09:38:34Z</time>
      </trkpt>
      <trkpt lat="43.22996" lon="5.63431">
        <ele>309</ele>
        <time>2017-04-09T09:38:35Z</time>
      </trkpt>
      <trkpt lat="43.22991" lon="5.63427">
        <ele>308.4</ele>
        <time>2017-04-09T09:38:36Z</time>
      </trkpt>
      <trkpt lat="43.22987" lon="5.63423">
        <ele>308</ele>
        <time>2017-04-09T09:38:37Z</time>
      </trkpt>
      <trkpt lat="43.22983" lon="5.6342">
        <ele>307.4</ele>
        <time>2017-04-09T09:38:38Z</time>
      </trkpt>
      <trkpt lat="43.22975" lon="5.63411">
        <ele>306.2</ele>
        <time>2017-04-09T09:38:40Z</time>
      </trkpt>
      <trkpt lat="43.22967" lon="5.63404">
        <ele>305</ele>
        <time>2017-04-09T09:38:41Z</time>
      </trkpt>
      <trkpt lat="43.22966" lon="5.63403">
        <ele>303.6</ele>
        <time>2017-04-09T09:38:42Z</time>
      </trkpt>
      <trkpt lat="43.22962" lon="5.634">
        <ele>302.2</ele>
        <time>2017-04-09T09:38:43Z</time>
      </trkpt>
      <trkpt lat="43.22953" lon="5.63393">
        <ele>300.4</ele>
        <time>2017-04-09T09:38:45Z</time>
      </trkpt>
      <trkpt lat="43.2295" lon="5.63389">
        <ele>299.4</ele>
        <time>2017-04-09T09:38:46Z</time>
      </trkpt>
      <trkpt lat="43.22948" lon="5.63385">
        <ele>298.6</ele>
        <time>2017-04-09T09:38:47Z</time>
      </trkpt>
      <trkpt lat="43.22943" lon="5.63374">
        <ele>296.4</ele>
        <time>2017-04-09T09:38:49Z</time>
      </trkpt>
      <trkpt lat="43.2294" lon="5.63368">
        <ele>295.4</ele>
        <time>2017-04-09T09:38:50Z</time>
      </trkpt>
      <trkpt lat="43.22932" lon="5.6336">
        <ele>293.8</ele>
        <time>2017-04-09T09:38:52Z</time>
      </trkpt>
      <trkpt lat="43.22922" lon="5.63354">
        <ele>292.2</ele>
        <time>2017-04-09T09:38:54Z</time>
      </trkpt>
      <trkpt lat="43.22912" lon="5.63348">
        <ele>289.8</ele>
        <time>2017-04-09T09:38:56Z</time>
      </trkpt>
      <trkpt lat="43.22906" lon="5.63345">
        <ele>288.4</ele>
        <time>2017-04-09T09:38:57Z</time>
      </trkpt>
      <trkpt lat="43.229" lon="5.63342">
        <ele>287</ele>
        <time>2017-04-09T09:38:58Z</time>
      </trkpt>
      <trkpt lat="43.22895" lon="5.6334">
        <ele>286.4</ele>
        <time>2017-04-09T09:38:59Z</time>
      </trkpt>
      <trkpt lat="43.22889" lon="5.63338">
        <ele>285.4</ele>
        <time>2017-04-09T09:39:00Z</time>
      </trkpt>
      <trkpt lat="43.22884" lon="5.63337">
        <ele>284.2</ele>
        <time>2017-04-09T09:39:01Z</time>
      </trkpt>
      <trkpt lat="43.22879" lon="5.63334">
        <ele>283</ele>
        <time>2017-04-09T09:39:02Z</time>
      </trkpt>
      <trkpt lat="43.22874" lon="5.63331">
        <ele>280.8</ele>
        <time>2017-04-09T09:39:03Z</time>
      </trkpt>
      <trkpt lat="43.22869" lon="5.63326">
        <ele>279.4</ele>
        <time>2017-04-09T09:39:04Z</time>
      </trkpt>
      <trkpt lat="43.22863" lon="5.63322">
        <ele>278.4</ele>
        <time>2017-04-09T09:39:05Z</time>
      </trkpt>
      <trkpt lat="43.22856" lon="5.63317">
        <ele>276.8</ele>
        <time>2017-04-09T09:39:06Z</time>
      </trkpt>
      <trkpt lat="43.2285" lon="5.63312">
        <ele>275.4</ele>
        <time>2017-04-09T09:39:07Z</time>
      </trkpt>
      <trkpt lat="43.22836" lon="5.63302">
        <ele>273</ele>
        <time>2017-04-09T09:39:09Z</time>
      </trkpt>
      <trkpt lat="43.22824" lon="5.63292">
        <ele>271.6</ele>
        <time>2017-04-09T09:39:11Z</time>
      </trkpt>
      <trkpt lat="43.22819" lon="5.63287">
        <ele>272</ele>
        <time>2017-04-09T09:39:12Z</time>
      </trkpt>
      <trkpt lat="43.22807" lon="5.63273">
        <ele>270</ele>
        <time>2017-04-09T09:39:16Z</time>
      </trkpt>
      <trkpt lat="43.22803" lon="5.63269">
        <ele>269</ele>
        <time>2017-04-09T09:39:17Z</time>
      </trkpt>
      <trkpt lat="43.22795" lon="5.63257">
        <ele>267.6</ele>
        <time>2017-04-09T09:39:20Z</time>
      </trkpt>
      <trkpt lat="43.22793" lon="5.63254">
        <ele>266.8</ele>
        <time>2017-04-09T09:39:21Z</time>
      </trkpt>
      <trkpt lat="43.22791" lon="5.6325">
        <ele>266</ele>
        <time>2017-04-09T09:39:22Z</time>
      </trkpt>
      <trkpt lat="43.22788" lon="5.63248">
        <ele>265.4</ele>
        <time>2017-04-09T09:39:23Z</time>
      </trkpt>
      <trkpt lat="43.22785" lon="5.63247">
        <ele>264.6</ele>
        <time>2017-04-09T09:39:24Z</time>
      </trkpt>
      <trkpt lat="43.22776" lon="5.63247">
        <ele>263.6</ele>
        <time>2017-04-09T09:39:26Z</time>
      </trkpt>
      <trkpt lat="43.22771" lon="5.63246">
        <ele>263</ele>
        <time>2017-04-09T09:39:27Z</time>
      </trkpt>
      <trkpt lat="43.22768" lon="5.63245">
        <ele>261.8</ele>
        <time>2017-04-09T09:39:28Z</time>
      </trkpt>
      <trkpt lat="43.22764" lon="5.63244">
        <ele>260</ele>
        <time>2017-04-09T09:39:29Z</time>
      </trkpt>
      <trkpt lat="43.22757" lon="5.63242">
        <ele>259</ele>
        <time>2017-04-09T09:39:31Z</time>
      </trkpt>
      <trkpt lat="43.22749" lon="5.63238">
        <ele>257.6</ele>
        <time>2017-04-09T09:39:33Z</time>
      </trkpt>
      <trkpt lat="43.22742" lon="5.63233">
        <ele>255.6</ele>
        <time>2017-04-09T09:39:35Z</time>
      </trkpt>
      <trkpt lat="43.22739" lon="5.63231">
        <ele>254.8</ele>
        <time>2017-04-09T09:39:36Z</time>
      </trkpt>
      <trkpt lat="43.22735" lon="5.63229">
        <ele>254.2</ele>
        <time>2017-04-09T09:39:37Z</time>
      </trkpt>
      <trkpt lat="43.22728" lon="5.63225">
        <ele>253.2</ele>
        <time>2017-04-09T09:39:39Z</time>
      </trkpt>
      <trkpt lat="43.22725" lon="5.63223">
        <ele>252.6</ele>
        <time>2017-04-09T09:39:40Z</time>
      </trkpt>
      <trkpt lat="43.22722" lon="5.63221">
        <ele>251.8</ele>
        <time>2017-04-09T09:39:41Z</time>
      </trkpt>
      <trkpt lat="43.22716" lon="5.63219">
        <ele>250.2</ele>
        <time>2017-04-09T09:39:43Z</time>
      </trkpt>
      <trkpt lat="43.22712" lon="5.63217">
        <ele>249</ele>
        <time>2017-04-09T09:39:45Z</time>
      </trkpt>
      <trkpt lat="43.22706" lon="5.63213">
        <ele>247.6</ele>
        <time>2017-04-09T09:39:47Z</time>
      </trkpt>
      <trkpt lat="43.22698" lon="5.63208">
        <ele>245.6</ele>
        <time>2017-04-09T09:39:49Z</time>
      </trkpt>
      <trkpt lat="43.22693" lon="5.63205">
        <ele>244.4</ele>
        <time>2017-04-09T09:39:50Z</time>
      </trkpt>
      <trkpt lat="43.22689" lon="5.63201">
        <ele>243.2</ele>
        <time>2017-04-09T09:39:51Z</time>
      </trkpt>
      <trkpt lat="43.22686" lon="5.63196">
        <ele>242.2</ele>
        <time>2017-04-09T09:39:52Z</time>
      </trkpt>
      <trkpt lat="43.22682" lon="5.63191">
        <ele>241.2</ele>
        <time>2017-04-09T09:39:53Z</time>
      </trkpt>
      <trkpt lat="43.22678" lon="5.63187">
        <ele>240</ele>
        <time>2017-04-09T09:39:54Z</time>
      </trkpt>
      <trkpt lat="43.22674" lon="5.63182">
        <ele>238</ele>
        <time>2017-04-09T09:39:55Z</time>
      </trkpt>
      <trkpt lat="43.22669" lon="5.63178">
        <ele>237</ele>
        <time>2017-04-09T09:39:56Z</time>
      </trkpt>
      <trkpt lat="43.22665" lon="5.63174">
        <ele>236</ele>
        <time>2017-04-09T09:39:57Z</time>
      </trkpt>
      <trkpt lat="43.2266" lon="5.6317">
        <ele>235.2</ele>
        <time>2017-04-09T09:39:58Z</time>
      </trkpt>
      <trkpt lat="43.2265" lon="5.63161">
        <ele>233.8</ele>
        <time>2017-04-09T09:40:00Z</time>
      </trkpt>
      <trkpt lat="43.22645" lon="5.63156">
        <ele>232.8</ele>
        <time>2017-04-09T09:40:01Z</time>
      </trkpt>
      <trkpt lat="43.22639" lon="5.63151">
        <ele>231.4</ele>
        <time>2017-04-09T09:40:02Z</time>
      </trkpt>
      <trkpt lat="43.22633" lon="5.63147">
        <ele>230.2</ele>
        <time>2017-04-09T09:40:03Z</time>
      </trkpt>
      <trkpt lat="43.22627" lon="5.63142">
        <ele>229</ele>
        <time>2017-04-09T09:40:04Z</time>
      </trkpt>
      <trkpt lat="43.22621" lon="5.63137">
        <ele>227.6</ele>
        <time>2017-04-09T09:40:05Z</time>
      </trkpt>
      <trkpt lat="43.2261" lon="5.63126">
        <ele>226</ele>
        <time>2017-04-09T09:40:07Z</time>
      </trkpt>
      <trkpt lat="43.22605" lon="5.63122">
        <ele>225.8</ele>
        <time>2017-04-09T09:40:08Z</time>
      </trkpt>
      <trkpt lat="43.226" lon="5.63117">
        <ele>225.2</ele>
        <time>2017-04-09T09:40:09Z</time>
      </trkpt>
      <trkpt lat="43.22597" lon="5.63112">
        <ele>224.4</ele>
        <time>2017-04-09T09:40:10Z</time>
      </trkpt>
      <trkpt lat="43.22591" lon="5.63099">
        <ele>222.8</ele>
        <time>2017-04-09T09:40:12Z</time>
      </trkpt>
      <trkpt lat="43.22589" lon="5.6309">
        <ele>221.8</ele>
        <time>2017-04-09T09:40:13Z</time>
      </trkpt>
      <trkpt lat="43.22584" lon="5.63072">
        <ele>219.6</ele>
        <time>2017-04-09T09:40:15Z</time>
      </trkpt>
      <trkpt lat="43.22582" lon="5.63062">
        <ele>218.8</ele>
        <time>2017-04-09T09:40:16Z</time>
      </trkpt>
      <trkpt lat="43.22579" lon="5.63052">
        <ele>217.4</ele>
        <time>2017-04-09T09:40:17Z</time>
      </trkpt>
      <trkpt lat="43.22573" lon="5.63031">
        <ele>215.6</ele>
        <time>2017-04-09T09:40:19Z</time>
      </trkpt>
      <trkpt lat="43.22568" lon="5.63009">
        <ele>214</ele>
        <time>2017-04-09T09:40:21Z</time>
      </trkpt>
      <trkpt lat="43.22566" lon="5.62998">
        <ele>213.4</ele>
        <time>2017-04-09T09:40:22Z</time>
      </trkpt>
      <trkpt lat="43.22564" lon="5.62978">
        <ele>213.6</ele>
        <time>2017-04-09T09:40:24Z</time>
      </trkpt>
      <trkpt lat="43.22566" lon="5.62965">
        <ele>215.2</ele>
        <time>2017-04-09T09:40:26Z</time>
      </trkpt>
      <trkpt lat="43.22572" lon="5.62945">
        <ele>213.6</ele>
        <time>2017-04-09T09:40:30Z</time>
      </trkpt>
      <trkpt lat="43.22568" lon="5.62935">
        <ele>212.6</ele>
        <time>2017-04-09T09:40:32Z</time>
      </trkpt>
      <trkpt lat="43.22565" lon="5.62929">
        <ele>211.6</ele>
        <time>2017-04-09T09:40:33Z</time>
      </trkpt>
      <trkpt lat="43.22562" lon="5.62923">
        <ele>211.2</ele>
        <time>2017-04-09T09:40:34Z</time>
      </trkpt>
      <trkpt lat="43.22555" lon="5.62909">
        <ele>210</ele>
        <time>2017-04-09T09:40:37Z</time>
      </trkpt>
      <trkpt lat="43.22551" lon="5.62903">
        <ele>208.6</ele>
        <time>2017-04-09T09:40:38Z</time>
      </trkpt>
      <trkpt lat="43.22542" lon="5.62895">
        <ele>207.2</ele>
        <time>2017-04-09T09:40:40Z</time>
      </trkpt>
      <trkpt lat="43.22537" lon="5.62893">
        <ele>206.8</ele>
        <time>2017-04-09T09:40:41Z</time>
      </trkpt>
      <trkpt lat="43.22528" lon="5.62895">
        <ele>206</ele>
        <time>2017-04-09T09:40:43Z</time>
      </trkpt>
      <trkpt lat="43.22524" lon="5.62898">
        <ele>205.8</ele>
        <time>2017-04-09T09:40:44Z</time>
      </trkpt>
      <trkpt lat="43.22519" lon="5.62906">
        <ele>204.6</ele>
        <time>2017-04-09T09:40:46Z</time>
      </trkpt>
      <trkpt lat="43.22515" lon="5.6291">
        <ele>203.8</ele>
        <time>2017-04-09T09:40:47Z</time>
      </trkpt>
      <trkpt lat="43.22512" lon="5.62914">
        <ele>203.2</ele>
        <time>2017-04-09T09:40:48Z</time>
      </trkpt>
      <trkpt lat="43.22508" lon="5.62919">
        <ele>202.4</ele>
        <time>2017-04-09T09:40:49Z</time>
      </trkpt>
      <trkpt lat="43.22505" lon="5.62924">
        <ele>202</ele>
        <time>2017-04-09T09:40:50Z</time>
      </trkpt>
      <trkpt lat="43.22501" lon="5.62929">
        <ele>201.6</ele>
        <time>2017-04-09T09:40:51Z</time>
      </trkpt>
      <trkpt lat="43.22496" lon="5.62942">
        <ele>200.8</ele>
        <time>2017-04-09T09:40:53Z</time>
      </trkpt>
      <trkpt lat="43.22493" lon="5.62957">
        <ele>200</ele>
        <time>2017-04-09T09:40:55Z</time>
      </trkpt>
      <trkpt lat="43.22492" lon="5.62965">
        <ele>199.8</ele>
        <time>2017-04-09T09:40:56Z</time>
      </trkpt>
      <trkpt lat="43.22491" lon="5.62973">
        <ele>199.8</ele>
        <time>2017-04-09T09:40:57Z</time>
      </trkpt>
      <trkpt lat="43.22491" lon="5.62988">
        <ele>199.6</ele>
        <time>2017-04-09T09:40:59Z</time>
      </trkpt>
      <trkpt lat="43.22493" lon="5.63">
        <ele>199.4</ele>
        <time>2017-04-09T09:41:01Z</time>
      </trkpt>
      <trkpt lat="43.22498" lon="5.63018">
        <ele>198.8</ele>
        <time>2017-04-09T09:41:04Z</time>
      </trkpt>
      <trkpt lat="43.225" lon="5.63024">
        <ele>198</ele>
        <time>2017-04-09T09:41:05Z</time>
      </trkpt>
      <trkpt lat="43.22503" lon="5.63037">
        <ele>197.4</ele>
        <time>2017-04-09T09:41:07Z</time>
      </trkpt>
      <trkpt lat="43.22503" lon="5.63044">
        <ele>197.6</ele>
        <time>2017-04-09T09:41:08Z</time>
      </trkpt>
      <trkpt lat="43.22504" lon="5.6306">
        <ele>196</ele>
        <time>2017-04-09T09:41:10Z</time>
      </trkpt>
      <trkpt lat="43.22502" lon="5.63075">
        <ele>194.8</ele>
        <time>2017-04-09T09:41:12Z</time>
      </trkpt>
      <trkpt lat="43.22501" lon="5.63081">
        <ele>193.6</ele>
        <time>2017-04-09T09:41:13Z</time>
      </trkpt>
      <trkpt lat="43.22498" lon="5.63086">
        <ele>192.4</ele>
        <time>2017-04-09T09:41:14Z</time>
      </trkpt>
      <trkpt lat="43.22495" lon="5.63092">
        <ele>191.4</ele>
        <time>2017-04-09T09:41:15Z</time>
      </trkpt>
      <trkpt lat="43.22493" lon="5.63099">
        <ele>190.6</ele>
        <time>2017-04-09T09:41:16Z</time>
      </trkpt>
      <trkpt lat="43.22491" lon="5.63114">
        <ele>188.8</ele>
        <time>2017-04-09T09:41:18Z</time>
      </trkpt>
      <trkpt lat="43.2249" lon="5.63125">
        <ele>187.4</ele>
        <time>2017-04-09T09:41:20Z</time>
      </trkpt>
      <trkpt lat="43.22492" lon="5.63137">
        <ele>186.2</ele>
        <time>2017-04-09T09:41:22Z</time>
      </trkpt>
      <trkpt lat="43.22499" lon="5.63158">
        <ele>185</ele>
        <time>2017-04-09T09:41:25Z</time>
      </trkpt>
      <trkpt lat="43.22501" lon="5.63162">
        <ele>184.4</ele>
        <time>2017-04-09T09:41:26Z</time>
      </trkpt>
      <trkpt lat="43.22505" lon="5.63178">
        <ele>184</ele>
        <time>2017-04-09T09:41:29Z</time>
      </trkpt>
      <trkpt lat="43.22506" lon="5.63185">
        <ele>183.2</ele>
        <time>2017-04-09T09:41:30Z</time>
      </trkpt>
      <trkpt lat="43.22505" lon="5.63191">
        <ele>182.4</ele>
        <time>2017-04-09T09:41:31Z</time>
      </trkpt>
      <trkpt lat="43.22504" lon="5.63199">
        <ele>181.6</ele>
        <time>2017-04-09T09:41:33Z</time>
      </trkpt>
      <trkpt lat="43.22504" lon="5.63202">
        <ele>181.2</ele>
        <time>2017-04-09T09:41:34Z</time>
      </trkpt>
      <trkpt lat="43.22502" lon="5.63208">
        <ele>180</ele>
        <time>2017-04-09T09:41:36Z</time>
      </trkpt>
      <trkpt lat="43.225" lon="5.63209">
        <ele>179.4</ele>
        <time>2017-04-09T09:41:37Z</time>
      </trkpt>
      <trkpt lat="43.22498" lon="5.63209">
        <ele>178.6</ele>
        <time>2017-04-09T09:41:38Z</time>
      </trkpt>
      <trkpt lat="43.22495" lon="5.63207">
        <ele>177.6</ele>
        <time>2017-04-09T09:41:40Z</time>
      </trkpt>
      <trkpt lat="43.22493" lon="5.63207">
        <ele>177</ele>
        <time>2017-04-09T09:41:41Z</time>
      </trkpt>
      <trkpt lat="43.22491" lon="5.63206">
        <ele>176.4</ele>
        <time>2017-04-09T09:41:42Z</time>
      </trkpt>
      <trkpt lat="43.22486" lon="5.63203">
        <ele>175.4</ele>
        <time>2017-04-09T09:41:44Z</time>
      </trkpt>
      <trkpt lat="43.22485" lon="5.63202">
        <ele>174.8</ele>
        <time>2017-04-09T09:41:45Z</time>
      </trkpt>
      <trkpt lat="43.22481" lon="5.632">
        <ele>174</ele>
        <time>2017-04-09T09:41:47Z</time>
      </trkpt>
      <trkpt lat="43.22476" lon="5.63196">
        <ele>172.8</ele>
        <time>2017-04-09T09:41:50Z</time>
      </trkpt>
      <trkpt lat="43.22473" lon="5.63195">
        <ele>172.4</ele>
        <time>2017-04-09T09:41:51Z</time>
      </trkpt>
      <trkpt lat="43.2247" lon="5.63192">
        <ele>171.6</ele>
        <time>2017-04-09T09:41:52Z</time>
      </trkpt>
      <trkpt lat="43.22463" lon="5.63187">
        <ele>169.8</ele>
        <time>2017-04-09T09:41:54Z</time>
      </trkpt>
      <trkpt lat="43.2246" lon="5.63184">
        <ele>169</ele>
        <time>2017-04-09T09:41:55Z</time>
      </trkpt>
      <trkpt lat="43.22458" lon="5.63182">
        <ele>168.2</ele>
        <time>2017-04-09T09:41:56Z</time>
      </trkpt>
      <trkpt lat="43.22451" lon="5.63177">
        <ele>167.6</ele>
        <time>2017-04-09T09:42:00Z</time>
      </trkpt>
      <trkpt lat="43.22448" lon="5.63176">
        <ele>167</ele>
        <time>2017-04-09T09:42:01Z</time>
      </trkpt>
      <trkpt lat="43.22445" lon="5.63175">
        <ele>165.8</ele>
        <time>2017-04-09T09:42:02Z</time>
      </trkpt>
      <trkpt lat="43.22437" lon="5.63174">
        <ele>164.2</ele>
        <time>2017-04-09T09:42:04Z</time>
      </trkpt>
      <trkpt lat="43.22426" lon="5.63173">
        <ele>162.4</ele>
        <time>2017-04-09T09:42:06Z</time>
      </trkpt>
      <trkpt lat="43.22422" lon="5.63172">
        <ele>161.8</ele>
        <time>2017-04-09T09:42:07Z</time>
      </trkpt>
      <trkpt lat="43.2242" lon="5.6317">
        <ele>162</ele>
        <time>2017-04-09T09:42:08Z</time>
      </trkpt>
      <trkpt lat="43.22419" lon="5.63167">
        <ele>162.2</ele>
        <time>2017-04-09T09:42:11Z</time>
      </trkpt>
      <trkpt lat="43.22418" lon="5.63164">
        <ele>161.8</ele>
        <time>2017-04-09T09:42:12Z</time>
      </trkpt>
      <trkpt lat="43.22417" lon="5.63161">
        <ele>161</ele>
        <time>2017-04-09T09:42:13Z</time>
      </trkpt>
      <trkpt lat="43.22417" lon="5.63152">
        <ele>159.2</ele>
        <time>2017-04-09T09:42:15Z</time>
      </trkpt>
      <trkpt lat="43.22419" lon="5.63143">
        <ele>158</ele>
        <time>2017-04-09T09:42:17Z</time>
      </trkpt>
      <trkpt lat="43.22421" lon="5.63132">
        <ele>157.4</ele>
        <time>2017-04-09T09:42:19Z</time>
      </trkpt>
      <trkpt lat="43.22422" lon="5.63126">
        <ele>157.2</ele>
        <time>2017-04-09T09:42:20Z</time>
      </trkpt>
      <trkpt lat="43.22422" lon="5.6312">
        <ele>156.6</ele>
        <time>2017-04-09T09:42:21Z</time>
      </trkpt>
      <trkpt lat="43.22424" lon="5.6311">
        <ele>156.2</ele>
        <time>2017-04-09T09:42:23Z</time>
      </trkpt>
      <trkpt lat="43.22424" lon="5.63104">
        <ele>155.8</ele>
        <time>2017-04-09T09:42:24Z</time>
      </trkpt>
      <trkpt lat="43.22423" lon="5.63098">
        <ele>155.4</ele>
        <time>2017-04-09T09:42:25Z</time>
      </trkpt>
      <trkpt lat="43.22419" lon="5.63087">
        <ele>154.8</ele>
        <time>2017-04-09T09:42:27Z</time>
      </trkpt>
      <trkpt lat="43.22414" lon="5.63078">
        <ele>154.8</ele>
        <time>2017-04-09T09:42:29Z</time>
      </trkpt>
      <trkpt lat="43.22411" lon="5.63074">
        <ele>154.4</ele>
        <time>2017-04-09T09:42:30Z</time>
      </trkpt>
      <trkpt lat="43.22407" lon="5.63071">
        <ele>153.8</ele>
        <time>2017-04-09T09:42:31Z</time>
      </trkpt>
      <trkpt lat="43.22403" lon="5.63066">
        <ele>152.6</ele>
        <time>2017-04-09T09:42:32Z</time>
      </trkpt>
      <trkpt lat="43.22398" lon="5.63058">
        <ele>151.4</ele>
        <time>2017-04-09T09:42:34Z</time>
      </trkpt>
      <trkpt lat="43.22398" lon="5.63053">
        <ele>151.4</ele>
        <time>2017-04-09T09:42:35Z</time>
      </trkpt>
      <trkpt lat="43.22399" lon="5.63033">
        <ele>150.8</ele>
        <time>2017-04-09T09:42:38Z</time>
      </trkpt>
      <trkpt lat="43.224" lon="5.63027">
        <ele>150.6</ele>
        <time>2017-04-09T09:42:39Z</time>
      </trkpt>
      <trkpt lat="43.22402" lon="5.63021">
        <ele>150.4</ele>
        <time>2017-04-09T09:42:40Z</time>
      </trkpt>
      <trkpt lat="43.22405" lon="5.63009">
        <ele>149.8</ele>
        <time>2017-04-09T09:42:42Z</time>
      </trkpt>
      <trkpt lat="43.22404" lon="5.63004">
        <ele>149.8</ele>
        <time>2017-04-09T09:42:43Z</time>
      </trkpt>
      <trkpt lat="43.22402" lon="5.63">
        <ele>150</ele>
        <time>2017-04-09T09:42:46Z</time>
      </trkpt>
      <trkpt lat="43.22401" lon="5.62992">
        <ele>148.8</ele>
        <time>2017-04-09T09:42:54Z</time>
      </trkpt>
      <trkpt lat="43.22403" lon="5.62981">
        <ele>147.6</ele>
        <time>2017-04-09T09:42:56Z</time>
      </trkpt>
      <trkpt lat="43.22403" lon="5.62969">
        <ele>146.6</ele>
        <time>2017-04-09T09:42:58Z</time>
      </trkpt>
      <trkpt lat="43.22403" lon="5.62962">
        <ele>146.4</ele>
        <time>2017-04-09T09:42:59Z</time>
      </trkpt>
      <trkpt lat="43.22402" lon="5.62949">
        <ele>145.4</ele>
        <time>2017-04-09T09:43:01Z</time>
      </trkpt>
      <trkpt lat="43.22403" lon="5.62941">
        <ele>144.8</ele>
        <time>2017-04-09T09:43:02Z</time>
      </trkpt>
      <trkpt lat="43.22401" lon="5.62927">
        <ele>144.4</ele>
        <time>2017-04-09T09:43:04Z</time>
      </trkpt>
      <trkpt lat="43.22398" lon="5.62922">
        <ele>144</ele>
        <time>2017-04-09T09:43:05Z</time>
      </trkpt>
      <trkpt lat="43.22387" lon="5.62902">
        <ele>143.2</ele>
        <time>2017-04-09T09:43:08Z</time>
      </trkpt>
      <trkpt lat="43.22383" lon="5.62895">
        <ele>142.4</ele>
        <time>2017-04-09T09:43:09Z</time>
      </trkpt>
      <trkpt lat="43.22382" lon="5.62888">
        <ele>142.2</ele>
        <time>2017-04-09T09:43:10Z</time>
      </trkpt>
      <trkpt lat="43.22381" lon="5.6288">
        <ele>141.6</ele>
        <time>2017-04-09T09:43:11Z</time>
      </trkpt>
      <trkpt lat="43.22378" lon="5.62874">
        <ele>140.8</ele>
        <time>2017-04-09T09:43:12Z</time>
      </trkpt>
      <trkpt lat="43.22365" lon="5.62849">
        <ele>140</ele>
        <time>2017-04-09T09:43:16Z</time>
      </trkpt>
      <trkpt lat="43.22362" lon="5.62843">
        <ele>139.6</ele>
        <time>2017-04-09T09:43:17Z</time>
      </trkpt>
      <trkpt lat="43.22359" lon="5.62833">
        <ele>139</ele>
        <time>2017-04-09T09:43:19Z</time>
      </trkpt>
      <trkpt lat="43.2236" lon="5.62828">
        <ele>139.2</ele>
        <time>2017-04-09T09:43:20Z</time>
      </trkpt>
      <trkpt lat="43.22362" lon="5.62815">
        <ele>138.4</ele>
        <time>2017-04-09T09:43:22Z</time>
      </trkpt>
      <trkpt lat="43.22363" lon="5.6281">
        <ele>138.2</ele>
        <time>2017-04-09T09:43:23Z</time>
      </trkpt>
      <trkpt lat="43.22368" lon="5.62803">
        <ele>137.2</ele>
        <time>2017-04-09T09:43:25Z</time>
      </trkpt>
      <trkpt lat="43.22371" lon="5.62797">
        <ele>136</ele>
        <time>2017-04-09T09:43:26Z</time>
      </trkpt>
      <trkpt lat="43.22373" lon="5.62791">
        <ele>135.4</ele>
        <time>2017-04-09T09:43:27Z</time>
      </trkpt>
      <trkpt lat="43.22374" lon="5.62785">
        <ele>135</ele>
        <time>2017-04-09T09:43:28Z</time>
      </trkpt>
      <trkpt lat="43.22375" lon="5.62764">
        <ele>133.8</ele>
        <time>2017-04-09T09:43:31Z</time>
      </trkpt>
      <trkpt lat="43.22371" lon="5.62751">
        <ele>132.8</ele>
        <time>2017-04-09T09:43:33Z</time>
      </trkpt>
      <trkpt lat="43.22369" lon="5.62746">
        <ele>132.6</ele>
        <time>2017-04-09T09:43:34Z</time>
      </trkpt>
      <trkpt lat="43.22357" lon="5.62733">
        <ele>131.8</ele>
        <time>2017-04-09T09:43:37Z</time>
      </trkpt>
      <trkpt lat="43.22354" lon="5.62728">
        <ele>131.2</ele>
        <time>2017-04-09T09:43:38Z</time>
      </trkpt>
      <trkpt lat="43.22343" lon="5.62711">
        <ele>130</ele>
        <time>2017-04-09T09:43:41Z</time>
      </trkpt>
      <trkpt lat="43.22338" lon="5.62705">
        <ele>128.8</ele>
        <time>2017-04-09T09:43:42Z</time>
      </trkpt>
      <trkpt lat="43.22334" lon="5.627">
        <ele>128.4</ele>
        <time>2017-04-09T09:43:43Z</time>
      </trkpt>
      <trkpt lat="43.22323" lon="5.62691">
        <ele>127.8</ele>
        <time>2017-04-09T09:43:45Z</time>
      </trkpt>
      <trkpt lat="43.22319" lon="5.62687">
        <ele>127.6</ele>
        <time>2017-04-09T09:43:46Z</time>
      </trkpt>
      <trkpt lat="43.22314" lon="5.62679">
        <ele>127.4</ele>
        <time>2017-04-09T09:43:48Z</time>
      </trkpt>
      <trkpt lat="43.22314" lon="5.62662">
        <ele>126.2</ele>
        <time>2017-04-09T09:43:51Z</time>
      </trkpt>
      <trkpt lat="43.22313" lon="5.6265">
        <ele>125</ele>
        <time>2017-04-09T09:43:53Z</time>
      </trkpt>
      <trkpt lat="43.22309" lon="5.62639">
        <ele>125</ele>
        <time>2017-04-09T09:43:55Z</time>
      </trkpt>
      <trkpt lat="43.22299" lon="5.62626">
        <ele>123.8</ele>
        <time>2017-04-09T09:43:58Z</time>
      </trkpt>
      <trkpt lat="43.22294" lon="5.62616">
        <ele>123.4</ele>
        <time>2017-04-09T09:44:00Z</time>
      </trkpt>
      <trkpt lat="43.22289" lon="5.62603">
        <ele>122.4</ele>
        <time>2017-04-09T09:44:02Z</time>
      </trkpt>
      <trkpt lat="43.22286" lon="5.62597">
        <ele>122.2</ele>
        <time>2017-04-09T09:44:03Z</time>
      </trkpt>
      <trkpt lat="43.22278" lon="5.62576">
        <ele>121.2</ele>
        <time>2017-04-09T09:44:06Z</time>
      </trkpt>
      <trkpt lat="43.22274" lon="5.6257">
        <ele>120.4</ele>
        <time>2017-04-09T09:44:07Z</time>
      </trkpt>
      <trkpt lat="43.22271" lon="5.62563">
        <ele>119.6</ele>
        <time>2017-04-09T09:44:08Z</time>
      </trkpt>
      <trkpt lat="43.22267" lon="5.62558">
        <ele>119</ele>
        <time>2017-04-09T09:44:09Z</time>
      </trkpt>
      <trkpt lat="43.22261" lon="5.6255">
        <ele>118.2</ele>
        <time>2017-04-09T09:44:11Z</time>
      </trkpt>
      <trkpt lat="43.22257" lon="5.62539">
        <ele>117.6</ele>
        <time>2017-04-09T09:44:13Z</time>
      </trkpt>
      <trkpt lat="43.22256" lon="5.62527">
        <ele>116</ele>
        <time>2017-04-09T09:44:15Z</time>
      </trkpt>
      <trkpt lat="43.22254" lon="5.62514">
        <ele>114</ele>
        <time>2017-04-09T09:44:17Z</time>
      </trkpt>
      <trkpt lat="43.2225" lon="5.62502">
        <ele>112.8</ele>
        <time>2017-04-09T09:44:19Z</time>
      </trkpt>
      <trkpt lat="43.22236" lon="5.62485">
        <ele>111.2</ele>
        <time>2017-04-09T09:44:23Z</time>
      </trkpt>
      <trkpt lat="43.2223" lon="5.62483">
        <ele>110.4</ele>
        <time>2017-04-09T09:44:24Z</time>
      </trkpt>
      <trkpt lat="43.22224" lon="5.62479">
        <ele>109.4</ele>
        <time>2017-04-09T09:44:25Z</time>
      </trkpt>
      <trkpt lat="43.22214" lon="5.62472">
        <ele>108.4</ele>
        <time>2017-04-09T09:44:27Z</time>
      </trkpt>
      <trkpt lat="43.22204" lon="5.62466">
        <ele>107.4</ele>
        <time>2017-04-09T09:44:30Z</time>
      </trkpt>
      <trkpt lat="43.222" lon="5.62466">
        <ele>106.8</ele>
        <time>2017-04-09T09:44:31Z</time>
      </trkpt>
      <trkpt lat="43.22196" lon="5.62466">
        <ele>106</ele>
        <time>2017-04-09T09:44:32Z</time>
      </trkpt>
      <trkpt lat="43.22187" lon="5.62463">
        <ele>104.8</ele>
        <time>2017-04-09T09:44:34Z</time>
      </trkpt>
      <trkpt lat="43.22178" lon="5.62451">
        <ele>104</ele>
        <time>2017-04-09T09:44:37Z</time>
      </trkpt>
      <trkpt lat="43.22175" lon="5.62446">
        <ele>103.8</ele>
        <time>2017-04-09T09:44:38Z</time>
      </trkpt>
      <trkpt lat="43.22173" lon="5.62442">
        <ele>104</ele>
        <time>2017-04-09T09:44:39Z</time>
      </trkpt>
      <trkpt lat="43.22164" lon="5.62423">
        <ele>104.2</ele>
        <time>2017-04-09T09:44:43Z</time>
      </trkpt>
      <trkpt lat="43.22153" lon="5.62404">
        <ele>103.8</ele>
        <time>2017-04-09T09:44:47Z</time>
      </trkpt>
      <trkpt lat="43.22148" lon="5.62402">
        <ele>103.4</ele>
        <time>2017-04-09T09:44:48Z</time>
      </trkpt>
      <trkpt lat="43.22138" lon="5.62398">
        <ele>103</ele>
        <time>2017-04-09T09:44:50Z</time>
      </trkpt>
      <trkpt lat="43.22133" lon="5.62396">
        <ele>102.6</ele>
        <time>2017-04-09T09:44:51Z</time>
      </trkpt>
      <trkpt lat="43.22127" lon="5.62394">
        <ele>102</ele>
        <time>2017-04-09T09:44:52Z</time>
      </trkpt>
      <trkpt lat="43.22122" lon="5.62394">
        <ele>101.4</ele>
        <time>2017-04-09T09:44:53Z</time>
      </trkpt>
      <trkpt lat="43.2211" lon="5.62395">
        <ele>100.8</ele>
        <time>2017-04-09T09:44:55Z</time>
      </trkpt>
      <trkpt lat="43.22104" lon="5.62396">
        <ele>100.2</ele>
        <time>2017-04-09T09:44:56Z</time>
      </trkpt>
      <trkpt lat="43.22087" lon="5.624">
        <ele>99.2</ele>
        <time>2017-04-09T09:44:59Z</time>
      </trkpt>
      <trkpt lat="43.22075" lon="5.62398">
        <ele>99.2</ele>
        <time>2017-04-09T09:45:01Z</time>
      </trkpt>
      <trkpt lat="43.22063" lon="5.62396">
        <ele>97.8</ele>
        <time>2017-04-09T09:45:03Z</time>
      </trkpt>
      <trkpt lat="43.22057" lon="5.62396">
        <ele>97.6</ele>
        <time>2017-04-09T09:45:04Z</time>
      </trkpt>
      <trkpt lat="43.22045" lon="5.62403">
        <ele>97.6</ele>
        <time>2017-04-09T09:45:06Z</time>
      </trkpt>
      <trkpt lat="43.22026" lon="5.62414">
        <ele>96.8</ele>
        <time>2017-04-09T09:45:09Z</time>
      </trkpt>
      <trkpt lat="43.22012" lon="5.62418">
        <ele>96.2</ele>
        <time>2017-04-09T09:45:11Z</time>
      </trkpt>
      <trkpt lat="43.22004" lon="5.62419">
        <ele>95.6</ele>
        <time>2017-04-09T09:45:12Z</time>
      </trkpt>
      <trkpt lat="43.21981" lon="5.62417">
        <ele>94.6</ele>
        <time>2017-04-09T09:45:15Z</time>
      </trkpt>
      <trkpt lat="43.21931" lon="5.62405">
        <ele>93.4</ele>
        <time>2017-04-09T09:45:22Z</time>
      </trkpt>
      <trkpt lat="43.21915" lon="5.62401">
        <ele>91.8</ele>
        <time>2017-04-09T09:45:24Z</time>
      </trkpt>
      <trkpt lat="43.2189" lon="5.6239">
        <ele>90.8</ele>
        <time>2017-04-09T09:45:27Z</time>
      </trkpt>
      <trkpt lat="43.21882" lon="5.62385">
        <ele>89.2</ele>
        <time>2017-04-09T09:45:28Z</time>
      </trkpt>
      <trkpt lat="43.2186" lon="5.6237">
        <ele>88.2</ele>
        <time>2017-04-09T09:45:31Z</time>
      </trkpt>
      <trkpt lat="43.21852" lon="5.62366">
        <ele>88.2</ele>
        <time>2017-04-09T09:45:32Z</time>
      </trkpt>
      <trkpt lat="43.2182" lon="5.6235">
        <ele>87.8</ele>
        <time>2017-04-09T09:45:36Z</time>
      </trkpt>
      <trkpt lat="43.21794" lon="5.62334">
        <ele>88.4</ele>
        <time>2017-04-09T09:45:40Z</time>
      </trkpt>
      <trkpt lat="43.21789" lon="5.62332">
        <ele>89.2</ele>
        <time>2017-04-09T09:45:41Z</time>
      </trkpt>
      <trkpt lat="43.21782" lon="5.6233">
        <ele>90.8</ele>
        <time>2017-04-09T09:45:43Z</time>
      </trkpt>
      <trkpt lat="43.21776" lon="5.62327">
        <ele>92.4</ele>
        <time>2017-04-09T09:45:45Z</time>
      </trkpt>
      <trkpt lat="43.21771" lon="5.62326">
        <ele>93.4</ele>
        <time>2017-04-09T09:45:47Z</time>
      </trkpt>
      <trkpt lat="43.21758" lon="5.62324">
        <ele>94.8</ele>
        <time>2017-04-09T09:45:52Z</time>
      </trkpt>
      <trkpt lat="43.21747" lon="5.62321">
        <ele>95.8</ele>
        <time>2017-04-09T09:45:56Z</time>
      </trkpt>
      <trkpt lat="43.21745" lon="5.62319">
        <ele>96</ele>
        <time>2017-04-09T09:45:57Z</time>
      </trkpt>
      <trkpt lat="43.21737" lon="5.62318">
        <ele>96.4</ele>
        <time>2017-04-09T09:46:00Z</time>
      </trkpt>
      <trkpt lat="43.2173" lon="5.62316">
        <ele>96.6</ele>
        <time>2017-04-09T09:46:03Z</time>
      </trkpt>
      <trkpt lat="43.21708" lon="5.62313">
        <ele>94.8</ele>
        <time>2017-04-09T09:46:09Z</time>
      </trkpt>
      <trkpt lat="43.21704" lon="5.62312">
        <ele>94.4</ele>
        <time>2017-04-09T09:46:10Z</time>
      </trkpt>
      <trkpt lat="43.2169" lon="5.62309">
        <ele>93</ele>
        <time>2017-04-09T09:46:13Z</time>
      </trkpt>
      <trkpt lat="43.21685" lon="5.62307">
        <ele>92.8</ele>
        <time>2017-04-09T09:46:14Z</time>
      </trkpt>
      <trkpt lat="43.21681" lon="5.62305">
        <ele>93</ele>
        <time>2017-04-09T09:46:15Z</time>
      </trkpt>
      <trkpt lat="43.21673" lon="5.62298">
        <ele>94</ele>
        <time>2017-04-09T09:46:18Z</time>
      </trkpt>
      <trkpt lat="43.21672" lon="5.62295">
        <ele>94.2</ele>
        <time>2017-04-09T09:46:19Z</time>
      </trkpt>
      <trkpt lat="43.21671" lon="5.62292">
        <ele>95.2</ele>
        <time>2017-04-09T09:46:20Z</time>
      </trkpt>
      <trkpt lat="43.21667" lon="5.62283">
        <ele>96.4</ele>
        <time>2017-04-09T09:46:24Z</time>
      </trkpt>
      <trkpt lat="43.21664" lon="5.62271">
        <ele>97.4</ele>
        <time>2017-04-09T09:46:29Z</time>
      </trkpt>
      <trkpt lat="43.21663" lon="5.62268">
        <ele>97.6</ele>
        <time>2017-04-09T09:46:30Z</time>
      </trkpt>
      <trkpt lat="43.21661" lon="5.62266">
        <ele>97.6</ele>
        <time>2017-04-09T09:46:31Z</time>
      </trkpt>
      <trkpt lat="43.21656" lon="5.62259">
        <ele>98.4</ele>
        <time>2017-04-09T09:46:34Z</time>
      </trkpt>
      <trkpt lat="43.21654" lon="5.62257">
        <ele>98.8</ele>
        <time>2017-04-09T09:46:35Z</time>
      </trkpt>
      <trkpt lat="43.2165" lon="5.62248">
        <ele>99.8</ele>
        <time>2017-04-09T09:46:38Z</time>
      </trkpt>
      <trkpt lat="43.21647" lon="5.62239">
        <ele>100.2</ele>
        <time>2017-04-09T09:46:41Z</time>
      </trkpt>
      <trkpt lat="43.21645" lon="5.62226">
        <ele>101.2</ele>
        <time>2017-04-09T09:46:45Z</time>
      </trkpt>
      <trkpt lat="43.21644" lon="5.62216">
        <ele>102.2</ele>
        <time>2017-04-09T09:46:48Z</time>
      </trkpt>
      <trkpt lat="43.21644" lon="5.62199">
        <ele>103.2</ele>
        <time>2017-04-09T09:46:53Z</time>
      </trkpt>
      <trkpt lat="43.21644" lon="5.62196">
        <ele>103.6</ele>
        <time>2017-04-09T09:46:54Z</time>
      </trkpt>
      <trkpt lat="43.21647" lon="5.62186">
        <ele>104.4</ele>
        <time>2017-04-09T09:46:58Z</time>
      </trkpt>
      <trkpt lat="43.2165" lon="5.62182">
        <ele>104.8</ele>
        <time>2017-04-09T09:47:00Z</time>
      </trkpt>
      <trkpt lat="43.21653" lon="5.62179">
        <ele>105.6</ele>
        <time>2017-04-09T09:47:02Z</time>
      </trkpt>
      <trkpt lat="43.21657" lon="5.62179">
        <ele>105.8</ele>
        <time>2017-04-09T09:47:04Z</time>
      </trkpt>
      <trkpt lat="43.2166" lon="5.62179">
        <ele>106.8</ele>
        <time>2017-04-09T09:47:06Z</time>
      </trkpt>
      <trkpt lat="43.21668" lon="5.62182">
        <ele>107.8</ele>
        <time>2017-04-09T09:47:10Z</time>
      </trkpt>
      <trkpt lat="43.21672" lon="5.62183">
        <ele>108.6</ele>
        <time>2017-04-09T09:47:12Z</time>
      </trkpt>
      <trkpt lat="43.21678" lon="5.62186">
        <ele>109</ele>
        <time>2017-04-09T09:47:16Z</time>
      </trkpt>
      <trkpt lat="43.2168" lon="5.62187">
        <ele>109.2</ele>
        <time>2017-04-09T09:47:17Z</time>
      </trkpt>
      <trkpt lat="43.21683" lon="5.62189">
        <ele>109.2</ele>
        <time>2017-04-09T09:47:19Z</time>
      </trkpt>
      <trkpt lat="43.21688" lon="5.62194">
        <ele>109.8</ele>
        <time>2017-04-09T09:47:22Z</time>
      </trkpt>
      <trkpt lat="43.21692" lon="5.62195">
        <ele>110</ele>
        <time>2017-04-09T09:47:24Z</time>
      </trkpt>
      <trkpt lat="43.21697" lon="5.62197">
        <ele>110.6</ele>
        <time>2017-04-09T09:47:26Z</time>
      </trkpt>
      <trkpt lat="43.21702" lon="5.62198">
        <ele>111.2</ele>
        <time>2017-04-09T09:47:29Z</time>
      </trkpt>
      <trkpt lat="43.21706" lon="5.62198">
        <ele>111.6</ele>
        <time>2017-04-09T09:47:31Z</time>
      </trkpt>
      <trkpt lat="43.21716" lon="5.62197">
        <ele>112.2</ele>
        <time>2017-04-09T09:47:36Z</time>
      </trkpt>
      <trkpt lat="43.21721" lon="5.62197">
        <ele>113.2</ele>
        <time>2017-04-09T09:47:38Z</time>
      </trkpt>
      <trkpt lat="43.21722" lon="5.62196">
        <ele>113.4</ele>
        <time>2017-04-09T09:47:39Z</time>
      </trkpt>
      <trkpt lat="43.21729" lon="5.62194">
        <ele>114</ele>
        <time>2017-04-09T09:47:42Z</time>
      </trkpt>
      <trkpt lat="43.21734" lon="5.62193">
        <ele>114.4</ele>
        <time>2017-04-09T09:47:44Z</time>
      </trkpt>
      <trkpt lat="43.21745" lon="5.6219">
        <ele>115.8</ele>
        <time>2017-04-09T09:47:49Z</time>
      </trkpt>
      <trkpt lat="43.21747" lon="5.62191">
        <ele>116</ele>
        <time>2017-04-09T09:47:50Z</time>
      </trkpt>
      <trkpt lat="43.21752" lon="5.62195">
        <ele>116.8</ele>
        <time>2017-04-09T09:47:53Z</time>
      </trkpt>
      <trkpt lat="43.21755" lon="5.622">
        <ele>117</ele>
        <time>2017-04-09T09:47:55Z</time>
      </trkpt>
      <trkpt lat="43.21758" lon="5.62212">
        <ele>117.8</ele>
        <time>2017-04-09T09:48:00Z</time>
      </trkpt>
      <trkpt lat="43.21759" lon="5.62215">
        <ele>118.2</ele>
        <time>2017-04-09T09:48:01Z</time>
      </trkpt>
      <trkpt lat="43.21762" lon="5.62231">
        <ele>119.2</ele>
        <time>2017-04-09T09:48:07Z</time>
      </trkpt>
      <trkpt lat="43.21763" lon="5.62234">
        <ele>119.4</ele>
        <time>2017-04-09T09:48:08Z</time>
      </trkpt>
      <trkpt lat="43.21768" lon="5.6224">
        <ele>120</ele>
        <time>2017-04-09T09:48:11Z</time>
      </trkpt>
      <trkpt lat="43.21771" lon="5.62241">
        <ele>120.4</ele>
        <time>2017-04-09T09:48:13Z</time>
      </trkpt>
      <trkpt lat="43.21773" lon="5.6224">
        <ele>120.8</ele>
        <time>2017-04-09T09:48:14Z</time>
      </trkpt>
      <trkpt lat="43.21775" lon="5.62232">
        <ele>121.2</ele>
        <time>2017-04-09T09:48:17Z</time>
      </trkpt>
      <trkpt lat="43.21776" lon="5.6222">
        <ele>122</ele>
        <time>2017-04-09T09:48:21Z</time>
      </trkpt>
      <trkpt lat="43.21777" lon="5.62217">
        <ele>122</ele>
        <time>2017-04-09T09:48:22Z</time>
      </trkpt>
      <trkpt lat="43.21783" lon="5.62198">
        <ele>123</ele>
        <time>2017-04-09T09:48:28Z</time>
      </trkpt>
      <trkpt lat="43.21784" lon="5.62195">
        <ele>122.6</ele>
        <time>2017-04-09T09:48:29Z</time>
      </trkpt>
      <trkpt lat="43.21786" lon="5.62185">
        <ele>124.2</ele>
        <time>2017-04-09T09:48:32Z</time>
      </trkpt>
      <trkpt lat="43.21786" lon="5.62174">
        <ele>124.6</ele>
        <time>2017-04-09T09:48:35Z</time>
      </trkpt>
      <trkpt lat="43.21777" lon="5.62152">
        <ele>125.6</ele>
        <time>2017-04-09T09:48:42Z</time>
      </trkpt>
      <trkpt lat="43.2177" lon="5.62135">
        <ele>126</ele>
        <time>2017-04-09T09:48:47Z</time>
      </trkpt>
      <trkpt lat="43.21768" lon="5.62117">
        <ele>126.2</ele>
        <time>2017-04-09T09:48:52Z</time>
      </trkpt>
      <trkpt lat="43.2177" lon="5.62116">
        <ele>126.2</ele>
        <time>2017-04-09T09:48:53Z</time>
      </trkpt>
      <trkpt lat="43.21772" lon="5.62116">
        <ele>126.6</ele>
        <time>2017-04-09T09:48:54Z</time>
      </trkpt>
      <trkpt lat="43.21775" lon="5.62117">
        <ele>127</ele>
        <time>2017-04-09T09:48:55Z</time>
      </trkpt>
      <trkpt lat="43.21778" lon="5.62123">
        <ele>128</ele>
        <time>2017-04-09T09:48:57Z</time>
      </trkpt>
      <trkpt lat="43.2178" lon="5.62129">
        <ele>128.4</ele>
        <time>2017-04-09T09:48:59Z</time>
      </trkpt>
      <trkpt lat="43.21791" lon="5.62144">
        <ele>128.8</ele>
        <time>2017-04-09T09:49:05Z</time>
      </trkpt>
      <trkpt lat="43.21793" lon="5.62146">
        <ele>129.2</ele>
        <time>2017-04-09T09:49:06Z</time>
      </trkpt>
      <trkpt lat="43.21803" lon="5.62157">
        <ele>130.2</ele>
        <time>2017-04-09T09:49:11Z</time>
      </trkpt>
      <trkpt lat="43.21813" lon="5.62171">
        <ele>131.2</ele>
        <time>2017-04-09T09:49:16Z</time>
      </trkpt>
      <trkpt lat="43.21815" lon="5.62177">
        <ele>131.4</ele>
        <time>2017-04-09T09:49:18Z</time>
      </trkpt>
      <trkpt lat="43.21817" lon="5.62187">
        <ele>132.6</ele>
        <time>2017-04-09T09:49:21Z</time>
      </trkpt>
      <trkpt lat="43.2182" lon="5.62197">
        <ele>133.2</ele>
        <time>2017-04-09T09:49:24Z</time>
      </trkpt>
      <trkpt lat="43.21825" lon="5.62205">
        <ele>133.8</ele>
        <time>2017-04-09T09:49:27Z</time>
      </trkpt>
      <trkpt lat="43.21828" lon="5.62206">
        <ele>133.8</ele>
        <time>2017-04-09T09:49:28Z</time>
      </trkpt>
      <trkpt lat="43.2183" lon="5.62206">
        <ele>134.2</ele>
        <time>2017-04-09T09:49:29Z</time>
      </trkpt>
      <trkpt lat="43.21834" lon="5.62198">
        <ele>134.8</ele>
        <time>2017-04-09T09:49:32Z</time>
      </trkpt>
      <trkpt lat="43.21835" lon="5.62188">
        <ele>134.6</ele>
        <time>2017-04-09T09:49:35Z</time>
      </trkpt>
      <trkpt lat="43.21835" lon="5.62185">
        <ele>135</ele>
        <time>2017-04-09T09:49:36Z</time>
      </trkpt>
      <trkpt lat="43.21835" lon="5.62182">
        <ele>135.4</ele>
        <time>2017-04-09T09:49:37Z</time>
      </trkpt>
      <trkpt lat="43.21835" lon="5.62165">
        <ele>136</ele>
        <time>2017-04-09T09:49:42Z</time>
      </trkpt>
      <trkpt lat="43.21833" lon="5.62156">
        <ele>137</ele>
        <time>2017-04-09T09:49:45Z</time>
      </trkpt>
      <trkpt lat="43.21833" lon="5.62152">
        <ele>137.4</ele>
        <time>2017-04-09T09:49:46Z</time>
      </trkpt>
      <trkpt lat="43.21832" lon="5.62135">
        <ele>138.2</ele>
        <time>2017-04-09T09:49:51Z</time>
      </trkpt>
      <trkpt lat="43.21831" lon="5.62125">
        <ele>138.8</ele>
        <time>2017-04-09T09:49:54Z</time>
      </trkpt>
      <trkpt lat="43.2183" lon="5.62115">
        <ele>139</ele>
        <time>2017-04-09T09:49:57Z</time>
      </trkpt>
      <trkpt lat="43.21829" lon="5.62108">
        <ele>139.4</ele>
        <time>2017-04-09T09:49:59Z</time>
      </trkpt>
      <trkpt lat="43.21829" lon="5.62102">
        <ele>139.8</ele>
        <time>2017-04-09T09:50:01Z</time>
      </trkpt>
      <trkpt lat="43.21828" lon="5.62088">
        <ele>141</ele>
        <time>2017-04-09T09:50:05Z</time>
      </trkpt>
      <trkpt lat="43.21828" lon="5.62081">
        <ele>141.4</ele>
        <time>2017-04-09T09:50:07Z</time>
      </trkpt>
      <trkpt lat="43.21832" lon="5.62062">
        <ele>142</ele>
        <time>2017-04-09T09:50:13Z</time>
      </trkpt>
      <trkpt lat="43.21833" lon="5.62059">
        <ele>142.2</ele>
        <time>2017-04-09T09:50:14Z</time>
      </trkpt>
      <trkpt lat="43.2184" lon="5.62057">
        <ele>143.2</ele>
        <time>2017-04-09T09:50:17Z</time>
      </trkpt>
      <trkpt lat="43.21842" lon="5.62058">
        <ele>143.4</ele>
        <time>2017-04-09T09:50:18Z</time>
      </trkpt>
      <trkpt lat="43.21847" lon="5.62065">
        <ele>144.6</ele>
        <time>2017-04-09T09:50:21Z</time>
      </trkpt>
      <trkpt lat="43.2185" lon="5.62078">
        <ele>145.4</ele>
        <time>2017-04-09T09:50:25Z</time>
      </trkpt>
      <trkpt lat="43.21853" lon="5.62082">
        <ele>145.4</ele>
        <time>2017-04-09T09:50:27Z</time>
      </trkpt>
      <trkpt lat="43.21855" lon="5.62084">
        <ele>145.6</ele>
        <time>2017-04-09T09:50:28Z</time>
      </trkpt>
      <trkpt lat="43.21861" lon="5.62088">
        <ele>146.8</ele>
        <time>2017-04-09T09:50:31Z</time>
      </trkpt>
      <trkpt lat="43.21864" lon="5.62093">
        <ele>146.8</ele>
        <time>2017-04-09T09:50:33Z</time>
      </trkpt>
      <trkpt lat="43.21872" lon="5.62102">
        <ele>148</ele>
        <time>2017-04-09T09:50:38Z</time>
      </trkpt>
      <trkpt lat="43.21876" lon="5.62106">
        <ele>148.4</ele>
        <time>2017-04-09T09:50:40Z</time>
      </trkpt>
      <trkpt lat="43.21883" lon="5.62114">
        <ele>149.2</ele>
        <time>2017-04-09T09:50:44Z</time>
      </trkpt>
      <trkpt lat="43.2189" lon="5.62122">
        <ele>150.2</ele>
        <time>2017-04-09T09:50:48Z</time>
      </trkpt>
      <trkpt lat="43.21894" lon="5.62126">
        <ele>150.4</ele>
        <time>2017-04-09T09:50:50Z</time>
      </trkpt>
      <trkpt lat="43.21904" lon="5.62138">
        <ele>151.4</ele>
        <time>2017-04-09T09:50:56Z</time>
      </trkpt>
      <trkpt lat="43.21912" lon="5.62145">
        <ele>152.6</ele>
        <time>2017-04-09T09:51:00Z</time>
      </trkpt>
      <trkpt lat="43.2192" lon="5.62152">
        <ele>153.6</ele>
        <time>2017-04-09T09:51:04Z</time>
      </trkpt>
      <trkpt lat="43.21922" lon="5.62153">
        <ele>153.6</ele>
        <time>2017-04-09T09:51:05Z</time>
      </trkpt>
      <trkpt lat="43.21934" lon="5.6216">
        <ele>154.6</ele>
        <time>2017-04-09T09:51:11Z</time>
      </trkpt>
      <trkpt lat="43.21936" lon="5.62161">
        <ele>154.8</ele>
        <time>2017-04-09T09:51:12Z</time>
      </trkpt>
      <trkpt lat="43.21947" lon="5.62167">
        <ele>155.8</ele>
        <time>2017-04-09T09:51:17Z</time>
      </trkpt>
      <trkpt lat="43.21954" lon="5.62168">
        <ele>156.6</ele>
        <time>2017-04-09T09:51:20Z</time>
      </trkpt>
      <trkpt lat="43.21956" lon="5.62169">
        <ele>156.8</ele>
        <time>2017-04-09T09:51:21Z</time>
      </trkpt>
      <trkpt lat="43.21967" lon="5.62172">
        <ele>157.8</ele>
        <time>2017-04-09T09:51:26Z</time>
      </trkpt>
      <trkpt lat="43.21974" lon="5.62172">
        <ele>158.6</ele>
        <time>2017-04-09T09:51:29Z</time>
      </trkpt>
      <trkpt lat="43.21978" lon="5.62173">
        <ele>159.2</ele>
        <time>2017-04-09T09:51:31Z</time>
      </trkpt>
      <trkpt lat="43.2198" lon="5.62173">
        <ele>159.4</ele>
        <time>2017-04-09T09:51:32Z</time>
      </trkpt>
      <trkpt lat="43.21989" lon="5.62175">
        <ele>160.2</ele>
        <time>2017-04-09T09:51:37Z</time>
      </trkpt>
      <trkpt lat="43.21998" lon="5.62177">
        <ele>161.4</ele>
        <time>2017-04-09T09:51:41Z</time>
      </trkpt>
      <trkpt lat="43.22002" lon="5.62179">
        <ele>162</ele>
        <time>2017-04-09T09:51:43Z</time>
      </trkpt>
      <trkpt lat="43.22004" lon="5.6218">
        <ele>162.4</ele>
        <time>2017-04-09T09:51:44Z</time>
      </trkpt>
      <trkpt lat="43.22013" lon="5.62186">
        <ele>163.4</ele>
        <time>2017-04-09T09:51:49Z</time>
      </trkpt>
      <trkpt lat="43.22024" lon="5.62193">
        <ele>164.8</ele>
        <time>2017-04-09T09:51:54Z</time>
      </trkpt>
      <trkpt lat="43.22026" lon="5.62195">
        <ele>165</ele>
        <time>2017-04-09T09:51:55Z</time>
      </trkpt>
      <trkpt lat="43.22035" lon="5.622">
        <ele>165.8</ele>
        <time>2017-04-09T09:51:59Z</time>
      </trkpt>
      <trkpt lat="43.22041" lon="5.62204">
        <ele>166.4</ele>
        <time>2017-04-09T09:52:02Z</time>
      </trkpt>
      <trkpt lat="43.22047" lon="5.62208">
        <ele>166.8</ele>
        <time>2017-04-09T09:52:05Z</time>
      </trkpt>
      <trkpt lat="43.22057" lon="5.62211">
        <ele>167.8</ele>
        <time>2017-04-09T09:52:09Z</time>
      </trkpt>
      <trkpt lat="43.22059" lon="5.62212">
        <ele>168</ele>
        <time>2017-04-09T09:52:10Z</time>
      </trkpt>
      <trkpt lat="43.2207" lon="5.62214">
        <ele>169.2</ele>
        <time>2017-04-09T09:52:15Z</time>
      </trkpt>
      <trkpt lat="43.2208" lon="5.62214">
        <ele>170.6</ele>
        <time>2017-04-09T09:52:20Z</time>
      </trkpt>
      <trkpt lat="43.22084" lon="5.62213">
        <ele>171.2</ele>
        <time>2017-04-09T09:52:22Z</time>
      </trkpt>
      <trkpt lat="43.22092" lon="5.62212">
        <ele>171.6</ele>
        <time>2017-04-09T09:52:26Z</time>
      </trkpt>
      <trkpt lat="43.22098" lon="5.62212">
        <ele>172.8</ele>
        <time>2017-04-09T09:52:29Z</time>
      </trkpt>
      <trkpt lat="43.22104" lon="5.62211">
        <ele>173.2</ele>
        <time>2017-04-09T09:52:32Z</time>
      </trkpt>
      <trkpt lat="43.22108" lon="5.6221">
        <ele>173.8</ele>
        <time>2017-04-09T09:52:34Z</time>
      </trkpt>
      <trkpt lat="43.22108" lon="5.6221">
        <ele>175</ele>
        <time>2017-04-09T09:52:39Z</time>
      </trkpt>
      <trkpt lat="43.22123" lon="5.62204">
        <ele>175.2</ele>
        <time>2017-04-09T09:52:41Z</time>
      </trkpt>
      <trkpt lat="43.22134" lon="5.62201">
        <ele>176</ele>
        <time>2017-04-09T09:52:46Z</time>
      </trkpt>
      <trkpt lat="43.22136" lon="5.62201">
        <ele>176.2</ele>
        <time>2017-04-09T09:52:47Z</time>
      </trkpt>
      <trkpt lat="43.22147" lon="5.62195">
        <ele>177.2</ele>
        <time>2017-04-09T09:52:52Z</time>
      </trkpt>
      <trkpt lat="43.22149" lon="5.62194">
        <ele>177.6</ele>
        <time>2017-04-09T09:52:53Z</time>
      </trkpt>
      <trkpt lat="43.22158" lon="5.62188">
        <ele>178.4</ele>
        <time>2017-04-09T09:52:57Z</time>
      </trkpt>
      <trkpt lat="43.22164" lon="5.62184">
        <ele>178.8</ele>
        <time>2017-04-09T09:53:00Z</time>
      </trkpt>
      <trkpt lat="43.2217" lon="5.62179">
        <ele>179.4</ele>
        <time>2017-04-09T09:53:03Z</time>
      </trkpt>
      <trkpt lat="43.22172" lon="5.62177">
        <ele>179.6</ele>
        <time>2017-04-09T09:53:04Z</time>
      </trkpt>
      <trkpt lat="43.22173" lon="5.62175">
        <ele>180</ele>
        <time>2017-04-09T09:53:05Z</time>
      </trkpt>
      <trkpt lat="43.22179" lon="5.62169">
        <ele>180.6</ele>
        <time>2017-04-09T09:53:08Z</time>
      </trkpt>
      <trkpt lat="43.22186" lon="5.6216">
        <ele>181.8</ele>
        <time>2017-04-09T09:53:12Z</time>
      </trkpt>
      <trkpt lat="43.22187" lon="5.62157">
        <ele>182.4</ele>
        <time>2017-04-09T09:53:13Z</time>
      </trkpt>
      <trkpt lat="43.22192" lon="5.6215">
        <ele>183</ele>
        <time>2017-04-09T09:53:16Z</time>
      </trkpt>
      <trkpt lat="43.22196" lon="5.62139">
        <ele>184</ele>
        <time>2017-04-09T09:53:20Z</time>
      </trkpt>
      <trkpt lat="43.22202" lon="5.62121">
        <ele>184.8</ele>
        <time>2017-04-09T09:53:26Z</time>
      </trkpt>
      <trkpt lat="43.22202" lon="5.62118">
        <ele>185</ele>
        <time>2017-04-09T09:53:27Z</time>
      </trkpt>
      <trkpt lat="43.22204" lon="5.62104">
        <ele>186.2</ele>
        <time>2017-04-09T09:53:31Z</time>
      </trkpt>
      <trkpt lat="43.22204" lon="5.62093">
        <ele>186.6</ele>
        <time>2017-04-09T09:53:34Z</time>
      </trkpt>
      <trkpt lat="43.22206" lon="5.62078">
        <ele>187.4</ele>
        <time>2017-04-09T09:53:38Z</time>
      </trkpt>
      <trkpt lat="43.22206" lon="5.62066">
        <ele>187.4</ele>
        <time>2017-04-09T09:53:41Z</time>
      </trkpt>
      <trkpt lat="43.22211" lon="5.6204">
        <ele>187.8</ele>
        <time>2017-04-09T09:53:47Z</time>
      </trkpt>
      <trkpt lat="43.22215" lon="5.62018">
        <ele>188.2</ele>
        <time>2017-04-09T09:53:52Z</time>
      </trkpt>
      <trkpt lat="43.22218" lon="5.6201">
        <ele>188.6</ele>
        <time>2017-04-09T09:53:54Z</time>
      </trkpt>
      <trkpt lat="43.22223" lon="5.61987">
        <ele>189</ele>
        <time>2017-04-09T09:53:59Z</time>
      </trkpt>
      <trkpt lat="43.22226" lon="5.61962">
        <ele>189.6</ele>
        <time>2017-04-09T09:54:04Z</time>
      </trkpt>
      <trkpt lat="43.22227" lon="5.61958">
        <ele>189.8</ele>
        <time>2017-04-09T09:54:05Z</time>
      </trkpt>
      <trkpt lat="43.22226" lon="5.61937">
        <ele>189.8</ele>
        <time>2017-04-09T09:54:09Z</time>
      </trkpt>
      <trkpt lat="43.22226" lon="5.61904">
        <ele>190.8</ele>
        <time>2017-04-09T09:54:16Z</time>
      </trkpt>
      <trkpt lat="43.22226" lon="5.61899">
        <ele>191</ele>
        <time>2017-04-09T09:54:17Z</time>
      </trkpt>
      <trkpt lat="43.22226" lon="5.61888">
        <ele>192</ele>
        <time>2017-04-09T09:54:20Z</time>
      </trkpt>
      <trkpt lat="43.22226" lon="5.61876">
        <ele>193.4</ele>
        <time>2017-04-09T09:54:23Z</time>
      </trkpt>
      <trkpt lat="43.22226" lon="5.61873">
        <ele>193.6</ele>
        <time>2017-04-09T09:54:24Z</time>
      </trkpt>
      <trkpt lat="43.22227" lon="5.61867">
        <ele>194.2</ele>
        <time>2017-04-09T09:54:26Z</time>
      </trkpt>
      <trkpt lat="43.22227" lon="5.61861">
        <ele>194.6</ele>
        <time>2017-04-09T09:54:28Z</time>
      </trkpt>
      <trkpt lat="43.22229" lon="5.61846">
        <ele>195.6</ele>
        <time>2017-04-09T09:54:33Z</time>
      </trkpt>
      <trkpt lat="43.22229" lon="5.6184">
        <ele>196</ele>
        <time>2017-04-09T09:54:35Z</time>
      </trkpt>
      <trkpt lat="43.22228" lon="5.61824">
        <ele>196.8</ele>
        <time>2017-04-09T09:54:40Z</time>
      </trkpt>
      <trkpt lat="43.22229" lon="5.61821">
        <ele>197.2</ele>
        <time>2017-04-09T09:54:41Z</time>
      </trkpt>
      <trkpt lat="43.2223" lon="5.61812">
        <ele>198</ele>
        <time>2017-04-09T09:54:44Z</time>
      </trkpt>
      <trkpt lat="43.22232" lon="5.618">
        <ele>198.8</ele>
        <time>2017-04-09T09:54:48Z</time>
      </trkpt>
      <trkpt lat="43.22232" lon="5.61797">
        <ele>199</ele>
        <time>2017-04-09T09:54:49Z</time>
      </trkpt>
      <trkpt lat="43.22235" lon="5.61785">
        <ele>200</ele>
        <time>2017-04-09T09:54:53Z</time>
      </trkpt>
      <trkpt lat="43.22237" lon="5.61774">
        <ele>201</ele>
        <time>2017-04-09T09:54:57Z</time>
      </trkpt>
      <trkpt lat="43.22238" lon="5.61769">
        <ele>201.2</ele>
        <time>2017-04-09T09:54:59Z</time>
      </trkpt>
      <trkpt lat="43.2224" lon="5.6176">
        <ele>201</ele>
        <time>2017-04-09T09:55:02Z</time>
      </trkpt>
      <trkpt lat="43.22243" lon="5.61746">
        <ele>202.6</ele>
        <time>2017-04-09T09:55:07Z</time>
      </trkpt>
      <trkpt lat="43.22244" lon="5.61744">
        <ele>203</ele>
        <time>2017-04-09T09:55:08Z</time>
      </trkpt>
      <trkpt lat="43.22246" lon="5.61734">
        <ele>203.6</ele>
        <time>2017-04-09T09:55:11Z</time>
      </trkpt>
      <trkpt lat="43.22248" lon="5.61721">
        <ele>204.4</ele>
        <time>2017-04-09T09:55:15Z</time>
      </trkpt>
      <trkpt lat="43.22248" lon="5.61718">
        <ele>205</ele>
        <time>2017-04-09T09:55:16Z</time>
      </trkpt>
      <trkpt lat="43.22248" lon="5.61708">
        <ele>206</ele>
        <time>2017-04-09T09:55:19Z</time>
      </trkpt>
      <trkpt lat="43.22247" lon="5.61698">
        <ele>206</ele>
        <time>2017-04-09T09:55:22Z</time>
      </trkpt>
      <trkpt lat="43.22245" lon="5.6167">
        <ele>206.8</ele>
        <time>2017-04-09T09:55:31Z</time>
      </trkpt>
      <trkpt lat="43.22245" lon="5.61663">
        <ele>207.4</ele>
        <time>2017-04-09T09:55:33Z</time>
      </trkpt>
      <trkpt lat="43.22245" lon="5.61651">
        <ele>208.8</ele>
        <time>2017-04-09T09:55:37Z</time>
      </trkpt>
      <trkpt lat="43.22245" lon="5.61642">
        <ele>209.6</ele>
        <time>2017-04-09T09:55:40Z</time>
      </trkpt>
      <trkpt lat="43.22245" lon="5.61639">
        <ele>210</ele>
        <time>2017-04-09T09:55:41Z</time>
      </trkpt>
      <trkpt lat="43.22245" lon="5.61627">
        <ele>211.2</ele>
        <time>2017-04-09T09:55:45Z</time>
      </trkpt>
      <trkpt lat="43.22246" lon="5.61622">
        <ele>211.8</ele>
        <time>2017-04-09T09:55:47Z</time>
      </trkpt>
      <trkpt lat="43.22247" lon="5.61617">
        <ele>212</ele>
        <time>2017-04-09T09:55:49Z</time>
      </trkpt>
      <trkpt lat="43.22246" lon="5.61615">
        <ele>212.2</ele>
        <time>2017-04-09T09:55:50Z</time>
      </trkpt>
      <trkpt lat="43.22247" lon="5.6161">
        <ele>212.8</ele>
        <time>2017-04-09T09:55:52Z</time>
      </trkpt>
      <trkpt lat="43.22247" lon="5.61604">
        <ele>213.2</ele>
        <time>2017-04-09T09:55:54Z</time>
      </trkpt>
      <trkpt lat="43.22247" lon="5.61602">
        <ele>213.6</ele>
        <time>2017-04-09T09:55:55Z</time>
      </trkpt>
      <trkpt lat="43.22246" lon="5.61588">
        <ele>214.2</ele>
        <time>2017-04-09T09:56:00Z</time>
      </trkpt>
      <trkpt lat="43.22246" lon="5.61586">
        <ele>214.8</ele>
        <time>2017-04-09T09:56:01Z</time>
      </trkpt>
      <trkpt lat="43.2225" lon="5.61576">
        <ele>215.8</ele>
        <time>2017-04-09T09:56:05Z</time>
      </trkpt>
      <trkpt lat="43.22252" lon="5.61574">
        <ele>215.8</ele>
        <time>2017-04-09T09:56:06Z</time>
      </trkpt>
      <trkpt lat="43.22259" lon="5.6157">
        <ele>217</ele>
        <time>2017-04-09T09:56:10Z</time>
      </trkpt>
      <trkpt lat="43.22262" lon="5.6157">
        <ele>217.6</ele>
        <time>2017-04-09T09:56:12Z</time>
      </trkpt>
      <trkpt lat="43.22268" lon="5.61569">
        <ele>218.2</ele>
        <time>2017-04-09T09:56:15Z</time>
      </trkpt>
      <trkpt lat="43.22271" lon="5.61568">
        <ele>218.8</ele>
        <time>2017-04-09T09:56:17Z</time>
      </trkpt>
      <trkpt lat="43.22277" lon="5.61566">
        <ele>219.2</ele>
        <time>2017-04-09T09:56:20Z</time>
      </trkpt>
      <trkpt lat="43.22278" lon="5.61566">
        <ele>219.4</ele>
        <time>2017-04-09T09:56:21Z</time>
      </trkpt>
      <trkpt lat="43.22282" lon="5.61566">
        <ele>220</ele>
        <time>2017-04-09T09:56:23Z</time>
      </trkpt>
      <trkpt lat="43.22289" lon="5.61563">
        <ele>220.6</ele>
        <time>2017-04-09T09:56:27Z</time>
      </trkpt>
      <trkpt lat="43.22292" lon="5.61563">
        <ele>221.2</ele>
        <time>2017-04-09T09:56:29Z</time>
      </trkpt>
      <trkpt lat="43.22295" lon="5.61561">
        <ele>221.8</ele>
        <time>2017-04-09T09:56:31Z</time>
      </trkpt>
      <trkpt lat="43.22303" lon="5.61558">
        <ele>222.6</ele>
        <time>2017-04-09T09:56:35Z</time>
      </trkpt>
      <trkpt lat="43.22305" lon="5.61557">
        <ele>223</ele>
        <time>2017-04-09T09:56:36Z</time>
      </trkpt>
      <trkpt lat="43.22317" lon="5.61553">
        <ele>223.4</ele>
        <time>2017-04-09T09:56:42Z</time>
      </trkpt>
      <trkpt lat="43.22328" lon="5.61545">
        <ele>224.2</ele>
        <time>2017-04-09T09:56:48Z</time>
      </trkpt>
      <trkpt lat="43.22331" lon="5.61541">
        <ele>224.8</ele>
        <time>2017-04-09T09:56:50Z</time>
      </trkpt>
      <trkpt lat="43.22333" lon="5.61539">
        <ele>225.2</ele>
        <time>2017-04-09T09:56:51Z</time>
      </trkpt>
      <trkpt lat="43.2234" lon="5.61528">
        <ele>226.4</ele>
        <time>2017-04-09T09:56:56Z</time>
      </trkpt>
      <trkpt lat="43.22341" lon="5.61525">
        <ele>226.4</ele>
        <time>2017-04-09T09:56:57Z</time>
      </trkpt>
      <trkpt lat="43.22349" lon="5.61512">
        <ele>227.4</ele>
        <time>2017-04-09T09:57:03Z</time>
      </trkpt>
      <trkpt lat="43.22353" lon="5.61506">
        <ele>228.4</ele>
        <time>2017-04-09T09:57:06Z</time>
      </trkpt>
      <trkpt lat="43.22361" lon="5.61492">
        <ele>229.8</ele>
        <time>2017-04-09T09:57:12Z</time>
      </trkpt>
      <trkpt lat="43.22362" lon="5.61491">
        <ele>230</ele>
        <time>2017-04-09T09:57:13Z</time>
      </trkpt>
      <trkpt lat="43.22366" lon="5.61484">
        <ele>231</ele>
        <time>2017-04-09T09:57:16Z</time>
      </trkpt>
      <trkpt lat="43.2237" lon="5.61478">
        <ele>231.4</ele>
        <time>2017-04-09T09:57:19Z</time>
      </trkpt>
      <trkpt lat="43.22373" lon="5.61474">
        <ele>232.2</ele>
        <time>2017-04-09T09:57:21Z</time>
      </trkpt>
      <trkpt lat="43.22374" lon="5.61471">
        <ele>232.2</ele>
        <time>2017-04-09T09:57:22Z</time>
      </trkpt>
      <trkpt lat="43.22377" lon="5.61467">
        <ele>233</ele>
        <time>2017-04-09T09:57:24Z</time>
      </trkpt>
      <trkpt lat="43.22378" lon="5.61464">
        <ele>233.4</ele>
        <time>2017-04-09T09:57:25Z</time>
      </trkpt>
      <trkpt lat="43.22379" lon="5.61459">
        <ele>233.4</ele>
        <time>2017-04-09T09:57:27Z</time>
      </trkpt>
      <trkpt lat="43.22381" lon="5.6145">
        <ele>234.2</ele>
        <time>2017-04-09T09:57:30Z</time>
      </trkpt>
      <trkpt lat="43.22381" lon="5.61447">
        <ele>234.4</ele>
        <time>2017-04-09T09:57:31Z</time>
      </trkpt>
      <trkpt lat="43.22384" lon="5.61431">
        <ele>234.4</ele>
        <time>2017-04-09T09:57:37Z</time>
      </trkpt>
      <trkpt lat="43.22385" lon="5.61423">
        <ele>235.6</ele>
        <time>2017-04-09T09:57:40Z</time>
      </trkpt>
      <trkpt lat="43.22386" lon="5.61415">
        <ele>236.2</ele>
        <time>2017-04-09T09:57:43Z</time>
      </trkpt>
      <trkpt lat="43.22387" lon="5.61409">
        <ele>236.8</ele>
        <time>2017-04-09T09:57:45Z</time>
      </trkpt>
      <trkpt lat="43.22389" lon="5.61401">
        <ele>238.2</ele>
        <time>2017-04-09T09:57:48Z</time>
      </trkpt>
      <trkpt lat="43.2239" lon="5.61395">
        <ele>239</ele>
        <time>2017-04-09T09:57:50Z</time>
      </trkpt>
      <trkpt lat="43.2239" lon="5.61393">
        <ele>239.2</ele>
        <time>2017-04-09T09:57:51Z</time>
      </trkpt>
      <trkpt lat="43.22389" lon="5.61384">
        <ele>240.2</ele>
        <time>2017-04-09T09:57:54Z</time>
      </trkpt>
      <trkpt lat="43.2239" lon="5.61381">
        <ele>240.4</ele>
        <time>2017-04-09T09:57:55Z</time>
      </trkpt>
      <trkpt lat="43.22387" lon="5.61373">
        <ele>241.2</ele>
        <time>2017-04-09T09:57:58Z</time>
      </trkpt>
      <trkpt lat="43.22387" lon="5.61367">
        <ele>241.6</ele>
        <time>2017-04-09T09:58:00Z</time>
      </trkpt>
      <trkpt lat="43.22387" lon="5.61355">
        <ele>242.4</ele>
        <time>2017-04-09T09:58:04Z</time>
      </trkpt>
      <trkpt lat="43.22387" lon="5.61349">
        <ele>242.8</ele>
        <time>2017-04-09T09:58:06Z</time>
      </trkpt>
      <trkpt lat="43.22387" lon="5.61346">
        <ele>243.4</ele>
        <time>2017-04-09T09:58:07Z</time>
      </trkpt>
      <trkpt lat="43.22384" lon="5.61336">
        <ele>244</ele>
        <time>2017-04-09T09:58:11Z</time>
      </trkpt>
      <trkpt lat="43.22382" lon="5.61328">
        <ele>244.6</ele>
        <time>2017-04-09T09:58:14Z</time>
      </trkpt>
      <trkpt lat="43.2238" lon="5.61323">
        <ele>245.6</ele>
        <time>2017-04-09T09:58:16Z</time>
      </trkpt>
      <trkpt lat="43.22378" lon="5.61318">
        <ele>245.6</ele>
        <time>2017-04-09T09:58:18Z</time>
      </trkpt>
      <trkpt lat="43.22371" lon="5.61307">
        <ele>246.8</ele>
        <time>2017-04-09T09:58:23Z</time>
      </trkpt>
      <trkpt lat="43.2237" lon="5.61305">
        <ele>246.8</ele>
        <time>2017-04-09T09:58:24Z</time>
      </trkpt>
      <trkpt lat="43.22362" lon="5.61296">
        <ele>247.6</ele>
        <time>2017-04-09T09:58:29Z</time>
      </trkpt>
      <trkpt lat="43.2236" lon="5.61295">
        <ele>247.8</ele>
        <time>2017-04-09T09:58:30Z</time>
      </trkpt>
      <trkpt lat="43.22351" lon="5.61289">
        <ele>249.2</ele>
        <time>2017-04-09T09:58:35Z</time>
      </trkpt>
      <trkpt lat="43.22341" lon="5.61284">
        <ele>250.2</ele>
        <time>2017-04-09T09:58:40Z</time>
      </trkpt>
      <trkpt lat="43.22339" lon="5.61284">
        <ele>250.6</ele>
        <time>2017-04-09T09:58:41Z</time>
      </trkpt>
      <trkpt lat="43.22335" lon="5.61282">
        <ele>251.2</ele>
        <time>2017-04-09T09:58:43Z</time>
      </trkpt>
      <trkpt lat="43.22327" lon="5.6128">
        <ele>252.4</ele>
        <time>2017-04-09T09:58:47Z</time>
      </trkpt>
      <trkpt lat="43.22313" lon="5.61278">
        <ele>252.8</ele>
        <time>2017-04-09T09:58:53Z</time>
      </trkpt>
      <trkpt lat="43.22306" lon="5.61276">
        <ele>253.6</ele>
        <time>2017-04-09T09:58:56Z</time>
      </trkpt>
      <trkpt lat="43.22294" lon="5.6127">
        <ele>254</ele>
        <time>2017-04-09T09:59:01Z</time>
      </trkpt>
      <trkpt lat="43.22287" lon="5.61264">
        <ele>252.4</ele>
        <time>2017-04-09T09:59:04Z</time>
      </trkpt>
      <trkpt lat="43.2228" lon="5.61258">
        <ele>255.2</ele>
        <time>2017-04-09T09:59:07Z</time>
      </trkpt>
      <trkpt lat="43.22277" lon="5.61249">
        <ele>255</ele>
        <time>2017-04-09T09:59:10Z</time>
      </trkpt>
      <trkpt lat="43.22282" lon="5.6124">
        <ele>255.8</ele>
        <time>2017-04-09T09:59:14Z</time>
      </trkpt>
      <trkpt lat="43.22284" lon="5.61239">
        <ele>256.2</ele>
        <time>2017-04-09T09:59:15Z</time>
      </trkpt>
      <trkpt lat="43.22291" lon="5.61241">
        <ele>257.6</ele>
        <time>2017-04-09T09:59:19Z</time>
      </trkpt>
      <trkpt lat="43.22293" lon="5.61242">
        <ele>257.8</ele>
        <time>2017-04-09T09:59:20Z</time>
      </trkpt>
      <trkpt lat="43.22298" lon="5.61246">
        <ele>258.6</ele>
        <time>2017-04-09T09:59:23Z</time>
      </trkpt>
      <trkpt lat="43.22304" lon="5.61247">
        <ele>259.4</ele>
        <time>2017-04-09T09:59:26Z</time>
      </trkpt>
      <trkpt lat="43.22306" lon="5.61246">
        <ele>259.8</ele>
        <time>2017-04-09T09:59:27Z</time>
      </trkpt>
      <trkpt lat="43.22314" lon="5.61247">
        <ele>261</ele>
        <time>2017-04-09T09:59:31Z</time>
      </trkpt>
      <trkpt lat="43.22318" lon="5.61247">
        <ele>261.4</ele>
        <time>2017-04-09T09:59:33Z</time>
      </trkpt>
      <trkpt lat="43.22327" lon="5.61245">
        <ele>262</ele>
        <time>2017-04-09T09:59:37Z</time>
      </trkpt>
      <trkpt lat="43.22331" lon="5.61243">
        <ele>262.2</ele>
        <time>2017-04-09T09:59:39Z</time>
      </trkpt>
      <trkpt lat="43.22342" lon="5.61241">
        <ele>263.2</ele>
        <time>2017-04-09T09:59:44Z</time>
      </trkpt>
      <trkpt lat="43.22347" lon="5.6124">
        <ele>263.6</ele>
        <time>2017-04-09T09:59:46Z</time>
      </trkpt>
      <trkpt lat="43.22354" lon="5.61239">
        <ele>264.6</ele>
        <time>2017-04-09T09:59:49Z</time>
      </trkpt>
      <trkpt lat="43.22359" lon="5.61239">
        <ele>265</ele>
        <time>2017-04-09T09:59:51Z</time>
      </trkpt>
      <trkpt lat="43.22368" lon="5.61238">
        <ele>265.8</ele>
        <time>2017-04-09T09:59:55Z</time>
      </trkpt>
      <trkpt lat="43.22371" lon="5.61238">
        <ele>266.8</ele>
        <time>2017-04-09T09:59:57Z</time>
      </trkpt>
      <trkpt lat="43.22373" lon="5.61237">
        <ele>267</ele>
        <time>2017-04-09T09:59:58Z</time>
      </trkpt>
      <trkpt lat="43.22381" lon="5.61237">
        <ele>268</ele>
        <time>2017-04-09T10:00:02Z</time>
      </trkpt>
      <trkpt lat="43.22386" lon="5.61238">
        <ele>269</ele>
        <time>2017-04-09T10:00:04Z</time>
      </trkpt>
      <trkpt lat="43.22393" lon="5.61241">
        <ele>270.4</ele>
        <time>2017-04-09T10:00:08Z</time>
      </trkpt>
      <trkpt lat="43.22397" lon="5.61243">
        <ele>270.8</ele>
        <time>2017-04-09T10:00:10Z</time>
      </trkpt>
      <trkpt lat="43.224" lon="5.61245">
        <ele>271.4</ele>
        <time>2017-04-09T10:00:12Z</time>
      </trkpt>
      <trkpt lat="43.22402" lon="5.61247">
        <ele>271.8</ele>
        <time>2017-04-09T10:00:13Z</time>
      </trkpt>
      <trkpt lat="43.22409" lon="5.6125">
        <ele>272.6</ele>
        <time>2017-04-09T10:00:17Z</time>
      </trkpt>
      <trkpt lat="43.22416" lon="5.61255">
        <ele>274</ele>
        <time>2017-04-09T10:00:21Z</time>
      </trkpt>
      <trkpt lat="43.22421" lon="5.61259">
        <ele>275</ele>
        <time>2017-04-09T10:00:24Z</time>
      </trkpt>
      <trkpt lat="43.22425" lon="5.61261">
        <ele>275.6</ele>
        <time>2017-04-09T10:00:26Z</time>
      </trkpt>
      <trkpt lat="43.22428" lon="5.61264">
        <ele>276.2</ele>
        <time>2017-04-09T10:00:28Z</time>
      </trkpt>
      <trkpt lat="43.22435" lon="5.6127">
        <ele>277.4</ele>
        <time>2017-04-09T10:00:32Z</time>
      </trkpt>
      <trkpt lat="43.22437" lon="5.61272">
        <ele>277.6</ele>
        <time>2017-04-09T10:00:33Z</time>
      </trkpt>
      <trkpt lat="43.22443" lon="5.61278">
        <ele>278.4</ele>
        <time>2017-04-09T10:00:36Z</time>
      </trkpt>
      <trkpt lat="43.22449" lon="5.61286">
        <ele>279.4</ele>
        <time>2017-04-09T10:00:40Z</time>
      </trkpt>
      <trkpt lat="43.22454" lon="5.61288">
        <ele>279.4</ele>
        <time>2017-04-09T10:00:42Z</time>
      </trkpt>
      <trkpt lat="43.22468" lon="5.61299">
        <ele>279.6</ele>
        <time>2017-04-09T10:00:48Z</time>
      </trkpt>
      <trkpt lat="43.2249" lon="5.61315">
        <ele>278.8</ele>
        <time>2017-04-09T10:00:54Z</time>
      </trkpt>
      <trkpt lat="43.22499" lon="5.61322">
        <ele>278.2</ele>
        <time>2017-04-09T10:00:56Z</time>
      </trkpt>
      <trkpt lat="43.22518" lon="5.61335">
        <ele>277.2</ele>
        <time>2017-04-09T10:01:00Z</time>
      </trkpt>
      <trkpt lat="43.22528" lon="5.61341">
        <ele>276.8</ele>
        <time>2017-04-09T10:01:02Z</time>
      </trkpt>
      <trkpt lat="43.22533" lon="5.61344">
        <ele>275.8</ele>
        <time>2017-04-09T10:01:03Z</time>
      </trkpt>
      <trkpt lat="43.22539" lon="5.61346">
        <ele>275.4</ele>
        <time>2017-04-09T10:01:04Z</time>
      </trkpt>
      <trkpt lat="43.22545" lon="5.61346">
        <ele>275.4</ele>
        <time>2017-04-09T10:01:05Z</time>
      </trkpt>
      <trkpt lat="43.22558" lon="5.6135">
        <ele>274.6</ele>
        <time>2017-04-09T10:01:07Z</time>
      </trkpt>
      <trkpt lat="43.22565" lon="5.61351">
        <ele>273.2</ele>
        <time>2017-04-09T10:01:08Z</time>
      </trkpt>
      <trkpt lat="43.22573" lon="5.61351">
        <ele>272.2</ele>
        <time>2017-04-09T10:01:09Z</time>
      </trkpt>
      <trkpt lat="43.22582" lon="5.61349">
        <ele>270.8</ele>
        <time>2017-04-09T10:01:10Z</time>
      </trkpt>
      <trkpt lat="43.22597" lon="5.61342">
        <ele>269</ele>
        <time>2017-04-09T10:01:12Z</time>
      </trkpt>
      <trkpt lat="43.22611" lon="5.61332">
        <ele>268</ele>
        <time>2017-04-09T10:01:14Z</time>
      </trkpt>
      <trkpt lat="43.22623" lon="5.61323">
        <ele>269</ele>
        <time>2017-04-09T10:01:16Z</time>
      </trkpt>
      <trkpt lat="43.22633" lon="5.61316">
        <ele>270.6</ele>
        <time>2017-04-09T10:01:18Z</time>
      </trkpt>
      <trkpt lat="43.22636" lon="5.61314">
        <ele>271.6</ele>
        <time>2017-04-09T10:01:19Z</time>
      </trkpt>
      <trkpt lat="43.22639" lon="5.61312">
        <ele>272.8</ele>
        <time>2017-04-09T10:01:20Z</time>
      </trkpt>
      <trkpt lat="43.22647" lon="5.61305">
        <ele>273.8</ele>
        <time>2017-04-09T10:01:24Z</time>
      </trkpt>
      <trkpt lat="43.22649" lon="5.61303">
        <ele>274</ele>
        <time>2017-04-09T10:01:25Z</time>
      </trkpt>
      <trkpt lat="43.22656" lon="5.61295">
        <ele>275</ele>
        <time>2017-04-09T10:01:29Z</time>
      </trkpt>
      <trkpt lat="43.2266" lon="5.61291">
        <ele>275.4</ele>
        <time>2017-04-09T10:01:31Z</time>
      </trkpt>
      <trkpt lat="43.22664" lon="5.61286">
        <ele>276.2</ele>
        <time>2017-04-09T10:01:33Z</time>
      </trkpt>
      <trkpt lat="43.2267" lon="5.61277">
        <ele>277.2</ele>
        <time>2017-04-09T10:01:37Z</time>
      </trkpt>
      <trkpt lat="43.22673" lon="5.61273">
        <ele>277.6</ele>
        <time>2017-04-09T10:01:39Z</time>
      </trkpt>
      <trkpt lat="43.22677" lon="5.61269">
        <ele>278.2</ele>
        <time>2017-04-09T10:01:41Z</time>
      </trkpt>
      <trkpt lat="43.22687" lon="5.61262">
        <ele>279.4</ele>
        <time>2017-04-09T10:01:46Z</time>
      </trkpt>
      <trkpt lat="43.22698" lon="5.61258">
        <ele>280.8</ele>
        <time>2017-04-09T10:01:51Z</time>
      </trkpt>
      <trkpt lat="43.227" lon="5.61257">
        <ele>281</ele>
        <time>2017-04-09T10:01:52Z</time>
      </trkpt>
      <trkpt lat="43.22707" lon="5.61257">
        <ele>281.8</ele>
        <time>2017-04-09T10:01:55Z</time>
      </trkpt>
      <trkpt lat="43.22714" lon="5.61257">
        <ele>282.8</ele>
        <time>2017-04-09T10:01:58Z</time>
      </trkpt>
      <trkpt lat="43.22719" lon="5.61259">
        <ele>283.2</ele>
        <time>2017-04-09T10:02:00Z</time>
      </trkpt>
      <trkpt lat="43.22728" lon="5.61262">
        <ele>284.2</ele>
        <time>2017-04-09T10:02:04Z</time>
      </trkpt>
      <trkpt lat="43.22733" lon="5.61264">
        <ele>284.6</ele>
        <time>2017-04-09T10:02:06Z</time>
      </trkpt>
      <trkpt lat="43.22737" lon="5.61268">
        <ele>285.2</ele>
        <time>2017-04-09T10:02:08Z</time>
      </trkpt>
      <trkpt lat="43.22745" lon="5.61275">
        <ele>285.8</ele>
        <time>2017-04-09T10:02:12Z</time>
      </trkpt>
      <trkpt lat="43.22756" lon="5.61285">
        <ele>286.6</ele>
        <time>2017-04-09T10:02:17Z</time>
      </trkpt>
      <trkpt lat="43.22761" lon="5.61289">
        <ele>287.2</ele>
        <time>2017-04-09T10:02:19Z</time>
      </trkpt>
      <trkpt lat="43.22767" lon="5.61296">
        <ele>288</ele>
        <time>2017-04-09T10:02:22Z</time>
      </trkpt>
      <trkpt lat="43.22777" lon="5.61304">
        <ele>288.2</ele>
        <time>2017-04-09T10:02:26Z</time>
      </trkpt>
      <trkpt lat="43.22784" lon="5.61311">
        <ele>289</ele>
        <time>2017-04-09T10:02:29Z</time>
      </trkpt>
      <trkpt lat="43.22798" lon="5.61322">
        <ele>289.8</ele>
        <time>2017-04-09T10:02:34Z</time>
      </trkpt>
      <trkpt lat="43.228" lon="5.61324">
        <ele>290.2</ele>
        <time>2017-04-09T10:02:35Z</time>
      </trkpt>
      <trkpt lat="43.22812" lon="5.61332">
        <ele>290.2</ele>
        <time>2017-04-09T10:02:39Z</time>
      </trkpt>
      <trkpt lat="43.22827" lon="5.61347">
        <ele>291.2</ele>
        <time>2017-04-09T10:02:44Z</time>
      </trkpt>
      <trkpt lat="43.2283" lon="5.6135">
        <ele>291.2</ele>
        <time>2017-04-09T10:02:45Z</time>
      </trkpt>
      <trkpt lat="43.22849" lon="5.61378">
        <ele>290.6</ele>
        <time>2017-04-09T10:02:52Z</time>
      </trkpt>
      <trkpt lat="43.22866" lon="5.61398">
        <ele>291.8</ele>
        <time>2017-04-09T10:02:58Z</time>
      </trkpt>
      <trkpt lat="43.2287" lon="5.61402">
        <ele>292.4</ele>
        <time>2017-04-09T10:03:00Z</time>
      </trkpt>
      <trkpt lat="43.22879" lon="5.61408">
        <ele>293.6</ele>
        <time>2017-04-09T10:03:04Z</time>
      </trkpt>
      <trkpt lat="43.22888" lon="5.61417">
        <ele>294.8</ele>
        <time>2017-04-09T10:03:09Z</time>
      </trkpt>
      <trkpt lat="43.22893" lon="5.61419">
        <ele>295.8</ele>
        <time>2017-04-09T10:03:11Z</time>
      </trkpt>
      <trkpt lat="43.22901" lon="5.61424">
        <ele>297.2</ele>
        <time>2017-04-09T10:03:15Z</time>
      </trkpt>
      <trkpt lat="43.22904" lon="5.61424">
        <ele>297.4</ele>
        <time>2017-04-09T10:03:16Z</time>
      </trkpt>
      <trkpt lat="43.22915" lon="5.61426">
        <ele>298.4</ele>
        <time>2017-04-09T10:03:21Z</time>
      </trkpt>
      <trkpt lat="43.22928" lon="5.61424">
        <ele>299.4</ele>
        <time>2017-04-09T10:03:26Z</time>
      </trkpt>
      <trkpt lat="43.2293" lon="5.61424">
        <ele>299.8</ele>
        <time>2017-04-09T10:03:27Z</time>
      </trkpt>
      <trkpt lat="43.22938" lon="5.61423">
        <ele>300.6</ele>
        <time>2017-04-09T10:03:30Z</time>
      </trkpt>
      <trkpt lat="43.22946" lon="5.61423">
        <ele>300.8</ele>
        <time>2017-04-09T10:03:33Z</time>
      </trkpt>
      <trkpt lat="43.22959" lon="5.61424">
        <ele>302</ele>
        <time>2017-04-09T10:03:38Z</time>
      </trkpt>
      <trkpt lat="43.22968" lon="5.61425">
        <ele>302.4</ele>
        <time>2017-04-09T10:03:41Z</time>
      </trkpt>
      <trkpt lat="43.22976" lon="5.61426">
        <ele>303.2</ele>
        <time>2017-04-09T10:03:44Z</time>
      </trkpt>
      <trkpt lat="43.22987" lon="5.6143">
        <ele>304.4</ele>
        <time>2017-04-09T10:03:48Z</time>
      </trkpt>
      <trkpt lat="43.22992" lon="5.61433">
        <ele>304.6</ele>
        <time>2017-04-09T10:03:50Z</time>
      </trkpt>
      <trkpt lat="43.22999" lon="5.61439">
        <ele>305.6</ele>
        <time>2017-04-09T10:03:53Z</time>
      </trkpt>
      <trkpt lat="43.23004" lon="5.61447">
        <ele>306</ele>
        <time>2017-04-09T10:03:56Z</time>
      </trkpt>
      <trkpt lat="43.23007" lon="5.61454">
        <ele>306.8</ele>
        <time>2017-04-09T10:03:58Z</time>
      </trkpt>
      <trkpt lat="43.23011" lon="5.61468">
        <ele>308</ele>
        <time>2017-04-09T10:04:02Z</time>
      </trkpt>
      <trkpt lat="43.23012" lon="5.61472">
        <ele>308.2</ele>
        <time>2017-04-09T10:04:03Z</time>
      </trkpt>
      <trkpt lat="43.23017" lon="5.61489">
        <ele>309</ele>
        <time>2017-04-09T10:04:08Z</time>
      </trkpt>
      <trkpt lat="43.23022" lon="5.61498">
        <ele>309.2</ele>
        <time>2017-04-09T10:04:11Z</time>
      </trkpt>
      <trkpt lat="43.23029" lon="5.61506">
        <ele>310.2</ele>
        <time>2017-04-09T10:04:14Z</time>
      </trkpt>
      <trkpt lat="43.23035" lon="5.61513">
        <ele>311.2</ele>
        <time>2017-04-09T10:04:17Z</time>
      </trkpt>
      <trkpt lat="43.23047" lon="5.61517">
        <ele>311.8</ele>
        <time>2017-04-09T10:04:21Z</time>
      </trkpt>
      <trkpt lat="43.2305" lon="5.61515">
        <ele>311.8</ele>
        <time>2017-04-09T10:04:22Z</time>
      </trkpt>
      <trkpt lat="43.23064" lon="5.61499">
        <ele>312.2</ele>
        <time>2017-04-09T10:04:27Z</time>
      </trkpt>
      <trkpt lat="43.23068" lon="5.61496">
        <ele>312</ele>
        <time>2017-04-09T10:04:28Z</time>
      </trkpt>
      <trkpt lat="43.23084" lon="5.61486">
        <ele>311.6</ele>
        <time>2017-04-09T10:04:32Z</time>
      </trkpt>
      <trkpt lat="43.23089" lon="5.61484">
        <ele>311.2</ele>
        <time>2017-04-09T10:04:33Z</time>
      </trkpt>
      <trkpt lat="43.23098" lon="5.61479">
        <ele>311.2</ele>
        <time>2017-04-09T10:04:35Z</time>
      </trkpt>
      <trkpt lat="43.23121" lon="5.61472">
        <ele>312.2</ele>
        <time>2017-04-09T10:04:40Z</time>
      </trkpt>
      <trkpt lat="43.23134" lon="5.61469">
        <ele>313.4</ele>
        <time>2017-04-09T10:04:43Z</time>
      </trkpt>
      <trkpt lat="43.23161" lon="5.61462">
        <ele>314.2</ele>
        <time>2017-04-09T10:04:49Z</time>
      </trkpt>
      <trkpt lat="43.23166" lon="5.61461">
        <ele>314.4</ele>
        <time>2017-04-09T10:04:50Z</time>
      </trkpt>
      <trkpt lat="43.23189" lon="5.61446">
        <ele>315</ele>
        <time>2017-04-09T10:04:56Z</time>
      </trkpt>
      <trkpt lat="43.232" lon="5.61437">
        <ele>315.6</ele>
        <time>2017-04-09T10:04:59Z</time>
      </trkpt>
      <trkpt lat="43.23218" lon="5.61424">
        <ele>316</ele>
        <time>2017-04-09T10:05:04Z</time>
      </trkpt>
      <trkpt lat="43.23222" lon="5.61423">
        <ele>316</ele>
        <time>2017-04-09T10:05:05Z</time>
      </trkpt>
      <trkpt lat="43.23233" lon="5.61417">
        <ele>316.8</ele>
        <time>2017-04-09T10:05:08Z</time>
      </trkpt>
      <trkpt lat="43.2324" lon="5.61414">
        <ele>317</ele>
        <time>2017-04-09T10:05:10Z</time>
      </trkpt>
      <trkpt lat="43.23255" lon="5.61408">
        <ele>317.8</ele>
        <time>2017-04-09T10:05:14Z</time>
      </trkpt>
      <trkpt lat="43.23269" lon="5.61404">
        <ele>319</ele>
        <time>2017-04-09T10:05:18Z</time>
      </trkpt>
      <trkpt lat="43.23276" lon="5.61403">
        <ele>319.4</ele>
        <time>2017-04-09T10:05:20Z</time>
      </trkpt>
      <trkpt lat="43.23288" lon="5.614">
        <ele>320.4</ele>
        <time>2017-04-09T10:05:23Z</time>
      </trkpt>
      <trkpt lat="43.23306" lon="5.61394">
        <ele>321.8</ele>
        <time>2017-04-09T10:05:28Z</time>
      </trkpt>
      <trkpt lat="43.23327" lon="5.61394">
        <ele>322.6</ele>
        <time>2017-04-09T10:05:34Z</time>
      </trkpt>
      <trkpt lat="43.2333" lon="5.61395">
        <ele>323</ele>
        <time>2017-04-09T10:05:35Z</time>
      </trkpt>
      <trkpt lat="43.23342" lon="5.61398">
        <ele>323.8</ele>
        <time>2017-04-09T10:05:39Z</time>
      </trkpt>
      <trkpt lat="43.23345" lon="5.614">
        <ele>324.2</ele>
        <time>2017-04-09T10:05:40Z</time>
      </trkpt>
      <trkpt lat="43.23357" lon="5.61408">
        <ele>325.4</ele>
        <time>2017-04-09T10:05:45Z</time>
      </trkpt>
      <trkpt lat="43.23362" lon="5.61412">
        <ele>326</ele>
        <time>2017-04-09T10:05:47Z</time>
      </trkpt>
      <trkpt lat="43.2337" lon="5.61415">
        <ele>326.6</ele>
        <time>2017-04-09T10:05:50Z</time>
      </trkpt>
      <trkpt lat="43.23378" lon="5.61417">
        <ele>327.2</ele>
        <time>2017-04-09T10:05:53Z</time>
      </trkpt>
      <trkpt lat="43.23383" lon="5.61419">
        <ele>327.8</ele>
        <time>2017-04-09T10:05:55Z</time>
      </trkpt>
      <trkpt lat="43.23397" lon="5.61421">
        <ele>328.8</ele>
        <time>2017-04-09T10:06:00Z</time>
      </trkpt>
      <trkpt lat="43.234" lon="5.61421">
        <ele>329</ele>
        <time>2017-04-09T10:06:01Z</time>
      </trkpt>
      <trkpt lat="43.23414" lon="5.61419">
        <ele>330.2</ele>
        <time>2017-04-09T10:06:06Z</time>
      </trkpt>
      <trkpt lat="43.23417" lon="5.61418">
        <ele>330.6</ele>
        <time>2017-04-09T10:06:07Z</time>
      </trkpt>
      <trkpt lat="43.23431" lon="5.61416">
        <ele>331.4</ele>
        <time>2017-04-09T10:06:12Z</time>
      </trkpt>
      <trkpt lat="43.23434" lon="5.61417">
        <ele>331.8</ele>
        <time>2017-04-09T10:06:13Z</time>
      </trkpt>
      <trkpt lat="43.23445" lon="5.61417">
        <ele>332.6</ele>
        <time>2017-04-09T10:06:17Z</time>
      </trkpt>
      <trkpt lat="43.23454" lon="5.61417">
        <ele>333.2</ele>
        <time>2017-04-09T10:06:20Z</time>
      </trkpt>
      <trkpt lat="43.2347" lon="5.61417">
        <ele>333.8</ele>
        <time>2017-04-09T10:06:25Z</time>
      </trkpt>
      <trkpt lat="43.23473" lon="5.61417">
        <ele>334</ele>
        <time>2017-04-09T10:06:26Z</time>
      </trkpt>
      <trkpt lat="43.23483" lon="5.61417">
        <ele>335</ele>
        <time>2017-04-09T10:06:29Z</time>
      </trkpt>
      <trkpt lat="43.23496" lon="5.61414">
        <ele>335.6</ele>
        <time>2017-04-09T10:06:33Z</time>
      </trkpt>
      <trkpt lat="43.23506" lon="5.61411">
        <ele>336</ele>
        <time>2017-04-09T10:06:36Z</time>
      </trkpt>
      <trkpt lat="43.23522" lon="5.61409">
        <ele>337.2</ele>
        <time>2017-04-09T10:06:41Z</time>
      </trkpt>
      <trkpt lat="43.23542" lon="5.61408">
        <ele>338.4</ele>
        <time>2017-04-09T10:06:47Z</time>
      </trkpt>
      <trkpt lat="43.23549" lon="5.61409">
        <ele>339.2</ele>
        <time>2017-04-09T10:06:49Z</time>
      </trkpt>
      <trkpt lat="43.23552" lon="5.6141">
        <ele>339.6</ele>
        <time>2017-04-09T10:06:50Z</time>
      </trkpt>
      <trkpt lat="43.23563" lon="5.61411">
        <ele>340.2</ele>
        <time>2017-04-09T10:06:54Z</time>
      </trkpt>
      <trkpt lat="43.23574" lon="5.61411">
        <ele>340.8</ele>
        <time>2017-04-09T10:06:58Z</time>
      </trkpt>
      <trkpt lat="43.23582" lon="5.61409">
        <ele>341.6</ele>
        <time>2017-04-09T10:07:01Z</time>
      </trkpt>
      <trkpt lat="43.23585" lon="5.61407">
        <ele>342</ele>
        <time>2017-04-09T10:07:02Z</time>
      </trkpt>
      <trkpt lat="43.23598" lon="5.61402">
        <ele>343.2</ele>
        <time>2017-04-09T10:07:07Z</time>
      </trkpt>
      <trkpt lat="43.23607" lon="5.61395">
        <ele>344.4</ele>
        <time>2017-04-09T10:07:11Z</time>
      </trkpt>
      <trkpt lat="43.23614" lon="5.6139">
        <ele>344.8</ele>
        <time>2017-04-09T10:07:14Z</time>
      </trkpt>
      <trkpt lat="43.23619" lon="5.61386">
        <ele>345.4</ele>
        <time>2017-04-09T10:07:16Z</time>
      </trkpt>
      <trkpt lat="43.23623" lon="5.61382">
        <ele>346.6</ele>
        <time>2017-04-09T10:07:18Z</time>
      </trkpt>
      <trkpt lat="43.23631" lon="5.61373">
        <ele>346.8</ele>
        <time>2017-04-09T10:07:22Z</time>
      </trkpt>
      <trkpt lat="43.23637" lon="5.61367">
        <ele>347.8</ele>
        <time>2017-04-09T10:07:25Z</time>
      </trkpt>
      <trkpt lat="43.23646" lon="5.61355">
        <ele>349.2</ele>
        <time>2017-04-09T10:07:30Z</time>
      </trkpt>
      <trkpt lat="43.23649" lon="5.61351">
        <ele>349.6</ele>
        <time>2017-04-09T10:07:32Z</time>
      </trkpt>
      <trkpt lat="43.23652" lon="5.61344">
        <ele>350.6</ele>
        <time>2017-04-09T10:07:35Z</time>
      </trkpt>
      <trkpt lat="43.23655" lon="5.61339">
        <ele>351.6</ele>
        <time>2017-04-09T10:07:37Z</time>
      </trkpt>
      <trkpt lat="43.23658" lon="5.61334">
        <ele>352.2</ele>
        <time>2017-04-09T10:07:39Z</time>
      </trkpt>
      <trkpt lat="43.23663" lon="5.61322">
        <ele>353</ele>
        <time>2017-04-09T10:07:43Z</time>
      </trkpt>
      <trkpt lat="43.2367" lon="5.61308">
        <ele>354</ele>
        <time>2017-04-09T10:07:48Z</time>
      </trkpt>
      <trkpt lat="43.23675" lon="5.61296">
        <ele>355</ele>
        <time>2017-04-09T10:07:52Z</time>
      </trkpt>
      <trkpt lat="43.23677" lon="5.61294">
        <ele>355.2</ele>
        <time>2017-04-09T10:07:53Z</time>
      </trkpt>
      <trkpt lat="43.2368" lon="5.61284">
        <ele>356.2</ele>
        <time>2017-04-09T10:07:56Z</time>
      </trkpt>
      <trkpt lat="43.23682" lon="5.61278">
        <ele>356.6</ele>
        <time>2017-04-09T10:07:58Z</time>
      </trkpt>
      <trkpt lat="43.23684" lon="5.61267">
        <ele>357.4</ele>
        <time>2017-04-09T10:08:01Z</time>
      </trkpt>
      <trkpt lat="43.23686" lon="5.61252">
        <ele>358.6</ele>
        <time>2017-04-09T10:08:05Z</time>
      </trkpt>
      <trkpt lat="43.23685" lon="5.61245">
        <ele>359</ele>
        <time>2017-04-09T10:08:07Z</time>
      </trkpt>
      <trkpt lat="43.23687" lon="5.61235">
        <ele>359.6</ele>
        <time>2017-04-09T10:08:10Z</time>
      </trkpt>
      <trkpt lat="43.23689" lon="5.61224">
        <ele>360.2</ele>
        <time>2017-04-09T10:08:13Z</time>
      </trkpt>
      <trkpt lat="43.2369" lon="5.61209">
        <ele>360.6</ele>
        <time>2017-04-09T10:08:17Z</time>
      </trkpt>
      <trkpt lat="43.23692" lon="5.61198">
        <ele>361.4</ele>
        <time>2017-04-09T10:08:20Z</time>
      </trkpt>
      <trkpt lat="43.23692" lon="5.61195">
        <ele>361.8</ele>
        <time>2017-04-09T10:08:21Z</time>
      </trkpt>
      <trkpt lat="43.23693" lon="5.61181">
        <ele>362.8</ele>
        <time>2017-04-09T10:08:25Z</time>
      </trkpt>
      <trkpt lat="43.23695" lon="5.61175">
        <ele>364</ele>
        <time>2017-04-09T10:08:27Z</time>
      </trkpt>
      <trkpt lat="43.23702" lon="5.61149">
        <ele>364.8</ele>
        <time>2017-04-09T10:08:34Z</time>
      </trkpt>
      <trkpt lat="43.23704" lon="5.61146">
        <ele>365.2</ele>
        <time>2017-04-09T10:08:35Z</time>
      </trkpt>
      <trkpt lat="43.23708" lon="5.61133">
        <ele>366.4</ele>
        <time>2017-04-09T10:08:39Z</time>
      </trkpt>
      <trkpt lat="43.23713" lon="5.61121">
        <ele>367.2</ele>
        <time>2017-04-09T10:08:43Z</time>
      </trkpt>
      <trkpt lat="43.23715" lon="5.61118">
        <ele>367.6</ele>
        <time>2017-04-09T10:08:44Z</time>
      </trkpt>
      <trkpt lat="43.2372" lon="5.61109">
        <ele>368.6</ele>
        <time>2017-04-09T10:08:47Z</time>
      </trkpt>
      <trkpt lat="43.23728" lon="5.61094">
        <ele>369.8</ele>
        <time>2017-04-09T10:08:52Z</time>
      </trkpt>
      <trkpt lat="43.2373" lon="5.61091">
        <ele>370</ele>
        <time>2017-04-09T10:08:53Z</time>
      </trkpt>
      <trkpt lat="43.23735" lon="5.61084">
        <ele>371</ele>
        <time>2017-04-09T10:08:56Z</time>
      </trkpt>
      <trkpt lat="43.23743" lon="5.61073">
        <ele>371.4</ele>
        <time>2017-04-09T10:09:00Z</time>
      </trkpt>
      <trkpt lat="43.23749" lon="5.61065">
        <ele>372</ele>
        <time>2017-04-09T10:09:03Z</time>
      </trkpt>
      <trkpt lat="43.23762" lon="5.61051">
        <ele>372.8</ele>
        <time>2017-04-09T10:09:09Z</time>
      </trkpt>
      <trkpt lat="43.23768" lon="5.61047">
        <ele>373.2</ele>
        <time>2017-04-09T10:09:11Z</time>
      </trkpt>
      <trkpt lat="43.23779" lon="5.61036">
        <ele>374.4</ele>
        <time>2017-04-09T10:09:16Z</time>
      </trkpt>
      <trkpt lat="43.23782" lon="5.61034">
        <ele>374.6</ele>
        <time>2017-04-09T10:09:17Z</time>
      </trkpt>
      <trkpt lat="43.23798" lon="5.6103">
        <ele>376</ele>
        <time>2017-04-09T10:09:23Z</time>
      </trkpt>
      <trkpt lat="43.23803" lon="5.6103">
        <ele>376.8</ele>
        <time>2017-04-09T10:09:25Z</time>
      </trkpt>
      <trkpt lat="43.2381" lon="5.6103">
        <ele>377</ele>
        <time>2017-04-09T10:09:28Z</time>
      </trkpt>
      <trkpt lat="43.2382" lon="5.61028">
        <ele>377.4</ele>
        <time>2017-04-09T10:09:32Z</time>
      </trkpt>
      <trkpt lat="43.23822" lon="5.61027">
        <ele>378.2</ele>
        <time>2017-04-09T10:09:33Z</time>
      </trkpt>
      <trkpt lat="43.23829" lon="5.61024">
        <ele>379.8</ele>
        <time>2017-04-09T10:09:36Z</time>
      </trkpt>
      <trkpt lat="43.2384" lon="5.61019">
        <ele>380.8</ele>
        <time>2017-04-09T10:09:41Z</time>
      </trkpt>
      <trkpt lat="43.23847" lon="5.61015">
        <ele>382.2</ele>
        <time>2017-04-09T10:09:44Z</time>
      </trkpt>
      <trkpt lat="43.23852" lon="5.61008">
        <ele>383.6</ele>
        <time>2017-04-09T10:09:47Z</time>
      </trkpt>
      <trkpt lat="43.23854" lon="5.61006">
        <ele>383.4</ele>
        <time>2017-04-09T10:09:48Z</time>
      </trkpt>
      <trkpt lat="43.23866" lon="5.60991">
        <ele>384</ele>
        <time>2017-04-09T10:09:55Z</time>
      </trkpt>
      <trkpt lat="43.23871" lon="5.60985">
        <ele>385</ele>
        <time>2017-04-09T10:09:58Z</time>
      </trkpt>
      <trkpt lat="43.23875" lon="5.60978">
        <ele>386.2</ele>
        <time>2017-04-09T10:10:01Z</time>
      </trkpt>
      <trkpt lat="43.23883" lon="5.60968">
        <ele>387.4</ele>
        <time>2017-04-09T10:10:05Z</time>
      </trkpt>
      <trkpt lat="43.23886" lon="5.60963">
        <ele>387.6</ele>
        <time>2017-04-09T10:10:07Z</time>
      </trkpt>
      <trkpt lat="43.23891" lon="5.60955">
        <ele>388.4</ele>
        <time>2017-04-09T10:10:10Z</time>
      </trkpt>
      <trkpt lat="43.23897" lon="5.60947">
        <ele>389.4</ele>
        <time>2017-04-09T10:10:13Z</time>
      </trkpt>
      <trkpt lat="43.23902" lon="5.60939">
        <ele>390</ele>
        <time>2017-04-09T10:10:16Z</time>
      </trkpt>
      <trkpt lat="43.23905" lon="5.60933">
        <ele>390.6</ele>
        <time>2017-04-09T10:10:18Z</time>
      </trkpt>
      <trkpt lat="43.2391" lon="5.60924">
        <ele>391.8</ele>
        <time>2017-04-09T10:10:21Z</time>
      </trkpt>
      <trkpt lat="43.23916" lon="5.60913">
        <ele>392.8</ele>
        <time>2017-04-09T10:10:25Z</time>
      </trkpt>
      <trkpt lat="43.23922" lon="5.60901">
        <ele>394</ele>
        <time>2017-04-09T10:10:29Z</time>
      </trkpt>
      <trkpt lat="43.23927" lon="5.60892">
        <ele>394.8</ele>
        <time>2017-04-09T10:10:32Z</time>
      </trkpt>
      <trkpt lat="43.23928" lon="5.60889">
        <ele>395.2</ele>
        <time>2017-04-09T10:10:33Z</time>
      </trkpt>
      <trkpt lat="43.23935" lon="5.60874">
        <ele>396.2</ele>
        <time>2017-04-09T10:10:38Z</time>
      </trkpt>
      <trkpt lat="43.23938" lon="5.60868">
        <ele>396.6</ele>
        <time>2017-04-09T10:10:40Z</time>
      </trkpt>
      <trkpt lat="43.23941" lon="5.60861">
        <ele>397.2</ele>
        <time>2017-04-09T10:10:42Z</time>
      </trkpt>
      <trkpt lat="43.23943" lon="5.60847">
        <ele>397.4</ele>
        <time>2017-04-09T10:10:46Z</time>
      </trkpt>
      <trkpt lat="43.23939" lon="5.60827">
        <ele>397.4</ele>
        <time>2017-04-09T10:10:51Z</time>
      </trkpt>
      <trkpt lat="43.23928" lon="5.60811">
        <ele>397.4</ele>
        <time>2017-04-09T10:10:56Z</time>
      </trkpt>
      <trkpt lat="43.23922" lon="5.60801">
        <ele>398.4</ele>
        <time>2017-04-09T10:10:59Z</time>
      </trkpt>
      <trkpt lat="43.23918" lon="5.60796">
        <ele>397.4</ele>
        <time>2017-04-09T10:11:01Z</time>
      </trkpt>
      <trkpt lat="43.23913" lon="5.60789">
        <ele>399.4</ele>
        <time>2017-04-09T10:11:03Z</time>
      </trkpt>
      <trkpt lat="43.23895" lon="5.60761">
        <ele>399.6</ele>
        <time>2017-04-09T10:11:11Z</time>
      </trkpt>
      <trkpt lat="43.23891" lon="5.60755">
        <ele>400.4</ele>
        <time>2017-04-09T10:11:13Z</time>
      </trkpt>
      <trkpt lat="43.23875" lon="5.6073">
        <ele>399.8</ele>
        <time>2017-04-09T10:11:19Z</time>
      </trkpt>
      <trkpt lat="43.23873" lon="5.60725">
        <ele>399.8</ele>
        <time>2017-04-09T10:11:20Z</time>
      </trkpt>
      <trkpt lat="43.23868" lon="5.60715">
        <ele>399.8</ele>
        <time>2017-04-09T10:11:22Z</time>
      </trkpt>
      <trkpt lat="43.23862" lon="5.60698">
        <ele>399.8</ele>
        <time>2017-04-09T10:11:25Z</time>
      </trkpt>
      <trkpt lat="43.23853" lon="5.60675">
        <ele>399.8</ele>
        <time>2017-04-09T10:11:29Z</time>
      </trkpt>
      <trkpt lat="43.23846" lon="5.60665">
        <ele>400</ele>
        <time>2017-04-09T10:11:31Z</time>
      </trkpt>
      <trkpt lat="43.23827" lon="5.60643">
        <ele>401</ele>
        <time>2017-04-09T10:11:37Z</time>
      </trkpt>
      <trkpt lat="43.23825" lon="5.6064">
        <ele>401.6</ele>
        <time>2017-04-09T10:11:38Z</time>
      </trkpt>
      <trkpt lat="43.2382" lon="5.60635">
        <ele>403</ele>
        <time>2017-04-09T10:11:40Z</time>
      </trkpt>
      <trkpt lat="43.2381" lon="5.60622">
        <ele>403.8</ele>
        <time>2017-04-09T10:11:44Z</time>
      </trkpt>
      <trkpt lat="43.23808" lon="5.60613">
        <ele>404.2</ele>
        <time>2017-04-09T10:11:46Z</time>
      </trkpt>
      <trkpt lat="43.23807" lon="5.60604">
        <ele>405.2</ele>
        <time>2017-04-09T10:11:48Z</time>
      </trkpt>
      <trkpt lat="43.23802" lon="5.60587">
        <ele>404.8</ele>
        <time>2017-04-09T10:11:52Z</time>
      </trkpt>
      <trkpt lat="43.2379" lon="5.60568">
        <ele>405.6</ele>
        <time>2017-04-09T10:11:57Z</time>
      </trkpt>
      <trkpt lat="43.23784" lon="5.60561">
        <ele>406</ele>
        <time>2017-04-09T10:11:59Z</time>
      </trkpt>
      <trkpt lat="43.2376" lon="5.60535">
        <ele>406.2</ele>
        <time>2017-04-09T10:12:07Z</time>
      </trkpt>
      <trkpt lat="43.23754" lon="5.60527">
        <ele>406.2</ele>
        <time>2017-04-09T10:12:09Z</time>
      </trkpt>
      <trkpt lat="43.23748" lon="5.6051">
        <ele>405.8</ele>
        <time>2017-04-09T10:12:12Z</time>
      </trkpt>
      <trkpt lat="43.2374" lon="5.60492">
        <ele>404.2</ele>
        <time>2017-04-09T10:12:15Z</time>
      </trkpt>
      <trkpt lat="43.23733" lon="5.60478">
        <ele>403.2</ele>
        <time>2017-04-09T10:12:17Z</time>
      </trkpt>
      <trkpt lat="43.2373" lon="5.60471">
        <ele>402.2</ele>
        <time>2017-04-09T10:12:18Z</time>
      </trkpt>
      <trkpt lat="43.23728" lon="5.60464">
        <ele>401.4</ele>
        <time>2017-04-09T10:12:19Z</time>
      </trkpt>
      <trkpt lat="43.23726" lon="5.60456">
        <ele>400.6</ele>
        <time>2017-04-09T10:12:20Z</time>
      </trkpt>
      <trkpt lat="43.23724" lon="5.60449">
        <ele>399.8</ele>
        <time>2017-04-09T10:12:21Z</time>
      </trkpt>
      <trkpt lat="43.2372" lon="5.60429">
        <ele>400</ele>
        <time>2017-04-09T10:12:25Z</time>
      </trkpt>
      <trkpt lat="43.23717" lon="5.60408">
        <ele>399.4</ele>
        <time>2017-04-09T10:12:29Z</time>
      </trkpt>
      <trkpt lat="43.23714" lon="5.60393">
        <ele>399.2</ele>
        <time>2017-04-09T10:12:31Z</time>
      </trkpt>
      <trkpt lat="43.23713" lon="5.60382">
        <ele>399.4</ele>
        <time>2017-04-09T10:12:33Z</time>
      </trkpt>
      <trkpt lat="43.23709" lon="5.60359">
        <ele>399.6</ele>
        <time>2017-04-09T10:12:37Z</time>
      </trkpt>
      <trkpt lat="43.23709" lon="5.6035">
        <ele>400.6</ele>
        <time>2017-04-09T10:12:39Z</time>
      </trkpt>
      <trkpt lat="43.23707" lon="5.60341">
        <ele>401.8</ele>
        <time>2017-04-09T10:12:41Z</time>
      </trkpt>
      <trkpt lat="43.23704" lon="5.60332">
        <ele>402.6</ele>
        <time>2017-04-09T10:12:43Z</time>
      </trkpt>
      <trkpt lat="43.23703" lon="5.60328">
        <ele>403</ele>
        <time>2017-04-09T10:12:44Z</time>
      </trkpt>
      <trkpt lat="43.23694" lon="5.60308">
        <ele>404</ele>
        <time>2017-04-09T10:12:49Z</time>
      </trkpt>
      <trkpt lat="43.23692" lon="5.60305">
        <ele>404</ele>
        <time>2017-04-09T10:12:50Z</time>
      </trkpt>
      <trkpt lat="43.23684" lon="5.60297">
        <ele>405</ele>
        <time>2017-04-09T10:12:53Z</time>
      </trkpt>
      <trkpt lat="43.23678" lon="5.60293">
        <ele>405.4</ele>
        <time>2017-04-09T10:12:55Z</time>
      </trkpt>
      <trkpt lat="43.23669" lon="5.60283">
        <ele>406.2</ele>
        <time>2017-04-09T10:12:59Z</time>
      </trkpt>
      <trkpt lat="43.23668" lon="5.6028">
        <ele>406.4</ele>
        <time>2017-04-09T10:13:00Z</time>
      </trkpt>
      <trkpt lat="43.23665" lon="5.60274">
        <ele>406.6</ele>
        <time>2017-04-09T10:13:04Z</time>
      </trkpt>
      <trkpt lat="43.23666" lon="5.6027">
        <ele>407.4</ele>
        <time>2017-04-09T10:13:09Z</time>
      </trkpt>
      <trkpt lat="43.23669" lon="5.60265">
        <ele>407</ele>
        <time>2017-04-09T10:13:11Z</time>
      </trkpt>
      <trkpt lat="43.23673" lon="5.60257">
        <ele>406.4</ele>
        <time>2017-04-09T10:13:13Z</time>
      </trkpt>
      <trkpt lat="43.23675" lon="5.60252">
        <ele>406.2</ele>
        <time>2017-04-09T10:13:14Z</time>
      </trkpt>
      <trkpt lat="43.23678" lon="5.60247">
        <ele>405.8</ele>
        <time>2017-04-09T10:13:15Z</time>
      </trkpt>
      <trkpt lat="43.23682" lon="5.60242">
        <ele>405.2</ele>
        <time>2017-04-09T10:13:16Z</time>
      </trkpt>
      <trkpt lat="43.23689" lon="5.6023">
        <ele>404.2</ele>
        <time>2017-04-09T10:13:18Z</time>
      </trkpt>
      <trkpt lat="43.23696" lon="5.60216">
        <ele>402.6</ele>
        <time>2017-04-09T10:13:20Z</time>
      </trkpt>
      <trkpt lat="43.237" lon="5.60209">
        <ele>402</ele>
        <time>2017-04-09T10:13:21Z</time>
      </trkpt>
      <trkpt lat="43.23705" lon="5.60202">
        <ele>401.6</ele>
        <time>2017-04-09T10:13:22Z</time>
      </trkpt>
      <trkpt lat="43.23719" lon="5.60181">
        <ele>401.2</ele>
        <time>2017-04-09T10:13:25Z</time>
      </trkpt>
      <trkpt lat="43.23732" lon="5.60157">
        <ele>400.4</ele>
        <time>2017-04-09T10:13:28Z</time>
      </trkpt>
      <trkpt lat="43.23738" lon="5.60137">
        <ele>400</ele>
        <time>2017-04-09T10:13:30Z</time>
      </trkpt>
      <trkpt lat="43.2374" lon="5.60127">
        <ele>400</ele>
        <time>2017-04-09T10:13:31Z</time>
      </trkpt>
      <trkpt lat="43.23741" lon="5.60107">
        <ele>399.2</ele>
        <time>2017-04-09T10:13:33Z</time>
      </trkpt>
      <trkpt lat="43.23741" lon="5.60097">
        <ele>398.8</ele>
        <time>2017-04-09T10:13:34Z</time>
      </trkpt>
      <trkpt lat="43.2374" lon="5.60086">
        <ele>398.2</ele>
        <time>2017-04-09T10:13:35Z</time>
      </trkpt>
      <trkpt lat="43.23738" lon="5.60076">
        <ele>397.2</ele>
        <time>2017-04-09T10:13:36Z</time>
      </trkpt>
      <trkpt lat="43.23731" lon="5.60056">
        <ele>396</ele>
        <time>2017-04-09T10:13:38Z</time>
      </trkpt>
      <trkpt lat="43.2372" lon="5.60039">
        <ele>394.6</ele>
        <time>2017-04-09T10:13:40Z</time>
      </trkpt>
      <trkpt lat="43.23715" lon="5.60029">
        <ele>393.8</ele>
        <time>2017-04-09T10:13:41Z</time>
      </trkpt>
      <trkpt lat="43.23711" lon="5.60018">
        <ele>392.6</ele>
        <time>2017-04-09T10:13:42Z</time>
      </trkpt>
      <trkpt lat="43.23708" lon="5.60007">
        <ele>391</ele>
        <time>2017-04-09T10:13:43Z</time>
      </trkpt>
      <trkpt lat="43.23705" lon="5.59995">
        <ele>389.8</ele>
        <time>2017-04-09T10:13:44Z</time>
      </trkpt>
      <trkpt lat="43.23702" lon="5.59983">
        <ele>388.6</ele>
        <time>2017-04-09T10:13:45Z</time>
      </trkpt>
      <trkpt lat="43.23698" lon="5.59971">
        <ele>388.2</ele>
        <time>2017-04-09T10:13:46Z</time>
      </trkpt>
      <trkpt lat="43.23695" lon="5.59959">
        <ele>387.2</ele>
        <time>2017-04-09T10:13:47Z</time>
      </trkpt>
      <trkpt lat="43.23692" lon="5.59947">
        <ele>385.4</ele>
        <time>2017-04-09T10:13:48Z</time>
      </trkpt>
      <trkpt lat="43.2369" lon="5.59934">
        <ele>383.8</ele>
        <time>2017-04-09T10:13:49Z</time>
      </trkpt>
      <trkpt lat="43.23689" lon="5.59921">
        <ele>382.6</ele>
        <time>2017-04-09T10:13:50Z</time>
      </trkpt>
      <trkpt lat="43.23679" lon="5.59885">
        <ele>381.2</ele>
        <time>2017-04-09T10:13:53Z</time>
      </trkpt>
      <trkpt lat="43.23672" lon="5.59875">
        <ele>380.2</ele>
        <time>2017-04-09T10:13:54Z</time>
      </trkpt>
      <trkpt lat="43.23665" lon="5.59866">
        <ele>378.6</ele>
        <time>2017-04-09T10:13:55Z</time>
      </trkpt>
      <trkpt lat="43.23657" lon="5.59858">
        <ele>378.2</ele>
        <time>2017-04-09T10:13:56Z</time>
      </trkpt>
      <trkpt lat="43.23631" lon="5.59826">
        <ele>378.6</ele>
        <time>2017-04-09T10:14:00Z</time>
      </trkpt>
      <trkpt lat="43.23626" lon="5.59817">
        <ele>378.6</ele>
        <time>2017-04-09T10:14:01Z</time>
      </trkpt>
      <trkpt lat="43.23618" lon="5.59788">
        <ele>379.2</ele>
        <time>2017-04-09T10:14:04Z</time>
      </trkpt>
      <trkpt lat="43.23615" lon="5.59766">
        <ele>378.2</ele>
        <time>2017-04-09T10:14:06Z</time>
      </trkpt>
      <trkpt lat="43.23612" lon="5.59746">
        <ele>378.4</ele>
        <time>2017-04-09T10:14:08Z</time>
      </trkpt>
      <trkpt lat="43.23611" lon="5.59737">
        <ele>378.6</ele>
        <time>2017-04-09T10:14:09Z</time>
      </trkpt>
      <trkpt lat="43.23609" lon="5.59709">
        <ele>379</ele>
        <time>2017-04-09T10:14:12Z</time>
      </trkpt>
      <trkpt lat="43.23609" lon="5.59692">
        <ele>379.4</ele>
        <time>2017-04-09T10:14:14Z</time>
      </trkpt>
      <trkpt lat="43.23609" lon="5.59651">
        <ele>379.8</ele>
        <time>2017-04-09T10:14:19Z</time>
      </trkpt>
      <trkpt lat="43.2361" lon="5.59634">
        <ele>380.2</ele>
        <time>2017-04-09T10:14:21Z</time>
      </trkpt>
      <trkpt lat="43.2361" lon="5.59626">
        <ele>380.2</ele>
        <time>2017-04-09T10:14:22Z</time>
      </trkpt>
      <trkpt lat="43.23614" lon="5.59591">
        <ele>379.6</ele>
        <time>2017-04-09T10:14:26Z</time>
      </trkpt>
      <trkpt lat="43.23615" lon="5.59566">
        <ele>381</ele>
        <time>2017-04-09T10:14:29Z</time>
      </trkpt>
      <trkpt lat="43.23618" lon="5.5955">
        <ele>381.8</ele>
        <time>2017-04-09T10:14:31Z</time>
      </trkpt>
      <trkpt lat="43.23619" lon="5.59543">
        <ele>382.2</ele>
        <time>2017-04-09T10:14:32Z</time>
      </trkpt>
      <trkpt lat="43.23625" lon="5.59505">
        <ele>381.8</ele>
        <time>2017-04-09T10:14:38Z</time>
      </trkpt>
      <trkpt lat="43.23627" lon="5.59478">
        <ele>380.4</ele>
        <time>2017-04-09T10:14:41Z</time>
      </trkpt>
      <trkpt lat="43.23629" lon="5.59458">
        <ele>379.6</ele>
        <time>2017-04-09T10:14:43Z</time>
      </trkpt>
      <trkpt lat="43.23631" lon="5.59449">
        <ele>379.2</ele>
        <time>2017-04-09T10:14:44Z</time>
      </trkpt>
      <trkpt lat="43.23638" lon="5.59419">
        <ele>377.2</ele>
        <time>2017-04-09T10:14:47Z</time>
      </trkpt>
      <trkpt lat="43.23639" lon="5.59408">
        <ele>376</ele>
        <time>2017-04-09T10:14:48Z</time>
      </trkpt>
      <trkpt lat="43.23639" lon="5.59396">
        <ele>374.4</ele>
        <time>2017-04-09T10:14:49Z</time>
      </trkpt>
      <trkpt lat="43.23638" lon="5.59384">
        <ele>373</ele>
        <time>2017-04-09T10:14:50Z</time>
      </trkpt>
      <trkpt lat="43.23637" lon="5.59359">
        <ele>369.6</ele>
        <time>2017-04-09T10:14:52Z</time>
      </trkpt>
      <trkpt lat="43.23636" lon="5.59346">
        <ele>368.4</ele>
        <time>2017-04-09T10:14:53Z</time>
      </trkpt>
      <trkpt lat="43.23635" lon="5.59333">
        <ele>367.2</ele>
        <time>2017-04-09T10:14:54Z</time>
      </trkpt>
      <trkpt lat="43.23632" lon="5.59321">
        <ele>366.6</ele>
        <time>2017-04-09T10:14:55Z</time>
      </trkpt>
      <trkpt lat="43.23628" lon="5.59308">
        <ele>365</ele>
        <time>2017-04-09T10:14:56Z</time>
      </trkpt>
      <trkpt lat="43.2362" lon="5.59284">
        <ele>363</ele>
        <time>2017-04-09T10:14:58Z</time>
      </trkpt>
      <trkpt lat="43.23616" lon="5.59273">
        <ele>362.2</ele>
        <time>2017-04-09T10:14:59Z</time>
      </trkpt>
      <trkpt lat="43.2361" lon="5.59263">
        <ele>361</ele>
        <time>2017-04-09T10:15:00Z</time>
      </trkpt>
      <trkpt lat="43.23604" lon="5.59255">
        <ele>359.8</ele>
        <time>2017-04-09T10:15:01Z</time>
      </trkpt>
      <trkpt lat="43.23599" lon="5.59247">
        <ele>358.2</ele>
        <time>2017-04-09T10:15:02Z</time>
      </trkpt>
      <trkpt lat="43.23594" lon="5.59239">
        <ele>357</ele>
        <time>2017-04-09T10:15:03Z</time>
      </trkpt>
      <trkpt lat="43.2359" lon="5.5923">
        <ele>355.4</ele>
        <time>2017-04-09T10:15:04Z</time>
      </trkpt>
      <trkpt lat="43.23587" lon="5.59221">
        <ele>354.2</ele>
        <time>2017-04-09T10:15:05Z</time>
      </trkpt>
      <trkpt lat="43.23584" lon="5.5921">
        <ele>353.6</ele>
        <time>2017-04-09T10:15:06Z</time>
      </trkpt>
      <trkpt lat="43.2358" lon="5.59199">
        <ele>352.6</ele>
        <time>2017-04-09T10:15:07Z</time>
      </trkpt>
      <trkpt lat="43.23574" lon="5.59175">
        <ele>350.2</ele>
        <time>2017-04-09T10:15:09Z</time>
      </trkpt>
      <trkpt lat="43.2357" lon="5.59163">
        <ele>349.2</ele>
        <time>2017-04-09T10:15:10Z</time>
      </trkpt>
      <trkpt lat="43.23567" lon="5.59151">
        <ele>347.4</ele>
        <time>2017-04-09T10:15:11Z</time>
      </trkpt>
      <trkpt lat="43.23564" lon="5.59139">
        <ele>345.4</ele>
        <time>2017-04-09T10:15:12Z</time>
      </trkpt>
      <trkpt lat="43.23562" lon="5.59129">
        <ele>343.6</ele>
        <time>2017-04-09T10:15:13Z</time>
      </trkpt>
      <trkpt lat="43.23561" lon="5.59122">
        <ele>343.4</ele>
        <time>2017-04-09T10:15:14Z</time>
      </trkpt>
      <trkpt lat="43.23558" lon="5.59108">
        <ele>343.2</ele>
        <time>2017-04-09T10:15:17Z</time>
      </trkpt>
      <trkpt lat="43.23557" lon="5.59104">
        <ele>343.2</ele>
        <time>2017-04-09T10:15:19Z</time>
      </trkpt>
      <trkpt lat="43.23554" lon="5.591">
        <ele>343</ele>
        <time>2017-04-09T10:15:21Z</time>
      </trkpt>
      <trkpt lat="43.23552" lon="5.59098">
        <ele>342.4</ele>
        <time>2017-04-09T10:15:22Z</time>
      </trkpt>
      <trkpt lat="43.23548" lon="5.59094">
        <ele>341.4</ele>
        <time>2017-04-09T10:15:23Z</time>
      </trkpt>
      <trkpt lat="43.23544" lon="5.59089">
        <ele>340.2</ele>
        <time>2017-04-09T10:15:24Z</time>
      </trkpt>
      <trkpt lat="43.2354" lon="5.59082">
        <ele>339.2</ele>
        <time>2017-04-09T10:15:25Z</time>
      </trkpt>
      <trkpt lat="43.23533" lon="5.59069">
        <ele>337.4</ele>
        <time>2017-04-09T10:15:27Z</time>
      </trkpt>
      <trkpt lat="43.23529" lon="5.59065">
        <ele>337.6</ele>
        <time>2017-04-09T10:15:28Z</time>
      </trkpt>
      <trkpt lat="43.23523" lon="5.59057">
        <ele>338.8</ele>
        <time>2017-04-09T10:15:30Z</time>
      </trkpt>
      <trkpt lat="43.23521" lon="5.59053">
        <ele>339</ele>
        <time>2017-04-09T10:15:31Z</time>
      </trkpt>
      <trkpt lat="43.23517" lon="5.59047">
        <ele>339.6</ele>
        <time>2017-04-09T10:15:33Z</time>
      </trkpt>
      <trkpt lat="43.23514" lon="5.59046">
        <ele>340</ele>
        <time>2017-04-09T10:15:34Z</time>
      </trkpt>
      <trkpt lat="43.23512" lon="5.59045">
        <ele>340.2</ele>
        <time>2017-04-09T10:15:35Z</time>
      </trkpt>
    </trkseg>
  </trk>
</gpx>